ECMWFFLT2_sfc_thetae_000.txt.gz
Theta_e
302 302 306 304 302 295 298 296 296 296 297 297 292 297 293 290 287 286 290 298 301 303 304 311 313 315 315 320 323 326 326 326 324 325 326 326 327 326 325 325 325 325 322 322 325 326 325 327 326 328 329 328 327 327 328 326 327 325 325 331 330 331 331
303 303 303 303 301 301 296 294 295 298 300 296 292 287 284 283 284 285 292 294 295 295 293 306 309 312 314 317 320 324 324 323 322 324 325 326 326 326 325 325 325 324 323 324 325 325 326 327 327 327 329 328 326 326 326 326 328 326 327 327 330 331 331
305 302 303 302 302 302 297 296 300 296 294 293 291 288 284 285 284 282 282 291 296 295 298 301 306 310 312 314 317 319 320 321 322 324 324 325 325 324 323 323 323 322 322 323 324 325 325 326 329 328 329 327 326 326 327 325 326 325 326 329 330 332 331
305 301 299 296 299 302 300 299 297 299 293 287 289 291 287 286 284 283 284 290 291 300 301 304 307 310 313 314 314 317 320 321 322 323 324 323 323 322 322 323 322 322 323 324 324 324 325 325 327 328 328 327 327 326 329 330 329 327 327 328 329 329 328
300 299 299 297 297 295 297 295 293 296 296 296 294 293 291 288 282 280 282 283 288 295 303 307 309 311 314 315 315 317 320 321 322 324 324 324 323 322 322 323 322 322 323 324 324 324 325 327 329 329 327 327 327 326 325 328 327 326 326 327 327 328 329
295 293 297 301 298 299 298 296 294 295 291 293 289 289 290 291 287 280 283 285 288 294 306 311 312 312 315 317 318 318 319 321 321 323 323 324 322 322 322 322 322 322 323 323 323 324 325 326 326 328 328 327 326 326 325 325 325 325 326 327 327 328 328
295 298 301 303 300 299 297 298 295 295 293 292 286 286 288 289 292 292 287 287 290 298 305 310 313 313 315 317 318 318 319 320 321 322 323 322 323 322 322 322 321 321 322 323 323 324 324 326 327 327 328 327 327 326 326 325 324 325 326 327 327 328 328
296 299 301 304 303 301 301 299 296 296 296 294 293 289 289 291 290 288 287 287 289 296 304 310 313 313 314 315 317 318 319 320 321 321 319 319 320 321 321 321 321 321 321 321 322 324 324 325 326 327 327 327 326 326 326 325 324 325 326 327 328 328 327
289 291 296 298 299 302 296 296 298 297 296 295 294 293 293 293 289 291 286 285 289 296 307 309 311 314 314 315 315 317 318 319 320 319 318 318 320 320 319 319 319 319 320 320 322 324 325 326 326 326 326 326 326 326 325 325 326 325 325 327 328 328 327
286 286 287 288 291 297 299 300 299 299 298 294 296 294 293 287 288 290 287 285 288 294 300 307 309 311 313 314 314 316 318 319 319 317 317 318 318 319 319 318 318 319 320 322 322 324 325 325 326 326 326 326 326 326 325 326 326 325 324 326 327 328 327
291 294 292 295 300 296 298 300 299 299 296 297 295 291 288 290 285 289 286 291 295 297 300 305 307 309 312 313 312 313 314 316 318 317 317 318 318 319 318 318 318 319 319 321 322 323 324 324 325 326 326 326 326 325 326 326 325 325 325 325 325 325 324
298 295 294 298 305 298 297 298 299 297 296 296 295 294 293 291 290 287 288 288 295 297 299 302 306 309 311 314 314 313 314 316 317 317 318 323 318 318 317 317 317 319 320 321 321 322 322 323 325 325 325 326 326 326 326 326 325 325 326 326 325 324 323
297 295 296 301 302 301 298 298 297 297 296 296 297 294 296 295 294 294 292 290 294 297 300 303 306 310 312 313 315 315 316 317 317 316 317 318 317 317 317 317 318 319 319 321 321 321 322 324 324 324 324 324 323 324 324 325 325 325 326 325 325 324 323
296 298 298 299 297 297 298 297 296 296 296 296 297 297 296 297 297 298 299 294 297 300 301 303 305 309 312 312 312 313 314 315 317 317 317 317 317 317 317 318 318 319 320 321 321 322 323 323 323 324 324 324 324 325 325 326 325 325 324 324 324 323 322
297 296 300 298 297 298 298 297 296 295 294 294 295 296 297 300 297 298 298 296 297 302 304 305 305 310 310 310 311 312 314 315 317 317 317 317 317 317 318 318 318 319 320 321 321 322 323 323 323 324 325 325 325 324 324 324 323 324 323 323 323 322 323
293 296 298 297 297 298 297 297 296 296 297 298 296 296 299 297 297 296 297 296 295 301 302 307 307 308 309 310 310 311 313 315 317 317 317 318 317 317 317 318 319 319 320 320 320 322 323 323 323 323 323 324 323 323 323 323 323 323 322 322 322 323 323
289 293 297 297 295 297 295 296 297 298 297 298 299 301 303 303 301 298 295 295 299 301 307 307 307 307 309 309 310 311 312 315 317 317 317 318 318 318 318 318 320 319 320 320 321 322 323 323 323 324 325 323 323 323 323 323 323 322 322 322 322 322 323
288 293 296 297 295 288 288 296 298 299 299 298 299 299 300 300 301 299 299 301 302 302 305 307 306 306 308 311 312 314 314 314 315 317 318 318 319 318 318 319 320 320 320 321 322 323 323 324 325 326 327 324 325 325 325 324 322 321 322 322 322 322 323
291 295 296 293 288 289 298 300 301 302 303 301 301 300 300 301 301 302 302 303 303 305 308 308 308 309 310 312 313 313 315 317 317 317 317 317 318 317 317 318 320 320 320 321 322 322 323 324 325 325 324 325 326 324 323 322 322 322 321 322 322 322 322
293 292 289 286 285 292 299 300 303 306 303 302 301 299 299 300 301 303 303 305 305 306 307 308 308 309 310 311 314 314 315 317 317 316 316 316 317 317 318 319 320 319 319 321 322 323 326 326 326 324 325 325 325 324 323 322 323 322 323 322 322 322 321
291 289 289 292 293 297 299 302 303 302 300 298 298 295 295 300 302 304 304 304 305 307 308 308 309 310 311 309 311 314 315 316 316 318 318 317 317 319 320 320 321 321 321 322 323 326 325 325 325 325 325 326 325 325 323 323 323 323 322 321 322 322 324
289 287 288 289 290 289 291 297 303 303 304 302 301 301 297 302 304 306 307 306 307 307 308 309 309 310 308 306 308 312 314 315 316 317 318 318 319 320 320 320 321 321 321 323 325 326 324 324 325 326 326 326 325 324 324 323 322 322 321 322 322 323 322
291 290 288 285 287 290 296 301 304 304 303 304 303 301 293 297 302 306 308 307 307 307 308 308 309 308 303 303 307 312 314 315 315 315 315 316 317 318 319 319 319 320 321 322 324 326 324 323 324 326 326 325 324 324 325 324 322 321 322 322 322 322 322
291 289 287 287 289 293 299 299 300 301 303 306 302 291 288 296 301 306 308 308 308 308 309 309 309 307 302 304 308 310 314 317 316 316 315 314 316 317 318 320 321 322 323 324 324 323 323 324 325 325 325 324 326 325 325 323 322 322 324 325 326 325 324
293 295 288 286 290 297 301 302 302 304 306 304 294 288 296 301 302 307 309 309 309 309 310 309 308 309 309 309 311 311 315 316 316 316 316 316 318 318 318 320 328 321 322 323 323 324 324 325 325 325 325 324 325 328 327 323 323 324 325 325 324 324 323
290 290 289 290 292 295 301 301 304 305 302 293 291 298 301 304 306 308 310 309 309 310 311 309 310 311 310 316 315 314 316 318 317 316 316 316 317 319 324 327 327 320 321 321 322 323 324 325 325 324 325 325 326 325 325 324 325 326 324 323 323 323 322
289 288 289 287 286 296 303 304 305 307 299 298 300 302 306 308 309 309 309 310 309 311 310 310 309 310 312 313 314 315 316 316 317 317 316 316 317 317 318 322 330 323 320 321 321 322 323 322 323 325 325 326 326 326 323 324 325 324 323 323 322 322 322
290 287 287 288 294 296 301 306 302 303 304 304 303 310 309 310 309 310 309 309 311 312 312 310 310 311 311 312 312 314 315 316 317 318 317 317 318 318 319 321 324 329 321 321 322 322 320 320 321 324 325 325 326 325 323 325 323 323 323 322 322 321 323
294 291 292 297 298 301 304 303 303 303 305 308 309 311 311 310 308 309 311 311 312 312 312 311 311 311 311 313 312 314 315 314 313 315 317 317 317 317 318 318 325 329 322 320 320 321 319 320 320 323 323 324 326 325 324 325 324 323 323 322 321 321 321
298 300 301 303 304 303 304 305 308 308 309 310 310 310 310 311 309 310 311 311 312 311 312 312 311 311 311 311 312 312 313 313 312 316 315 315 316 316 317 319 325 327 322 320 319 320 319 319 320 324 322 322 324 324 322 324 325 322 322 322 321 322 321
296 294 300 301 303 304 304 305 309 310 312 312 311 310 311 310 309 310 311 312 312 311 311 312 311 310 310 311 311 313 313 312 311 311 313 314 314 315 316 318 326 321 319 318 318 320 321 319 320 322 322 322 324 324 324 324 323 322 322 323 323 323 321
296 296 298 302 303 303 305 305 306 310 311 311 311 312 311 311 311 312 311 310 310 309 308 308 308 308 309 311 311 311 311 312 311 311 311 312 312 312 314 319 325 319 319 318 319 320 320 319 319 321 321 322 323 324 324 324 323 321 323 324 322 320 320
295 298 300 301 303 303 304 307 308 308 309 310 310 310 310 310 310 310 311 312 308 308 307 309 312 312 311 309 310 310 310 310 310 310 311 310 311 312 315 320 322 318 318 319 319 319 320 319 319 319 320 321 322 322 323 323 320 321 323 326 327 323 319
292 294 300 302 300 298 301 305 307 308 309 309 308 309 310 310 310 310 310 310 311 309 310 311 311 311 311 311 309 312 312 311 310 309 310 311 312 313 315 320 318 318 321 318 318 318 319 319 317 318 319 320 319 321 321 320 320 321 324 324 321 319 318
293 298 300 303 304 302 304 306 308 308 309 309 309 309 309 310 311 311 311 310 310 311 311 312 311 311 312 311 308 310 309 310 310 310 311 312 312 313 316 316 314 313 314 322 318 319 319 318 317 318 318 318 318 319 319 319 319 320 318 321 321 317 319
300 302 303 303 303 305 306 306 308 309 309 310 309 309 310 310 310 311 312 312 311 310 312 313 313 312 311 310 309 310 309 309 309 310 310 310 312 315 315 314 314 316 316 318 318 319 318 317 317 316 317 318 318 319 319 319 319 319 318 319 317 316 316
302 306 305 304 304 305 307 308 310 310 312 313 310 309 309 309 309 311 311 310 312 313 312 312 313 312 311 310 308 308 310 312 312 311 317 319 317 316 315 316 317 318 318 318 317 317 317 317 317 318 317 317 317 319 320 320 320 320 318 318 318 317 317

ECMWFFLT2_sfc_thetae_003.txt.gz
Theta_e
308 309 309 308 310 302 304 303 303 305 309 309 302 302 299 300 299 298 308 306 310 316 317 317 320 322 324 324 324 326 331 335 337 336 338 339 340 341 341 340 340 340 339 339 339 341 339 340 342 342 344 345 344 343 342 343 342 342 342 342 343 344 345
307 310 309 308 306 310 305 302 305 307 309 311 309 298 300 299 295 299 301 300 305 306 300 318 320 321 323 324 324 326 331 336 335 335 337 338 339 341 342 342 341 340 339 338 338 340 339 340 341 344 347 347 347 345 343 341 342 340 341 341 343 343 343
308 308 310 309 309 308 308 308 310 305 301 301 306 306 294 294 294 297 299 300 303 307 306 315 317 321 324 325 327 328 330 333 334 336 337 339 340 341 340 339 339 338 337 337 338 338 338 342 345 347 346 346 344 344 345 343 341 341 341 343 344 346 344
308 309 310 304 305 308 308 309 306 306 308 311 304 303 305 302 296 295 297 301 299 314 311 316 315 322 327 325 326 327 330 332 335 336 336 337 338 339 339 338 337 337 337 336 336 337 337 339 342 343 342 341 338 341 343 342 342 343 343 343 344 343 345
306 305 308 307 307 304 304 306 304 306 305 304 305 303 302 300 299 297 297 295 302 312 319 320 322 326 327 327 327 329 331 333 335 337 337 337 338 339 338 338 337 337 336 335 335 338 339 340 342 341 339 339 338 339 340 342 341 341 340 342 342 341 343
304 306 306 307 308 309 307 306 305 306 302 302 299 298 300 300 300 294 296 296 306 314 322 326 326 328 325 329 330 331 332 334 336 336 337 338 338 339 338 337 336 336 337 336 336 337 338 337 336 337 339 340 339 338 337 338 337 337 337 340 341 341 343
305 306 309 308 308 306 306 308 306 308 309 310 304 295 300 300 300 301 302 298 303 318 319 322 325 324 324 327 330 331 332 334 335 336 337 339 340 339 336 336 336 336 337 337 336 337 337 338 340 342 342 339 340 340 339 339 338 338 336 338 341 342 341
307 307 308 308 306 308 307 306 305 306 305 306 305 307 310 303 301 299 298 298 303 316 317 318 320 323 323 326 329 331 331 332 334 335 336 337 338 337 335 336 335 337 337 338 337 337 337 339 340 341 342 342 341 340 338 338 337 339 339 338 338 340 340
304 305 308 308 308 308 308 307 306 306 306 306 306 307 309 304 303 305 300 295 302 315 317 321 322 323 323 323 325 329 330 331 332 334 335 336 337 335 334 334 335 336 335 335 336 337 338 340 340 342 342 342 341 342 339 337 337 338 339 340 339 339 340
294 294 295 297 303 305 307 306 304 306 306 304 307 303 305 298 303 302 300 301 309 316 319 317 320 323 325 326 326 326 329 332 330 331 333 334 334 334 334 335 335 333 335 336 337 338 339 339 340 342 343 342 342 342 342 341 339 340 339 339 338 338 337
301 304 308 309 311 307 305 305 305 303 305 307 311 311 304 300 298 299 299 308 309 311 312 316 318 324 325 327 327 325 326 327 331 333 332 332 332 333 333 334 334 335 336 335 336 338 338 339 341 342 342 341 341 342 343 341 341 341 341 341 340 338 337
312 310 307 305 312 306 307 306 304 304 305 306 307 304 304 308 301 297 301 301 304 308 313 317 319 322 326 328 329 328 327 327 328 330 332 330 331 332 333 334 334 333 334 336 336 337 337 338 341 341 341 341 342 342 342 342 341 339 339 341 340 339 339
304 302 305 308 309 309 308 309 306 304 305 305 305 309 309 309 304 302 307 302 308 311 312 315 318 322 324 325 329 329 329 328 329 329 328 328 328 330 331 332 333 334 335 335 336 336 337 339 339 340 340 340 341 342 343 343 340 340 342 341 340 339 339
304 304 305 306 307 305 306 307 307 307 305 305 307 308 306 307 310 312 312 309 308 311 313 314 317 323 318 322 326 327 326 325 327 327 327 327 328 329 330 332 332 335 336 336 336 337 338 338 339 339 339 340 340 341 341 340 341 341 342 340 339 339 338
304 304 306 305 306 307 305 304 304 304 304 304 304 305 305 307 307 307 308 309 309 315 317 316 319 322 319 319 319 321 325 326 326 326 327 328 328 329 331 332 332 334 336 336 336 336 337 338 339 340 340 341 342 340 340 340 341 342 341 339 339 338 338
303 304 305 305 305 305 305 306 305 304 302 304 304 305 310 308 308 312 308 306 308 316 320 317 318 317 318 318 321 323 324 325 327 326 327 328 328 329 330 332 332 334 334 334 335 335 337 339 340 340 340 341 341 340 341 341 340 340 340 338 337 338 339
304 302 304 304 305 305 302 304 307 308 307 310 308 308 310 311 313 309 305 306 313 319 323 317 321 321 321 321 321 323 324 326 327 327 328 329 329 330 331 332 333 333 332 333 335 336 339 339 339 340 341 340 340 341 343 343 342 339 337 336 338 338 339
303 302 304 305 303 297 299 313 312 312 308 307 306 307 309 312 312 310 313 313 319 318 316 316 317 320 323 323 323 324 324 325 326 328 329 330 330 331 331 333 333 333 334 334 336 337 340 340 339 341 341 341 342 344 344 344 340 339 338 338 338 337 339
302 304 306 301 296 299 313 313 310 309 310 311 311 315 316 315 315 314 312 313 317 320 319 319 321 322 323 322 322 322 323 325 327 328 328 330 330 330 331 333 333 334 335 336 337 337 338 338 340 340 340 341 343 342 342 339 339 339 338 338 337 337 337
304 303 302 294 297 308 312 311 311 314 310 310 309 309 312 315 313 316 314 316 319 322 321 320 320 320 322 322 323 324 325 325 327 328 328 330 330 330 332 333 334 334 335 335 335 337 338 339 338 338 339 339 340 340 340 338 339 338 338 337 337 338 337
302 304 302 302 308 306 310 308 310 309 311 310 309 304 311 321 318 315 315 319 321 322 320 320 320 321 320 321 324 324 323 325 327 329 330 330 331 332 334 334 335 337 338 337 337 340 339 339 339 338 338 339 340 340 338 337 338 337 336 336 336 338 337
306 303 300 301 301 298 305 317 322 317 316 318 321 313 308 322 320 318 319 320 322 322 320 320 321 321 320 319 323 324 322 324 326 328 330 331 332 334 334 336 336 337 337 337 339 338 339 339 339 340 341 339 340 339 338 338 337 336 336 335 337 338 338
302 302 299 299 298 303 313 314 317 315 313 313 318 309 304 318 323 319 318 319 322 322 321 321 320 320 313 314 321 327 325 324 325 326 328 329 330 333 333 331 333 333 335 336 337 338 339 338 340 341 341 339 338 338 338 337 337 336 336 337 338 338 339
304 304 300 299 304 304 312 316 314 310 313 317 312 299 300 320 320 319 319 319 323 322 323 322 321 320 313 315 322 324 326 326 326 328 328 329 330 331 334 334 336 338 338 336 335 336 336 338 341 341 340 338 337 337 337 337 337 336 338 339 341 341 340
302 301 302 302 304 311 313 311 312 310 314 312 302 295 305 323 324 321 321 322 326 325 323 322 320 325 327 327 325 323 326 325 325 327 329 331 331 331 330 331 334 335 336 336 336 337 338 340 341 340 338 337 337 338 339 339 337 338 340 342 342 341 340
302 303 300 301 305 311 314 312 310 313 310 301 300 312 327 326 323 322 322 323 324 325 325 323 326 328 323 323 323 325 325 326 328 326 327 327 327 330 332 334 335 334 333 335 336 337 340 340 339 338 338 337 337 338 339 338 339 340 342 342 341 340 339
300 302 299 297 292 308 309 312 311 312 307 309 321 325 318 318 325 323 321 323 324 324 325 325 326 323 320 322 323 326 329 330 330 329 327 329 329 328 329 331 334 332 333 333 334 335 336 335 336 337 337 337 337 338 337 339 341 343 342 340 339 338 338
300 300 296 296 306 314 313 314 310 313 315 320 318 318 317 324 321 323 325 324 325 325 327 322 323 324 325 325 326 327 328 329 330 330 330 331 332 331 330 330 333 333 334 335 335 336 334 335 336 337 337 336 337 337 337 341 343 340 339 338 338 336 336
303 303 307 315 317 314 315 315 316 319 320 320 320 319 318 322 323 324 323 325 324 324 326 325 326 323 327 329 327 329 328 328 329 330 331 330 330 330 330 328 332 335 333 334 334 335 335 335 337 338 337 336 338 337 341 343 339 339 339 338 336 336 336
312 313 312 313 313 315 315 316 316 315 316 318 319 318 319 321 323 324 323 325 324 323 326 323 323 328 327 326 324 326 327 329 329 329 329 329 329 329 328 330 330 332 334 334 332 332 334 334 335 337 338 338 338 340 341 340 340 339 337 336 336 334 335
303 300 314 312 313 314 315 316 318 318 317 318 320 321 320 322 322 321 323 325 324 323 324 327 326 326 325 327 327 327 328 328 329 328 330 331 331 331 331 331 331 331 332 330 331 331 332 333 332 333 336 338 340 341 339 338 337 337 336 336 334 334 333
304 305 313 313 313 317 317 315 316 317 320 320 321 323 325 326 324 324 324 324 323 324 324 328 328 325 327 328 328 329 331 332 331 330 329 329 328 328 327 327 329 331 331 331 331 332 332 334 333 333 334 336 336 338 335 333 334 336 335 334 332 331 329
308 313 314 312 313 316 317 319 320 319 319 321 322 320 321 322 321 321 322 324 323 323 324 326 329 326 327 329 330 324 328 332 331 329 328 328 329 328 329 330 331 332 333 331 332 332 332 334 332 332 333 332 331 333 333 335 336 335 333 331 331 329 328
304 304 307 309 303 304 309 311 313 318 322 319 321 320 319 321 322 321 319 319 321 322 324 327 327 327 327 327 330 321 327 329 331 330 329 328 327 327 327 329 332 332 331 332 331 331 331 330 330 330 331 330 329 328 331 332 333 333 332 329 327 325 324
302 308 311 314 311 310 312 314 316 320 321 319 319 321 322 322 324 323 321 318 319 321 322 326 329 330 332 329 328 325 323 329 329 328 328 328 328 327 328 328 329 329 329 329 328 328 329 329 329 329 329 329 332 331 333 332 331 331 329 327 325 323 323
307 309 310 312 311 308 311 314 316 316 320 318 317 319 322 322 321 322 325 323 323 323 324 322 328 331 330 328 327 329 327 326 327 327 326 326 327 327 327 328 328 327 327 327 327 327 329 330 330 331 330 331 333 331 333 332 331 331 329 326 325 323 322
305 310 311 313 313 314 316 318 317 317 319 319 317 318 319 320 320 324 325 326 328 324 324 324 324 328 329 326 328 331 329 325 324 325 326 325 324 325 325 325 327 327 327 327 328 329 330 331 332 332 331 332 333 330 332 331 330 329 329 326 323 321 323

ECMWFFLT2_sfc_thetae_006.txt.gz
Theta_e
314 315 316 315 316 305 310 311 306 309 315 311 308 307 306 305 304 301 311 308 311 316 315 318 322 326 326 329 329 329 331 334 339 341 343 344 345 344 344 347 349 352 353 352 350 350 347 345 346 346 348 347 346 346 346 346 346 345 345 344 344 344 344
313 316 316 316 314 316 312 306 310 315 316 315 309 302 305 302 299 302 307 304 306 307 304 320 322 318 320 327 331 329 331 334 336 340 343 345 345 344 346 349 349 350 351 350 348 347 346 345 346 348 349 348 347 347 345 345 345 344 345 345 344 345 345
313 315 315 312 314 316 312 311 319 307 303 302 309 306 299 299 299 301 305 306 305 308 308 311 315 315 317 323 333 331 330 331 335 339 343 347 347 344 344 345 347 348 346 346 345 343 343 346 349 350 350 346 346 347 345 345 345 345 346 345 345 346 344
313 313 312 306 309 313 314 315 313 315 313 309 306 307 308 306 299 299 301 304 303 311 311 313 313 316 317 320 332 331 331 333 335 339 342 345 346 343 343 345 347 347 344 342 340 340 341 345 348 348 346 343 342 345 346 346 345 347 347 345 346 344 346
312 307 310 308 310 308 309 309 309 310 311 313 312 312 307 304 302 301 300 299 306 314 316 314 316 317 319 320 325 333 333 335 337 341 343 345 346 344 344 345 345 345 342 339 339 341 343 346 349 346 342 341 340 342 344 343 345 345 345 345 345 345 344
307 309 314 314 314 313 311 310 309 310 308 305 302 303 309 307 303 297 300 299 308 316 322 319 317 320 320 323 326 328 334 335 339 341 344 346 346 346 344 343 343 342 343 340 340 342 344 345 344 342 341 341 339 341 341 341 340 341 342 344 345 345 344
308 312 314 317 316 314 314 313 311 313 312 311 306 299 304 307 307 308 307 302 305 321 323 322 323 326 325 329 329 329 332 337 339 342 344 347 348 347 344 343 343 343 344 342 342 344 345 346 345 344 343 340 341 342 341 341 340 339 337 340 344 346 343
312 314 315 316 314 314 312 313 314 312 310 311 309 308 311 306 307 303 304 302 306 322 331 330 330 334 331 333 334 336 333 335 339 342 344 347 348 349 346 346 344 345 346 346 346 347 348 347 346 344 344 345 343 342 340 339 339 341 341 340 340 344 343
307 309 312 311 313 313 311 310 313 313 313 313 313 314 314 306 307 307 303 299 305 323 329 327 329 327 323 324 328 334 335 338 339 343 345 347 349 350 348 347 346 348 347 347 348 348 349 348 347 347 348 346 344 344 341 336 337 340 342 343 342 341 340
296 297 297 301 305 308 311 312 312 313 312 312 310 306 309 301 307 309 304 304 310 319 326 323 325 326 327 327 328 330 336 338 340 342 345 348 349 350 350 348 347 347 348 350 350 349 349 348 347 349 349 348 346 345 344 340 337 339 340 342 341 340 337
303 305 309 313 313 311 307 309 312 312 312 313 313 312 308 303 309 306 305 309 310 313 316 317 319 320 319 319 323 329 333 337 340 345 346 347 349 350 348 348 348 348 350 350 350 350 349 347 348 349 349 347 345 346 346 342 341 341 343 343 343 340 338
312 313 316 315 314 310 311 310 310 312 311 312 311 309 306 316 309 301 307 312 311 311 315 317 319 320 321 323 326 326 334 337 338 341 344 345 347 349 348 348 347 347 349 350 350 349 348 347 349 349 348 346 346 348 345 342 342 341 341 344 343 341 339
315 313 313 313 313 312 312 311 311 310 311 312 310 312 316 317 307 304 312 317 313 314 316 317 320 321 321 320 323 327 330 335 341 341 342 342 343 345 346 346 347 347 347 349 350 349 348 348 348 348 346 346 348 349 343 344 341 341 344 344 343 341 339
312 312 311 313 311 311 311 311 312 312 311 311 311 312 314 315 315 315 317 317 316 316 317 319 320 322 321 324 329 329 329 328 336 339 340 340 341 342 343 345 346 347 348 349 349 350 349 348 348 347 347 348 348 346 342 342 344 342 344 345 344 341 339
310 311 312 312 312 311 309 311 312 312 312 311 312 312 313 315 314 314 314 315 314 318 322 324 323 323 325 329 326 324 328 329 331 335 336 339 340 341 343 345 345 347 348 349 350 349 349 348 349 346 347 348 348 340 339 339 342 343 343 344 343 342 340
308 310 310 310 312 311 310 311 311 311 310 309 311 311 315 313 313 315 314 312 311 316 320 323 324 323 325 323 325 327 330 331 331 333 335 337 339 340 342 343 345 346 346 348 348 348 348 348 347 346 347 347 346 340 340 339 339 341 343 343 341 342 341
307 310 311 310 309 309 307 308 310 312 312 313 314 315 317 316 314 312 309 309 316 319 321 318 318 318 320 323 328 329 331 334 333 333 335 337 339 340 341 342 343 345 345 347 348 347 347 345 345 346 348 345 344 342 342 342 342 340 342 340 341 341 340
308 309 310 311 307 300 302 319 316 315 312 312 311 311 315 317 317 313 315 315 318 318 317 317 318 319 322 326 331 336 331 329 335 335 335 337 339 340 341 342 343 345 346 347 347 347 346 346 343 343 344 343 343 343 342 343 341 343 342 340 340 339 340
307 311 311 304 299 301 320 318 319 319 316 315 314 314 315 315 317 316 315 316 318 319 319 319 321 326 330 332 332 332 333 333 332 334 335 337 339 340 341 342 343 345 347 348 346 344 345 341 341 343 344 346 345 342 341 339 341 344 342 340 339 339 339
312 308 306 297 300 315 315 317 318 320 318 319 316 313 316 316 316 319 317 317 318 319 319 320 328 331 331 331 334 335 336 335 334 332 334 337 338 339 340 342 343 346 346 345 345 346 343 342 342 342 345 342 338 339 339 338 341 341 340 339 338 339 339
304 305 304 304 313 311 313 312 315 315 314 314 312 308 312 318 318 318 318 318 319 318 319 323 329 331 329 328 329 338 336 336 335 334 336 335 338 340 342 343 344 349 348 347 347 349 347 346 344 339 341 340 339 338 337 337 339 337 336 337 338 338 338
310 305 303 304 303 301 307 316 318 320 319 320 319 314 310 319 319 319 318 318 319 319 319 327 330 331 326 316 318 333 332 333 334 335 336 336 339 340 341 345 347 349 348 347 350 346 346 346 343 343 342 340 340 339 337 337 335 334 334 336 337 337 337
309 306 301 301 299 304 312 315 319 320 322 318 319 311 306 316 319 320 318 317 319 319 319 332 330 322 313 314 322 329 334 332 333 334 335 336 338 341 343 344 346 346 347 349 347 348 348 345 344 346 346 341 340 339 338 336 334 333 334 336 336 336 337
307 306 303 301 306 305 315 318 316 317 320 320 315 302 303 316 319 318 319 318 318 320 323 331 327 319 311 314 326 331 334 335 334 338 338 339 340 342 345 346 348 349 350 349 349 348 346 346 348 348 347 342 340 338 336 336 334 333 335 337 337 337 337
306 305 304 306 308 317 318 316 316 317 319 316 305 298 308 319 320 320 321 319 320 322 330 329 320 325 327 334 333 335 334 334 335 338 339 340 342 343 342 342 345 347 348 348 346 347 347 349 347 348 347 344 340 340 340 338 335 335 338 339 338 338 340
305 307 304 303 308 318 318 317 316 318 313 304 303 321 325 323 320 324 322 320 322 323 329 329 324 326 334 333 333 334 334 336 337 337 338 339 339 341 342 344 344 346 345 346 347 345 349 350 349 350 350 348 345 344 341 339 339 338 340 340 341 344 343
308 310 306 301 296 317 316 316 316 317 309 310 322 325 326 324 326 323 325 325 324 327 329 332 332 332 328 329 332 334 336 337 336 337 337 339 339 339 341 342 343 342 343 343 343 344 343 345 349 350 349 347 346 345 343 344 342 340 342 344 348 345 342
304 305 301 300 312 315 318 317 312 318 318 328 329 326 321 325 324 325 326 326 329 333 334 333 333 332 333 336 338 338 337 337 338 339 340 341 340 340 337 338 341 339 342 344 343 344 340 343 347 348 346 345 345 344 344 346 346 346 349 349 346 341 339
309 307 310 317 320 320 320 320 320 321 323 324 324 325 323 322 322 327 327 328 330 337 335 335 334 331 333 335 337 338 337 338 338 340 340 339 339 338 337 334 340 340 339 342 343 344 347 348 348 347 346 344 344 342 345 347 349 349 348 344 339 337 336
318 317 320 317 319 319 320 320 322 320 321 322 323 323 324 326 326 327 326 328 328 335 336 332 332 330 334 337 337 337 338 339 341 341 341 341 341 341 341 342 341 341 342 343 343 344 346 346 345 344 345 343 342 343 345 347 350 346 342 339 336 335 335
307 303 317 317 316 318 319 319 321 321 321 322 323 326 327 328 329 329 331 331 332 334 335 333 332 331 334 336 338 340 340 339 339 339 339 340 340 339 338 342 341 339 338 336 337 337 338 343 343 339 341 342 343 343 345 347 343 341 339 337 335 335 333
309 311 316 316 316 319 320 319 318 317 318 321 324 324 327 331 331 331 332 334 333 334 333 333 332 333 333 333 336 336 337 337 338 339 339 340 339 340 343 343 339 338 338 336 336 338 339 342 343 341 338 339 342 343 342 337 337 339 336 334 332 334 334
312 314 315 316 317 318 320 319 320 318 316 318 322 325 325 327 328 329 331 332 334 333 332 334 335 331 332 334 332 328 332 334 334 335 336 340 342 341 341 340 342 343 343 342 341 338 340 339 338 339 339 337 338 342 338 336 340 334 333 333 332 333 332
307 309 312 314 309 310 316 318 317 316 318 321 323 325 325 326 328 330 330 331 334 332 334 335 332 332 334 332 331 326 329 332 336 338 340 340 340 340 341 343 343 342 341 340 339 338 338 337 337 337 338 338 336 334 336 338 337 334 335 330 329 328 329
307 312 314 317 316 315 317 316 316 317 320 321 320 322 324 325 329 330 331 330 331 332 333 332 331 333 333 332 330 328 329 337 340 339 338 337 336 337 338 339 338 338 338 337 338 337 336 336 336 335 335 335 336 334 337 337 335 336 335 331 328 327 328
312 314 315 315 315 311 314 315 317 317 323 324 319 320 321 324 326 329 331 332 331 331 332 333 333 332 332 333 330 328 333 333 336 336 337 337 336 335 334 334 336 335 334 335 335 335 335 335 334 335 333 335 335 334 336 335 335 336 334 331 328 327 327
310 314 314 315 314 314 315 317 320 321 325 320 318 318 319 322 324 327 328 331 333 331 330 329 334 332 331 328 329 334 334 335 336 336 336 335 335 331 330 331 333 334 334 333 334 334 334 334 334 333 334 335 336 332 336 335 335 335 334 332 329 327 328

ECMWFFLT2_sfc_thetae_009.txt.gz
Theta_e
316 316 317 317 317 305 311 311 307 310 317 313 309 309 309 310 306 304 311 310 311 316 316 320 320 320 321 323 323 323 326 328 330 335 339 339 338 340 343 344 343 343 352 354 355 355 351 347 345 345 348 351 349 348 348 350 348 347 345 343 343 343 343
317 319 318 317 317 317 314 307 312 317 319 316 312 303 307 303 300 303 308 306 308 308 305 318 318 318 319 321 322 322 326 332 333 333 337 340 340 341 344 347 348 351 352 351 354 353 350 345 345 347 351 352 349 348 349 349 347 346 345 344 344 344 343
316 318 317 315 317 318 314 313 319 310 305 304 309 307 300 300 300 302 305 307 307 309 311 314 315 315 317 320 322 321 322 327 330 334 336 340 341 340 343 345 347 345 348 353 355 353 349 346 348 350 352 350 348 349 350 348 347 347 346 345 345 346 345
315 316 314 307 310 316 318 318 314 317 313 310 306 307 307 307 300 301 302 306 304 313 312 315 315 318 317 318 320 320 321 323 328 333 336 339 341 341 343 345 344 346 350 348 353 350 346 345 346 350 349 346 344 346 348 348 348 348 348 346 347 345 346
315 308 311 309 311 309 310 310 311 312 311 315 312 311 307 306 304 302 302 300 306 314 317 316 318 318 320 319 321 322 322 323 325 330 336 340 343 343 344 344 347 351 352 352 351 349 344 345 347 348 346 343 342 344 345 345 347 346 346 346 346 345 346
309 310 315 314 314 314 311 310 309 311 309 307 303 304 312 309 305 298 300 300 308 314 319 320 318 320 320 321 321 323 324 324 326 329 336 341 343 346 346 347 346 346 351 350 349 346 344 344 343 343 344 342 341 343 343 343 343 343 342 345 346 347 346
310 313 316 317 316 317 316 314 311 313 313 312 307 298 305 309 308 309 308 304 307 317 320 321 321 321 320 323 322 322 323 325 326 330 333 342 347 347 346 346 343 343 349 349 346 344 344 345 345 344 344 341 341 343 343 342 341 342 341 345 348 349 347
314 316 317 317 317 316 314 315 316 314 310 311 309 309 311 308 309 305 305 303 307 318 323 322 321 325 322 325 324 323 322 324 327 330 336 343 349 350 347 344 341 343 342 345 345 343 344 345 346 344 343 343 342 341 340 340 339 340 340 339 343 347 347
308 310 314 313 316 315 312 312 314 315 314 313 312 313 315 308 308 308 304 300 306 319 328 325 323 322 320 321 323 325 323 325 326 332 340 345 352 352 347 344 345 346 344 343 344 344 347 347 346 346 344 343 342 341 339 337 338 339 340 341 339 343 346
298 299 300 302 306 309 311 313 313 315 313 313 311 306 310 302 309 311 306 305 311 321 323 323 321 321 322 323 323 323 326 327 326 329 338 348 352 352 352 347 343 340 345 344 345 346 347 347 347 347 347 344 342 342 340 338 338 340 341 342 341 341 341
305 307 312 314 314 312 307 310 311 312 314 314 313 312 308 304 305 305 306 311 311 316 318 318 319 321 320 320 323 323 324 326 329 335 340 346 352 353 352 350 347 348 348 344 345 347 347 348 348 346 345 344 343 344 341 338 338 338 341 342 344 342 340
312 313 313 314 314 310 311 309 310 311 312 313 311 309 306 315 309 302 308 312 310 311 316 318 320 320 322 323 324 323 324 326 327 332 341 348 350 354 353 351 349 348 347 347 348 348 349 350 348 347 348 347 345 345 340 338 337 337 339 343 344 343 341
313 313 313 314 313 313 312 312 311 311 312 312 310 312 312 315 308 306 313 317 314 314 315 317 319 321 322 321 323 324 325 326 329 332 336 343 346 351 352 352 352 350 349 349 351 352 352 351 349 349 349 349 349 347 341 341 338 339 343 344 345 344 342
311 312 312 313 312 312 312 312 312 312 311 311 312 312 313 313 314 314 317 318 315 317 318 319 320 324 324 324 325 325 324 323 327 327 332 338 341 346 351 353 353 353 353 354 354 353 352 350 348 348 349 349 347 343 339 338 341 341 344 345 346 344 340
310 312 313 312 312 312 310 312 313 313 313 312 313 313 313 315 314 313 314 314 313 319 323 322 323 329 327 325 322 321 324 323 323 326 330 335 339 342 349 354 353 354 354 356 356 353 351 349 350 349 348 348 344 339 336 337 341 343 344 346 345 344 341
308 311 311 311 312 312 310 310 311 312 311 310 312 311 314 313 312 314 314 312 312 319 322 321 323 325 325 322 322 323 325 325 325 328 332 333 338 341 344 350 354 354 354 356 355 353 351 350 350 349 349 346 342 340 336 337 340 342 344 344 344 345 343
307 310 311 310 310 309 306 308 310 312 313 314 314 314 316 315 315 313 310 311 318 320 321 320 321 321 321 321 321 324 327 331 331 331 332 332 334 339 345 348 352 353 353 355 356 355 352 350 350 349 345 340 339 339 339 341 343 344 342 340 343 344 344
307 310 310 311 306 299 301 314 316 315 312 313 311 311 313 317 318 315 316 317 320 320 319 319 319 319 320 323 326 329 329 328 330 332 336 336 337 340 344 347 350 353 354 354 356 356 355 354 350 349 343 339 339 341 339 343 343 344 343 341 343 343 343
305 309 310 305 299 301 314 317 318 318 317 315 314 315 315 316 320 320 318 318 319 320 321 321 322 324 324 325 327 329 329 331 334 333 335 339 339 341 345 347 349 352 354 355 355 355 354 352 351 342 339 337 339 340 341 341 342 343 341 342 342 343 342
309 307 307 299 301 313 316 319 319 321 319 318 316 313 314 316 318 320 318 319 319 321 321 322 323 324 324 326 329 330 332 332 335 334 334 337 340 341 345 348 349 351 352 353 353 354 354 352 345 342 339 339 340 340 341 341 343 343 342 342 342 342 339
305 306 306 306 316 312 316 315 317 317 314 315 313 308 312 318 319 319 319 320 320 321 321 321 322 324 324 322 322 324 328 336 336 336 337 336 341 344 347 348 349 353 354 354 352 354 352 347 343 342 341 340 341 340 339 339 342 340 340 341 341 340 339
310 306 304 306 306 301 310 318 319 320 319 319 320 316 313 320 320 321 321 321 321 321 320 321 322 326 319 315 317 327 330 335 338 337 339 339 343 345 346 350 350 352 353 354 354 351 348 345 343 342 341 341 342 341 340 339 339 339 338 340 341 340 338
309 307 303 302 300 304 313 318 320 321 322 320 322 314 309 318 319 320 321 320 321 320 320 321 323 320 313 313 321 328 333 331 334 335 338 338 342 346 347 347 349 351 354 355 352 350 346 342 342 344 344 341 339 339 340 338 338 337 339 340 339 339 340
308 307 304 303 308 306 314 315 318 321 323 321 317 304 304 317 319 320 322 321 320 321 322 322 321 318 313 314 326 326 330 333 334 340 342 342 344 347 348 350 353 355 354 353 350 346 342 343 345 346 342 340 340 339 338 338 337 337 339 340 341 341 341
306 305 305 308 310 319 316 318 320 321 322 318 307 300 309 319 321 322 322 320 321 323 322 322 318 322 323 326 329 330 331 333 338 342 345 346 346 347 346 350 352 353 352 351 347 345 345 347 346 345 342 341 340 342 343 342 340 339 341 342 342 342 342
304 306 303 304 310 318 319 322 320 322 316 306 305 321 327 323 322 325 323 322 323 323 323 322 323 324 325 331 329 329 329 335 342 341 344 345 346 347 349 351 351 351 349 351 347 342 345 349 348 344 344 344 343 344 343 342 344 343 343 343 342 342 341
308 308 304 302 296 319 321 319 318 320 311 316 323 328 325 324 325 323 324 324 325 325 324 325 325 324 323 325 328 328 329 340 341 341 343 345 345 345 349 349 351 348 347 346 341 341 343 344 343 342 343 344 345 345 343 345 346 346 344 342 342 342 341
305 304 301 300 314 319 321 319 314 317 322 325 328 324 322 325 324 324 324 326 327 328 328 327 327 327 327 330 334 334 337 340 342 343 345 345 345 346 344 344 347 345 345 345 344 344 339 340 341 342 344 344 346 347 346 349 349 348 346 343 343 341 340
313 310 314 319 324 321 322 324 323 325 325 327 326 327 324 323 323 329 325 325 327 328 328 330 332 329 328 331 335 335 337 339 340 342 343 344 344 341 338 341 345 345 346 346 343 342 341 342 343 345 348 349 349 349 351 351 350 348 346 344 342 343 345
322 322 322 321 322 323 321 322 324 323 323 325 326 326 326 329 330 331 329 331 330 331 333 329 331 330 330 330 333 334 336 337 341 342 342 341 339 337 338 340 343 340 340 343 344 342 344 349 352 352 352 351 348 349 351 350 350 349 348 347 346 345 344
310 306 319 319 319 319 321 321 322 322 321 323 325 327 328 328 329 330 332 333 334 334 335 333 333 332 330 330 334 336 338 339 342 341 341 341 341 342 344 345 343 341 339 337 339 342 345 348 347 345 348 347 348 348 347 346 347 349 349 346 345 343 340
314 312 318 320 319 323 323 321 320 319 321 323 325 326 329 329 329 330 332 333 332 333 331 334 335 334 331 330 335 336 338 341 342 342 343 343 343 345 347 344 343 341 339 337 336 336 337 343 346 344 341 340 342 344 340 341 341 345 345 343 340 339 337
316 319 320 320 320 321 321 321 321 320 321 323 324 324 325 326 327 329 332 333 332 332 332 335 336 334 333 334 337 333 330 337 339 341 342 345 346 345 341 340 342 341 340 341 344 343 344 342 341 340 341 336 333 337 339 339 341 340 339 339 338 337 335
310 314 316 319 312 311 317 319 319 321 322 324 323 323 322 323 325 327 328 330 332 332 333 333 334 334 336 336 336 333 334 336 339 342 342 341 340 341 343 345 347 347 346 345 343 342 340 341 341 341 341 340 337 330 331 337 339 339 338 335 333 330 332
309 318 318 320 320 320 320 319 320 322 324 325 322 321 321 321 323 324 326 327 331 332 334 335 334 335 335 334 333 331 332 336 339 340 340 340 340 340 342 342 342 342 342 341 341 340 340 340 339 337 339 337 337 333 337 337 337 337 336 335 331 328 329
317 317 316 318 318 315 317 319 321 322 326 324 321 321 322 322 322 323 325 328 329 332 334 332 335 334 335 334 330 330 336 336 338 338 337 338 337 338 339 340 340 339 338 339 339 338 338 338 336 337 334 336 335 333 336 337 337 337 336 334 331 329 330
314 317 317 317 317 318 318 320 321 322 325 323 321 321 322 322 322 324 324 328 330 330 331 330 331 334 333 333 332 332 339 337 336 337 338 337 335 334 335 335 337 337 337 337 337 337 337 336 335 335 333 335 336 334 337 335 336 335 336 335 333 330 331

ECMWFFLT2_sfc_thetae_012.txt.gz
Theta_e
315 315 318 317 317 304 310 311 306 309 316 313 307 309 309 308 305 303 312 309 312 317 316 318 320 320 320 321 320 321 326 332 336 334 334 334 334 335 336 336 337 343 346 347 349 350 353 354 349 346 349 350 350 351 350 351 352 352 351 351 348 347 349
316 318 318 317 317 316 313 306 310 315 317 315 311 302 306 303 299 302 306 304 306 307 304 319 318 317 318 319 320 320 326 329 333 335 336 335 335 336 340 340 341 342 345 348 349 354 353 353 347 347 350 351 352 351 350 351 351 350 349 349 347 347 348
315 318 316 314 317 318 313 311 318 308 303 302 310 307 298 298 299 301 305 307 307 308 310 313 314 315 316 319 324 321 321 323 326 330 337 337 341 340 341 341 342 341 344 344 349 353 354 354 348 348 351 351 351 351 351 350 349 349 349 345 348 348 349
315 315 313 305 309 315 317 317 313 316 312 308 306 306 307 306 299 300 302 304 303 316 311 314 313 319 321 320 321 318 320 323 325 329 330 341 342 341 340 340 343 342 345 345 346 347 350 352 347 347 348 347 346 348 351 351 350 349 349 348 349 348 347
314 307 310 307 310 308 309 309 309 311 310 314 311 310 306 303 302 301 301 299 306 313 318 316 318 321 321 320 321 326 322 324 324 327 331 335 339 340 339 341 344 346 344 347 349 351 354 352 348 345 345 346 345 346 347 347 348 346 345 347 347 348 348
308 310 314 313 313 313 311 309 308 310 308 306 303 302 310 308 304 299 301 300 308 315 321 321 319 321 319 321 323 325 323 321 334 335 330 337 339 345 342 340 342 344 347 350 350 348 347 345 345 343 346 346 344 344 345 345 344 342 342 345 348 349 350
309 313 316 317 316 315 314 313 310 312 311 311 306 297 303 308 307 309 308 303 305 319 323 322 321 321 320 322 320 323 323 327 326 330 325 338 348 345 339 341 341 344 350 351 350 348 347 343 343 344 346 345 342 343 344 344 343 343 343 343 347 350 349
314 316 317 317 316 315 312 313 314 311 308 309 308 308 312 306 307 304 304 303 307 318 330 324 322 327 321 326 322 322 322 325 331 327 329 343 349 347 343 343 346 349 348 350 351 347 346 345 344 343 345 345 343 343 343 341 342 343 343 344 344 348 349
307 309 312 312 315 314 310 310 312 312 312 312 312 312 320 307 306 307 304 298 305 319 329 326 324 319 319 320 321 325 326 329 325 333 337 339 353 354 350 352 352 349 349 350 351 350 346 344 346 348 347 344 342 344 342 339 341 342 343 346 345 346 347
297 297 299 301 305 308 310 311 312 313 311 311 309 305 311 301 311 315 305 305 310 320 326 320 320 321 322 322 322 322 329 333 326 328 333 344 348 350 352 354 353 348 351 356 356 351 347 345 345 348 347 345 343 345 344 342 340 342 341 341 346 346 344
303 306 314 313 313 310 306 309 310 310 313 313 312 315 310 303 305 305 308 313 314 315 316 318 319 321 319 320 324 326 324 329 343 338 341 343 347 346 345 353 351 351 351 350 350 350 348 348 348 347 346 345 343 346 345 342 342 343 343 342 346 343 343
312 311 315 312 312 309 310 309 309 311 311 312 310 308 306 320 311 301 311 315 312 313 316 318 321 323 325 324 326 324 327 329 327 335 343 343 344 346 349 352 351 349 347 349 349 349 348 349 348 347 348 346 345 346 343 342 342 341 341 344 343 344 344
310 311 311 312 311 312 311 311 311 310 311 310 308 311 311 319 308 304 317 319 315 316 315 317 320 324 327 320 322 326 329 326 333 343 337 334 333 342 341 350 352 353 348 346 346 347 348 348 348 348 347 347 349 345 345 344 340 345 344 343 344 344 346
310 310 311 312 311 311 312 311 311 311 311 310 310 310 311 311 317 317 320 320 316 314 316 317 322 325 325 324 330 332 328 324 338 334 333 324 331 337 344 347 349 349 348 349 347 347 347 348 349 347 347 347 346 344 342 340 346 346 346 345 344 345 344
309 311 312 312 311 310 309 311 311 311 311 311 311 311 310 313 312 312 312 321 319 319 329 324 327 336 331 330 323 323 333 329 324 326 325 330 330 335 343 350 351 353 355 353 350 348 348 349 350 348 348 348 345 337 337 337 344 342 345 346 346 346 346
306 309 309 311 311 310 309 309 310 311 310 309 310 310 312 311 313 317 314 314 314 318 325 323 327 328 327 326 328 330 330 325 328 331 331 332 337 341 343 347 350 351 350 352 350 349 349 350 351 349 349 347 342 338 338 339 338 341 340 345 345 347 347
304 309 310 310 310 309 305 306 308 311 312 312 313 313 315 315 315 316 309 310 318 326 324 322 324 321 325 325 323 326 330 331 330 332 333 333 335 341 345 350 351 351 347 348 350 350 350 351 351 351 350 344 343 342 341 341 339 336 339 344 346 347 347
305 308 309 310 306 299 301 313 315 314 311 312 310 310 312 316 321 318 317 318 324 321 320 319 321 321 324 328 332 333 331 329 335 331 332 331 331 334 336 339 344 349 349 348 352 355 355 352 351 351 345 341 341 342 342 341 339 340 343 344 347 347 347
304 308 309 303 298 300 314 315 316 316 315 314 312 313 314 315 322 319 316 318 320 321 321 322 322 325 328 328 331 324 325 337 334 335 331 337 338 340 342 345 342 351 356 357 354 356 346 342 345 347 341 339 341 341 342 339 338 343 345 345 346 346 346
308 305 304 296 298 312 318 318 317 318 316 315 315 313 315 316 316 320 316 319 321 326 323 322 327 331 325 325 333 335 329 327 328 325 327 329 332 336 341 348 354 360 357 359 356 357 352 348 349 343 340 339 339 340 338 335 337 344 346 345 344 345 345
302 304 303 303 318 313 314 312 314 316 315 315 313 308 313 321 320 318 318 320 321 321 322 322 323 326 322 323 324 325 323 330 328 327 329 328 333 338 347 344 350 362 362 360 358 361 357 351 344 342 339 339 337 335 334 334 339 343 345 344 343 344 344
311 303 301 302 302 300 306 317 319 320 320 319 319 316 312 324 319 319 321 323 324 322 321 322 325 326 319 316 317 324 325 326 332 332 332 331 335 343 344 354 352 360 360 359 362 358 356 348 343 342 340 336 335 334 332 333 339 341 342 342 343 344 344
308 305 301 301 300 305 315 316 318 320 321 320 319 313 307 321 321 321 320 319 321 322 320 324 326 319 313 314 320 326 329 328 331 331 332 331 337 344 346 348 350 352 358 359 356 360 355 347 345 343 340 339 336 335 334 335 339 340 342 343 343 344 345
306 305 302 300 306 305 314 317 317 319 322 321 317 302 305 320 320 320 322 319 319 323 328 323 322 318 313 314 324 325 328 328 329 337 338 343 343 346 351 350 355 358 360 360 357 355 353 351 347 344 340 340 339 338 338 339 339 342 343 344 346 347 347
305 304 304 306 309 319 317 317 319 320 321 317 306 299 311 322 325 325 326 321 322 326 325 323 316 323 325 326 331 328 327 327 331 335 335 340 342 347 345 348 352 355 356 357 354 354 354 353 345 342 341 339 339 342 344 342 342 343 346 348 349 349 349
305 305 303 304 309 319 319 321 320 321 315 305 308 318 327 330 325 326 321 321 323 324 324 322 324 325 325 325 325 326 325 326 335 332 331 333 334 340 348 353 353 353 351 355 353 350 354 350 344 341 341 342 343 346 346 345 347 352 355 353 351 350 349
307 307 305 303 296 320 320 317 318 322 316 322 323 326 324 322 327 323 325 323 326 326 326 326 330 327 324 324 324 324 329 334 336 336 338 341 339 339 350 351 352 350 351 350 347 346 343 343 348 349 348 349 350 350 349 352 353 356 357 354 354 351 349
304 304 301 300 316 319 322 323 314 320 325 328 329 326 322 325 324 325 324 330 329 326 326 325 326 327 328 332 332 333 330 340 338 338 342 343 341 344 350 350 350 349 352 350 344 341 341 345 347 346 347 352 351 352 352 349 351 352 355 352 351 351 350
312 309 312 319 322 321 323 324 321 324 326 327 328 326 324 325 325 329 327 328 329 329 331 331 330 326 328 330 330 329 330 334 338 337 341 341 342 342 341 345 350 349 348 350 341 341 341 341 340 346 347 345 339 346 350 356 352 351 348 349 350 350 350
321 322 320 321 322 321 321 322 323 322 323 325 326 326 325 327 327 328 328 329 331 331 333 329 331 330 331 331 329 330 330 333 343 343 343 343 341 337 338 349 351 347 345 341 341 340 348 353 354 355 352 348 345 349 350 351 352 350 350 347 342 341 344
311 305 324 317 318 320 320 319 321 323 323 323 324 326 327 326 327 327 329 331 330 329 332 331 332 330 330 330 332 337 339 341 345 341 342 343 339 337 334 347 346 342 340 339 338 338 346 349 348 347 347 347 351 352 350 346 348 349 349 350 347 347 347
312 313 319 320 319 321 322 321 319 319 322 323 323 325 327 328 328 328 328 330 329 329 326 331 333 330 330 332 337 335 335 343 342 342 340 340 341 345 344 346 343 335 337 334 338 342 346 345 347 342 341 341 344 344 341 339 337 346 348 347 346 346 345
317 320 322 320 320 319 319 320 321 322 323 323 322 323 323 323 323 324 326 327 328 329 328 332 332 330 332 336 337 334 334 335 334 334 336 338 339 339 341 344 347 341 338 335 341 340 343 345 344 342 339 333 330 338 339 338 341 340 343 343 344 340 338
310 312 317 320 312 313 317 317 319 322 325 324 322 322 322 322 322 323 322 324 327 329 332 332 331 336 338 337 338 332 334 335 334 335 335 335 334 336 338 342 345 347 347 346 344 342 341 342 341 341 338 338 332 326 333 337 340 341 341 340 337 335 333
309 315 318 321 321 320 318 318 320 322 325 324 321 321 321 322 322 322 322 322 323 326 329 332 332 336 337 337 334 333 335 337 338 336 337 334 334 340 344 346 346 345 345 344 342 341 341 341 339 338 338 335 336 334 340 340 337 339 337 337 335 331 331
313 316 316 318 317 314 318 319 321 321 326 322 320 321 322 322 322 321 321 323 323 324 327 329 332 334 335 336 334 335 336 337 339 339 338 339 340 342 342 342 342 341 341 341 340 339 340 340 338 339 333 334 337 331 338 336 336 339 334 340 336 332 331
311 316 315 315 315 316 318 319 320 321 325 322 320 320 320 320 320 321 321 324 323 321 323 325 329 332 332 334 335 334 337 338 338 338 339 339 339 338 338 337 339 340 340 340 340 341 339 339 337 336 337 336 336 332 337 334 335 333 334 334 331 330 334

ECMWFFLT2_sfc_thetae_015.txt.gz
Theta_e
311 311 313 312 311 298 303 305 298 301 307 307 303 308 305 305 302 297 309 309 312 309 311 314 318 319 320 321 322 323 323 325 325 326 328 328 330 332 332 334 335 335 336 339 342 347 350 351 351 350 349 349 348 347 345 344 343 343 342 343 343 341 340
310 313 313 312 313 312 306 300 302 310 311 309 307 298 302 297 292 296 301 298 300 301 298 310 312 315 316 315 319 323 323 324 324 325 326 327 329 332 333 334 337 337 338 341 344 349 350 351 351 349 348 348 347 347 345 344 342 342 342 343 341 339 340
311 313 312 310 312 315 306 305 312 303 296 297 303 304 294 293 292 294 298 302 302 302 303 308 307 310 310 314 321 323 322 324 326 326 326 327 330 333 333 333 336 337 338 342 344 348 350 351 351 348 348 347 346 346 346 344 342 343 342 343 338 339 339
310 311 309 300 304 310 313 312 308 311 305 301 299 300 300 297 293 296 294 301 295 313 306 309 309 311 312 313 319 322 323 324 326 326 328 328 329 332 332 333 334 338 339 343 345 347 349 350 349 347 347 346 345 345 346 344 344 344 342 340 338 337 338
309 302 305 303 303 301 303 304 302 305 305 309 306 306 300 296 293 291 294 294 301 306 315 311 313 313 314 315 317 319 321 323 327 327 328 329 329 333 332 332 333 337 339 342 344 347 349 351 349 346 346 345 345 345 345 344 343 342 340 338 337 337 338
302 303 309 309 309 307 304 301 300 301 301 301 295 296 305 304 296 290 293 295 301 312 322 321 315 316 316 315 316 316 316 319 324 327 330 331 333 335 333 333 333 335 339 340 343 346 349 350 346 344 345 344 344 344 344 345 344 342 340 337 338 337 338
303 307 310 313 312 311 309 306 303 306 304 306 303 290 296 307 304 305 302 297 300 316 316 318 317 317 317 317 316 315 316 321 324 326 331 332 333 335 334 334 334 335 337 340 342 346 348 347 345 343 343 343 343 343 344 345 343 341 340 338 340 339 338
308 310 312 312 313 311 308 308 308 307 303 304 302 302 304 299 303 298 299 299 301 314 322 315 316 316 316 320 317 318 323 321 321 323 332 332 331 334 335 335 337 337 338 338 341 346 347 347 343 342 342 342 342 342 344 344 342 340 339 340 341 340 339
299 304 308 307 310 310 305 304 305 307 308 308 306 307 314 303 302 302 297 294 300 315 319 314 315 314 314 314 316 318 317 317 321 321 326 337 337 334 334 333 334 336 340 340 341 344 346 346 344 341 341 341 341 341 343 343 342 341 339 341 340 340 340
291 292 292 293 298 302 304 307 307 308 306 306 303 298 304 293 303 304 299 301 305 313 317 314 314 316 316 317 316 318 324 317 321 324 327 338 335 333 332 339 335 335 340 343 344 343 344 344 343 341 341 342 341 341 341 342 341 340 340 341 340 340 340
296 298 302 310 310 305 302 304 306 306 308 306 305 302 299 295 296 299 297 305 306 309 313 312 312 313 316 318 316 321 323 326 325 324 332 336 335 336 332 341 338 338 341 343 344 344 344 343 341 340 341 342 340 340 340 341 341 340 340 340 340 340 339
306 313 312 309 309 305 306 305 305 307 306 306 304 302 300 305 300 290 301 306 306 306 310 311 312 312 315 317 317 321 319 321 324 329 333 342 335 336 335 343 340 339 341 343 344 343 343 342 341 339 340 342 340 339 339 338 340 339 341 340 340 340 339
310 309 306 307 308 308 308 307 307 306 306 305 303 309 314 311 302 297 305 308 309 308 311 312 316 316 316 315 321 322 325 327 326 328 327 335 335 336 337 342 341 340 341 343 344 344 343 342 340 340 340 340 339 339 339 337 339 338 340 340 340 340 339
306 306 306 307 306 307 307 306 307 306 305 305 305 305 306 310 309 310 311 311 312 312 313 315 316 320 320 319 320 321 319 321 322 326 328 333 333 335 335 339 342 342 343 344 345 345 343 341 340 340 341 340 339 339 338 337 338 336 340 340 340 340 338
308 307 307 307 306 305 303 305 307 308 307 306 306 306 307 308 306 312 313 312 311 314 316 315 320 322 321 320 318 319 324 325 326 324 324 324 327 335 336 338 340 341 343 344 345 345 343 342 341 341 341 341 339 339 338 337 336 335 337 337 337 337 336
302 306 305 306 306 305 304 304 306 307 307 305 306 305 311 306 305 306 314 308 308 313 318 323 320 319 319 318 319 321 322 322 325 324 327 329 332 333 335 339 341 340 341 342 343 344 344 343 343 341 341 340 339 337 334 335 335 337 336 335 336 337 337
301 306 306 306 305 304 301 302 305 306 307 308 308 309 312 312 310 310 306 307 312 318 321 319 318 318 320 322 323 323 323 323 325 326 327 329 329 329 336 339 342 342 341 341 343 343 344 344 344 343 342 339 333 332 333 333 336 337 340 338 338 337 337
301 304 305 305 300 294 295 312 313 311 307 307 305 307 311 313 318 315 312 313 317 316 316 317 317 314 314 315 318 321 320 320 323 325 325 326 328 330 331 340 344 345 344 343 345 345 343 344 345 343 338 332 332 333 334 335 335 335 337 338 337 336 337
301 305 306 298 292 294 310 316 313 313 312 311 309 309 315 313 317 316 315 315 315 317 317 318 319 319 320 323 321 321 323 325 327 328 328 330 330 329 330 334 339 345 345 344 344 344 344 344 341 334 332 333 332 332 332 332 333 334 336 336 336 338 339
306 301 300 291 293 309 316 312 313 317 313 314 313 310 315 315 315 319 315 316 315 315 315 317 318 317 322 327 329 325 325 325 325 324 324 326 329 329 329 328 332 340 345 344 344 343 345 343 336 334 333 333 331 330 331 331 333 333 334 335 338 340 339
299 300 298 297 311 308 313 313 315 310 309 311 309 303 309 319 318 318 318 316 317 319 320 320 318 317 317 313 316 323 322 326 324 323 323 324 326 327 330 334 341 349 348 345 347 343 343 340 334 333 334 333 330 330 331 332 332 333 333 334 339 338 337
308 301 298 297 297 295 302 313 320 318 316 317 320 310 307 322 319 317 321 317 317 320 319 316 316 321 313 309 313 321 323 328 329 328 333 331 338 340 342 346 352 352 355 352 347 342 341 338 334 333 332 332 331 330 331 330 328 330 330 333 338 338 338
304 302 296 296 295 300 310 317 318 316 318 317 319 310 301 316 319 318 321 320 321 319 318 317 319 315 309 310 317 320 327 326 326 325 330 337 339 343 344 346 348 350 352 353 347 343 341 335 333 332 332 330 328 328 330 329 329 328 328 332 338 338 339
302 302 298 296 303 303 314 314 314 316 317 321 312 298 298 314 319 322 317 318 320 317 318 321 318 311 308 311 316 321 326 326 332 334 336 337 341 342 344 348 351 351 351 351 347 343 338 333 333 332 330 327 326 326 327 327 327 326 328 333 339 339 339
302 302 300 303 307 319 317 315 315 315 318 315 301 293 305 316 319 321 319 318 320 322 317 318 314 318 317 320 322 323 323 325 331 336 337 339 340 340 341 346 352 350 349 349 344 340 336 333 332 331 329 325 324 327 328 327 327 328 331 335 339 339 339
302 303 300 300 306 318 319 316 321 321 315 300 300 315 322 325 320 320 321 321 322 323 323 321 320 321 323 326 325 326 326 330 332 331 333 334 335 335 347 348 347 348 347 350 343 340 336 333 332 330 328 326 326 327 328 329 330 332 334 339 340 339 339
306 303 302 296 291 309 320 319 319 323 315 312 322 327 323 323 321 322 323 324 323 324 321 323 324 323 325 326 326 328 330 331 331 335 331 333 332 332 342 344 348 348 345 340 339 338 336 333 331 330 329 328 328 330 329 331 335 337 340 342 341 341 340
303 301 297 295 311 318 325 323 314 319 323 325 328 326 319 323 323 323 323 325 327 327 325 325 325 325 325 325 327 328 329 336 337 338 338 339 340 340 342 343 338 337 334 334 334 337 337 335 333 332 332 332 332 332 333 340 342 344 343 343 342 341 340
309 306 310 317 322 323 320 322 320 322 323 325 326 323 320 319 320 324 322 323 325 328 327 327 326 324 326 326 327 325 325 325 335 335 337 337 336 337 337 337 336 336 336 334 334 334 336 336 336 336 336 336 340 340 343 344 344 344 344 344 343 343 341
319 319 320 324 319 316 317 319 320 320 321 323 324 323 321 323 323 325 324 325 324 327 328 326 325 325 328 326 327 331 334 337 338 337 335 334 334 335 335 335 336 338 338 336 334 332 335 337 338 340 339 341 341 342 346 346 344 344 343 340 337 337 339
306 298 317 317 317 320 317 318 319 319 320 320 322 321 321 321 321 323 325 325 326 325 327 330 330 329 330 329 331 332 334 335 336 337 335 334 335 334 333 335 338 335 334 334 333 333 335 342 342 343 344 344 344 344 344 345 345 344 343 340 339 338 338
309 308 316 320 317 318 318 318 317 317 318 320 321 322 321 320 321 322 323 324 324 326 326 329 328 331 334 334 329 331 331 331 332 332 333 331 331 333 334 333 334 332 332 330 330 330 333 341 342 344 344 343 344 343 343 343 342 343 342 342 341 339 337
315 318 318 318 321 316 317 319 320 321 320 319 320 320 319 320 320 320 321 323 323 324 324 326 330 333 333 333 333 331 331 330 331 331 333 331 331 331 332 333 333 330 329 329 330 331 332 338 339 338 339 341 342 339 337 336 337 339 340 341 341 340 339
306 309 315 320 312 311 311 315 319 321 322 322 320 320 319 319 319 318 318 319 322 325 325 324 330 332 333 335 333 331 332 331 330 331 331 331 331 331 333 336 336 335 333 330 331 332 332 335 335 330 326 327 332 334 335 336 336 339 340 339 337 334 332
304 315 319 321 316 316 317 319 321 322 322 321 319 318 318 317 319 318 318 318 319 320 321 324 329 333 333 333 334 334 333 332 332 332 333 331 331 331 333 334 334 334 333 333 329 327 328 330 330 330 329 331 332 335 336 336 337 336 335 332 330 330 328
310 313 313 314 314 311 317 320 320 323 321 320 317 317 317 316 317 318 317 323 319 318 320 322 324 330 333 332 333 333 333 334 332 333 334 333 334 336 338 336 333 331 330 328 327 326 326 328 330 331 330 331 331 331 331 332 333 332 334 332 329 329 325
306 315 315 318 319 319 319 317 317 318 320 319 317 317 319 317 318 320 318 319 321 320 317 317 319 326 330 332 333 332 333 334 335 336 336 335 338 337 338 336 334 332 331 331 330 329 330 332 332 331 329 332 331 332 332 332 331 331 331 330 328 328 330

ECMWFFLT2_sfc_thetae_018.txt.gz
Theta_e
306 307 308 307 307 296 300 301 296 300 304 303 298 302 301 302 295 293 299 302 301 306 307 307 314 318 318 320 320 321 321 323 323 324 326 329 332 333 333 333 333 334 336 338 340 341 344 346 347 348 350 351 351 351 350 349 347 345 342 341 338 336 336
306 309 309 308 309 304 300 297 298 304 307 306 298 292 295 292 289 291 297 296 295 299 295 306 312 314 316 318 319 320 320 322 322 323 325 328 331 333 333 333 333 334 336 338 340 342 344 346 347 348 350 351 352 351 350 348 346 342 341 340 339 337 336
306 309 307 306 307 308 304 300 305 303 294 298 297 296 290 290 290 289 292 297 296 297 297 304 309 312 314 317 318 319 318 321 323 323 324 328 330 331 331 331 331 332 334 338 339 341 345 347 348 349 351 351 351 350 350 348 345 343 341 341 340 339 337
306 307 304 298 301 306 309 306 304 305 301 297 294 295 293 293 288 291 289 296 292 303 299 306 309 313 315 316 317 318 319 320 323 324 324 326 328 329 330 330 331 332 334 337 339 341 344 346 348 349 350 351 350 350 348 347 346 343 341 339 340 338 337
305 299 301 300 300 300 300 301 299 302 305 302 302 302 298 294 288 288 288 290 292 300 308 308 311 313 315 317 317 318 320 321 322 324 325 326 328 329 329 330 331 332 333 336 338 341 345 348 349 350 350 350 350 349 347 346 343 341 340 339 339 338 337
298 298 304 306 304 305 300 301 298 299 297 297 294 291 299 298 294 286 288 288 293 303 315 312 310 312 316 317 318 318 319 321 322 324 325 326 328 329 329 330 332 332 333 334 337 340 344 347 348 349 349 349 348 347 347 345 344 341 340 339 338 337 337
299 303 307 308 308 307 305 305 301 302 298 298 292 288 293 299 298 300 295 293 294 305 313 311 312 315 318 319 320 319 320 322 323 324 326 326 328 329 330 330 332 334 333 334 336 339 342 345 347 348 348 348 347 346 346 344 343 341 341 339 338 336 336
303 306 307 308 308 307 303 303 302 301 299 299 297 294 295 295 297 295 293 292 294 304 315 313 314 316 317 318 320 320 321 323 323 324 324 325 326 329 331 331 332 334 335 335 336 338 342 344 346 346 347 347 346 346 345 344 342 342 341 339 337 335 334
295 298 301 302 306 306 301 298 301 303 302 301 301 304 302 297 297 297 294 289 295 308 315 313 313 313 313 314 317 320 320 321 323 324 325 326 327 329 330 330 331 333 334 335 337 339 341 344 346 346 345 345 344 344 344 343 342 342 341 339 337 335 334
287 288 289 290 294 297 300 302 302 304 303 301 300 297 298 291 297 298 293 294 294 304 312 310 311 311 311 314 316 319 320 321 323 324 326 326 328 330 329 329 329 330 333 335 337 339 342 344 345 345 344 344 343 343 343 343 342 340 340 339 338 334 334
292 295 294 300 303 299 299 300 302 302 303 302 300 297 295 295 290 297 293 302 301 305 308 307 308 309 310 311 313 315 317 319 322 324 326 327 328 330 330 330 330 330 331 333 336 339 342 344 345 345 344 343 342 342 342 343 342 340 338 337 336 334 334
301 301 302 307 306 301 302 301 301 302 302 301 300 297 295 297 297 293 293 301 303 305 307 307 308 309 309 312 313 315 316 318 320 323 327 335 328 329 330 330 329 329 330 332 334 337 341 343 345 345 344 343 342 341 341 342 341 339 337 336 336 336 336
303 304 306 306 305 304 303 303 303 302 301 300 300 299 300 302 298 295 299 303 304 306 308 309 310 310 310 312 314 316 318 318 318 321 327 329 328 328 328 330 330 330 331 332 334 336 340 343 343 343 342 341 341 341 341 342 341 338 337 335 334 335 336
303 304 307 304 304 303 304 304 303 303 302 301 301 302 305 303 301 301 304 304 305 308 309 310 311 312 313 312 316 316 316 317 319 321 326 328 328 328 328 330 332 331 331 334 336 336 338 341 343 342 341 340 340 339 338 338 338 338 337 336 335 335 335
302 305 306 304 302 304 303 303 303 304 303 303 302 302 307 308 306 305 306 305 305 309 312 312 313 314 314 314 315 315 316 318 321 323 325 327 328 329 329 331 334 334 333 334 337 338 338 340 342 342 340 340 338 337 335 336 337 338 336 335 335 335 335
299 303 303 303 301 301 302 303 305 304 303 305 304 305 307 304 304 306 306 304 304 310 312 316 314 313 313 313 313 314 315 318 321 321 323 327 328 329 330 330 333 335 336 335 337 339 340 340 341 341 339 336 334 333 335 336 336 335 336 336 336 336 336
297 302 302 302 302 300 298 300 302 303 305 305 307 309 313 310 307 305 303 304 309 311 316 314 312 312 311 313 315 316 317 318 319 320 322 324 326 327 329 331 333 335 337 338 339 341 341 342 341 341 337 335 334 334 334 335 336 336 336 337 336 337 337
297 303 303 304 297 292 295 305 309 310 305 305 305 306 310 311 312 308 309 308 312 314 315 314 313 312 314 316 317 319 319 318 318 319 320 322 324 326 329 331 333 335 337 339 341 343 343 343 343 340 337 335 336 336 335 335 335 335 335 337 337 337 336
297 302 301 295 291 293 306 315 313 311 310 310 309 310 312 311 311 311 311 313 314 315 314 312 312 314 316 316 316 316 317 317 317 317 318 319 323 325 329 332 335 336 338 338 339 340 341 340 338 336 334 335 334 335 334 333 333 334 335 337 337 335 334
299 296 294 289 291 304 312 312 311 317 312 310 309 307 310 313 311 312 310 311 313 313 312 313 314 314 318 318 320 317 317 318 318 319 320 321 322 322 325 328 335 337 339 339 339 339 342 338 336 335 334 334 333 333 334 333 333 334 335 336 335 333 332
294 295 293 293 300 303 303 306 307 306 305 306 304 300 306 313 312 312 310 311 311 312 313 314 316 316 314 312 315 317 320 322 322 322 321 323 324 324 325 325 326 337 341 342 340 340 338 337 334 333 332 333 332 331 331 331 333 333 333 333 333 333 333
298 294 291 293 290 291 297 304 311 311 312 310 309 305 303 311 313 316 312 311 313 313 314 314 313 314 311 307 310 314 319 322 322 322 323 322 324 324 326 334 339 340 340 342 342 339 336 334 333 332 331 331 330 329 330 332 332 331 332 331 332 333 334
298 293 288 291 291 295 302 309 311 310 312 312 310 304 298 309 312 316 316 313 311 311 311 311 311 309 304 306 310 315 318 321 323 326 328 333 335 335 341 346 346 344 341 342 340 336 334 332 331 331 330 330 329 329 329 330 331 330 330 330 332 333 334
298 295 292 292 296 299 308 311 312 313 313 311 305 294 294 308 314 315 315 313 313 313 313 310 309 308 306 306 311 317 322 327 331 333 336 337 338 339 341 344 346 345 342 340 335 333 333 332 331 329 329 329 328 327 328 329 329 329 329 330 331 334 335
299 299 295 297 300 313 315 314 315 317 314 307 295 289 301 310 315 317 316 316 315 314 314 314 312 314 311 314 317 321 327 331 332 334 336 336 337 339 344 347 349 342 340 338 336 334 332 331 329 329 328 327 326 326 327 327 327 328 329 330 330 333 336
297 297 295 295 301 312 316 317 318 318 310 296 300 308 312 316 318 319 319 318 319 318 317 315 314 317 321 323 323 326 327 325 328 331 332 334 339 345 346 347 346 344 341 338 336 332 331 330 329 328 327 326 324 325 326 326 327 329 329 329 330 331 333
302 300 296 293 289 304 318 317 315 317 305 305 313 317 319 321 319 319 319 320 320 320 319 320 320 321 322 323 323 325 326 325 325 327 327 327 333 339 341 341 343 343 338 337 334 331 331 331 329 328 328 327 326 327 326 328 328 328 329 329 329 331 335
297 296 292 293 303 311 317 316 309 314 318 318 323 318 316 320 320 319 319 320 322 322 320 319 320 321 321 323 324 326 327 329 332 333 333 334 336 335 336 336 336 339 336 335 333 332 331 330 329 328 327 327 327 326 326 330 328 329 329 329 330 332 335
302 301 305 311 314 315 316 316 314 315 319 321 321 319 318 318 319 321 320 321 323 325 323 323 324 323 324 326 329 330 333 333 332 333 332 331 331 331 332 334 334 335 335 333 332 330 329 329 329 328 327 327 327 325 327 330 329 329 330 330 331 333 335
315 316 315 320 316 315 315 316 317 316 317 318 318 317 315 317 319 320 321 323 323 324 326 324 325 326 327 328 330 332 333 332 331 330 329 329 329 330 331 331 333 333 333 332 330 329 328 329 329 329 328 329 329 329 331 332 331 331 331 331 332 334 335
299 299 312 314 314 315 316 316 318 319 319 317 317 315 315 315 317 317 319 320 321 322 326 327 327 328 330 328 329 330 330 330 328 328 327 327 327 327 328 331 334 331 331 330 329 330 328 330 330 331 331 332 333 334 335 335 335 335 335 336 337 336 333
301 305 312 316 318 319 318 316 316 316 318 319 318 316 316 316 318 318 318 320 319 320 320 327 328 328 329 328 328 329 328 327 328 326 325 325 326 326 327 330 331 329 329 328 329 329 328 329 331 333 334 334 335 335 336 340 340 339 338 337 335 332 330
313 315 317 318 314 313 314 316 316 316 317 317 316 317 317 316 317 318 320 318 317 317 317 322 328 326 328 328 328 329 326 326 327 327 326 325 325 325 327 327 330 328 328 329 328 328 328 329 330 330 334 339 341 340 338 336 334 331 330 332 329 331 331
303 305 309 316 307 306 311 315 316 317 317 315 314 313 313 314 314 314 317 318 318 315 315 318 325 327 328 328 326 328 326 326 326 327 327 326 325 326 326 328 328 329 329 329 328 326 325 326 327 329 330 332 334 335 335 335 336 335 336 336 336 333 331
304 310 314 316 313 313 315 316 320 322 319 314 312 312 312 313 317 316 314 314 313 313 314 315 317 321 326 328 326 327 328 326 326 327 327 326 326 327 330 328 327 327 328 329 327 324 324 326 327 328 329 331 332 335 335 336 337 337 337 336 336 334 333
309 315 316 315 312 308 312 315 315 315 317 314 314 315 315 314 317 318 317 316 313 311 312 312 313 313 316 322 327 326 327 327 327 328 329 327 327 329 331 329 329 328 327 327 325 324 323 324 325 326 328 330 331 332 332 333 336 335 334 332 328 327 328
307 312 315 314 312 311 311 311 311 312 317 316 313 314 317 317 319 320 313 312 312 311 310 311 313 314 316 318 326 327 328 330 331 331 331 331 330 331 332 330 329 327 327 328 327 325 323 323 322 324 326 327 328 330 331 333 334 333 331 330 325 323 325

ECMWFFLT2_sfc_thetae_021.txt.gz
Theta_e
303 303 305 305 306 294 297 299 296 298 302 300 297 298 298 295 292 291 294 297 296 300 305 306 311 311 313 317 318 319 319 321 322 323 325 327 329 332 334 335 336 337 339 341 343 343 344 345 346 347 348 350 350 350 350 350 350 350 349 349 346 344 339
303 305 306 306 306 304 298 295 298 301 305 300 297 290 291 290 287 289 293 294 293 296 294 304 311 310 313 316 317 319 319 320 321 323 324 326 328 331 334 336 337 337 338 340 342 343 344 344 346 347 348 350 351 351 350 350 349 348 348 348 345 341 336
302 305 304 303 304 307 305 303 303 301 293 295 294 292 289 287 288 287 291 294 295 295 296 301 305 309 311 314 316 317 317 319 321 322 323 325 328 331 332 334 335 336 337 338 340 342 344 344 346 347 348 350 350 351 351 351 350 350 348 348 345 341 338
301 303 301 297 300 303 307 302 300 303 299 293 293 295 292 293 286 287 287 291 292 299 296 303 305 309 312 313 313 316 318 320 321 322 323 324 327 329 331 333 334 335 336 338 339 341 342 343 344 346 347 349 349 350 351 350 351 350 347 345 343 338 337
301 295 298 299 300 296 297 298 296 299 302 298 297 299 293 292 286 285 284 287 290 295 303 305 306 308 313 314 315 316 318 320 321 322 323 324 326 329 331 332 333 334 335 336 338 340 342 343 344 345 346 347 349 350 350 350 349 348 346 345 342 339 337
295 295 299 301 301 302 299 300 297 297 294 296 292 291 296 294 292 285 285 288 290 298 310 309 308 309 314 316 317 317 318 319 321 322 323 324 326 328 331 332 333 333 334 335 337 339 340 341 342 343 345 347 348 348 349 349 349 348 346 343 341 339 336
298 300 303 304 304 304 303 303 300 300 296 295 291 287 291 294 295 296 291 290 293 301 309 311 312 311 314 317 317 317 318 319 321 322 324 325 326 328 330 331 332 332 333 334 336 337 338 339 341 343 344 346 347 348 349 349 348 347 346 344 341 338 337
300 303 304 304 303 302 300 300 300 299 296 297 295 293 293 294 292 294 292 291 289 300 310 312 311 311 313 315 317 317 318 319 321 322 323 323 325 327 329 331 331 332 332 332 333 335 337 338 340 342 344 345 347 348 348 348 347 346 345 342 339 338 337
293 298 299 299 300 302 297 296 298 300 300 300 298 297 296 295 293 295 292 287 291 302 313 310 311 313 315 315 317 318 317 318 320 322 323 324 325 326 326 328 329 329 329 329 332 334 336 338 340 342 344 345 346 347 348 348 347 346 343 340 338 338 337
287 286 288 290 291 295 295 297 298 300 301 299 299 296 295 291 294 296 292 290 294 300 307 311 311 312 313 315 317 319 319 319 320 321 323 324 324 325 326 327 326 327 329 330 331 333 335 337 339 342 343 345 346 347 347 348 347 344 340 338 338 338 337
292 293 292 296 300 296 296 297 299 299 300 302 300 295 291 292 289 295 292 298 299 302 306 306 308 310 313 314 314 317 318 319 321 321 322 323 324 324 325 327 327 328 329 329 330 331 334 336 338 341 343 344 345 346 346 347 346 342 338 337 337 337 336
299 298 298 299 301 298 298 298 299 299 299 299 300 297 295 294 295 290 291 296 303 303 305 307 308 309 311 313 315 316 317 319 320 321 322 329 323 324 325 326 326 326 328 330 330 331 332 334 337 340 343 345 345 345 345 345 342 338 337 336 336 336 335
299 301 301 301 301 300 299 300 300 299 299 297 299 299 299 299 298 295 295 297 303 304 307 308 310 310 312 313 315 317 319 319 319 320 320 322 322 323 324 325 326 326 327 329 330 331 332 334 336 338 342 343 344 343 343 341 338 336 337 336 335 335 334
299 299 300 301 300 301 301 299 299 300 299 298 300 300 300 302 299 301 301 301 304 307 309 310 312 313 314 314 315 315 316 318 319 320 321 322 323 323 324 325 326 326 327 328 330 332 332 334 335 338 340 342 342 342 341 339 336 336 336 336 335 333 331
297 298 300 300 300 300 299 300 300 300 298 299 299 299 301 305 302 302 301 302 303 308 310 313 311 308 309 311 313 315 317 317 319 320 321 322 323 323 324 326 326 327 327 328 328 330 332 334 336 338 341 341 341 341 339 337 335 335 336 336 335 331 330
294 298 299 299 299 299 299 299 300 298 298 298 298 298 302 301 300 300 300 300 301 307 309 310 308 309 310 311 312 313 314 316 319 319 321 322 322 323 324 326 326 326 327 327 327 329 331 334 336 338 340 339 339 339 338 337 336 336 336 336 333 331 330
292 297 299 299 298 298 295 296 299 300 302 303 303 307 308 304 303 300 298 299 307 306 312 308 308 308 308 310 311 313 312 314 317 318 319 321 322 324 324 325 327 327 329 329 328 330 331 333 335 339 340 338 338 339 338 338 336 335 335 335 332 330 333
291 297 298 298 295 291 291 301 302 304 303 304 304 304 306 308 307 301 303 304 308 308 309 309 307 308 308 310 313 316 315 315 315 316 319 321 323 324 325 326 328 328 330 334 335 335 335 336 337 340 340 339 339 340 339 337 335 334 334 331 332 333 333
292 296 298 295 291 291 305 310 309 308 309 309 308 308 308 308 309 309 309 308 310 310 311 310 310 311 312 314 315 316 317 317 317 318 319 320 323 324 325 325 327 329 331 332 333 334 336 338 338 338 338 338 336 336 336 336 335 333 332 332 332 333 333
294 293 293 290 291 302 309 310 311 316 311 309 309 306 307 309 309 309 307 308 309 311 312 312 314 314 314 314 315 316 317 318 318 318 319 320 322 322 323 325 326 328 330 331 333 334 338 339 338 337 337 337 336 335 335 335 333 333 332 332 331 332 332
291 291 291 295 302 304 305 308 310 308 307 307 306 300 304 309 310 310 307 307 309 309 310 312 312 314 314 312 312 314 316 317 317 320 319 319 321 321 322 324 325 328 330 332 334 334 337 338 337 336 335 336 335 333 333 333 333 332 332 331 331 332 332
295 291 291 295 292 292 299 307 311 314 312 310 311 307 303 309 312 313 310 308 309 310 310 310 310 313 310 306 309 313 315 319 319 320 320 320 320 320 321 323 325 327 332 335 336 337 337 336 336 335 334 334 333 332 332 332 332 331 331 331 332 332 332
296 292 290 290 291 296 304 307 311 314 313 310 310 305 300 308 313 315 314 311 310 311 310 310 312 309 305 304 309 310 314 317 320 319 319 319 321 323 326 326 329 331 333 335 336 334 332 331 329 332 333 332 332 330 331 331 331 331 331 331 332 332 331
296 291 289 292 297 301 308 310 313 315 315 312 306 296 295 307 315 316 314 314 311 310 310 309 308 307 305 305 308 313 319 321 328 321 323 328 332 334 337 338 339 337 339 337 332 332 331 330 329 331 331 331 331 330 330 332 331 331 332 333 334 333 332
298 297 293 295 303 309 312 311 314 315 313 304 297 292 299 312 315 316 314 313 312 312 311 311 309 310 308 310 314 322 327 329 329 332 333 333 337 340 341 341 343 338 335 334 333 332 331 329 329 330 331 330 330 330 331 330 330 331 332 334 333 332 331
295 294 291 293 295 306 312 314 314 315 306 295 296 305 309 314 314 317 317 316 316 316 316 316 315 316 320 324 324 325 324 324 325 328 334 339 340 342 341 342 338 336 333 331 330 329 328 329 329 330 330 330 329 329 329 329 329 330 330 331 331 331 331
297 294 292 291 291 302 312 313 313 314 302 301 307 314 316 318 315 317 318 317 317 318 317 318 318 321 322 323 324 325 327 326 326 327 329 331 334 336 336 337 338 337 333 330 328 328 328 329 328 328 329 329 328 327 326 326 329 329 329 330 330 330 331
294 292 289 289 298 305 314 312 307 311 313 315 316 315 314 316 317 317 318 319 320 320 318 318 320 321 322 323 325 326 328 328 328 328 328 329 331 332 335 336 336 336 332 330 328 328 328 327 327 327 328 328 327 325 324 327 328 329 328 328 328 329 330
299 298 299 305 309 312 313 315 314 314 316 317 317 316 314 314 314 316 316 317 320 323 323 324 324 323 325 326 329 328 329 330 330 329 327 327 328 329 329 331 333 333 331 329 328 327 326 326 325 326 326 327 328 324 324 328 328 327 327 328 327 327 328
311 311 310 315 313 312 313 314 315 314 314 314 315 313 312 313 314 315 314 315 318 322 325 323 324 325 325 325 327 329 330 329 327 326 325 325 325 328 329 329 331 330 331 330 328 327 326 327 326 328 326 327 328 324 326 329 327 327 327 327 327 326 327
300 298 309 311 311 314 314 314 315 315 314 314 314 314 313 313 314 315 315 315 315 317 322 325 323 324 324 324 325 327 328 328 326 325 325 325 326 326 327 330 331 329 329 328 327 327 326 327 327 327 326 327 327 328 328 328 328 327 327 327 328 327 327
300 304 310 315 317 315 317 314 312 312 314 314 315 315 316 316 317 316 315 315 314 315 314 318 321 323 327 327 325 325 326 327 327 326 325 325 324 324 326 330 330 329 329 328 328 327 327 327 327 328 327 327 329 331 333 331 329 328 329 328 328 328 330
309 312 313 315 314 315 315 316 314 315 313 313 313 314 315 317 316 317 317 318 316 316 316 317 316 314 315 325 326 327 326 327 327 326 326 324 324 326 328 329 330 329 328 329 328 327 327 327 327 328 328 330 333 332 333 333 332 331 332 334 331 330 329
304 303 307 311 305 305 312 314 314 315 314 314 314 313 313 313 313 313 312 313 314 314 314 314 313 315 314 315 320 325 327 326 327 326 326 325 324 324 324 326 326 326 327 327 327 326 325 326 328 328 330 332 334 334 333 332 332 332 332 331 330 328 327
303 308 313 312 312 311 311 311 312 316 312 312 311 311 312 312 312 311 310 309 309 310 311 312 312 311 312 313 319 323 326 326 325 327 326 325 325 324 325 324 323 324 325 327 325 324 324 326 327 328 330 332 332 333 332 331 331 330 328 327 328 328 328
311 313 312 312 308 306 308 310 312 312 313 312 312 312 312 311 310 311 310 310 309 309 310 311 312 312 313 313 315 318 322 325 325 324 324 324 324 325 326 325 325 324 324 324 324 324 323 325 327 327 329 330 331 332 331 331 331 330 329 329 328 328 328
311 311 309 309 308 308 309 310 311 312 315 314 313 314 312 310 311 311 310 310 310 310 310 311 312 314 314 315 317 319 322 325 326 327 327 328 326 326 327 325 324 326 326 325 323 323 323 324 325 327 328 329 330 331 329 330 331 331 330 330 330 330 330

ECMWFFLT2_sfc_thetae_024.txt.gz
Theta_e
299 299 302 302 303 294 295 297 294 296 299 299 295 298 296 293 290 290 294 296 296 300 306 308 310 311 312 314 316 317 317 318 320 321 323 325 327 329 331 332 333 335 338 340 341 343 344 344 345 347 348 349 350 350 350 350 350 351 350 351 351 350 350
300 300 303 303 304 300 295 293 296 299 301 299 297 290 288 287 287 288 292 295 294 297 295 304 307 308 310 310 313 316 317 317 318 320 322 325 327 329 331 333 335 336 338 339 341 343 344 345 345 346 348 350 350 351 350 350 350 349 350 350 350 350 349
299 301 301 300 301 302 303 296 300 300 293 294 291 292 287 286 286 285 289 293 293 296 298 300 304 306 308 309 311 313 314 316 318 320 321 324 327 328 330 332 333 335 337 339 340 342 344 345 347 347 348 350 350 351 351 351 350 351 351 351 351 350 349
298 299 298 294 297 301 300 301 299 301 298 292 292 294 291 293 285 286 286 290 292 297 299 303 305 307 309 310 310 311 314 316 318 319 321 322 325 327 329 332 333 335 337 339 340 342 343 344 345 347 348 349 349 350 351 351 351 351 351 350 351 349 348
298 293 295 297 298 293 295 297 294 298 301 297 296 296 292 292 287 286 285 287 289 295 301 304 307 307 309 310 311 313 314 316 318 320 321 322 324 326 328 331 333 335 336 338 340 342 344 345 346 347 347 348 349 350 350 350 350 350 350 350 350 349 347
293 293 296 299 298 299 296 297 295 296 293 294 292 291 294 291 292 284 285 289 289 299 306 307 307 308 310 312 313 313 315 316 318 320 321 323 324 326 328 330 333 334 336 337 339 342 343 343 344 345 346 347 348 349 350 350 350 350 349 349 349 348 345
296 297 300 300 300 301 300 301 298 299 297 294 292 287 290 292 293 293 290 289 293 300 305 308 309 307 309 312 314 314 315 316 317 319 321 323 325 326 328 329 332 334 336 337 338 340 341 342 343 344 345 346 347 348 349 350 350 350 350 350 349 347 343
297 300 300 301 300 300 299 298 298 297 297 297 296 294 292 294 291 293 292 290 288 296 307 309 309 309 309 311 314 315 316 316 318 319 320 322 323 325 328 330 331 333 335 336 337 338 339 340 342 342 344 345 346 348 349 349 349 350 350 350 348 345 342
292 295 297 297 298 299 295 295 296 297 297 298 296 295 294 295 292 294 291 287 290 299 309 308 310 310 311 311 314 316 315 316 318 319 321 322 324 325 326 328 330 331 332 333 335 337 338 339 341 342 343 344 345 346 348 348 349 350 350 350 346 343 341
285 285 287 289 293 293 293 295 296 297 298 296 297 294 294 290 292 294 290 288 292 298 302 306 309 309 310 311 313 316 316 317 318 319 321 322 323 323 325 326 328 329 331 333 334 335 337 338 339 340 342 343 344 345 347 348 349 349 349 348 345 342 339
291 292 291 294 298 293 295 294 297 296 297 299 299 294 291 292 288 293 289 295 297 300 304 305 306 309 310 311 312 315 316 316 318 320 321 322 322 323 323 326 328 329 329 330 332 334 335 337 338 339 340 342 343 344 345 347 348 349 348 345 344 342 339
298 298 297 297 299 296 295 296 296 297 297 297 297 295 295 294 293 289 291 293 300 300 303 306 306 307 309 311 313 315 316 317 318 319 321 329 322 323 323 324 325 327 328 329 330 332 333 335 337 338 340 341 342 343 344 346 347 347 345 343 342 341 340
299 300 299 299 298 297 296 296 297 296 296 296 296 297 297 297 297 295 296 295 299 302 304 307 308 310 311 312 314 316 318 319 318 319 320 321 321 321 322 323 325 326 327 328 329 330 332 334 335 337 338 340 342 343 345 346 347 346 344 342 341 340 339
298 298 298 298 298 298 298 297 296 296 296 295 297 298 299 299 299 300 300 298 301 304 306 307 309 311 313 314 315 316 317 317 318 318 319 320 321 321 321 322 324 325 327 328 329 329 330 331 333 335 337 339 341 343 344 345 346 345 342 341 340 340 338
295 297 298 297 296 297 297 298 298 297 296 295 297 298 298 301 299 300 300 299 301 305 307 309 310 310 311 312 315 316 317 317 318 318 318 319 321 321 322 323 324 325 326 327 328 329 329 330 332 334 336 339 341 343 344 345 345 344 342 340 340 339 336
292 296 296 296 296 295 295 296 297 296 295 294 294 296 299 299 299 298 298 297 299 305 307 311 308 309 311 312 313 314 315 317 319 318 319 319 320 321 321 323 324 325 325 326 326 328 330 331 332 333 335 338 341 342 343 344 344 342 340 340 339 338 335
290 295 295 296 294 295 292 293 296 297 296 297 297 303 305 302 301 299 297 298 304 307 309 308 308 308 310 310 311 313 315 316 318 319 319 319 320 321 322 323 325 325 326 326 327 327 329 331 332 334 337 338 340 342 343 343 341 339 339 338 338 337 335
289 294 294 294 291 287 287 295 297 299 298 297 298 298 302 304 302 300 301 302 305 307 307 308 307 307 309 312 313 315 317 316 316 318 319 320 321 321 322 324 325 325 327 328 328 329 330 332 334 336 339 339 341 342 343 341 339 338 338 337 337 335 334
290 292 294 291 286 287 296 304 307 302 300 301 300 305 306 307 306 307 307 306 305 307 309 310 310 311 312 314 314 313 315 317 318 319 319 319 322 323 323 324 325 327 330 331 331 331 331 333 334 337 339 340 341 341 340 338 338 337 337 337 335 334 333
292 292 290 286 284 295 305 307 308 313 309 307 306 304 307 308 309 307 305 306 307 308 308 309 310 310 313 314 316 316 315 317 319 318 319 320 323 323 325 326 327 328 330 332 333 334 336 336 335 337 338 340 340 339 339 338 337 337 336 335 334 333 333
291 289 288 289 296 301 304 305 306 307 305 305 304 299 303 308 311 309 306 305 306 309 310 310 311 312 312 311 312 312 316 318 320 320 320 322 325 326 327 329 330 331 331 333 334 336 337 337 336 336 338 339 338 337 337 337 336 336 335 334 333 332 332
292 290 289 293 293 290 296 302 310 311 311 311 309 303 303 307 312 312 308 307 308 309 310 310 311 312 310 308 310 313 315 316 319 318 320 322 324 325 326 324 326 329 331 333 336 336 337 336 336 336 337 337 336 335 335 335 335 334 334 333 333 332 332
293 292 289 286 288 293 298 304 308 313 313 314 309 303 299 306 312 313 308 307 308 308 309 310 310 309 304 304 309 314 317 317 318 318 319 320 321 323 323 323 327 332 334 336 336 336 336 334 333 334 336 336 335 334 334 334 334 333 333 333 333 332 332
294 288 287 290 293 298 306 307 310 313 314 312 304 295 294 303 313 313 311 309 308 309 309 311 310 306 304 307 314 317 321 329 326 320 324 329 335 337 337 335 335 337 338 337 334 334 333 332 331 334 335 335 334 334 333 334 333 333 333 333 334 334 333
294 296 290 291 298 306 309 309 311 312 314 304 296 291 297 310 312 314 314 314 315 314 314 315 313 314 310 312 316 322 327 332 335 337 338 338 338 338 338 339 340 335 333 334 334 333 332 330 331 333 334 333 333 334 333 332 332 333 334 334 334 334 334
295 291 290 292 294 301 308 311 311 313 305 295 293 303 310 311 313 315 319 317 318 318 318 319 318 319 322 325 326 328 329 330 331 335 338 340 340 340 342 341 337 334 332 331 331 330 328 330 331 332 333 333 333 332 331 331 332 333 334 334 335 334 333
296 292 291 292 292 303 311 310 309 310 299 298 306 312 314 318 317 318 317 317 318 320 318 319 320 322 324 325 326 328 329 330 331 332 333 334 335 336 337 338 339 334 330 329 329 328 329 329 330 331 332 332 331 331 330 330 331 333 334 334 334 334 332
294 291 289 291 298 306 313 310 305 310 310 313 314 315 313 315 317 319 320 320 321 321 321 321 321 322 322 323 325 326 327 328 328 328 328 328 330 331 334 335 334 333 329 328 328 328 328 328 328 329 331 331 330 329 328 329 331 333 333 333 333 332 332
299 297 297 304 310 311 314 312 312 313 315 316 317 316 315 315 316 319 320 319 320 320 320 319 318 317 320 322 324 324 325 326 327 326 326 327 328 328 329 332 334 332 331 328 327 327 327 328 328 328 329 330 331 328 327 330 331 331 332 332 332 332 331
310 310 310 314 312 313 314 315 314 312 312 312 313 312 311 312 314 318 319 320 320 320 320 319 318 317 317 320 323 325 326 325 326 328 328 328 328 329 329 330 332 331 330 329 327 327 327 327 327 329 328 330 330 327 329 331 330 330 331 331 331 331 331
302 298 309 310 312 313 312 315 315 314 314 313 313 312 311 311 311 312 313 316 319 321 322 321 320 319 319 320 322 324 324 324 325 326 326 326 326 325 327 328 332 329 329 327 327 329 328 327 327 328 327 329 329 328 330 330 329 330 330 330 331 330 330
302 304 309 313 315 315 315 313 313 313 314 314 315 315 315 315 315 314 314 314 313 315 315 317 319 319 322 322 321 323 324 325 326 325 326 326 326 324 325 328 330 328 328 327 329 328 328 327 328 328 328 329 329 329 330 329 329 329 330 329 329 328 328
308 312 313 313 312 313 314 315 311 314 313 312 311 312 312 312 310 310 311 312 312 312 313 314 313 313 314 316 321 324 323 324 324 325 324 324 324 324 327 328 331 327 328 329 328 329 328 327 327 327 328 330 332 331 330 330 329 328 328 331 329 328 328
303 304 307 310 305 304 309 313 315 312 314 311 309 309 309 309 309 309 310 310 312 312 313 313 313 313 314 316 321 322 323 324 324 324 324 324 324 324 326 327 327 327 330 329 328 328 326 326 327 327 328 329 333 335 334 332 329 328 329 330 329 328 329
299 307 311 309 310 310 310 312 315 314 315 310 308 308 308 309 310 310 310 309 310 311 312 313 312 312 313 314 317 319 322 325 326 325 325 326 326 327 327 327 327 327 327 329 328 328 326 327 327 328 328 330 332 333 334 334 332 330 330 329 329 329 329
305 307 306 307 307 306 308 310 311 313 313 311 309 310 310 310 310 311 310 310 309 309 310 311 312 311 311 312 313 313 315 320 325 327 328 327 326 326 327 326 325 326 327 327 327 327 325 326 328 328 329 330 332 333 333 333 333 332 331 330 328 327 328
306 310 309 309 308 308 310 311 311 312 314 315 311 310 309 309 310 311 310 310 310 310 310 310 311 312 311 311 312 312 312 315 320 322 325 328 330 329 328 328 325 325 326 326 326 324 324 326 327 328 329 330 332 333 333 332 332 331 331 331 329 328 328

ECMWFFLT2_sfc_thetae_027.txt.gz
Theta_e
306 308 309 308 309 298 303 304 301 304 312 307 305 303 302 304 302 300 310 307 310 314 316 319 321 321 322 324 323 323 325 327 331 330 331 332 333 335 337 338 340 343 344 347 347 349 348 349 349 350 353 354 354 355 355 356 357 359 360 360 360 361 362
305 308 310 309 309 310 304 300 305 308 310 311 307 298 302 300 296 301 304 303 306 306 303 322 317 318 319 322 324 323 326 329 328 329 332 333 333 335 339 341 343 343 344 346 346 348 348 349 350 352 355 356 356 357 357 357 358 358 359 360 360 361 361
307 306 306 306 309 310 307 305 311 303 300 299 311 305 295 295 295 297 301 305 306 308 307 314 316 317 319 323 326 324 324 325 326 329 332 334 335 335 337 338 340 341 343 345 347 347 349 351 353 354 355 355 356 358 358 357 357 358 359 359 361 361 362
305 305 304 298 302 306 306 308 307 308 307 307 302 302 308 302 297 296 298 301 301 310 311 313 313 321 327 324 324 324 323 325 327 329 330 333 335 336 336 337 339 341 342 343 345 346 348 350 352 353 354 354 353 355 357 358 359 361 361 361 361 360 361
303 299 302 301 303 301 302 303 303 304 306 308 308 307 304 300 299 298 298 296 303 311 317 316 319 322 326 324 322 329 327 326 327 330 331 333 335 335 337 338 339 340 341 342 344 347 349 351 353 352 351 352 353 354 355 357 358 359 359 360 361 360 361
299 302 306 305 305 305 304 303 302 304 303 301 298 298 303 303 301 297 298 296 307 313 318 320 320 323 323 326 327 327 327 328 329 329 331 334 334 337 338 338 339 340 342 343 345 347 350 350 350 350 351 352 353 354 354 356 356 357 357 359 360 361 361
302 305 307 308 308 308 306 306 303 306 306 306 302 295 300 302 303 305 306 301 304 320 321 320 322 322 321 323 325 323 324 327 328 329 328 334 337 336 336 338 338 340 343 344 346 348 350 350 351 351 352 352 353 354 355 356 356 357 357 359 361 362 359
307 307 306 306 305 306 304 305 306 305 303 304 303 303 309 302 304 301 301 299 304 319 324 322 320 328 327 328 323 325 324 325 329 328 329 335 336 337 337 339 339 342 344 347 349 350 350 351 352 352 353 353 354 354 355 355 356 357 358 359 360 360 357
300 302 305 304 305 304 303 303 305 306 306 306 307 310 310 302 305 302 301 295 303 316 325 323 321 319 319 320 323 325 324 329 328 329 332 334 337 338 337 339 341 343 343 345 347 349 351 351 351 353 353 353 353 354 355 355 356 358 359 360 359 359 358
291 291 292 295 299 301 303 305 304 305 305 306 304 300 305 297 309 309 301 301 311 321 322 320 321 321 321 323 323 323 325 329 328 329 330 335 336 338 339 341 342 341 345 347 348 349 350 350 351 353 354 354 354 355 356 356 356 358 358 359 359 358 357
297 300 304 309 307 303 300 302 303 303 304 306 306 310 303 298 305 303 305 309 308 313 315 319 319 322 321 321 327 326 327 328 330 332 333 334 336 337 336 340 342 346 345 345 347 349 349 349 351 352 352 353 353 355 356 356 357 358 359 359 359 358 356
306 305 306 307 306 303 303 302 302 304 304 305 304 303 301 316 303 297 308 314 309 312 316 320 322 323 326 327 329 328 329 330 329 330 334 333 334 336 339 339 340 341 344 347 347 348 348 349 351 351 352 353 353 355 354 355 356 357 358 359 359 358 355
305 306 306 306 305 305 305 304 304 303 304 305 303 306 307 312 302 299 310 315 312 314 315 319 323 326 326 325 327 329 330 329 330 330 329 330 331 334 334 338 342 343 342 345 346 347 348 349 349 350 351 352 354 355 355 356 355 356 359 359 359 357 355
303 304 305 306 304 304 304 304 305 305 304 304 305 306 308 309 310 310 314 316 313 313 315 319 322 327 327 330 331 328 326 325 330 329 330 330 331 332 333 337 339 342 343 345 346 347 348 348 349 349 350 352 352 352 352 354 355 357 360 359 358 356 353
302 304 305 304 303 303 302 304 304 305 305 305 305 305 307 310 309 312 311 315 314 318 324 324 329 331 324 323 322 323 328 330 328 328 329 331 331 332 335 339 339 342 343 345 346 346 347 347 348 348 350 351 352 350 353 354 356 359 359 358 357 355 352
301 303 303 303 303 303 302 303 304 303 302 302 303 304 309 306 307 309 308 309 309 316 320 319 322 323 325 324 327 329 330 328 330 330 330 331 333 333 335 337 338 340 341 343 344 344 345 347 348 349 350 350 350 350 353 354 355 357 356 356 354 355 354
302 305 304 303 302 301 298 300 303 305 304 305 306 306 310 308 309 308 306 306 315 317 322 319 320 320 323 325 326 329 331 332 330 331 332 333 333 335 337 337 338 338 339 341 344 343 345 345 346 348 350 348 350 352 352 355 357 356 354 354 354 354 353
302 304 301 301 299 293 295 307 308 307 305 305 304 304 306 309 312 310 314 315 321 321 320 317 320 321 324 327 332 332 333 333 332 332 334 333 334 334 335 336 337 340 341 341 343 344 346 346 346 346 348 349 351 354 355 357 356 355 355 354 354 353 352
301 303 301 298 293 296 311 316 314 309 308 308 306 307 309 310 313 315 312 315 318 321 320 322 324 327 330 326 326 324 325 329 331 331 332 334 333 335 337 337 337 340 341 343 344 344 344 345 346 346 347 349 352 353 355 354 355 354 354 353 353 352 349
304 302 300 292 295 307 311 312 315 313 310 310 308 309 312 316 314 315 314 317 320 324 321 321 323 322 324 325 327 327 326 329 330 328 329 331 333 335 336 339 341 342 340 342 340 343 346 348 347 346 347 348 350 352 354 353 353 353 353 352 352 351 348
299 302 300 299 308 306 309 309 312 312 310 307 305 302 308 317 319 318 316 319 320 320 321 322 321 322 321 323 325 325 324 326 327 330 333 333 334 337 339 339 341 347 346 347 348 351 347 346 346 346 349 349 350 351 351 351 352 351 351 350 350 349 347
305 301 298 300 299 296 305 313 315 317 316 317 317 315 312 318 319 320 320 320 321 321 320 320 321 325 318 316 320 327 326 325 327 330 332 333 336 339 340 346 345 347 349 350 350 349 348 347 348 349 350 351 351 350 350 350 349 349 349 348 349 348 347
303 302 297 297 296 301 313 313 314 317 318 317 317 311 306 317 319 320 320 319 320 321 320 322 323 318 313 315 323 329 328 325 328 330 331 333 335 338 339 341 343 345 348 351 351 352 351 349 349 350 351 351 350 349 349 347 347 347 347 348 348 346 346
303 301 299 297 302 303 312 314 315 317 319 316 313 301 303 318 320 320 319 317 319 320 324 321 321 318 315 318 323 330 334 328 332 338 339 339 339 341 345 348 350 352 351 351 353 353 353 352 350 351 350 350 350 348 346 347 346 346 347 348 348 348 347
302 301 301 303 306 315 314 314 316 317 318 314 305 298 311 320 322 321 319 319 320 323 322 321 322 325 330 329 331 336 341 342 343 346 346 346 346 345 344 345 347 350 352 352 351 351 350 348 348 349 350 350 348 348 348 346 346 347 348 349 348 346 346
299 304 299 300 305 311 314 317 316 318 310 302 303 316 318 322 322 324 322 320 322 326 331 330 329 330 332 335 339 342 344 345 346 345 345 345 345 346 346 347 347 347 346 346 345 343 346 346 346 347 350 350 347 347 346 346 348 349 348 348 347 346 344
304 303 301 297 293 312 317 314 317 319 310 314 317 321 323 324 325 325 327 327 329 330 329 331 333 334 335 336 337 338 339 341 343 345 346 347 346 347 348 346 346 347 346 344 342 342 342 344 345 346 349 348 346 346 346 347 348 347 347 346 346 344 343
300 302 299 297 308 314 318 314 308 315 317 321 324 325 322 326 327 326 326 327 329 330 330 329 330 331 331 334 336 336 337 337 339 341 344 345 345 343 344 346 346 347 346 345 342 341 341 342 343 345 348 347 345 345 346 346 346 346 346 345 345 343 341
309 306 312 317 319 318 318 317 315 316 319 321 323 325 324 322 322 327 324 324 325 328 329 329 329 328 330 330 332 332 333 335 337 339 341 342 344 346 347 347 348 349 348 347 344 341 340 341 342 343 345 347 345 345 345 344 344 344 344 344 342 342 341
315 316 317 321 320 320 318 318 318 316 316 318 318 319 319 319 321 324 325 326 326 327 329 325 327 327 328 327 327 329 332 335 337 339 339 341 343 345 346 347 346 347 346 346 345 342 339 339 340 341 342 344 344 345 343 343 344 344 344 342 341 340 341
307 300 313 315 315 317 318 315 316 318 317 317 319 319 318 318 320 320 322 323 324 326 328 328 327 328 329 329 331 334 335 335 337 337 338 338 339 341 342 343 346 347 348 344 342 343 341 337 337 337 339 340 343 342 341 342 343 344 343 341 340 340 339
309 311 313 316 317 318 318 317 313 314 315 314 316 317 318 319 319 319 320 322 322 325 325 328 328 329 332 333 333 332 334 336 338 338 338 339 338 337 337 339 341 343 345 344 342 341 341 339 338 338 338 339 340 340 339 339 340 342 341 340 339 339 339
311 314 316 315 316 315 315 315 315 315 315 315 315 316 317 317 316 316 317 318 318 320 323 327 329 328 330 332 333 332 334 335 335 336 337 339 339 340 342 342 342 343 343 342 341 341 340 339 339 338 339 339 340 340 340 340 340 340 341 339 339 340 339
306 307 308 312 308 308 312 314 314 315 317 318 317 316 316 316 316 316 314 315 317 317 319 320 321 321 323 325 328 326 330 332 336 338 339 339 338 337 338 339 341 341 340 341 340 340 340 339 339 339 339 339 339 338 340 339 339 339 339 338 336 336 337
306 312 314 312 314 313 316 314 315 316 317 318 315 313 314 315 317 317 315 314 314 315 317 320 320 320 321 322 322 321 321 323 327 331 334 336 337 337 338 339 340 340 339 339 339 339 340 339 340 339 339 338 339 338 338 339 337 337 338 336 335 335 335
309 311 312 313 311 309 313 315 316 316 316 316 314 316 315 314 315 316 316 317 314 315 317 318 320 320 320 321 321 321 322 322 324 325 328 331 334 336 338 338 339 340 340 339 339 338 339 339 340 340 338 338 338 337 339 339 338 338 338 336 335 335 334
309 313 313 313 312 312 313 315 317 318 320 316 314 314 315 315 315 316 316 316 318 318 317 317 318 320 320 320 321 321 322 321 323 323 326 328 329 332 333 334 337 339 339 339 338 338 338 339 339 339 339 339 339 338 339 339 339 338 337 336 335 335 334

ECMWFFLT2_sfc_thetae_033.txt.gz
Theta_e
312 311 312 311 312 301 308 308 304 307 314 312 308 310 311 310 306 304 312 310 313 319 320 322 325 324 325 326 325 324 325 327 329 329 328 334 339 340 343 347 348 350 349 351 352 352 351 353 353 354 358 359 360 362 364 368 370 373 373 373 372 372 373
314 315 314 312 312 312 310 304 307 313 315 313 309 303 307 304 301 304 308 306 309 309 307 320 322 321 322 323 324 325 326 326 325 327 329 332 335 342 346 349 352 352 351 351 352 352 353 353 356 358 361 361 361 362 366 368 370 370 373 373 372 373 372
314 315 313 310 312 313 308 308 315 306 302 301 308 307 299 300 300 302 306 308 309 310 311 318 318 319 320 322 324 324 323 324 326 327 332 336 340 342 345 346 349 351 351 352 353 352 354 356 361 361 360 362 362 363 367 368 369 370 372 371 372 373 374
313 313 310 302 305 311 312 313 310 313 309 306 303 306 307 307 301 302 303 307 305 314 314 317 318 319 321 321 322 322 324 324 325 327 329 333 338 340 344 346 348 350 352 353 353 353 353 356 359 360 361 361 361 362 366 367 368 371 372 372 372 372 372
311 305 308 305 307 304 305 305 305 309 308 311 310 309 306 304 303 303 302 301 306 315 318 318 320 321 322 322 322 324 324 324 324 327 328 331 335 340 345 347 348 349 352 353 354 354 354 356 360 360 359 360 359 360 363 364 367 367 368 369 371 372 372
305 307 311 310 310 309 307 305 303 306 306 304 301 300 309 308 304 301 302 301 311 316 320 321 321 323 323 324 324 323 324 324 330 328 329 330 332 343 346 346 348 349 352 353 354 355 354 353 357 358 358 358 357 358 360 363 363 364 364 367 371 372 373
306 309 312 314 313 312 311 309 305 307 308 309 304 297 303 308 308 309 308 305 308 320 322 323 322 323 322 324 324 324 324 327 326 327 327 331 340 345 344 346 345 349 352 353 354 356 356 355 357 357 357 355 356 357 359 362 361 363 362 365 369 373 371
312 313 314 314 313 311 309 309 310 308 305 308 307 306 309 307 308 305 305 303 307 319 326 324 322 326 324 325 325 325 324 325 326 326 328 343 348 349 346 346 344 348 351 355 358 357 358 358 360 358 357 357 356 356 357 360 360 361 361 364 367 371 371
305 307 310 309 312 310 307 306 309 309 309 309 309 311 312 305 306 307 304 299 306 317 323 323 323 322 322 323 324 326 324 326 325 328 330 334 345 352 348 347 347 349 350 354 359 360 362 362 358 361 359 357 356 357 358 358 359 361 361 363 366 370 370
296 296 297 299 302 305 307 308 308 309 309 308 305 302 306 301 309 310 305 305 312 318 323 321 321 322 324 324 324 325 326 328 326 326 329 346 349 353 351 350 349 348 356 359 362 363 364 359 358 363 363 359 358 359 359 358 359 361 361 362 364 368 369
303 306 310 311 311 309 304 306 307 307 308 309 309 307 303 301 306 306 309 310 311 314 316 318 319 321 322 322 324 323 324 325 327 335 348 348 352 354 350 350 350 355 359 359 359 362 360 358 360 361 359 359 359 362 361 358 360 361 364 364 369 369 369
311 311 310 311 311 309 309 307 307 307 307 308 307 304 302 310 305 299 308 314 310 311 315 318 319 320 322 323 324 324 325 326 327 330 353 354 352 353 351 350 350 351 355 359 359 360 360 359 361 361 362 360 361 362 361 360 360 361 363 366 370 370 369
310 311 311 312 311 310 310 310 309 308 308 307 306 307 308 310 304 301 310 313 311 312 314 316 320 321 323 321 323 324 326 325 329 334 339 347 349 350 348 350 352 353 353 359 360 360 361 360 360 362 361 362 364 364 363 364 360 362 367 370 368 368 370
310 310 310 311 309 309 309 309 310 310 309 308 307 307 308 308 309 310 311 313 311 313 314 317 319 323 323 323 326 326 325 324 331 327 330 343 344 347 348 351 351 355 356 360 362 362 362 360 361 361 363 363 362 363 363 361 365 367 369 369 368 369 369
308 310 311 311 310 309 308 309 310 310 310 310 310 308 308 310 308 308 308 311 310 315 321 320 321 323 323 325 323 323 326 325 324 325 324 328 330 333 344 354 353 356 357 361 363 361 361 361 362 363 364 365 364 362 364 364 367 368 367 369 368 368 369
306 310 310 310 310 309 307 307 309 309 309 308 309 308 310 308 308 309 308 307 308 314 318 320 321 321 322 320 322 325 325 324 326 326 326 326 330 330 333 343 355 357 357 361 362 361 361 361 363 364 365 364 364 364 365 365 363 365 368 368 368 369 372
305 309 310 310 310 308 304 304 307 309 310 311 312 312 312 311 311 307 305 306 313 316 318 316 318 319 320 321 320 322 325 332 327 327 326 326 327 330 340 345 355 356 356 359 363 363 364 362 362 364 366 364 365 365 367 368 368 366 368 369 370 371 372
305 309 310 311 306 299 299 311 313 312 309 310 309 309 311 313 314 312 313 313 317 316 316 315 316 317 319 322 327 327 326 326 331 325 327 326 327 327 328 336 340 357 358 358 362 363 365 365 364 365 368 366 367 368 369 370 368 369 369 370 371 372 372
304 309 310 304 298 299 312 315 316 315 313 313 311 312 313 314 315 315 314 315 315 317 318 318 319 322 322 323 324 323 324 327 325 328 326 330 331 331 337 345 339 353 360 360 363 363 363 363 364 364 366 368 368 369 370 369 369 369 369 370 372 372 371
310 307 305 297 298 311 314 315 315 316 316 316 314 311 313 314 315 315 314 316 317 318 318 318 321 322 320 321 325 326 323 324 324 322 323 327 327 327 334 347 354 359 358 359 361 362 362 362 363 365 365 367 367 369 370 369 368 368 369 370 371 372 370
303 304 303 303 311 310 311 311 316 316 316 318 316 309 313 317 321 317 315 316 318 318 319 319 320 322 321 321 320 322 323 326 325 323 323 325 326 328 342 341 353 364 362 362 363 364 363 364 363 364 366 367 368 368 368 368 368 368 369 368 370 371 369
309 303 303 304 304 301 307 317 319 322 320 320 320 318 313 319 318 318 317 318 317 318 318 319 320 321 317 315 318 323 323 328 328 332 332 331 333 336 342 354 358 365 363 363 364 361 363 363 363 366 366 368 368 368 367 368 368 368 367 368 370 371 370
308 305 302 302 301 306 318 318 318 320 321 320 320 314 308 319 328 329 330 327 330 328 318 319 320 316 311 312 317 325 328 328 329 329 330 330 330 338 348 352 357 359 360 361 361 363 365 362 363 366 367 368 367 366 366 365 365 365 365 366 367 369 369
306 305 303 301 306 306 317 320 320 320 321 319 315 303 303 329 331 330 331 331 330 332 333 329 319 316 312 312 319 324 325 327 327 328 336 336 332 337 347 350 357 360 361 362 362 362 360 363 365 366 365 367 366 364 361 362 361 362 364 365 369 370 370
304 303 305 306 308 316 319 318 319 320 319 316 307 300 314 326 330 332 333 331 333 333 331 331 318 320 321 322 326 325 326 324 325 334 339 339 337 342 348 352 357 360 362 362 360 361 362 362 360 362 365 364 362 361 362 362 361 363 366 369 369 370 368
302 304 302 302 308 316 320 321 320 321 315 304 304 322 328 330 327 331 331 333 334 335 334 331 330 328 327 324 324 325 329 336 339 339 341 342 347 352 352 356 356 358 357 358 357 355 358 358 360 363 365 363 360 362 361 361 364 365 368 369 370 369 366
306 306 302 300 295 316 320 320 318 323 312 312 324 326 327 327 328 327 330 332 335 337 335 334 332 334 331 326 326 328 334 335 343 345 345 348 347 347 352 353 356 355 354 353 354 359 359 361 364 364 364 361 362 361 361 363 365 367 368 368 367 365 363
301 300 299 299 309 319 322 320 312 322 324 325 329 325 325 329 330 332 330 332 335 337 336 335 334 332 333 334 335 335 335 342 346 348 350 350 353 358 357 356 355 353 356 359 358 358 359 362 363 365 365 361 361 362 362 365 366 366 366 364 364 362 360
307 305 307 320 321 321 322 323 324 325 327 328 328 329 328 328 329 333 331 333 335 336 335 334 337 337 335 337 337 341 343 344 346 350 352 352 351 350 349 350 356 358 358 359 359 360 362 364 364 364 363 362 362 361 363 365 363 363 362 360 358 357 358
319 322 322 322 322 321 323 323 325 323 324 327 328 328 328 329 331 332 332 334 334 334 338 332 337 341 342 343 344 345 347 347 350 352 353 354 356 356 356 358 358 359 358 358 358 358 359 360 362 364 365 364 361 360 362 361 363 361 358 357 356 356 356
310 306 320 322 321 322 322 322 324 325 326 326 328 329 330 330 331 331 334 336 336 336 339 338 339 340 340 341 344 349 349 348 349 349 351 351 353 354 354 355 354 354 353 352 354 356 357 359 358 359 360 359 360 361 361 360 360 359 358 356 355 354 354
312 314 321 324 326 325 325 324 323 322 324 326 327 328 329 329 330 331 334 336 335 336 336 337 338 338 340 342 343 343 344 345 348 349 351 353 352 352 353 354 354 354 353 353 354 354 354 358 359 357 356 357 358 358 356 356 356 356 354 353 352 352 350
316 321 322 322 322 322 322 324 325 325 325 324 324 325 325 326 327 327 329 331 335 337 333 337 336 335 336 338 340 339 340 341 343 345 349 351 352 352 353 354 355 354 355 353 354 353 353 355 355 355 355 355 355 357 357 357 355 353 350 349 350 350 349
307 309 315 320 312 313 319 321 324 324 324 324 323 323 323 323 323 324 323 325 327 327 329 331 332 333 335 336 338 336 338 341 344 345 345 346 348 349 351 350 352 352 353 352 350 349 351 353 353 353 353 353 354 354 355 354 354 351 349 348 348 346 345
306 314 318 321 320 321 321 323 325 326 325 324 321 320 320 321 321 321 322 322 323 324 325 328 328 329 331 333 334 335 336 340 342 343 344 343 343 345 348 349 349 350 352 352 352 352 351 351 351 351 351 350 351 351 354 354 353 352 350 347 345 344 344
317 320 321 323 322 318 320 322 324 323 325 323 320 319 319 320 320 321 321 321 322 322 322 323 325 326 327 328 329 329 331 334 339 342 342 343 344 344 346 347 347 347 348 349 349 349 351 350 349 349 347 349 351 350 353 353 354 353 352 348 346 344 342
315 320 323 323 321 320 322 322 322 322 324 323 321 320 319 319 320 320 318 318 318 318 319 318 320 323 325 325 326 327 328 328 331 335 338 340 341 342 343 346 348 347 347 348 349 350 350 349 348 348 349 349 350 349 352 351 352 350 349 347 344 343 344

ECMWFFLT2_sfc_thetae_036.txt.gz
Theta_e
313 312 314 312 312 300 306 306 301 304 311 308 304 306 308 308 304 301 310 308 311 317 317 319 322 323 324 325 325 325 328 328 332 331 332 333 333 335 336 338 342 345 346 349 347 350 352 353 354 354 356 358 360 361 364 367 369 369 368 368 367 369 369
313 316 315 314 313 311 308 302 305 311 312 311 306 299 303 302 299 302 306 304 307 308 305 317 318 319 321 323 324 325 327 329 328 331 331 334 337 337 339 342 346 345 344 345 351 351 351 351 352 355 358 358 360 361 364 366 368 368 369 368 368 369 369
313 315 314 311 313 314 307 306 313 304 300 299 305 303 297 297 297 300 305 306 306 308 309 314 315 317 319 323 325 324 324 326 327 333 337 339 338 337 339 339 343 344 345 347 351 351 350 351 355 357 358 358 360 362 364 364 366 369 370 367 369 369 369
313 312 310 303 306 311 312 312 308 311 307 303 301 303 305 305 298 299 300 305 303 312 311 315 315 319 322 322 323 323 324 325 326 332 335 338 340 340 338 337 340 344 345 345 348 350 350 351 355 356 356 355 355 359 363 365 367 370 371 371 370 368 368
313 305 308 305 307 304 305 305 303 306 306 309 307 306 304 302 300 300 300 298 305 312 317 316 318 322 323 323 323 327 326 326 325 328 332 336 338 339 340 341 341 343 344 343 347 351 352 352 355 356 354 353 353 355 359 362 366 367 369 370 370 368 369
306 308 312 311 310 310 307 305 303 304 303 302 299 298 307 305 301 297 300 299 308 314 318 321 322 324 322 324 325 325 326 325 328 328 331 333 333 340 340 341 340 343 348 350 350 351 353 351 351 353 354 353 352 353 355 359 363 366 367 369 370 368 370
307 310 314 315 314 313 311 308 305 307 306 305 302 295 300 304 304 306 305 302 305 318 326 324 325 324 322 324 325 325 324 326 327 328 331 333 338 342 340 340 340 343 347 351 351 352 353 352 353 353 353 352 352 353 355 359 362 365 367 369 370 370 370
311 313 315 315 314 313 309 309 309 306 303 305 304 304 306 302 303 301 302 300 305 316 335 328 323 341 323 326 325 327 325 325 326 328 329 334 338 342 341 339 337 342 346 351 354 355 354 354 354 354 355 354 353 355 356 358 361 365 366 368 369 370 369
304 307 310 309 312 311 308 307 308 308 308 307 307 307 310 303 303 304 301 297 303 313 328 340 328 322 320 321 323 325 324 327 326 329 339 336 341 341 340 342 343 346 345 349 354 356 355 355 356 357 358 358 356 356 356 357 360 364 364 366 367 368 368
295 295 297 299 302 305 308 309 308 309 307 306 304 300 304 299 309 309 303 303 310 316 323 322 322 324 333 326 323 323 326 340 329 338 337 339 341 344 344 349 348 346 347 351 357 360 359 357 357 359 359 359 358 358 357 358 359 361 362 363 366 368 368
301 304 309 310 310 308 304 306 307 307 308 308 307 305 302 299 305 305 308 311 312 312 314 318 318 321 321 322 325 326 324 327 337 350 340 348 346 350 349 351 349 350 357 358 357 361 360 358 358 360 359 359 358 359 357 357 359 360 362 361 365 369 368
308 310 310 311 311 307 307 306 306 307 307 308 306 303 300 310 305 298 310 320 309 310 314 319 320 319 322 329 337 327 341 340 336 334 349 356 350 352 355 356 357 355 362 362 360 361 362 360 359 360 360 359 358 358 356 355 358 359 361 362 365 369 368
308 309 311 312 310 310 309 308 307 306 307 306 305 306 306 309 302 299 311 320 316 314 313 315 322 326 325 321 322 325 329 329 341 356 347 351 349 352 352 355 357 358 361 365 364 363 364 362 359 360 360 360 360 361 359 356 355 358 362 363 365 367 368
308 308 309 310 310 310 309 309 308 308 307 306 306 306 307 306 309 311 310 316 312 312 313 316 318 323 323 326 334 328 329 324 333 344 339 338 341 349 350 354 356 359 362 367 366 366 366 363 361 360 360 361 360 360 360 358 358 360 364 363 365 367 368
307 309 310 309 309 310 308 309 309 309 309 308 308 307 307 308 307 308 307 309 310 313 320 318 320 321 323 326 322 322 326 326 324 327 331 331 331 345 353 357 356 358 360 365 366 365 365 363 363 361 362 363 362 359 362 360 361 363 365 365 365 367 367
305 309 310 309 309 309 308 308 308 308 308 307 308 306 309 307 308 310 307 308 308 313 318 317 321 322 321 320 323 324 331 328 327 327 327 328 330 336 348 354 352 355 357 361 363 363 363 364 365 363 365 365 363 360 362 361 361 366 366 365 365 367 369
303 308 309 309 309 307 303 304 307 309 310 310 311 312 312 310 309 306 305 306 314 317 320 317 317 316 320 320 320 322 324 334 332 328 328 330 337 339 348 353 354 354 353 357 362 361 362 363 364 364 366 365 364 363 364 364 364 366 366 365 367 368 370
302 306 308 309 304 298 299 311 313 311 309 310 309 308 310 312 312 309 311 312 317 319 316 315 317 317 320 325 329 331 332 336 342 336 335 328 329 333 347 353 356 355 356 358 362 363 364 365 364 364 365 366 366 367 368 368 365 367 368 368 368 368 372
301 306 306 301 296 298 312 315 316 315 313 312 310 311 312 312 314 314 314 314 315 320 319 319 320 323 325 328 327 322 322 328 327 330 331 339 347 342 341 355 353 358 361 363 367 366 366 365 365 364 366 367 369 368 369 367 366 367 368 369 369 370 372
305 304 303 294 296 310 312 314 316 318 316 314 312 309 311 313 313 316 314 317 324 322 319 317 320 322 320 319 324 334 326 324 326 323 324 326 327 329 335 345 362 362 361 363 364 367 365 366 363 363 365 365 368 368 370 368 365 367 370 370 370 371 372
300 301 301 301 311 309 311 311 314 315 312 312 310 305 309 314 315 316 321 321 323 321 321 323 321 322 319 319 320 320 320 324 324 322 324 323 327 328 334 333 343 365 365 364 366 369 368 365 363 363 364 365 367 368 367 366 366 368 370 370 370 370 371
305 302 299 300 301 299 305 318 320 320 319 319 319 315 312 319 319 326 323 322 320 326 325 328 331 329 323 315 317 321 320 321 322 323 323 323 325 328 329 332 332 365 367 366 368 368 368 366 364 365 366 367 368 367 366 366 365 367 369 370 371 372 372
304 302 299 298 297 302 314 318 319 320 320 319 319 313 307 324 326 329 325 326 326 327 327 330 328 321 315 315 320 322 323 322 322 321 323 323 324 326 329 333 331 343 365 364 368 368 367 364 365 367 367 368 368 367 367 364 363 364 366 369 371 371 372
304 304 300 298 306 305 318 319 319 320 322 320 316 302 303 327 330 329 330 326 325 331 332 331 326 324 315 315 322 327 323 324 325 330 337 339 331 329 333 335 370 377 371 369 367 365 365 365 366 369 368 369 367 367 364 363 363 365 367 370 372 373 373
305 303 303 305 307 317 320 320 321 321 321 317 305 298 311 326 327 327 328 327 328 331 332 332 328 331 332 332 333 330 329 328 325 327 336 340 338 339 332 334 362 369 368 368 365 363 365 368 366 367 367 367 367 367 367 365 365 366 370 373 373 373 372
302 304 302 304 307 316 320 320 320 321 315 304 303 322 329 329 325 326 327 327 329 331 333 334 334 335 335 335 334 332 329 326 339 336 341 343 344 335 335 350 362 365 361 366 365 362 370 368 365 366 369 368 367 368 367 366 368 369 372 373 372 371 369
304 304 301 299 294 312 318 320 319 320 310 311 322 326 327 326 327 328 330 329 332 333 332 334 335 334 333 333 335 336 336 334 339 346 344 350 346 350 363 363 361 359 359 361 359 361 363 364 367 369 369 367 366 366 366 368 370 371 371 371 370 368 366
299 299 297 298 308 315 317 318 313 318 319 327 329 325 322 328 327 329 327 333 334 335 333 333 334 334 334 335 337 342 342 336 341 345 352 351 350 348 356 358 358 357 361 363 363 366 364 366 368 369 368 364 363 364 366 369 370 369 369 368 368 366 362
304 303 306 313 320 318 321 322 326 325 327 329 327 328 325 324 326 330 331 333 336 337 338 336 336 335 335 336 343 342 341 344 345 344 346 350 349 352 358 355 360 361 362 363 363 363 366 368 369 368 367 363 363 364 367 368 367 366 366 365 363 360 359
319 320 320 323 322 321 320 324 325 323 324 326 328 327 326 326 327 331 332 333 334 335 337 337 339 338 338 338 334 335 335 335 335 337 340 347 353 356 356 359 363 361 362 362 361 362 364 366 365 365 367 366 362 363 366 366 367 365 363 361 359 358 357
311 304 322 322 321 322 321 321 324 324 324 325 327 327 327 329 331 332 332 333 333 334 334 333 333 333 334 334 334 334 334 334 333 334 337 338 337 338 345 358 362 361 360 357 358 359 360 364 365 365 363 363 363 364 363 363 363 363 360 359 357 356 355
311 313 318 319 321 323 325 324 323 323 325 325 327 328 328 328 328 327 326 326 326 330 332 334 333 332 333 333 333 332 333 332 333 332 333 335 339 339 338 340 341 345 347 353 353 355 355 359 360 360 360 359 360 361 359 359 359 359 357 356 355 354 353
314 318 317 317 319 320 321 322 324 324 324 324 324 324 324 324 323 323 323 323 322 322 324 329 332 333 332 332 332 332 332 332 333 330 331 335 336 336 336 337 341 339 340 340 341 344 348 354 356 357 357 357 358 359 359 360 360 357 355 355 354 353 352
309 310 313 317 310 310 317 319 321 322 323 323 322 322 320 320 319 320 319 319 320 320 320 320 323 325 330 331 332 332 332 333 335 336 335 336 336 337 339 340 344 344 341 345 346 347 353 355 355 355 356 357 358 357 358 357 356 354 352 350 349 346 346
307 315 319 321 321 320 322 320 321 321 322 322 320 319 319 319 320 320 319 316 317 317 318 319 317 317 318 323 329 329 332 332 334 334 333 334 335 335 337 340 340 343 345 348 349 349 350 352 353 354 354 353 353 353 354 355 353 352 351 349 346 344 344
318 320 321 321 321 317 318 321 322 322 324 324 322 322 321 321 322 322 321 320 319 319 320 320 320 319 319 318 318 321 325 330 335 334 336 338 339 340 343 345 345 346 346 346 347 348 350 350 349 351 349 351 354 352 353 352 353 354 352 350 346 343 343
315 321 322 322 322 320 320 321 321 321 323 324 321 321 321 322 322 323 321 321 320 319 318 317 318 320 320 321 319 318 318 319 322 327 334 335 336 338 340 342 343 344 345 347 347 348 348 348 348 347 348 349 351 352 354 352 351 351 351 350 344 342 347

ECMWFFLT2_sfc_thetae_039.txt.gz
Theta_e
309 309 312 311 310 296 300 302 297 300 304 303 300 302 303 303 298 294 306 305 305 312 310 311 315 317 319 321 322 323 324 326 326 327 329 330 330 332 334 335 335 339 340 340 341 343 344 347 348 349 351 352 353 355 357 358 359 360 359 359 359 360 360
310 312 312 312 311 308 301 298 300 307 307 306 301 292 296 293 290 294 300 298 298 302 297 310 311 314 316 318 320 322 325 326 326 327 328 330 331 333 334 336 337 339 341 341 341 342 345 347 349 349 351 352 353 356 358 358 359 359 360 360 359 359 359
309 312 310 308 310 310 304 300 308 300 293 294 298 299 289 289 290 291 297 300 300 301 303 308 308 312 314 316 319 320 324 327 327 328 329 331 333 333 333 333 335 338 341 342 342 342 344 347 349 350 351 353 353 355 358 359 359 361 361 361 360 360 360
309 309 307 299 302 307 309 308 304 306 300 296 294 296 296 294 290 293 293 298 295 307 303 308 310 313 315 317 317 318 324 327 328 328 329 330 331 332 333 333 335 338 340 343 344 343 343 346 348 350 351 353 353 354 357 359 361 362 362 361 361 359 360
308 301 304 301 302 300 301 301 300 301 301 303 300 300 297 292 292 291 291 291 298 304 310 310 310 313 315 317 317 319 322 325 328 328 329 329 331 332 333 333 334 336 339 341 344 345 345 347 349 350 351 352 352 354 355 358 359 360 361 361 361 360 361
301 303 308 308 306 306 303 302 300 301 297 295 291 290 300 298 294 289 292 292 301 308 314 315 313 315 317 318 319 319 321 324 326 328 328 329 330 331 332 333 334 335 338 339 342 344 345 346 349 349 350 351 352 352 354 357 359 360 361 362 361 360 361
301 306 309 311 310 309 307 305 302 304 301 298 293 285 292 297 297 300 299 295 296 309 313 312 313 319 318 319 321 320 320 322 324 328 328 329 330 331 332 333 334 335 337 339 340 342 343 345 347 349 349 350 351 352 353 356 358 360 362 362 362 361 361
306 308 310 310 311 309 306 306 306 303 300 301 297 296 298 295 297 294 295 295 298 310 311 319 319 323 320 322 322 321 321 322 322 327 328 328 329 331 333 333 334 335 338 339 338 340 343 344 345 347 349 350 351 351 353 354 356 359 361 363 363 362 361
296 301 304 304 308 308 304 302 304 305 304 303 302 301 305 297 297 297 293 290 294 310 311 312 322 319 318 320 322 322 320 320 321 322 330 330 330 331 332 333 333 335 337 338 338 340 342 345 346 348 349 349 350 350 351 353 355 359 361 363 363 362 361
289 289 291 293 297 301 304 305 304 305 304 302 299 295 295 289 298 299 294 294 298 307 310 310 310 311 318 320 322 323 322 321 322 322 329 331 332 333 333 334 333 334 336 338 339 341 345 346 346 347 348 349 350 350 350 352 354 357 360 362 364 363 362
295 297 301 310 308 303 301 303 304 304 305 305 302 298 294 290 295 299 296 300 304 305 306 307 308 310 311 319 319 320 320 321 322 321 327 330 331 332 333 333 334 336 337 339 341 343 346 346 347 348 349 349 350 349 349 351 353 356 359 361 363 363 362
302 306 306 308 308 303 304 303 303 305 304 303 301 297 295 299 296 286 298 305 301 302 307 307 308 310 311 320 317 320 330 326 324 325 327 335 329 332 333 333 333 335 338 341 343 346 346 347 347 348 349 350 350 349 349 350 352 355 359 361 362 363 362
304 305 306 308 307 306 305 305 304 303 304 303 301 300 301 302 296 294 298 307 307 308 308 310 314 314 311 313 319 323 327 330 331 328 327 328 330 332 331 331 333 335 336 338 341 346 348 348 347 348 349 349 350 350 350 350 352 354 359 360 361 363 362
304 304 305 306 304 305 305 304 305 305 304 304 303 302 303 302 301 302 301 306 307 309 308 308 310 321 321 321 326 321 322 329 331 334 329 329 331 332 333 334 335 337 338 339 341 344 348 348 347 349 349 349 350 350 350 351 351 354 358 359 360 361 361
302 304 305 305 304 304 303 305 305 305 304 304 304 304 304 305 302 303 303 303 303 308 311 313 316 315 317 320 315 322 324 332 336 336 334 336 334 336 340 338 339 338 339 340 342 345 349 350 349 350 351 351 351 352 352 352 352 354 357 358 358 359 360
303 305 304 304 305 304 303 303 304 304 304 301 303 302 304 301 302 305 301 300 300 306 310 313 311 311 315 315 319 319 319 324 331 336 336 340 340 341 343 345 345 346 352 351 348 347 351 352 351 351 352 352 352 352 353 352 352 354 355 356 356 357 360
300 306 306 304 304 302 299 300 303 305 306 309 305 305 306 305 304 300 299 298 304 306 313 309 308 308 308 314 315 316 318 321 320 322 333 339 341 341 342 343 345 347 352 354 353 352 352 354 353 352 353 353 352 353 353 354 353 353 354 355 355 356 359
299 303 304 305 301 293 295 306 308 308 306 306 304 303 305 306 305 303 304 305 310 315 315 310 308 308 309 310 313 318 316 320 326 326 325 327 330 339 342 343 343 344 347 353 355 354 354 355 355 355 355 355 355 355 354 354 352 352 352 354 355 355 357
297 302 304 297 293 295 310 310 311 310 310 309 307 307 307 309 312 310 309 308 313 315 316 316 315 313 314 321 320 320 323 321 326 325 325 327 331 326 331 340 343 343 344 348 353 354 354 355 356 355 355 356 356 355 355 354 353 351 352 353 354 355 356
300 299 297 290 293 307 314 310 311 317 312 311 309 306 308 309 310 316 313 317 316 316 319 321 320 319 320 315 317 319 319 324 322 321 321 322 326 333 336 342 344 344 344 346 350 353 356 356 356 355 355 356 356 356 356 356 354 352 352 353 354 355 356
293 295 294 295 304 304 309 308 310 310 307 311 306 300 307 317 318 317 317 319 319 322 323 321 319 319 319 315 315 320 318 320 319 318 317 318 321 323 333 343 345 347 347 347 349 353 355 356 356 356 356 357 357 356 356 356 355 353 353 354 355 356 356
298 293 292 293 294 293 299 311 317 316 316 315 316 314 310 325 322 322 319 320 324 325 326 325 323 320 314 311 311 320 327 327 319 316 316 315 315 318 327 337 340 346 349 349 350 353 355 355 357 357 357 357 357 356 355 356 355 354 354 355 357 357 358
298 296 291 291 291 296 305 313 315 316 316 316 316 310 307 321 324 323 322 323 325 326 325 323 321 315 309 312 316 327 330 330 326 326 324 319 317 317 318 319 334 345 350 351 352 354 355 355 357 357 357 357 357 356 355 356 356 354 355 357 359 359 360
302 300 294 292 301 299 309 316 317 316 317 317 311 297 300 319 323 323 323 323 326 328 328 328 325 320 315 319 323 329 334 338 337 332 328 327 332 334 331 323 320 330 351 352 351 354 355 356 358 357 357 357 356 356 356 356 356 355 355 358 361 362 364
300 301 298 298 301 317 319 318 316 315 318 315 300 293 309 324 323 324 325 327 327 328 327 327 325 327 327 327 330 337 338 338 338 340 339 332 333 337 342 339 348 330 341 352 353 356 358 358 358 357 357 357 355 355 356 356 355 356 357 362 364 366 367
297 298 299 296 304 317 322 318 318 317 313 299 297 316 326 326 323 328 330 330 330 329 327 326 326 328 331 337 338 337 337 336 336 339 342 344 347 343 352 352 351 350 347 350 354 357 359 359 358 358 357 356 355 356 356 355 356 358 362 365 366 367 366
301 302 299 294 289 310 319 318 316 318 308 310 319 323 324 327 329 330 331 332 333 335 333 334 334 334 334 334 335 335 335 335 335 336 339 340 342 346 347 346 348 349 349 351 354 358 360 361 360 359 358 356 355 356 356 357 359 362 366 367 367 366 364
297 296 295 294 305 311 318 314 309 319 322 322 326 323 322 329 330 329 328 329 332 334 332 331 331 332 331 331 332 333 334 335 335 336 338 340 339 340 342 343 344 343 339 338 338 340 344 353 359 360 360 357 356 356 357 360 363 365 366 367 366 363 361
306 303 308 313 317 324 323 323 321 324 327 328 324 325 327 327 327 330 328 328 330 332 332 330 329 329 330 329 331 331 331 332 332 334 337 337 337 338 337 336 338 340 341 341 341 339 339 337 336 346 358 358 355 356 360 363 363 365 365 365 362 360 359
312 317 318 318 317 319 321 322 324 324 324 326 327 325 321 321 322 325 327 329 329 329 329 326 326 327 328 329 330 331 331 331 332 333 334 336 336 337 336 335 336 337 338 338 338 337 338 338 337 336 338 345 354 360 363 363 365 365 363 360 358 356 354
304 297 314 315 315 318 320 320 322 322 322 321 321 319 319 319 319 319 321 323 324 324 324 323 322 324 328 328 329 330 330 330 331 333 333 334 335 334 333 333 334 334 335 335 335 337 337 339 340 339 342 340 340 349 363 364 364 362 359 355 352 351 351
307 307 314 317 320 320 320 320 318 317 317 319 319 319 318 317 317 317 316 316 315 316 316 317 316 316 318 321 324 328 329 330 330 330 331 332 334 336 336 336 334 334 334 334 334 335 336 338 339 341 343 344 344 346 353 360 360 357 352 351 350 350 349
312 314 315 317 319 316 317 318 319 318 317 316 317 317 317 316 315 315 316 316 315 315 315 315 314 314 315 316 318 321 326 330 330 330 331 331 331 332 334 335 336 335 335 336 336 335 335 337 338 339 340 341 345 347 353 356 356 353 349 347 348 347 346
304 306 311 315 309 308 313 316 317 317 318 318 317 318 317 317 315 315 315 316 317 317 317 316 314 313 313 315 316 316 318 323 330 331 331 331 331 332 334 333 333 334 338 338 338 337 337 338 339 340 340 340 347 349 347 350 350 346 345 346 346 345 345
304 314 317 319 318 316 317 317 319 320 320 319 318 318 318 318 318 318 316 314 314 315 316 318 316 315 315 314 315 315 316 317 323 330 331 330 330 331 334 333 332 332 333 337 335 332 332 333 336 337 338 342 345 348 349 346 345 345 345 344 343 342 342
315 319 319 319 319 314 319 320 320 320 320 319 318 319 319 319 318 317 316 315 313 313 314 316 317 316 314 314 314 313 314 316 318 321 324 327 331 333 335 335 333 333 334 333 335 333 335 337 338 339 342 344 345 346 348 348 346 344 343 342 340 340 340
313 318 318 321 320 321 323 321 320 320 320 319 317 317 317 317 318 318 316 315 315 314 313 314 315 316 314 313 314 315 316 318 320 322 323 323 324 328 334 335 335 334 335 337 337 336 338 338 338 338 340 345 346 347 347 348 347 344 342 341 340 339 340

ECMWFFLT2_sfc_thetae_042.txt.gz
Theta_e
307 305 308 306 305 294 296 298 295 297 300 299 295 298 299 299 295 290 295 299 297 302 305 310 315 316 317 320 322 322 322 324 325 326 327 327 329 329 330 331 331 332 333 335 336 337 339 340 341 341 343 346 348 350 351 351 352 353 354 355 354 354 354
307 310 308 308 308 302 297 296 296 301 303 300 296 287 291 290 287 289 296 294 293 298 293 305 309 312 315 317 320 322 322 323 323 325 327 328 328 330 331 331 333 333 334 335 336 337 339 341 341 342 344 346 348 350 352 351 352 352 354 355 355 355 354
306 309 308 305 308 308 302 298 301 298 291 291 293 291 287 286 287 287 291 294 295 296 296 304 305 310 312 315 318 320 321 322 323 324 326 328 329 330 331 331 332 333 334 335 336 336 339 341 343 344 345 346 348 350 352 353 352 353 354 356 356 356 356
306 306 304 298 301 306 306 302 299 301 296 295 291 292 290 291 285 289 287 293 290 299 299 303 304 309 313 314 317 319 321 322 323 324 325 327 328 329 330 331 332 333 334 335 337 337 338 340 342 344 345 347 347 349 351 353 354 354 355 355 356 355 356
303 298 300 300 301 300 300 299 298 300 299 298 297 296 294 290 287 284 286 288 292 298 304 306 307 307 313 315 316 319 321 323 324 325 325 326 328 329 329 331 333 333 334 336 337 338 339 341 344 345 346 347 348 350 351 353 353 353 354 355 356 356 357
296 299 303 304 304 305 303 301 299 299 294 292 290 288 296 294 291 285 287 288 290 300 308 309 308 308 311 315 317 318 321 323 324 325 326 327 327 329 330 331 333 334 335 336 337 339 340 341 343 344 346 347 348 349 351 353 354 354 354 355 355 356 356
297 300 304 307 308 307 306 304 301 301 295 293 290 286 287 295 292 298 292 289 293 303 306 308 310 309 311 314 317 318 320 322 324 325 326 327 329 329 330 331 332 333 335 337 338 338 339 340 343 344 346 347 348 349 351 353 354 355 356 356 357 357 356
302 303 304 305 307 307 304 304 305 302 297 297 293 290 290 291 291 291 290 291 289 300 308 308 308 313 312 314 316 317 319 322 324 325 326 326 327 329 331 332 333 333 335 336 338 338 338 340 342 344 345 347 348 349 351 353 354 355 357 357 358 357 357
292 298 299 299 304 305 302 301 303 304 303 300 296 297 296 294 291 292 289 288 289 300 309 308 307 311 314 313 314 317 319 323 324 325 326 326 328 329 330 331 331 332 333 335 338 339 338 340 342 344 345 346 347 348 350 352 354 356 357 359 358 358 357
286 287 288 291 295 299 301 302 302 303 302 299 296 294 293 287 292 293 289 290 291 299 306 306 308 307 306 308 316 317 318 322 325 325 326 327 327 328 329 330 331 330 332 335 337 339 339 340 342 344 345 346 347 348 350 352 354 356 357 359 359 358 357
293 294 294 298 302 300 298 299 300 301 303 302 300 296 292 292 289 293 290 294 295 298 303 302 304 307 305 305 312 316 316 321 325 326 326 327 327 328 329 330 331 331 331 334 336 339 340 340 342 344 345 346 347 348 349 351 353 356 357 358 358 358 357
299 300 299 302 303 300 301 299 299 301 301 301 299 296 294 295 292 291 294 297 299 299 301 302 304 305 305 305 307 314 316 318 323 324 325 333 326 327 329 329 329 329 331 333 335 337 339 340 342 343 345 346 347 347 348 350 352 354 357 357 358 358 357
301 301 302 302 303 301 301 302 300 300 301 301 298 298 296 297 294 294 294 297 298 298 301 303 304 305 305 306 310 314 317 318 321 324 324 324 325 326 327 328 328 329 330 332 334 335 337 339 340 342 344 345 346 347 348 349 351 353 356 356 357 357 357
300 301 301 303 301 302 301 301 301 301 301 301 301 300 299 298 297 297 297 299 301 303 303 305 307 308 309 309 313 317 317 318 319 320 322 325 325 325 326 327 328 329 331 333 334 335 336 338 339 341 343 344 346 346 347 348 350 352 354 355 356 357 357
298 301 302 303 302 301 300 300 301 302 301 302 302 301 300 300 298 299 297 297 299 301 304 306 307 308 314 313 314 317 319 319 319 319 321 324 326 326 326 327 328 330 331 332 334 335 335 337 339 341 343 344 346 347 347 348 349 351 353 354 355 356 356
295 300 301 301 302 301 299 298 299 299 301 299 300 300 300 299 297 298 298 296 296 300 303 306 306 309 309 309 312 318 321 326 328 323 321 323 325 326 326 327 328 329 331 332 334 335 336 338 340 341 343 344 345 346 347 347 349 351 352 353 354 355 357
293 299 300 300 300 299 296 297 299 300 299 301 302 303 305 304 302 298 295 295 299 303 307 305 304 306 306 308 310 313 320 326 329 326 325 324 325 326 328 328 329 331 332 334 335 337 339 340 342 343 344 344 345 347 347 348 349 349 351 352 353 354 356
293 299 299 299 295 290 293 302 303 303 301 301 301 300 300 303 303 300 303 303 302 302 303 304 303 303 304 306 309 312 316 321 327 327 328 327 328 329 330 331 332 333 335 336 338 340 342 343 344 345 346 346 347 348 349 349 348 348 349 351 352 354 355
293 297 300 296 290 291 301 305 305 305 304 304 302 305 306 305 302 306 310 309 305 305 305 306 309 309 312 315 321 322 319 316 323 328 329 329 329 331 332 332 333 334 336 338 339 340 342 345 346 346 346 347 348 348 349 348 348 348 348 349 351 353 354
296 295 295 290 291 302 308 305 307 308 305 304 306 309 315 317 315 311 310 310 312 314 315 313 312 316 321 324 326 326 327 321 320 321 321 326 328 327 330 334 335 335 336 337 339 340 343 345 347 348 347 348 348 348 349 349 348 348 348 349 350 352 353
290 293 294 295 302 303 303 305 307 305 302 302 303 304 309 317 319 315 314 315 317 318 319 317 315 313 315 319 322 330 333 331 330 324 319 318 320 323 323 332 337 339 340 340 341 342 343 344 347 349 349 349 349 349 348 349 348 348 348 348 349 351 353
295 290 291 294 294 292 296 303 310 313 310 311 315 314 309 317 320 319 320 318 318 318 318 317 317 314 311 313 316 326 335 336 336 338 337 334 324 317 322 327 331 337 341 342 343 346 346 346 347 349 350 350 349 348 348 349 348 348 347 347 349 350 352
295 293 289 290 290 291 298 306 311 314 317 321 317 312 305 315 319 319 323 322 322 321 320 319 316 310 307 311 317 329 334 335 336 336 337 340 340 335 323 321 329 335 338 340 343 345 346 348 350 350 350 350 350 349 349 349 349 348 348 348 349 350 351
296 291 290 288 293 296 302 311 314 312 312 312 307 297 301 313 319 323 323 322 322 322 322 324 322 317 313 315 322 332 334 335 335 336 336 337 339 342 345 345 334 330 339 341 342 341 344 347 351 352 351 350 349 349 349 350 349 348 349 349 350 351 352
297 297 291 293 299 309 313 313 315 314 314 308 297 290 305 317 323 328 327 326 325 326 325 325 322 322 323 327 331 333 333 333 333 336 338 337 338 338 340 341 344 341 329 335 341 343 343 345 348 350 352 351 350 349 350 350 349 350 351 351 351 351 352
295 295 291 290 296 308 314 316 318 318 309 296 293 309 319 326 327 329 330 329 329 328 327 326 326 327 330 332 331 331 331 331 332 334 335 335 336 339 339 341 339 340 342 341 340 344 346 349 351 351 350 348 348 348 349 350 351 353 353 352 351 351 352
301 299 293 290 289 302 316 315 314 315 303 301 316 324 326 328 327 328 328 328 328 328 325 327 326 327 328 329 329 329 330 330 331 332 333 333 333 334 335 335 338 341 338 339 339 340 344 346 349 351 350 348 348 348 348 350 353 353 353 353 353 353 353
296 297 295 294 306 311 316 314 304 315 316 323 326 325 322 326 327 326 326 326 327 327 326 325 325 326 327 327 328 329 330 331 332 333 333 334 333 333 333 334 335 339 338 338 338 340 342 342 343 345 350 348 347 347 349 351 354 355 354 356 357 356 355
303 300 304 311 314 314 316 316 318 320 323 326 326 326 325 324 324 325 323 323 324 326 326 325 326 326 327 327 328 328 329 330 331 331 332 333 334 333 332 332 334 335 335 335 337 337 338 339 341 342 344 346 344 348 347 350 355 358 359 359 359 358 358
314 314 314 317 315 314 316 317 317 317 319 321 322 322 319 320 321 321 319 319 320 320 321 321 322 325 327 328 328 329 329 330 330 331 331 332 333 334 334 333 333 334 334 336 337 336 337 339 339 339 342 344 345 344 344 347 350 353 357 359 358 358 359
301 295 312 314 312 314 316 315 316 316 316 316 316 315 314 314 315 315 315 315 315 315 316 316 316 317 322 325 327 329 329 330 330 330 330 330 331 331 332 333 334 333 333 334 335 335 335 337 339 340 340 339 338 338 341 347 350 353 354 355 355 355 357
303 303 311 315 318 318 318 317 315 314 314 313 314 314 314 314 315 315 314 315 314 315 314 314 313 313 315 317 319 322 324 326 327 329 330 330 330 331 332 333 335 335 334 333 334 334 335 337 338 339 340 341 341 341 343 345 347 347 350 351 352 352 352
309 312 314 315 317 316 316 317 318 318 317 315 313 314 315 314 313 313 314 314 314 314 313 314 314 313 313 314 315 316 317 319 321 323 325 328 330 331 332 333 335 333 332 331 331 331 332 334 335 335 338 341 341 340 341 342 343 344 343 341 345 346 344
302 303 306 311 305 306 312 316 317 317 318 317 315 314 313 312 312 313 312 313 314 313 313 313 313 312 313 314 316 316 317 317 319 321 323 325 328 331 333 333 332 332 331 330 330 330 331 333 333 333 335 339 342 345 342 345 345 342 340 339 339 339 338
300 311 315 314 314 313 316 317 318 318 318 317 315 313 312 312 312 312 311 310 311 311 312 312 312 312 314 315 316 316 317 317 319 321 323 324 327 330 333 332 330 330 330 332 331 331 332 334 334 335 336 339 340 342 341 341 343 343 340 337 336 336 335
313 317 317 316 313 312 316 318 319 319 321 319 316 315 314 313 312 312 311 311 310 310 311 311 313 313 315 316 317 315 315 316 317 320 323 325 326 328 331 333 333 331 331 330 330 331 332 333 333 334 337 339 338 341 341 341 340 338 338 336 334 334 334
312 318 318 318 317 317 320 321 321 322 322 321 317 317 317 316 316 315 312 312 312 311 310 310 312 314 316 317 317 316 315 315 317 319 322 324 325 325 328 330 333 334 334 334 333 333 333 334 336 337 337 338 340 340 341 341 339 336 336 336 334 334 334

ECMWFFLT2_sfc_thetae_045.txt.gz
Theta_e
302 304 306 304 303 294 295 296 293 295 297 297 291 294 296 294 290 289 293 295 295 297 302 304 310 312 315 318 319 320 320 321 321 322 322 323 324 325 326 327 329 330 331 332 332 332 333 334 335 336 339 342 343 343 344 344 345 346 348 350 350 351 351
303 305 305 306 305 301 293 293 295 298 300 300 294 286 289 288 285 286 290 292 291 295 292 304 307 308 312 315 318 319 320 320 320 322 323 324 324 325 326 327 329 330 331 332 333 333 333 334 335 336 338 342 344 344 344 344 346 345 347 349 351 351 351
302 305 304 301 304 306 303 297 300 298 289 290 289 287 286 284 284 285 286 291 292 294 295 300 302 307 309 312 315 317 318 318 319 321 323 324 325 325 325 326 328 329 330 332 333 333 334 335 337 337 338 341 344 345 345 345 345 347 347 349 351 352 352
302 302 301 295 299 303 303 300 297 298 294 294 289 292 288 289 283 286 286 290 290 296 296 300 303 306 309 311 312 315 318 319 320 321 323 324 325 325 326 326 328 329 330 332 333 333 333 334 335 337 338 340 342 345 346 346 347 348 348 348 350 350 351
300 295 298 298 299 298 299 296 295 295 297 295 297 294 292 290 283 281 284 285 288 292 298 302 303 305 309 311 312 315 317 320 321 322 323 324 325 326 327 327 328 329 330 331 333 334 335 335 336 338 338 339 341 344 345 347 346 347 348 349 349 350 351
295 295 300 302 302 302 300 299 296 296 293 291 288 288 290 290 289 283 283 287 292 294 304 306 304 305 309 311 313 314 316 318 321 322 323 324 325 326 327 328 329 329 330 331 333 334 335 335 335 337 338 339 340 343 345 347 347 347 348 349 350 351 351
296 298 301 304 305 304 304 302 300 298 293 291 290 284 287 290 290 293 290 286 293 298 304 306 306 305 306 310 313 315 316 318 321 322 324 324 326 327 328 329 329 330 331 331 332 333 334 334 335 337 338 339 340 342 344 346 347 347 349 350 351 352 352
298 300 300 301 303 304 302 302 302 299 296 295 296 292 289 290 288 289 288 289 290 296 305 306 306 306 305 308 312 314 316 319 320 322 323 323 324 326 328 329 330 330 331 332 332 332 333 334 335 337 338 339 340 342 344 346 347 348 349 350 351 352 352
291 295 297 297 300 300 299 298 301 302 301 299 294 293 292 293 291 290 288 288 291 299 307 307 305 309 308 307 310 314 315 318 320 321 322 323 324 326 327 328 329 330 330 330 331 332 333 334 335 337 339 339 340 341 343 345 347 349 350 351 351 352 352
284 285 286 289 292 295 298 299 301 302 301 298 294 294 292 289 291 291 288 288 287 295 298 304 304 304 305 307 309 311 314 316 317 319 321 322 323 324 326 327 328 329 330 331 332 332 334 334 335 337 339 340 341 342 343 345 346 348 350 351 351 352 352
290 292 293 295 299 296 296 298 299 300 302 302 300 294 290 291 287 291 289 293 296 298 300 301 301 302 303 303 302 309 312 313 316 318 320 322 323 324 325 327 328 329 329 330 332 333 334 335 336 337 339 340 341 342 343 345 347 348 350 351 351 351 352
296 298 298 299 300 297 298 297 298 299 299 300 299 296 294 294 290 291 292 293 295 295 295 297 300 301 301 303 302 306 311 313 314 317 319 328 323 324 325 326 326 327 328 330 332 333 334 335 336 338 340 341 341 342 343 345 347 349 350 351 351 351 352
298 299 299 300 300 300 299 299 299 298 299 298 297 298 296 296 296 295 295 295 295 296 297 299 300 302 303 303 302 303 308 312 314 315 317 320 322 322 323 324 326 327 327 329 331 333 334 335 336 337 339 340 342 343 344 345 347 349 351 351 351 352 352
297 298 299 300 299 298 298 299 299 300 299 299 299 299 298 298 298 298 298 296 297 299 300 301 303 304 303 303 304 306 309 311 315 316 318 320 322 322 324 325 326 327 328 329 331 333 334 335 336 337 339 340 341 342 344 345 347 349 351 351 352 352 352
294 297 299 299 298 298 297 297 299 299 300 300 300 300 298 298 298 297 296 296 297 300 300 303 304 302 310 308 308 311 308 310 315 317 319 321 322 323 324 325 326 327 328 329 331 332 334 335 336 337 339 341 342 343 344 345 347 349 351 351 352 352 352
291 296 296 297 298 298 297 297 297 297 298 297 299 298 298 296 296 297 295 293 295 299 300 302 302 304 308 307 307 308 312 312 314 316 318 321 322 323 324 324 325 327 328 328 329 331 333 335 337 337 339 340 342 343 344 345 347 349 351 352 352 352 353
289 295 297 296 297 295 293 295 298 299 299 299 301 301 302 301 301 297 295 296 298 301 303 301 301 302 303 304 306 308 310 314 315 315 318 320 322 323 324 324 326 327 328 329 330 331 333 335 337 338 340 340 341 343 344 346 347 348 350 351 352 352 353
289 293 295 296 291 286 290 300 302 301 299 299 298 298 299 301 302 300 302 302 303 302 301 300 300 301 302 304 313 315 317 312 315 320 321 318 320 324 324 324 325 326 328 329 330 331 333 335 338 340 341 341 342 344 345 346 346 347 348 350 351 352 353
288 292 293 291 285 288 299 300 303 303 303 301 300 300 299 300 300 301 301 303 302 301 301 302 301 307 319 323 326 328 329 324 317 319 321 323 323 321 322 324 325 326 327 329 330 331 333 335 337 339 340 341 342 343 344 344 346 346 347 348 350 351 352
292 290 289 283 285 294 302 303 303 304 303 302 301 304 310 313 314 304 300 301 303 302 303 306 314 323 323 324 326 329 331 331 329 328 326 327 319 325 325 324 325 326 327 329 330 331 335 336 337 338 339 341 341 342 344 345 345 346 346 347 348 350 351
286 288 288 290 297 297 300 302 302 302 298 301 301 297 303 314 315 307 303 304 310 308 308 314 320 320 320 319 320 328 332 331 333 333 332 335 333 328 323 326 330 331 331 332 332 335 336 337 337 338 339 340 341 342 342 344 344 345 345 345 346 348 350
292 288 286 288 288 288 293 301 310 314 311 308 306 306 305 312 316 315 310 310 312 311 314 317 318 314 314 312 315 324 331 333 333 335 335 336 336 337 337 336 334 331 332 333 335 336 335 337 338 339 340 340 340 341 342 343 343 344 344 344 346 347 349
292 290 286 285 286 289 300 307 312 314 315 314 310 304 301 310 315 318 316 314 313 314 314 313 310 310 307 310 313 323 330 331 334 333 334 335 336 336 336 337 337 338 333 333 335 337 335 336 338 341 342 341 341 341 342 343 344 343 343 344 345 346 348
292 290 288 287 291 293 305 310 312 314 315 314 306 294 295 309 319 322 320 318 317 316 312 312 313 311 309 313 317 326 330 331 332 332 332 332 333 335 336 337 337 337 337 334 336 337 338 339 340 342 344 343 342 342 342 343 343 343 344 345 346 347 348
293 294 291 291 294 306 310 311 313 315 316 309 297 292 301 314 321 324 322 323 322 321 320 318 319 321 319 321 325 331 331 331 331 333 333 332 332 332 334 335 339 337 337 336 333 335 336 339 344 344 345 344 343 343 343 343 343 344 346 347 347 347 348
294 294 293 292 294 305 312 313 314 316 308 297 294 299 312 326 324 325 325 324 324 325 324 325 325 327 329 330 330 330 331 331 332 332 332 332 333 333 334 337 336 337 337 337 338 339 340 341 343 346 345 344 344 344 343 343 345 347 347 347 347 347 347
300 298 295 291 287 300 314 313 312 316 305 302 309 324 326 327 325 324 324 324 324 326 324 326 327 328 328 329 329 329 330 331 331 331 331 331 332 331 332 332 335 337 335 335 336 336 338 340 340 341 344 345 344 344 344 345 348 348 348 348 348 347 347
294 296 294 293 305 310 315 313 304 310 312 318 322 323 322 323 324 323 323 323 324 326 325 325 325 326 326 327 328 329 330 330 331 331 332 332 333 333 334 334 335 337 336 335 335 336 337 337 338 337 340 343 344 344 345 348 348 348 349 349 349 347 346
301 297 302 310 313 315 316 315 315 314 313 315 317 320 322 322 321 323 323 322 324 326 326 326 326 325 327 327 329 328 329 329 330 330 330 331 332 333 333 334 335 336 335 335 336 337 337 337 337 337 337 339 340 344 343 345 346 349 350 350 349 348 347
313 314 314 316 315 315 316 318 317 315 313 313 314 314 314 314 316 318 319 319 320 322 325 323 324 325 326 326 326 327 327 328 329 331 331 332 332 333 334 334 334 335 336 336 336 336 336 336 338 338 338 336 335 335 338 341 343 347 349 349 349 349 348
299 293 313 313 313 315 315 315 316 317 317 313 313 312 312 313 314 315 316 316 317 319 320 320 319 319 319 318 319 321 323 324 326 328 329 330 332 332 332 334 334 333 334 334 335 335 333 334 335 338 340 340 339 338 338 340 343 344 347 349 349 349 349
300 302 311 313 316 316 317 315 313 313 314 315 314 312 313 313 314 314 314 315 315 316 314 315 314 314 316 316 317 319 321 323 324 326 328 329 331 332 333 332 332 330 330 331 331 332 331 331 332 335 338 340 341 339 340 341 342 342 344 345 349 351 351
307 312 313 314 316 315 315 316 315 315 315 314 312 312 311 312 311 312 313 314 314 314 314 315 315 314 314 316 318 319 321 322 324 326 328 330 331 331 331 331 332 331 330 330 330 331 331 331 331 334 335 337 339 339 339 339 338 339 340 340 342 345 346
300 301 306 312 305 305 311 314 315 316 317 316 314 312 311 310 309 310 310 311 313 314 315 315 315 314 314 316 319 319 321 322 324 325 327 329 330 331 332 332 332 332 333 333 332 333 333 333 333 334 334 336 337 338 338 339 338 339 339 339 339 340 340
298 310 313 313 313 312 313 314 317 318 319 318 315 314 312 311 311 310 309 309 310 312 314 315 315 314 314 314 317 318 320 321 323 324 325 326 328 330 332 333 333 333 333 334 333 333 333 335 336 336 336 337 337 338 336 336 337 336 336 336 337 337 337
311 314 316 316 313 310 313 316 317 317 318 317 315 316 315 313 312 311 310 309 308 310 312 314 315 314 315 315 316 315 317 319 320 321 322 324 325 327 327 327 328 328 329 330 331 331 333 334 335 336 337 338 336 337 336 334 334 332 332 332 331 331 332
310 316 317 317 315 315 317 317 317 318 319 318 315 315 316 315 314 315 312 312 312 311 311 313 315 316 313 312 313 314 315 316 318 320 320 322 322 322 324 324 323 324 325 327 328 329 329 330 331 332 333 335 336 337 336 335 334 332 331 330 329 328 329

ECMWFFLT2_sfc_thetae_051.txt.gz
Theta_e
307 307 308 307 308 296 301 303 298 301 307 303 298 298 299 297 295 293 302 299 302 308 307 310 312 313 313 315 319 321 324 326 330 330 332 334 335 336 338 338 339 342 343 344 344 345 344 345 346 346 349 352 352 354 355 356 357 358 358 358 358 359 359
307 310 309 308 308 308 302 298 302 306 308 306 301 293 298 294 291 295 296 296 297 299 296 313 310 312 312 313 315 319 323 326 326 327 330 333 334 335 338 340 341 342 342 343 343 344 344 344 345 346 350 351 354 354 354 355 356 356 357 357 357 358 359
306 308 309 306 308 309 305 303 309 301 295 295 302 298 290 290 290 292 296 297 298 300 300 308 309 310 312 314 316 318 320 323 324 326 329 332 334 335 336 338 339 340 341 342 343 342 343 344 347 348 348 349 351 352 354 354 355 355 356 356 358 359 359
305 306 306 298 301 305 305 307 304 308 303 300 297 298 299 298 292 291 292 296 294 303 303 306 308 314 315 315 315 317 320 323 324 326 327 329 332 333 334 335 337 339 340 341 342 342 342 343 344 345 345 346 346 349 352 353 354 356 357 357 357 358 358
304 299 303 301 303 300 301 301 301 301 302 305 304 301 298 295 294 294 293 292 298 306 309 307 308 312 318 317 318 319 320 323 325 327 328 330 332 332 333 335 336 337 339 340 341 342 342 343 344 344 344 344 345 347 349 351 353 354 354 355 356 358 358
298 301 305 306 306 306 303 302 301 301 300 297 294 294 300 299 296 292 293 292 301 305 311 311 311 313 316 321 320 320 321 322 325 326 329 332 332 334 334 334 335 336 339 340 341 342 343 342 342 342 342 343 344 345 347 349 350 351 352 353 356 357 358
300 302 306 309 309 309 307 305 303 304 303 302 298 292 295 298 299 300 300 295 298 311 313 316 316 316 316 319 321 320 321 323 324 327 327 330 336 335 332 333 333 335 338 339 340 342 343 342 342 342 342 342 343 345 346 348 349 350 351 353 355 358 358
303 304 305 305 305 305 305 306 307 304 301 302 301 300 303 297 298 296 297 294 300 308 318 318 317 322 319 322 320 323 321 322 323 324 326 330 334 338 334 334 332 335 337 341 343 343 343 343 344 343 342 343 343 344 345 347 348 349 351 352 354 357 357
297 299 303 303 303 303 302 303 305 306 305 305 304 306 305 298 299 298 296 292 299 309 318 316 315 313 313 315 316 319 321 324 324 325 329 331 337 338 335 336 336 337 336 338 340 341 343 343 343 344 343 343 342 344 345 345 347 349 351 353 353 354 355
288 288 290 293 297 299 302 303 303 305 304 303 302 298 300 294 302 302 298 297 305 310 313 313 314 314 317 318 318 317 318 322 321 322 325 332 334 338 338 340 339 336 338 340 340 342 343 344 343 343 344 344 342 344 344 345 346 348 350 351 353 353 353
296 296 297 297 299 299 298 300 302 302 304 305 304 303 300 295 303 299 301 303 304 305 308 312 313 315 314 316 321 320 319 321 325 328 329 329 333 335 334 339 340 341 342 340 340 342 342 341 343 343 343 343 343 345 345 345 346 348 351 352 354 354 353
296 296 297 298 298 296 298 298 300 303 302 303 302 300 299 310 300 295 303 310 303 304 310 314 319 318 318 320 321 320 321 324 325 326 329 327 326 331 335 338 340 340 340 340 341 343 342 342 344 343 344 343 345 345 344 345 346 348 350 353 356 355 353
295 296 297 299 298 299 299 300 300 300 302 303 300 301 307 306 300 297 309 312 305 306 307 311 316 321 321 316 320 322 322 318 324 328 326 326 326 330 331 337 340 341 340 342 341 343 343 342 342 343 343 343 345 346 347 347 345 347 351 352 353 352 353
294 295 297 299 298 298 298 298 299 300 301 301 302 302 303 304 305 306 309 312 306 307 308 310 313 321 320 322 321 317 317 315 325 323 325 322 324 326 330 336 338 342 342 343 345 345 344 343 343 342 343 344 344 344 345 345 348 349 353 353 354 353 354
293 295 297 299 298 297 296 298 299 300 301 301 302 302 303 304 303 304 304 311 308 310 316 313 316 324 318 315 314 315 322 322 318 320 320 323 324 325 329 334 337 340 342 343 345 345 345 344 344 343 343 345 344 342 345 346 348 350 350 352 352 353 353
291 295 295 295 297 297 297 298 299 300 300 299 301 301 304 303 302 305 303 303 306 312 315 315 318 315 316 317 321 323 323 320 322 325 327 328 330 328 328 329 332 336 338 341 342 343 342 342 344 345 343 345 344 343 345 346 347 349 349 351 351 354 354
289 293 294 294 295 296 294 296 299 301 302 303 303 305 306 305 305 302 301 302 310 313 317 314 315 314 315 316 316 320 322 329 325 327 331 331 328 328 330 331 333 331 332 337 343 342 342 342 342 343 345 343 345 346 347 347 350 349 349 349 353 353 355
289 292 293 295 293 287 290 302 301 304 302 303 301 301 303 305 306 305 308 309 315 316 315 313 315 314 317 319 325 324 326 330 336 333 333 332 331 331 333 333 332 335 338 337 339 341 345 345 343 343 345 345 348 349 349 352 351 349 349 349 353 354 356
287 291 293 290 286 289 301 302 310 313 314 313 310 306 305 306 307 307 307 308 312 317 316 316 317 317 323 333 326 323 331 337 338 340 338 340 343 343 344 344 341 338 338 341 341 343 343 343 344 344 345 345 348 352 351 351 353 351 351 353 351 354 355
292 289 290 283 287 297 299 301 314 317 313 315 312 305 306 308 308 309 307 309 312 316 317 316 318 321 333 335 338 338 338 338 338 337 338 340 340 340 342 342 343 346 344 339 338 341 343 343 342 343 344 345 348 351 352 350 350 351 352 353 352 355 356
285 289 289 288 296 294 297 300 310 312 309 310 311 305 310 316 315 310 309 311 312 313 315 315 320 324 327 328 332 337 338 338 338 337 339 338 340 339 340 340 341 345 347 346 343 345 345 344 343 343 345 346 349 349 348 347 351 352 353 353 353 355 354
291 287 286 287 287 286 295 311 314 315 316 316 315 310 309 315 320 321 316 310 312 313 314 313 321 327 318 314 319 334 338 338 338 337 337 338 340 339 339 341 343 346 347 348 348 341 343 345 344 347 347 348 352 353 351 350 351 351 350 351 353 355 354
290 287 284 284 284 290 306 309 311 315 317 316 317 308 303 315 316 319 319 321 321 314 316 318 325 318 310 312 318 337 338 338 338 338 338 339 338 339 340 340 341 343 346 348 347 343 344 343 347 350 349 351 352 350 350 346 347 347 349 352 353 354 356
288 288 285 284 289 291 302 311 312 315 318 316 312 297 299 313 316 317 319 320 324 327 322 325 323 316 310 311 320 336 338 337 337 337 337 337 337 339 341 342 343 344 347 351 349 346 346 353 350 351 349 351 351 350 347 348 347 349 351 354 356 358 360
288 288 287 289 291 299 302 307 314 317 317 313 301 295 309 314 316 318 320 322 325 328 327 322 318 322 328 331 338 336 336 335 335 336 336 337 337 338 340 341 343 344 344 344 344 346 348 352 348 348 350 350 351 353 353 351 351 352 355 357 358 359 360
286 288 286 287 292 300 309 315 315 317 307 298 298 312 315 316 316 319 321 321 325 328 328 326 324 332 329 336 336 335 335 335 335 336 336 337 338 340 341 342 342 343 343 344 344 344 348 350 350 348 351 352 354 353 352 351 354 355 357 359 361 361 360
290 289 287 286 283 304 310 316 313 316 303 307 315 315 318 318 318 318 319 320 325 328 327 327 330 331 333 334 335 334 333 333 334 335 336 336 336 337 339 340 341 342 341 341 341 343 346 350 354 352 350 352 352 353 352 357 359 356 357 357 359 359 359
286 286 284 286 296 313 316 314 306 315 317 317 317 316 315 319 317 317 317 321 327 329 329 329 330 331 331 332 332 332 332 333 334 335 336 336 336 337 338 339 340 341 340 340 340 343 345 348 352 357 356 352 352 353 353 355 361 360 357 356 359 358 358
292 289 296 308 307 316 318 318 317 318 318 318 317 317 316 316 318 318 318 319 323 329 330 329 330 328 330 330 331 331 332 332 333 333 334 334 335 335 336 337 339 340 339 339 340 341 343 344 346 349 354 355 354 350 349 353 358 362 361 358 357 357 357
301 302 303 306 309 310 314 317 318 316 316 317 317 316 316 317 317 318 317 320 322 327 330 328 329 329 329 329 330 331 332 332 332 333 334 335 336 336 337 338 339 340 340 340 340 339 340 343 343 344 345 346 344 342 346 349 353 357 362 360 358 357 357
294 290 307 309 311 313 315 316 316 318 318 317 318 317 317 317 317 318 319 321 323 326 329 329 328 328 329 329 330 331 331 332 332 333 333 334 336 336 337 338 340 340 341 339 338 338 338 341 343 343 345 344 344 345 346 348 351 355 359 360 361 359 357
291 292 300 305 310 315 316 316 316 315 317 317 318 319 318 317 318 319 319 321 321 324 325 327 327 328 330 329 329 329 331 331 332 332 333 334 335 337 339 340 341 340 340 339 338 338 338 339 341 341 341 342 344 345 346 347 349 352 352 354 359 360 361
294 297 298 299 302 308 314 316 318 318 318 317 318 317 317 317 318 319 320 320 319 320 320 325 327 326 327 329 329 329 330 331 331 333 333 335 337 338 338 339 340 339 338 338 338 338 338 340 340 340 339 341 341 342 343 346 349 349 348 349 350 350 351
289 291 297 305 300 302 310 314 316 317 319 318 317 317 315 316 316 317 318 319 320 320 320 321 326 326 326 327 329 329 329 330 331 333 334 335 336 337 338 338 339 339 339 339 338 338 338 340 340 339 339 340 340 341 342 344 348 347 347 347 346 348 349
291 298 302 305 309 308 312 316 318 319 319 318 317 316 315 316 317 317 317 318 319 319 319 320 321 324 325 326 327 326 326 327 329 331 334 334 334 335 336 336 336 337 338 339 339 338 339 340 340 341 340 341 342 343 342 342 342 342 344 341 341 343 343
299 301 303 306 304 302 308 314 317 318 321 319 317 319 320 319 318 318 318 318 318 318 319 320 321 322 323 323 324 324 324 326 328 330 332 333 334 335 336 336 336 336 336 337 337 338 339 340 340 341 341 342 343 343 345 344 343 341 340 339 339 339 340
298 304 306 306 307 309 313 315 318 320 321 320 318 318 320 320 319 319 318 319 319 318 318 318 319 322 322 321 321 321 321 323 326 327 329 329 330 331 332 333 334 335 335 337 338 339 339 339 339 339 340 341 342 342 344 344 343 341 339 339 337 339 339

ECMWFFLT2_sfc_thetae_054.txt.gz
Theta_e
310 309 311 310 312 300 305 306 301 303 310 307 302 303 303 303 302 299 306 303 305 310 311 314 315 315 316 317 318 318 320 322 325 329 333 335 337 341 344 346 348 351 351 354 354 356 355 356 357 358 359 361 362 362 362 364 365 367 365 366 364 365 365
310 313 312 311 312 312 308 301 305 310 312 309 304 297 301 298 294 298 302 300 303 303 300 312 311 311 313 315 316 317 320 322 325 328 332 335 337 341 345 348 350 351 352 353 353 354 355 356 357 358 361 362 362 362 363 364 364 365 365 366 365 366 366
310 312 311 309 312 313 309 306 313 304 299 298 304 302 294 295 294 296 300 302 302 304 305 311 311 310 311 314 317 317 317 320 323 327 332 336 339 340 342 345 348 349 350 351 353 353 354 356 358 359 360 360 361 362 363 363 364 364 365 364 366 366 367
310 310 308 301 305 310 312 313 308 311 308 303 300 301 303 302 297 297 298 301 299 308 308 310 311 314 315 314 315 316 317 319 321 326 329 333 338 339 341 344 346 347 349 351 352 352 352 354 357 357 358 358 358 360 362 363 364 365 366 366 366 365 366
309 302 306 304 305 303 304 305 305 306 306 309 307 306 302 300 299 298 299 297 303 310 313 311 312 315 316 316 316 318 318 319 321 324 326 332 338 340 342 344 345 347 349 350 351 353 352 353 356 356 356 356 357 358 360 361 362 362 363 364 365 366 366
303 305 310 309 309 309 306 305 304 306 303 302 299 298 306 303 300 296 298 297 307 310 313 314 313 315 316 317 317 318 320 320 323 324 326 331 337 342 343 343 343 345 349 350 351 352 353 352 352 353 354 355 355 357 358 359 360 361 361 362 365 365 367
305 308 311 313 312 312 310 308 305 308 307 306 302 295 301 304 303 304 303 300 305 315 315 315 315 315 315 316 316 317 319 322 322 325 326 333 340 342 341 342 341 344 348 350 350 352 352 351 352 352 353 353 354 356 356 358 358 359 359 362 364 366 366
308 310 312 312 313 311 308 309 309 308 305 306 305 304 307 303 304 300 300 299 304 314 318 317 315 318 317 319 317 318 317 318 321 324 328 332 341 345 343 344 341 344 345 349 351 350 351 352 353 352 352 353 354 354 354 356 356 357 359 360 362 365 365
302 303 306 307 310 310 307 306 308 309 309 309 308 308 309 303 304 303 300 296 303 313 318 321 319 316 316 316 317 319 319 320 320 323 333 336 342 345 341 341 342 343 342 346 350 352 355 353 351 353 352 352 352 352 353 353 354 356 358 360 361 363 364
293 293 293 296 300 303 307 309 309 309 308 307 305 301 304 298 306 307 302 302 310 313 316 314 315 315 317 317 318 318 320 324 323 328 333 342 342 345 344 343 342 340 345 348 352 353 354 352 351 353 354 352 351 352 353 353 354 356 357 358 360 362 362
300 303 306 306 308 306 302 305 307 307 308 309 308 307 303 300 305 303 306 307 308 309 311 313 315 316 315 316 318 318 320 324 331 336 334 332 338 345 343 345 345 347 347 348 351 354 352 351 352 352 352 351 351 353 353 353 354 356 358 359 361 361 362
303 301 302 304 304 305 305 304 304 307 308 308 306 304 302 310 305 298 307 311 306 309 312 313 314 315 317 317 319 319 323 331 328 331 345 342 337 339 344 346 346 347 349 350 352 355 353 351 352 352 352 351 352 352 352 353 353 354 356 359 361 361 361
300 301 301 303 303 304 304 305 305 305 307 307 305 306 307 309 304 302 309 311 309 310 312 314 315 317 318 316 318 322 326 323 327 334 328 330 334 337 339 345 349 350 350 352 353 352 352 350 350 350 350 351 353 354 353 354 352 353 357 359 360 359 361
299 300 301 302 302 303 303 304 305 306 306 306 307 307 308 307 308 309 310 312 310 312 313 314 316 318 318 318 321 323 322 319 332 329 330 323 322 331 340 344 346 351 352 353 355 354 355 350 350 349 350 352 351 352 352 352 354 355 357 359 360 361 361
299 300 301 301 301 302 301 303 304 304 305 306 306 306 307 309 308 308 309 310 309 314 319 317 318 319 318 319 318 317 320 320 320 321 321 322 323 324 332 348 346 349 352 353 355 356 355 353 351 351 352 352 352 350 352 353 355 355 355 359 360 361 361
297 300 299 300 301 301 300 301 302 303 303 303 305 304 307 306 306 308 308 307 308 314 317 318 318 318 318 318 319 319 319 318 319 320 320 322 324 325 326 342 345 349 350 351 351 353 354 354 354 353 354 352 352 351 352 353 353 352 353 357 360 362 362
296 299 299 298 299 299 297 299 302 304 305 306 307 308 309 308 309 306 304 306 312 315 317 316 317 316 317 317 316 318 319 323 321 321 322 322 323 324 335 347 350 345 342 346 353 350 350 352 352 352 354 351 354 354 354 356 356 352 352 355 361 363 362
295 297 297 298 296 291 294 307 308 307 305 305 304 305 307 309 310 308 311 311 315 316 315 314 316 316 317 318 321 322 322 322 322 323 325 322 323 323 328 340 340 346 349 347 345 348 353 353 351 353 355 352 354 356 355 356 356 356 355 355 359 361 361
292 296 296 293 290 292 306 308 311 310 309 308 307 308 309 309 311 311 311 312 313 315 316 317 319 320 320 319 319 319 320 324 324 325 325 327 333 339 342 351 348 353 357 356 355 351 349 349 352 352 351 351 354 357 354 354 357 356 354 356 357 360 361
295 294 294 287 291 302 304 307 312 314 311 314 312 309 312 312 312 312 311 312 313 315 315 316 318 320 319 319 323 331 328 328 333 325 324 326 329 334 343 351 358 362 360 359 357 355 352 349 349 352 351 351 351 356 356 356 356 355 356 357 356 360 362
289 292 293 293 302 300 302 302 309 312 309 314 309 303 306 311 313 317 321 320 316 314 315 316 316 318 317 318 323 323 324 331 334 329 328 327 340 349 355 353 352 357 360 359 360 361 357 351 349 350 351 351 352 355 354 353 356 356 356 357 357 360 361
294 291 290 292 292 290 297 305 315 318 318 317 318 313 310 319 323 324 324 322 323 320 318 317 317 317 316 316 317 322 322 328 336 336 335 344 348 348 350 354 353 356 358 359 360 359 358 353 351 351 350 352 354 356 355 354 354 355 354 355 357 360 361
292 291 288 289 289 294 306 307 313 316 318 314 321 307 302 321 323 324 325 322 326 327 327 329 327 319 313 313 317 321 322 326 337 340 345 344 346 351 351 351 352 353 357 359 359 360 360 351 352 352 352 353 354 355 355 350 351 352 353 355 356 357 361
291 291 289 288 294 294 305 312 313 316 316 314 315 298 300 319 323 323 326 324 327 330 332 333 329 323 314 313 319 341 338 343 347 348 351 350 349 350 351 352 354 355 356 359 358 354 353 353 353 354 351 352 356 355 351 349 350 352 354 356 359 360 362
291 289 290 293 295 302 303 308 314 315 314 310 301 295 312 319 323 324 326 325 327 329 329 332 327 329 327 331 340 342 345 343 345 348 348 349 347 348 348 350 350 354 355 355 355 357 361 361 355 353 353 354 356 356 355 352 351 353 357 360 361 362 363
290 291 288 289 295 302 304 306 306 309 306 298 298 317 320 324 322 327 326 326 329 330 330 330 332 334 336 337 339 340 340 344 346 346 346 347 347 347 348 347 350 354 354 356 355 353 355 355 353 352 354 355 357 356 355 353 355 356 359 362 364 364 365
293 293 290 288 284 298 303 305 304 307 300 303 318 319 322 323 324 324 327 328 330 330 331 333 333 334 335 335 337 342 343 343 345 346 346 346 345 346 347 348 349 350 353 353 354 356 357 358 356 357 357 357 358 358 356 357 359 361 363 364 366 365 366
289 289 287 288 298 309 313 310 302 308 310 314 321 320 312 323 324 327 326 330 331 330 330 331 332 334 335 338 341 342 342 342 343 343 343 344 344 345 346 346 348 349 350 352 353 355 358 364 361 357 359 358 358 358 362 367 366 366 366 365 366 364 364
296 292 296 302 306 308 311 312 314 315 320 322 324 323 322 321 324 328 327 329 330 331 332 332 333 332 335 336 336 337 339 339 340 341 341 342 343 344 345 345 349 351 350 350 351 353 355 359 363 365 362 362 363 361 363 365 363 361 362 362 363 362 363
303 304 304 306 306 307 309 311 314 314 317 321 322 322 321 326 327 328 326 328 328 330 333 331 332 332 333 334 335 336 337 338 339 339 340 341 343 344 346 347 349 351 352 352 352 353 354 357 358 359 360 360 357 357 361 365 368 366 363 361 360 360 361
295 291 303 303 305 307 309 310 313 314 317 320 322 323 326 327 328 328 328 328 329 330 333 332 333 332 333 333 335 337 338 338 339 340 341 342 344 345 345 346 347 350 351 350 349 349 350 353 355 356 357 356 357 358 359 361 365 367 367 364 361 361 361
294 294 300 302 304 305 307 308 309 311 315 320 323 324 325 327 328 327 328 328 328 330 331 333 332 333 334 334 335 336 338 339 340 341 341 343 344 346 347 347 347 349 349 348 347 347 347 349 350 351 352 354 356 358 359 361 364 365 364 365 364 365 364
297 301 302 303 305 306 306 307 309 312 314 318 321 323 325 325 326 326 327 327 328 328 329 331 333 333 334 334 335 335 336 338 339 340 342 343 343 345 345 346 346 346 346 345 345 345 344 347 348 349 350 351 353 355 357 360 361 361 359 358 362 363 363
292 294 298 304 298 298 303 307 311 316 321 324 322 323 323 325 326 327 326 325 327 327 327 328 330 331 331 334 335 335 335 336 338 340 341 342 342 342 343 344 345 344 344 344 343 343 344 345 346 347 347 348 350 352 356 358 358 356 356 357 358 358 359
292 300 303 306 306 306 308 311 314 315 315 314 317 320 323 325 327 327 327 325 325 325 326 328 329 329 330 331 334 333 334 336 338 339 340 340 340 342 342 342 342 342 342 343 343 343 344 344 345 345 345 346 347 349 352 353 353 353 353 351 351 351 352
301 303 303 305 303 301 305 308 309 308 313 314 312 314 321 327 327 327 326 326 325 325 325 326 327 329 331 332 332 331 333 336 337 338 340 341 341 342 342 341 341 341 341 342 341 341 342 343 344 345 345 346 347 347 349 350 351 351 351 350 349 348 348
299 305 305 306 306 306 308 309 309 310 313 314 311 312 318 326 327 327 324 323 325 326 324 324 327 330 328 329 331 330 331 333 334 335 335 336 339 339 339 340 340 340 340 341 341 342 342 342 342 342 343 344 346 346 347 347 347 347 347 347 347 346 345

ECMWFFLT2_sfc_thetae_057.txt.gz
Theta_e
313 313 314 313 314 302 308 308 303 306 312 309 306 308 308 308 305 302 309 306 308 313 314 316 317 318 318 319 320 322 324 325 330 333 334 333 334 337 342 347 349 352 355 357 357 359 358 360 359 359 362 363 363 365 367 368 370 369 369 370 368 368 367
313 316 315 314 314 314 310 303 306 312 314 311 307 300 304 302 299 302 306 304 305 305 302 315 315 314 316 317 318 320 324 325 326 332 332 332 333 336 342 348 352 353 354 357 357 358 359 360 361 362 363 363 364 366 367 367 369 369 369 368 367 367 367
312 315 314 311 313 315 311 308 314 306 300 300 306 304 297 298 297 300 304 306 306 307 308 312 312 313 314 316 319 319 320 322 323 325 330 333 333 334 339 345 350 351 353 355 358 358 359 361 363 363 363 364 365 366 367 367 367 368 368 366 367 368 368
311 312 311 303 306 312 314 315 310 313 309 304 302 303 305 304 299 299 300 304 302 310 311 313 314 315 316 316 317 318 319 320 321 323 324 329 333 333 337 342 348 351 352 354 356 357 358 359 362 362 363 363 363 365 366 366 368 369 369 368 368 367 367
311 304 308 305 306 304 305 307 307 308 307 311 309 308 304 302 301 301 302 300 305 311 314 313 315 318 318 317 316 319 319 322 323 325 325 329 334 334 335 339 345 350 353 353 356 358 358 359 362 362 362 362 363 364 364 366 366 366 366 367 367 368 368
305 306 311 311 310 309 307 306 306 308 304 303 300 299 308 305 302 298 301 300 310 313 317 317 317 319 318 319 319 318 320 320 324 325 328 332 334 337 338 339 342 348 353 353 354 357 358 358 359 361 361 362 362 362 363 364 364 364 364 365 367 369 369
306 309 313 314 314 313 311 309 307 310 309 308 304 296 302 306 305 306 306 303 307 316 319 319 318 318 318 320 320 320 320 321 322 324 325 330 336 337 336 339 339 344 352 354 354 357 357 357 359 360 360 360 360 362 363 363 362 363 363 365 366 369 368
311 313 314 314 314 313 309 310 311 310 307 308 306 306 309 305 305 302 303 301 307 315 320 319 318 320 318 321 319 320 320 321 322 323 325 330 334 337 338 338 336 340 346 354 357 357 357 358 359 359 360 361 361 361 361 362 361 363 363 364 365 368 369
305 307 310 310 312 311 309 307 309 310 311 311 310 310 312 306 306 306 302 298 304 315 320 320 319 317 316 317 318 319 320 322 323 324 326 329 337 339 338 341 341 342 344 352 358 358 363 361 356 359 359 359 360 360 361 361 361 363 364 364 364 367 367
297 296 297 299 303 305 308 310 310 310 309 309 307 303 307 300 310 311 305 304 313 316 320 318 318 317 319 319 319 318 321 322 321 323 325 336 342 347 346 345 344 345 355 358 361 362 363 357 356 360 362 359 359 360 361 361 361 362 363 363 364 366 366
303 306 313 312 311 308 305 307 309 309 310 310 310 309 305 302 308 307 310 311 311 314 313 315 316 317 316 316 320 319 320 322 327 338 338 338 342 346 342 345 345 352 358 358 359 362 358 356 356 356 357 358 358 361 361 361 362 363 364 364 367 366 367
310 309 309 309 310 308 308 307 307 309 309 309 309 305 304 313 307 300 311 314 310 312 314 315 316 317 319 319 321 321 322 323 324 328 335 342 338 343 346 347 347 348 351 355 358 360 357 355 356 356 356 356 359 360 359 360 360 361 362 365 369 368 367
308 312 307 308 308 310 310 309 309 308 309 309 307 308 309 311 306 304 312 314 312 314 314 316 318 320 319 317 319 323 325 324 328 331 331 326 331 338 343 350 352 351 349 354 355 356 356 354 355 355 355 356 360 361 360 361 359 360 364 368 368 365 368
309 309 308 309 307 307 308 308 309 310 309 309 308 308 310 310 311 312 314 315 312 314 316 317 318 320 320 321 322 325 325 320 328 326 325 324 324 330 337 345 349 355 354 357 357 358 360 356 356 354 355 358 357 357 358 358 361 362 365 367 367 367 367
304 307 306 307 307 306 305 308 309 310 310 310 310 309 310 311 311 311 311 314 313 316 320 320 322 323 322 322 319 319 323 323 322 323 322 324 328 328 333 345 345 350 352 356 359 360 361 359 357 356 357 357 357 356 357 358 364 363 360 367 364 364 366
300 304 305 306 307 306 306 306 308 307 308 307 309 308 311 309 309 310 310 310 311 318 320 320 321 322 322 320 321 321 321 321 322 322 322 324 326 326 327 334 347 349 350 353 359 360 358 359 358 357 360 357 357 356 357 357 357 357 358 359 362 365 366
299 304 305 304 304 304 302 303 306 308 309 310 311 312 313 312 313 310 308 309 316 319 321 319 319 319 320 320 319 321 323 326 323 323 323 324 324 326 330 330 333 336 339 346 358 355 357 358 357 357 358 356 360 359 360 362 362 357 355 356 362 366 366
299 303 304 304 301 295 297 309 311 310 308 309 308 308 310 313 313 312 315 316 319 319 318 317 318 319 320 322 325 325 326 325 325 324 325 324 324 326 327 328 328 334 339 343 340 345 356 358 357 358 359 355 359 361 360 362 361 361 362 359 362 364 367
298 302 300 297 292 295 308 311 312 312 311 311 309 310 311 312 313 313 313 314 316 318 318 319 320 322 322 323 323 323 323 325 324 325 324 327 328 329 330 332 331 338 344 357 354 350 345 347 355 357 358 356 359 362 361 360 362 364 360 361 364 366 366
299 299 298 290 293 305 308 309 312 315 313 312 310 308 311 312 312 313 312 314 315 317 318 318 321 323 322 322 325 324 323 324 324 323 325 328 328 327 329 333 359 365 357 359 354 358 358 353 351 353 355 358 358 360 361 358 359 360 362 363 362 364 367
294 296 297 296 305 303 305 306 310 311 309 310 308 304 308 313 314 314 314 315 316 316 317 318 319 321 319 319 320 322 322 323 324 325 327 326 328 329 332 335 350 366 366 362 359 363 364 361 353 351 351 354 358 358 358 357 359 360 361 361 360 364 366
299 296 294 296 296 294 301 308 314 319 319 316 316 311 309 315 316 316 315 316 317 317 318 319 320 319 317 314 316 321 322 323 324 326 325 327 330 330 339 356 357 360 360 359 360 361 360 362 361 356 351 356 363 362 361 360 358 359 358 357 358 362 367
296 295 292 293 293 297 307 308 312 316 318 317 318 311 305 317 317 318 318 318 321 321 321 322 323 320 314 314 321 327 332 341 349 348 326 330 343 356 357 355 352 354 361 365 364 364 366 363 365 362 357 357 360 358 358 356 355 356 357 358 359 361 366
296 295 293 292 298 299 306 311 312 315 317 316 312 299 301 322 322 322 322 321 322 326 332 333 328 322 314 313 320 337 338 342 344 350 353 357 354 353 353 354 360 361 362 363 361 362 359 361 366 365 356 356 360 356 355 356 354 355 359 361 362 364 367
293 293 294 297 299 305 308 311 314 314 315 312 302 296 311 323 325 326 324 324 326 329 329 330 321 324 324 324 333 339 340 340 347 351 351 350 350 349 349 352 356 355 357 361 360 362 368 370 364 361 355 354 357 359 360 359 357 357 362 363 365 367 367
291 293 292 294 299 306 308 310 314 315 309 299 301 319 326 324 322 324 325 326 328 328 328 329 331 333 335 336 337 338 338 345 347 349 349 350 351 353 357 356 355 354 357 362 363 360 362 362 363 360 358 358 359 360 360 359 360 359 363 365 366 367 367
294 295 293 291 286 302 307 308 308 311 304 309 314 319 322 320 323 322 324 324 330 329 326 328 331 332 332 334 336 338 341 344 346 347 350 350 349 350 351 354 357 353 357 360 361 362 364 362 359 360 360 358 360 361 360 363 363 363 363 365 366 367 367
290 290 289 290 300 311 310 308 303 308 310 317 319 318 318 321 320 323 323 324 330 332 329 329 329 332 334 336 338 339 342 344 345 346 348 350 349 349 349 350 354 353 357 358 358 361 361 366 362 361 361 360 362 363 362 366 364 363 366 366 368 367 367
296 294 297 305 308 311 313 313 314 315 318 319 321 320 320 320 322 327 326 327 329 329 331 330 330 330 333 335 337 338 340 342 342 344 346 346 346 347 349 349 353 355 355 356 357 357 360 364 365 363 363 362 363 361 364 365 364 363 365 367 367 366 366
304 305 306 308 309 310 311 312 313 312 314 316 317 320 321 323 324 326 326 328 331 331 331 329 328 330 333 335 337 337 339 341 343 345 344 344 347 347 349 352 352 353 354 355 356 355 356 359 362 364 367 367 363 365 368 368 369 369 369 369 368 367 367
297 292 306 306 307 309 310 309 311 313 314 315 316 316 320 323 325 326 328 329 330 330 332 331 332 332 333 333 336 339 340 340 342 342 343 346 348 349 350 351 352 353 354 353 353 352 353 357 358 359 363 364 364 365 366 368 367 368 368 367 365 366 366
296 297 304 306 308 308 309 309 309 310 313 314 315 316 320 322 324 326 328 329 329 330 330 333 333 332 333 334 337 338 339 340 342 344 345 346 348 350 350 351 353 353 352 352 351 352 352 355 356 357 358 359 360 362 362 365 368 368 364 363 363 364 365
299 303 304 305 306 306 307 309 310 311 311 311 315 321 322 323 325 326 329 330 329 330 330 332 334 334 335 336 338 338 339 340 341 343 345 347 347 348 350 350 351 351 349 349 350 350 350 353 355 356 358 360 362 364 365 367 368 367 365 363 367 367 365
294 295 299 304 297 298 303 307 309 311 316 317 317 317 318 320 321 323 323 325 330 330 330 331 332 333 336 338 338 336 337 339 341 343 344 346 346 346 348 349 349 349 349 349 349 348 349 351 352 353 355 357 359 360 363 366 369 367 365 366 366 365 365
294 300 304 305 305 305 306 309 312 313 314 314 313 314 316 319 320 321 321 321 325 329 330 332 332 334 335 337 338 339 339 340 343 344 344 344 345 346 347 347 347 346 346 347 347 347 348 349 349 349 350 352 354 357 359 361 364 363 363 361 360 361 361
302 304 304 306 304 302 305 308 310 311 312 312 313 315 316 317 319 320 320 320 321 327 330 332 333 334 336 336 337 337 339 340 341 343 344 346 346 346 347 345 345 345 345 345 345 346 347 348 348 348 347 349 352 353 356 358 359 359 358 355 354 354 354
301 306 306 307 306 307 308 308 309 311 313 314 313 314 316 318 319 319 320 321 322 327 330 330 332 334 336 337 337 337 338 338 339 340 342 343 345 345 344 343 343 344 344 344 345 345 346 346 346 347 347 347 349 350 353 354 356 355 353 352 351 351 350

ECMWFFLT2_sfc_thetae_060.txt.gz
Theta_e
313 312 314 314 315 302 307 307 302 304 311 308 304 305 306 305 302 299 306 304 306 311 311 314 315 315 315 317 318 319 323 328 332 331 333 331 331 337 338 338 341 343 347 352 353 355 355 356 355 355 358 360 361 362 363 363 364 364 363 364 364 364 365
313 316 315 315 315 314 309 302 305 311 313 311 305 298 303 301 297 299 304 301 303 303 300 312 313 313 314 315 316 317 321 325 330 330 332 332 330 340 341 341 341 342 343 351 353 354 356 356 355 357 360 361 363 364 364 363 365 364 364 364 364 366 365
312 316 314 312 314 315 310 307 314 304 300 299 305 303 296 297 296 300 303 305 305 305 305 309 309 311 313 316 318 317 317 320 329 330 332 336 335 335 335 337 341 343 346 349 355 355 357 358 359 359 361 360 362 364 365 366 364 365 365 363 366 366 365
312 312 311 303 307 312 314 315 310 312 308 304 301 302 304 304 299 299 300 304 301 309 310 311 311 313 315 314 316 316 317 322 327 329 333 334 334 336 338 338 341 343 344 352 355 355 356 358 358 357 358 358 359 362 365 366 367 368 367 366 367 366 365
311 304 308 305 307 305 306 307 306 307 307 310 308 307 303 301 301 300 300 298 304 310 315 313 314 315 317 316 316 321 318 321 327 334 333 334 335 336 339 338 340 346 350 353 355 356 357 359 360 358 357 357 358 361 364 365 365 365 365 365 364 365 366
305 306 311 311 310 310 307 306 305 307 304 302 299 298 307 304 301 297 300 299 310 312 316 316 316 319 317 318 318 319 319 320 325 328 334 336 335 336 338 339 343 346 349 352 355 357 358 358 358 358 358 357 358 360 363 364 364 365 365 365 366 366 367
307 309 312 314 314 313 311 309 306 310 308 306 302 295 300 304 304 305 305 302 307 317 318 320 318 318 318 319 318 318 319 321 323 326 329 336 337 336 338 337 336 343 348 350 354 358 358 357 359 359 358 358 358 360 362 364 364 364 364 365 366 367 366
313 312 313 313 314 313 310 309 310 309 306 306 305 304 306 303 303 301 301 301 306 314 331 325 318 327 319 321 319 322 318 319 323 326 327 335 335 336 335 337 335 338 344 352 356 358 359 359 361 360 360 360 360 360 361 363 363 364 365 365 364 366 365
305 306 308 309 312 311 308 307 308 309 310 310 309 309 310 303 304 303 301 296 304 313 323 322 319 317 317 318 318 320 319 321 321 326 328 333 337 338 335 339 338 344 346 351 356 358 359 360 360 361 361 361 360 360 361 361 362 364 365 366 365 364 363
296 295 295 298 302 304 308 310 308 309 308 309 307 302 306 299 309 309 302 302 312 315 322 318 317 316 321 318 318 319 323 323 320 321 332 338 338 340 340 344 340 342 346 353 358 359 360 360 359 362 363 362 360 361 362 363 363 364 364 364 363 365 365
303 304 308 309 311 307 304 306 308 307 308 310 310 308 305 301 307 306 310 310 310 312 313 315 315 316 315 315 318 318 320 322 332 353 349 345 345 341 341 349 342 342 347 358 359 361 361 358 358 362 362 361 361 363 363 363 364 364 366 365 365 366 366
308 313 311 311 312 307 307 306 306 308 307 308 307 305 303 316 306 301 313 325 310 311 313 314 316 317 320 319 320 318 325 332 331 337 348 344 337 344 349 350 357 362 350 359 362 362 360 357 358 359 361 361 362 365 363 363 362 363 363 365 366 366 366
308 310 311 312 311 310 309 308 308 307 308 307 306 307 309 312 305 304 316 322 314 313 314 314 317 319 318 317 318 319 324 329 336 339 333 330 331 337 339 357 364 364 365 364 364 362 361 359 358 359 359 361 363 366 365 364 362 363 365 366 367 366 366
307 308 309 311 310 309 309 309 308 308 308 307 307 308 309 309 314 314 315 321 313 314 315 315 317 320 318 320 323 324 325 324 336 328 334 326 328 330 339 346 350 361 363 368 367 367 364 360 361 357 359 362 363 363 364 364 364 365 367 367 367 366 366
303 307 309 310 310 309 307 308 310 309 309 308 308 308 309 310 310 311 311 316 315 317 322 320 320 323 322 323 320 319 326 323 322 325 322 324 327 335 338 352 348 359 362 364 368 368 367 364 363 360 360 362 364 359 362 362 365 367 368 368 367 366 366
300 305 307 308 309 308 306 306 308 308 308 306 308 307 309 309 309 311 310 312 310 317 320 318 321 322 322 322 324 323 325 321 323 323 323 326 332 332 333 341 345 356 356 359 361 362 361 361 364 362 363 362 362 358 362 362 363 365 364 368 367 367 368
299 305 306 307 306 304 302 304 306 308 310 312 311 311 312 311 312 308 307 309 317 321 323 318 317 318 319 320 319 322 323 334 325 325 327 327 328 335 345 351 352 346 347 350 360 356 357 359 357 358 363 360 360 361 362 364 364 361 361 362 369 368 368
298 303 305 306 301 295 298 310 312 312 310 310 309 308 310 312 312 311 314 316 321 320 318 317 319 318 321 324 331 328 331 332 332 324 326 323 324 325 328 332 337 345 351 354 357 357 362 362 355 357 360 360 363 365 366 367 364 363 362 361 368 369 369
297 302 303 298 294 297 309 312 314 314 313 312 310 311 312 312 312 313 314 315 319 321 321 321 325 329 323 323 324 323 323 329 329 327 325 327 333 337 341 341 337 356 357 362 361 359 354 357 362 359 360 361 366 368 366 367 366 364 363 362 364 370 368
301 298 298 291 294 307 309 311 314 315 313 312 310 309 312 315 314 316 315 317 318 321 320 320 323 325 321 323 326 326 324 324 324 322 323 324 324 326 333 348 361 364 357 359 352 366 361 351 347 359 359 357 361 366 366 365 365 364 363 363 362 369 368
294 297 297 297 305 305 306 306 309 310 309 310 309 304 309 315 316 315 315 317 318 317 318 319 320 322 321 322 322 322 322 324 322 322 323 323 327 333 343 341 364 368 364 360 359 362 362 357 353 356 357 358 361 363 363 359 363 364 363 362 361 366 367
299 295 294 296 297 295 301 308 312 314 314 315 315 311 308 314 315 316 316 315 316 316 316 318 319 319 318 315 318 323 321 321 320 342 348 349 342 349 352 359 356 363 365 364 363 360 357 356 358 362 356 366 364 363 363 362 361 362 361 361 362 365 368
296 294 292 294 294 297 306 307 311 315 317 315 315 310 304 314 315 316 315 314 316 317 316 317 318 315 311 312 324 325 327 339 345 345 347 347 345 348 354 355 357 359 360 362 359 357 358 356 362 365 363 364 373 364 363 357 356 357 359 361 362 362 368
294 295 293 292 299 300 306 310 311 314 317 316 313 299 301 314 316 318 317 314 316 319 330 327 320 316 311 316 326 333 334 336 347 348 350 350 350 350 353 352 351 355 357 357 359 361 360 363 361 362 361 362 367 368 360 357 356 357 360 362 364 365 370
293 293 293 297 301 307 308 311 313 314 316 313 302 296 309 323 323 323 321 320 326 328 329 328 323 326 327 330 334 335 336 340 346 349 351 351 351 350 349 349 360 356 354 356 358 360 362 365 369 368 364 363 363 368 367 361 358 358 364 368 369 367 369
292 294 292 294 298 307 308 311 314 315 310 300 301 318 322 323 323 325 326 326 327 326 327 327 328 328 330 332 334 335 335 336 341 346 347 349 350 349 351 353 356 355 354 358 360 361 366 365 363 361 369 369 368 370 368 363 365 367 373 372 371 369 369
295 295 292 291 287 303 310 312 311 314 306 307 314 318 320 322 323 323 325 327 328 328 326 326 326 328 327 331 332 335 337 339 341 344 345 349 348 347 348 349 353 352 351 354 357 360 360 362 366 365 367 367 368 371 367 369 372 372 376 373 372 371 370
289 290 289 291 300 309 310 309 304 309 313 316 318 321 317 321 322 323 324 326 328 328 327 325 326 325 328 329 330 331 335 338 340 342 346 348 346 346 346 346 348 351 353 358 359 360 358 362 367 368 367 367 368 369 369 376 376 374 378 378 373 371 369
294 293 297 305 309 311 312 310 309 310 314 317 316 317 318 319 320 324 324 324 327 328 328 326 325 326 328 329 330 330 334 336 338 341 344 345 345 345 346 345 350 350 351 354 355 358 360 362 367 368 367 367 366 364 370 375 376 373 374 377 372 369 369
304 304 304 307 310 312 312 311 312 311 313 315 315 314 314 318 321 323 323 324 326 326 329 327 329 330 331 331 329 331 333 335 338 342 344 344 345 346 348 350 351 352 353 355 356 355 357 360 365 367 366 368 362 366 372 374 375 373 373 374 371 369 369
297 293 306 306 308 310 311 309 310 312 313 313 314 316 318 318 320 321 324 324 325 327 329 329 328 328 331 330 332 334 336 337 339 341 342 344 345 346 348 351 352 354 354 353 353 353 354 357 361 363 364 368 370 372 371 368 372 373 376 373 370 370 370
297 298 304 307 308 308 309 308 308 309 312 313 317 317 318 318 318 319 320 321 321 324 325 328 329 329 330 332 334 335 337 339 340 342 342 344 347 350 351 351 352 353 353 352 352 353 352 356 359 358 360 362 363 365 365 367 369 374 372 372 369 370 371
299 303 304 305 306 306 307 309 310 311 311 313 315 316 315 316 316 318 319 320 320 322 324 327 329 329 331 333 334 334 335 337 340 342 344 345 347 350 351 352 352 351 350 350 350 350 351 355 357 359 359 361 360 361 363 370 375 368 369 368 370 370 369
294 296 300 304 298 298 304 307 309 311 313 314 313 313 314 315 316 316 317 318 320 320 322 324 325 327 330 332 334 334 335 337 340 342 344 346 347 348 350 350 350 349 350 350 349 349 351 354 354 356 358 360 362 364 369 372 370 371 368 368 368 368 368
294 301 304 308 307 306 307 308 311 312 312 312 310 311 312 314 315 316 316 316 317 319 321 322 324 326 329 332 333 334 335 338 342 343 344 344 346 347 348 348 347 347 348 348 348 348 349 351 351 353 356 357 361 363 367 369 371 370 370 370 368 366 367
302 304 305 307 305 302 305 308 310 311 312 311 310 312 313 313 314 314 316 318 317 317 318 320 323 326 329 332 333 334 336 338 340 343 344 346 347 347 348 347 347 346 345 346 346 347 348 349 349 351 350 353 358 357 362 364 369 368 367 365 363 361 360
301 306 306 307 307 307 308 310 310 311 313 313 311 311 312 312 313 316 317 317 318 317 317 318 322 326 328 332 333 334 335 337 341 341 343 345 346 346 345 345 345 346 346 347 349 350 349 349 348 348 349 351 354 354 357 358 358 358 359 358 353 352 351

ECMWFFLT2_sfc_thetae_063.txt.gz
Theta_e
308 309 311 310 311 297 302 303 298 301 306 303 300 303 302 304 299 292 303 300 300 302 305 307 309 310 312 313 313 316 328 329 329 331 334 335 335 335 337 338 339 340 341 342 342 342 345 348 349 351 352 353 353 353 353 353 353 354 354 355 355 354 354
309 311 312 311 312 310 303 299 302 307 309 306 300 292 296 293 289 292 298 296 295 296 293 305 305 307 309 311 312 311 326 327 326 330 333 333 333 333 336 338 340 341 341 341 342 343 345 348 349 350 352 353 354 354 354 353 353 353 354 355 355 355 354
309 311 311 308 311 313 305 303 309 302 294 294 297 300 290 289 289 290 295 298 297 298 298 303 304 305 306 308 310 311 318 325 325 328 330 332 333 334 335 337 338 340 341 341 342 343 346 348 349 351 353 354 355 355 355 355 354 354 355 356 356 356 356
308 308 307 299 304 310 311 310 306 308 302 297 294 297 299 296 291 292 292 296 292 301 302 304 305 306 307 307 308 310 311 325 326 327 329 331 332 333 335 337 338 340 342 343 343 344 347 349 349 351 353 354 354 356 356 355 356 356 356 356 356 355 356
307 300 304 302 303 302 304 303 301 303 302 304 302 301 297 295 293 292 292 292 299 304 308 307 306 307 308 309 310 310 311 324 325 328 330 332 332 333 335 336 337 339 341 343 344 346 347 349 351 352 353 353 354 356 356 357 355 355 355 356 356 356 357
301 302 307 308 307 307 305 303 300 301 299 296 294 291 301 299 295 289 293 292 302 306 313 310 309 310 310 310 310 314 312 324 326 328 330 333 331 333 334 336 338 339 341 343 344 345 349 351 351 351 353 353 354 355 356 357 357 356 356 356 356 356 357
302 306 309 311 311 310 308 306 303 304 302 300 295 287 293 298 298 301 300 295 298 311 313 312 312 312 312 312 312 313 314 323 328 329 329 333 332 333 334 335 337 338 340 342 345 345 346 351 352 352 353 353 353 355 356 357 357 357 357 357 357 357 357
307 309 310 310 311 310 307 307 307 305 301 302 299 297 300 296 297 294 295 295 298 308 314 315 313 312 313 313 313 312 313 325 328 329 328 332 333 333 334 335 336 337 338 340 343 346 348 351 352 352 353 353 354 355 356 357 357 358 358 358 358 357 357
297 301 305 305 309 309 305 304 305 306 305 305 304 303 304 297 297 297 293 289 296 309 317 311 312 312 313 312 313 314 311 322 328 329 329 331 332 333 333 334 334 336 338 340 341 344 348 351 353 353 353 353 354 354 356 357 359 360 360 360 358 358 357
289 290 291 294 298 302 305 306 305 306 305 303 302 297 299 290 300 300 295 295 302 309 314 313 310 310 311 312 313 314 313 317 328 329 329 329 332 332 332 333 334 335 339 342 346 347 349 352 353 353 353 353 354 354 355 358 360 361 361 362 360 358 358
294 298 302 308 307 303 301 303 305 304 305 305 303 300 298 292 300 298 298 302 303 308 308 311 309 309 310 312 311 314 313 314 321 328 330 329 330 332 332 333 335 339 343 345 349 350 351 352 353 354 354 354 354 354 354 357 360 361 362 362 361 359 358
302 304 304 307 309 303 303 303 303 305 304 304 302 299 297 303 300 291 303 308 304 306 308 312 311 308 311 313 310 321 326 330 332 327 330 338 330 332 333 333 336 339 342 344 349 351 352 352 353 355 355 355 355 354 354 357 360 362 363 362 361 360 358
301 303 305 307 307 307 305 304 304 304 304 303 301 302 305 306 298 295 305 307 306 307 308 310 315 312 312 311 319 325 326 327 329 328 329 329 329 330 331 330 335 338 340 343 348 351 352 353 353 355 356 356 356 356 356 357 359 361 362 362 361 360 359
300 302 304 306 305 306 307 307 305 305 304 303 303 303 306 306 305 308 313 308 310 309 309 310 311 314 313 318 323 323 323 325 327 328 328 329 330 336 332 330 334 337 340 343 348 351 352 352 353 355 356 356 356 356 357 357 358 360 362 361 360 360 359
298 303 304 306 306 305 304 307 307 307 305 304 304 304 304 308 306 306 313 313 309 312 311 313 318 316 316 317 317 317 317 321 325 325 326 331 336 342 340 338 340 341 344 347 349 351 352 352 352 354 356 357 357 358 358 358 358 359 361 360 360 360 359
294 301 305 304 305 305 304 306 305 305 304 302 303 302 304 304 304 305 307 305 307 309 313 316 315 315 316 317 317 315 315 318 318 320 329 330 333 339 344 348 352 353 354 354 353 353 353 353 352 353 355 357 357 357 358 359 359 360 360 360 360 359 360
292 298 301 303 304 301 299 301 304 308 307 306 306 306 307 306 308 304 302 304 310 312 316 314 313 315 315 315 317 318 319 320 320 319 325 327 330 335 339 344 348 351 354 356 356 355 355 354 353 354 355 356 356 357 358 360 360 359 359 360 360 360 360
290 295 297 304 298 291 293 309 309 313 307 306 304 303 305 306 308 306 308 311 315 314 312 312 312 314 313 314 317 319 319 317 316 317 321 329 332 337 340 342 343 344 347 352 355 356 356 356 357 356 356 355 357 358 359 360 359 359 358 359 360 360 360
289 294 297 297 291 293 307 309 311 313 310 308 308 307 308 307 308 310 310 313 314 317 317 318 315 316 317 320 320 319 323 320 318 318 320 318 329 337 338 338 345 342 341 347 351 352 353 355 354 354 355 356 357 356 358 358 358 358 358 357 359 360 360
293 295 296 289 293 304 308 308 310 312 311 310 308 306 309 310 311 313 310 312 312 315 315 316 316 317 317 318 318 317 324 337 338 339 339 327 320 325 342 351 350 349 352 353 356 356 357 356 353 353 352 355 357 356 358 358 357 357 357 356 357 361 360
288 290 293 294 303 301 304 305 307 306 306 305 304 300 307 316 318 314 314 314 314 315 315 317 317 316 316 313 313 320 335 340 341 342 345 348 349 350 352 355 354 352 351 351 354 354 350 351 352 353 352 353 356 356 356 357 357 356 356 355 355 361 361
292 288 289 293 294 291 299 308 309 311 313 312 311 308 308 317 320 323 315 313 313 313 314 314 315 316 313 311 320 337 343 345 344 345 347 347 346 346 346 346 350 353 354 354 356 356 355 355 354 354 357 354 352 354 354 354 356 356 355 354 355 357 362
289 289 287 289 290 296 301 306 310 312 312 312 312 308 305 314 317 323 323 321 321 321 317 314 314 313 314 316 321 334 343 345 346 345 345 345 344 345 348 348 347 350 352 355 355 352 347 346 348 350 356 357 355 353 355 354 354 355 355 354 354 354 359
290 290 287 288 297 298 303 308 311 312 314 313 308 298 301 313 316 323 323 321 320 321 322 323 321 318 316 318 324 331 338 344 345 344 343 343 343 342 344 352 351 350 352 353 354 352 356 356 358 355 352 354 358 357 354 354 352 352 354 355 355 355 358
290 291 289 292 296 304 305 309 312 314 316 311 301 295 308 314 319 323 323 321 321 321 320 321 318 321 324 325 329 334 338 341 343 345 345 344 344 343 345 350 356 349 349 353 354 355 356 358 357 357 360 358 352 356 357 353 351 352 353 355 357 356 359
287 289 288 290 298 304 307 310 312 315 311 300 299 313 316 317 319 322 322 321 322 321 319 319 320 323 325 328 330 332 334 338 342 343 343 343 343 344 345 350 351 346 349 349 352 353 355 357 359 360 358 354 357 354 355 356 354 353 355 357 358 357 359
291 291 288 287 284 302 308 309 309 312 305 304 313 315 317 319 319 320 320 321 321 322 321 324 325 326 326 326 327 329 331 333 336 341 341 341 340 341 341 341 346 347 345 351 354 354 355 355 357 360 359 356 357 358 357 358 359 358 359 359 359 358 359
287 288 287 288 305 306 308 306 301 307 311 316 319 315 313 317 317 317 318 318 319 322 323 324 325 326 326 327 328 329 331 332 336 338 340 340 340 342 344 344 344 349 346 350 349 352 357 356 357 359 359 356 356 357 358 362 363 362 365 361 360 358 357
292 292 296 304 303 307 307 307 307 308 311 314 315 315 314 312 313 317 316 315 318 320 323 324 324 324 327 327 330 330 331 334 335 337 338 339 340 341 342 347 351 350 348 348 348 351 352 353 356 359 361 357 356 355 359 364 363 363 367 363 360 358 357
301 300 301 307 309 307 305 308 309 308 309 314 315 313 311 312 314 315 314 315 317 319 322 322 324 325 326 328 329 331 332 333 334 336 338 340 341 343 345 347 348 348 349 350 351 351 352 353 355 362 358 356 356 359 364 365 364 362 367 364 360 358 358
293 289 303 305 307 306 306 307 309 309 310 311 314 312 312 312 314 314 315 315 316 317 320 320 321 324 328 327 327 329 330 331 333 336 338 340 341 344 344 348 352 348 348 349 349 350 350 351 352 355 356 357 356 358 361 363 363 362 363 363 361 360 359
292 293 299 302 304 305 307 307 306 307 309 313 312 312 313 316 315 315 315 316 315 316 317 318 319 322 326 327 326 327 329 330 332 335 337 339 340 344 346 348 349 348 347 347 346 346 347 349 351 354 357 357 359 359 361 363 365 365 363 362 361 360 360
296 298 300 303 304 303 305 308 309 309 310 312 310 311 313 313 313 313 314 315 315 316 315 316 318 320 323 326 327 328 329 330 332 336 337 339 340 342 344 345 350 345 345 346 345 346 345 346 348 350 353 356 359 361 364 365 366 361 360 361 362 361 361
291 291 295 302 297 297 303 306 305 306 308 310 309 311 310 312 313 313 311 313 317 317 316 315 315 319 321 324 326 327 329 331 334 336 337 338 340 343 345 346 345 344 347 345 343 343 344 346 347 348 349 351 356 359 362 365 365 359 358 359 359 360 361
290 298 301 302 303 303 306 306 308 310 312 309 309 309 309 310 312 316 314 314 315 315 315 317 316 317 320 321 325 327 329 331 334 337 337 338 339 342 345 344 344 342 342 344 343 343 343 345 345 347 347 350 351 352 356 359 361 360 358 357 357 359 360
299 301 301 302 301 299 302 305 307 309 310 309 309 310 311 312 311 313 314 315 314 313 314 316 319 319 319 321 325 327 329 331 332 333 336 338 340 343 344 344 342 340 340 342 342 341 342 344 346 345 347 349 351 351 354 356 357 355 352 350 349 350 353
297 302 302 303 303 303 305 305 306 308 310 311 308 308 309 310 313 313 311 312 315 315 314 316 320 323 323 324 325 326 328 330 333 336 340 340 341 342 343 344 342 341 341 342 342 343 343 344 344 345 346 348 348 348 349 353 353 349 348 347 346 345 346

ECMWFFLT2_sfc_thetae_066.txt.gz
Theta_e
305 305 308 307 308 296 301 302 297 300 302 301 296 298 297 296 291 291 294 298 296 298 300 303 305 306 307 314 323 324 325 327 329 330 331 333 334 335 337 338 338 338 339 339 340 341 341 343 344 345 346 347 347 348 348 347 348 349 349 350 348 349 349
305 308 308 308 308 303 301 298 301 303 306 303 297 287 291 290 285 288 293 293 290 294 291 301 302 302 305 307 320 324 326 326 327 330 332 333 334 335 337 338 339 339 339 340 340 342 342 343 344 345 346 348 349 349 349 348 348 348 349 350 349 349 348
305 307 306 304 308 308 304 303 305 302 292 295 294 293 287 285 286 285 290 294 293 292 293 298 299 301 302 304 314 323 324 326 327 329 331 333 334 335 336 337 338 338 339 340 340 341 343 344 346 346 348 349 350 350 350 350 348 349 350 351 351 350 349
304 305 303 296 300 307 307 306 304 303 298 297 292 295 291 291 286 289 287 292 291 297 296 299 300 302 303 304 305 322 325 326 328 329 331 332 333 334 335 336 337 339 340 340 341 341 343 344 345 347 348 349 350 350 351 350 351 350 350 351 352 350 350
303 297 300 299 301 299 300 299 299 301 301 299 298 298 293 290 287 286 287 287 291 297 302 304 304 304 304 305 305 318 325 327 328 330 331 332 333 334 335 336 337 338 340 341 341 342 343 345 347 348 348 349 350 351 351 351 350 350 350 351 351 352 351
295 297 303 305 304 304 302 299 297 301 298 293 294 289 298 295 291 285 287 288 292 302 308 306 306 307 307 306 307 312 325 327 328 330 331 332 333 334 335 336 337 338 340 341 342 342 343 344 346 347 349 350 350 350 351 351 352 351 351 351 351 352 352
296 302 305 307 308 307 305 303 299 302 300 296 293 288 291 295 293 299 294 289 293 303 308 308 308 308 308 308 308 308 324 327 329 330 331 332 333 334 334 335 337 338 339 341 341 341 341 343 345 347 349 349 350 351 351 352 351 351 352 352 352 352 353
302 305 308 308 308 306 304 304 302 301 299 300 298 295 293 294 293 292 291 291 291 301 310 308 308 309 309 309 308 307 322 327 329 329 330 332 332 333 334 336 337 338 339 340 340 340 340 341 344 346 348 350 351 351 352 352 351 352 352 353 353 352 352
293 298 300 300 304 305 302 302 303 302 303 302 298 299 296 294 294 294 289 287 291 300 311 309 309 309 309 308 308 311 321 325 327 329 330 331 332 332 333 334 335 337 338 338 339 340 340 341 343 345 347 349 350 351 352 352 352 353 353 354 353 353 352
284 286 287 288 294 296 299 304 304 303 301 300 297 294 294 289 294 295 291 289 295 301 306 305 306 306 307 307 309 314 323 324 326 328 329 330 331 331 332 333 334 335 337 339 339 339 341 342 343 344 346 348 349 351 352 353 353 353 353 354 354 353 353
287 289 292 298 300 300 298 301 303 303 302 301 300 296 291 291 292 294 295 297 296 301 303 303 305 305 305 304 309 315 320 324 326 327 328 329 330 331 332 333 334 336 336 338 339 340 341 343 344 345 346 347 349 350 351 353 354 354 354 354 353 353 353
291 293 293 296 298 296 298 300 301 303 302 300 299 296 295 296 294 288 297 299 298 299 302 303 304 306 305 306 309 316 321 323 325 326 328 336 329 331 332 333 333 334 335 337 339 340 341 344 345 346 347 348 349 349 350 352 354 355 355 355 354 353 353
291 292 293 296 298 300 301 303 302 301 302 301 298 297 298 300 296 293 298 300 299 301 304 305 306 305 307 310 317 317 321 324 325 325 327 328 328 329 330 331 332 333 334 336 338 340 342 344 346 347 347 348 349 350 351 353 354 355 356 355 354 354 353
290 292 295 300 299 302 303 302 302 302 303 302 301 300 301 302 299 300 301 302 302 304 306 306 308 310 311 317 321 319 320 323 324 324 327 328 328 329 329 330 331 332 334 336 338 340 342 344 347 348 348 349 350 350 351 352 354 356 357 356 355 354 353
288 293 298 298 298 301 301 301 302 302 302 302 302 301 301 304 302 302 305 303 303 305 308 309 313 315 316 318 320 320 321 324 325 324 326 328 328 329 329 329 330 331 334 336 338 339 341 344 347 349 350 350 351 351 352 352 353 356 357 357 356 355 355
286 293 294 295 298 301 300 300 302 302 301 299 301 301 301 301 301 305 305 302 301 306 311 312 311 312 312 311 311 315 320 324 326 324 325 327 327 328 329 329 330 331 335 337 339 340 341 344 347 350 351 351 351 351 352 352 354 356 358 358 357 357 357
284 291 293 293 298 298 296 298 301 303 303 303 310 312 307 306 303 303 301 302 305 308 312 311 310 311 310 310 312 315 318 322 325 325 325 326 327 328 328 329 332 334 337 339 342 343 344 345 347 350 353 352 352 352 353 353 355 356 357 358 358 357 358
284 289 291 298 296 288 291 302 305 305 308 310 308 309 311 313 314 300 305 308 309 309 310 309 309 311 312 315 321 317 319 322 326 330 331 331 331 329 329 331 333 335 338 341 344 347 348 349 350 351 354 354 354 355 355 355 354 355 356 357 358 358 358
283 288 292 294 288 291 302 306 308 309 308 314 312 312 313 314 315 316 312 310 309 309 311 317 322 327 332 336 337 339 337 328 328 331 333 334 336 336 336 336 337 339 342 344 346 347 349 351 351 352 353 355 355 355 355 355 355 354 355 356 357 358 358
288 289 289 285 290 302 305 305 306 309 309 307 313 310 313 314 315 316 313 311 311 312 319 327 334 336 337 338 339 338 339 341 340 339 339 341 344 344 344 342 343 346 348 349 350 349 352 354 352 352 353 355 355 355 356 356 356 355 355 355 356 357 358
284 286 285 289 300 301 302 302 302 303 302 303 308 304 308 314 315 316 314 315 311 318 327 333 335 337 337 334 335 340 338 338 341 341 340 340 340 341 343 346 346 348 349 349 351 353 351 352 352 353 354 355 355 355 355 356 356 356 355 355 355 357 358
289 283 284 288 290 288 295 302 306 308 309 309 311 311 308 315 315 317 316 315 317 317 320 328 331 334 331 327 330 337 339 339 339 341 343 345 345 345 345 346 348 350 351 351 349 344 345 347 350 352 351 354 354 354 354 355 355 355 355 355 355 356 357
285 283 283 284 285 292 301 301 305 307 309 311 311 309 305 313 314 317 317 317 318 319 320 321 328 327 322 323 329 336 338 338 339 337 338 340 342 344 345 345 346 348 351 354 354 354 353 352 352 347 350 349 351 352 353 354 354 354 354 355 355 355 357
285 285 283 282 292 288 300 303 305 308 311 313 309 299 300 312 314 316 316 317 319 319 320 323 323 324 321 324 331 338 338 338 338 338 337 338 339 341 344 345 345 347 350 350 350 351 351 352 353 354 351 351 350 348 350 350 352 353 354 355 356 356 358
286 287 285 290 294 303 304 305 307 308 313 313 301 293 305 312 314 315 315 317 320 321 321 322 319 322 327 332 337 339 338 338 338 339 340 340 340 340 343 346 351 345 348 349 349 350 349 350 352 356 355 353 349 353 350 348 349 351 353 354 354 354 356
283 285 284 286 296 303 306 308 309 311 309 298 297 310 315 315 313 314 314 316 319 321 322 323 324 326 330 332 334 335 336 336 337 338 340 341 343 345 346 351 349 344 346 347 346 350 351 352 353 353 352 352 350 348 349 349 350 351 350 351 353 352 354
290 290 285 286 283 298 306 308 310 309 302 304 311 317 315 313 312 312 312 314 317 320 321 324 324 326 327 329 330 331 333 335 336 337 339 340 341 342 344 345 349 347 344 345 345 345 351 350 351 352 353 350 349 349 347 351 354 354 351 352 353 353 353
285 286 286 289 299 300 308 306 300 307 311 316 316 315 312 313 312 311 311 312 315 317 319 322 323 324 324 326 328 329 331 334 336 338 339 341 342 343 345 347 347 347 345 346 347 347 348 350 351 354 353 352 352 351 350 353 354 356 354 352 353 353 353
292 291 294 300 300 302 309 309 310 312 314 315 315 315 315 314 313 314 311 311 313 314 316 319 321 322 324 324 326 327 328 332 334 335 337 340 341 342 343 345 348 346 345 345 346 346 347 348 349 352 352 350 352 350 352 356 357 356 356 353 352 352 352
300 300 302 303 305 303 308 311 310 313 315 317 317 315 314 315 316 315 313 312 312 312 313 314 317 319 321 323 324 326 327 329 332 335 336 338 341 342 343 344 346 344 344 345 345 345 345 346 348 353 351 351 350 352 355 358 359 356 357 354 352 352 352
291 287 298 298 299 302 304 306 311 313 312 315 318 316 315 314 315 315 316 314 312 312 311 311 314 317 319 320 323 325 327 328 330 332 333 335 338 339 340 344 345 342 343 343 343 343 343 344 346 349 349 350 352 354 358 360 361 354 355 355 354 352 352
292 292 296 298 301 306 305 304 305 307 311 312 314 316 316 314 312 314 316 317 313 312 311 311 313 315 316 317 320 324 325 327 329 330 332 333 336 338 340 342 343 341 342 340 341 340 341 342 343 345 346 347 350 352 355 359 361 357 356 353 353 352 353
294 297 298 300 299 305 302 305 305 308 309 309 311 312 312 313 314 312 312 317 316 312 311 312 313 314 315 316 318 323 325 326 327 328 330 332 334 337 339 340 343 340 341 341 339 338 340 340 341 342 344 346 349 350 352 355 358 353 354 355 354 353 353
288 290 294 297 292 292 297 302 303 304 307 307 311 311 311 310 312 314 315 316 314 314 313 313 315 315 315 317 318 321 324 325 325 326 329 330 332 334 337 340 339 339 341 340 338 338 338 339 340 341 342 345 348 350 352 354 356 351 353 352 351 353 354
288 294 297 299 299 298 299 300 301 302 304 305 306 307 311 311 313 315 314 311 311 312 313 314 314 315 317 319 320 321 323 324 326 328 328 330 332 334 337 339 339 338 338 341 340 338 338 339 340 341 342 344 345 347 350 353 354 352 350 350 350 351 353
294 297 297 298 297 295 297 300 301 301 303 303 306 309 310 310 312 310 310 310 310 312 312 312 314 314 316 320 323 322 323 325 326 329 330 330 332 333 334 337 338 338 338 338 337 336 337 339 339 339 341 343 344 345 347 349 349 347 347 347 344 344 347
293 298 298 298 298 299 300 300 301 302 304 305 305 309 308 310 310 313 311 311 312 313 312 312 313 315 316 320 323 324 324 326 330 334 333 333 333 332 332 334 337 337 337 337 336 336 337 337 338 340 341 342 343 343 344 346 346 344 344 345 345 345 348

ECMWFFLT2_sfc_thetae_069.txt.gz
Theta_e
305 307 309 308 307 295 300 302 298 301 302 301 295 297 296 293 289 291 292 293 293 295 300 300 302 305 311 317 320 321 322 323 325 325 327 328 330 332 333 334 334 335 335 336 336 337 338 339 339 340 342 343 344 344 345 345 346 347 348 349 349 349 349
302 306 308 309 308 302 299 297 301 302 304 303 297 289 290 288 285 287 289 291 291 292 292 303 299 302 305 311 316 319 321 323 323 325 326 328 330 332 334 334 335 336 336 336 336 337 338 339 339 340 342 343 344 345 345 345 346 345 347 348 348 349 348
301 304 303 302 307 309 304 301 305 301 291 294 295 292 288 285 285 284 287 291 292 292 294 297 299 299 301 307 313 316 318 321 323 324 326 328 330 332 333 334 335 335 336 336 336 337 338 339 341 341 343 344 344 345 346 346 346 346 347 348 349 349 349
300 300 299 294 298 303 307 304 303 302 297 297 292 295 291 290 284 287 286 289 291 295 296 297 300 300 301 306 310 314 317 319 322 324 326 327 329 331 333 334 335 336 336 337 337 337 338 338 340 341 342 344 344 345 346 345 347 347 347 347 349 348 348
300 294 296 295 299 297 298 298 297 299 299 298 299 294 292 291 283 282 283 287 290 293 297 299 300 301 301 305 311 314 317 319 322 325 326 327 329 331 333 335 336 336 337 337 338 338 339 340 341 342 342 343 344 345 345 346 345 346 346 347 348 348 348
291 294 300 300 299 299 297 298 297 299 297 292 292 290 294 291 290 283 283 287 290 295 303 302 302 303 303 303 311 316 318 320 322 324 327 328 329 331 333 335 336 337 338 338 338 339 339 339 340 341 343 343 344 344 345 346 346 346 346 347 347 348 348
292 296 300 303 303 303 302 300 298 300 299 294 292 287 289 293 292 294 290 287 293 300 301 304 304 305 306 304 309 315 320 321 322 324 327 329 330 331 333 334 336 337 338 338 338 338 338 339 340 341 342 343 344 344 345 346 346 346 347 347 348 348 348
294 297 300 301 303 303 301 301 300 299 298 298 298 296 291 292 291 292 289 289 292 297 303 304 305 306 306 305 305 312 319 322 323 324 326 328 330 331 333 335 336 337 338 338 338 338 338 339 339 341 342 343 344 345 346 346 346 346 347 348 349 349 348
290 295 296 298 300 300 296 295 297 299 301 300 297 296 294 294 292 293 288 288 294 298 309 307 307 307 305 305 303 311 315 321 324 324 326 328 330 331 332 333 335 336 337 337 338 338 338 339 340 341 342 343 344 345 346 346 347 348 348 348 348 349 349
281 284 285 284 285 289 293 295 299 301 298 299 296 294 292 291 293 293 291 293 296 297 300 302 302 303 305 306 304 308 314 318 323 324 326 328 330 331 332 333 334 335 336 338 338 338 339 339 340 341 343 344 345 346 347 348 348 348 348 349 349 349 349
282 285 286 291 294 291 289 293 295 295 297 300 298 294 291 291 289 292 295 296 297 298 302 302 303 303 302 304 303 304 310 317 323 325 327 328 329 331 331 333 334 335 336 336 338 338 339 339 340 342 343 344 345 346 347 348 349 349 349 349 349 349 349
288 290 290 292 293 289 290 290 291 294 296 299 297 295 294 294 291 290 295 297 296 299 301 303 303 302 302 303 303 304 310 318 323 325 327 335 329 330 331 332 333 333 335 336 337 338 339 339 340 342 344 345 345 346 346 348 349 350 351 350 349 349 349
290 291 291 291 291 291 291 292 293 294 297 298 297 296 296 297 295 293 295 296 296 299 302 304 304 302 304 304 304 307 313 320 324 325 326 327 327 329 330 331 332 333 334 335 337 338 339 339 339 341 343 344 346 347 348 349 350 350 351 350 350 350 349
288 289 290 292 291 292 294 295 297 299 299 299 300 299 297 298 297 298 298 297 298 301 303 304 304 304 305 303 308 311 317 319 323 324 324 326 327 328 329 330 332 334 335 336 336 337 338 339 339 340 342 343 345 346 347 349 350 351 351 350 350 350 349
286 289 291 293 292 291 291 296 299 301 302 301 301 300 299 299 298 300 297 298 298 302 302 303 307 310 313 315 313 313 316 319 321 322 323 325 327 328 329 330 332 333 335 336 336 337 338 338 339 340 341 343 345 346 348 349 350 351 352 351 350 350 350
283 289 290 290 291 292 293 296 298 300 303 296 297 297 304 299 297 298 300 297 297 302 305 310 307 307 309 312 312 313 314 317 320 321 323 325 326 327 329 330 331 332 334 334 335 336 337 338 339 340 341 342 344 345 347 348 350 352 352 351 351 350 351
282 287 289 289 290 295 293 294 297 300 307 308 309 309 311 309 307 300 297 298 301 303 309 309 308 315 321 324 322 314 315 317 320 321 323 325 326 328 329 330 331 332 333 334 336 337 338 339 340 341 342 343 343 345 346 348 350 351 352 352 351 351 351
281 286 288 291 293 288 288 298 303 302 303 305 305 305 308 310 311 305 305 306 309 306 306 307 317 327 327 327 329 329 319 316 317 320 322 325 327 328 329 330 331 332 333 335 337 338 339 340 342 343 344 344 345 346 347 349 349 350 351 352 352 352 352
280 285 288 291 286 291 301 305 304 303 304 303 304 309 310 310 310 311 311 309 311 322 326 327 328 330 332 333 333 335 335 330 326 326 327 322 324 326 327 328 330 331 332 334 336 338 339 341 342 344 345 346 346 347 348 348 349 350 351 352 352 352 352
285 285 284 283 288 300 301 304 303 304 305 304 304 308 310 310 310 310 310 313 315 321 327 330 330 331 332 333 334 334 337 338 335 335 335 334 330 329 326 326 327 329 331 333 335 337 341 343 343 345 347 348 348 348 349 349 349 350 351 352 352 353 353
279 284 282 283 292 294 301 298 298 300 297 299 299 297 308 311 311 310 310 315 317 318 320 324 330 330 332 329 329 334 334 336 339 340 340 341 341 341 341 341 341 340 340 340 342 346 343 343 344 345 349 351 350 349 349 350 350 350 351 351 352 353 354
286 280 281 282 284 286 293 297 301 305 306 306 305 302 307 313 312 312 312 315 317 319 321 321 321 324 326 322 325 332 335 336 336 339 341 343 344 346 347 348 346 345 346 349 351 348 347 347 347 348 351 352 351 350 350 350 350 350 350 351 353 354 355
283 281 279 280 280 285 296 297 301 305 307 307 308 305 304 312 311 312 312 316 319 321 322 326 328 326 320 321 326 331 335 337 338 338 340 342 343 344 346 347 348 349 349 350 351 351 350 349 347 349 351 352 351 350 351 351 351 350 350 351 353 354 356
284 282 281 279 287 283 296 301 303 306 310 309 305 298 300 309 311 311 311 314 319 322 324 328 328 325 320 321 327 333 336 338 339 339 339 341 343 344 345 346 348 349 350 349 348 349 350 350 351 349 350 352 353 351 352 352 352 351 352 353 354 355 356
285 285 283 285 288 301 301 303 306 309 310 309 299 292 303 312 313 312 311 311 314 321 323 325 323 326 329 330 332 335 337 338 339 341 342 342 344 345 345 346 351 347 348 348 347 348 348 350 352 353 352 351 350 350 350 350 351 353 354 355 355 355 356
282 282 281 282 291 300 302 305 308 310 306 296 294 307 315 314 313 314 311 309 311 316 321 323 324 327 330 333 334 334 336 337 338 340 341 342 344 345 349 352 349 346 346 346 347 348 350 352 353 352 353 352 350 348 345 345 347 350 350 353 354 353 354
288 287 283 285 282 297 304 305 306 308 298 300 310 313 313 314 312 311 310 310 310 312 316 320 322 324 325 327 329 331 333 335 337 338 339 340 340 342 343 344 348 345 343 343 344 345 348 350 350 350 351 351 349 347 347 346 349 349 350 349 351 352 352
285 286 285 286 296 299 305 307 297 305 307 311 314 312 308 312 310 311 310 310 311 312 313 315 318 321 323 324 326 328 330 333 335 337 338 339 340 341 343 344 344 345 342 342 343 344 346 348 349 349 350 349 350 349 347 348 349 350 350 349 349 350 351
290 289 294 300 301 305 307 309 311 312 313 314 314 314 311 308 309 312 312 311 312 312 313 315 315 316 318 321 324 325 327 330 331 333 335 337 338 339 340 342 344 343 341 340 341 342 343 344 346 347 348 348 349 347 347 351 353 352 350 349 348 349 349
296 298 300 304 301 304 308 312 312 312 311 311 312 312 309 310 312 312 312 313 312 313 315 315 316 316 317 318 321 324 325 326 328 332 333 335 337 338 340 341 342 340 341 341 341 340 340 341 343 346 344 346 345 343 346 350 352 353 351 347 346 347 348
289 287 297 297 300 299 307 307 309 309 309 310 311 311 311 310 313 314 313 313 313 312 314 315 316 317 318 318 319 321 323 324 325 328 329 331 333 335 336 340 342 339 339 339 339 339 339 338 340 342 342 343 342 344 346 348 351 352 351 347 348 346 346
289 291 294 297 300 299 304 305 304 303 303 305 307 309 311 315 316 315 314 314 313 314 312 314 315 316 318 318 318 320 321 323 324 325 328 328 330 333 336 338 339 336 336 335 336 336 336 335 337 339 341 341 341 342 345 348 349 350 353 350 347 347 347
292 295 296 298 297 301 302 302 302 304 303 303 304 305 305 307 314 313 313 313 313 314 313 314 315 313 315 317 318 319 320 322 323 324 326 328 328 330 333 336 339 336 334 335 333 334 334 334 335 337 337 339 341 342 344 347 348 350 351 353 350 346 345
287 288 292 295 290 290 295 297 300 303 304 303 304 304 303 303 308 313 312 310 312 314 315 315 315 314 313 316 318 319 319 319 321 324 326 326 327 329 331 334 334 335 337 335 334 334 333 334 335 337 337 338 340 342 343 346 347 349 350 348 348 345 345
287 293 295 296 295 294 295 297 299 303 304 303 301 303 303 303 306 312 312 311 312 313 314 315 316 314 313 315 318 320 318 318 321 324 325 325 326 328 330 331 333 334 334 337 335 335 333 335 335 335 337 337 338 340 341 343 345 344 345 346 347 345 347
294 296 296 297 295 294 296 298 299 299 303 303 302 303 304 304 308 312 311 312 312 312 313 314 316 315 314 315 318 319 319 319 320 325 327 325 326 329 330 331 331 333 334 334 332 332 332 333 332 333 335 337 336 339 340 341 341 339 341 345 344 342 345
293 297 298 298 297 298 299 299 299 300 301 303 301 301 303 306 311 312 311 311 313 314 312 313 315 314 313 315 317 318 318 319 323 328 329 329 328 329 330 331 331 331 331 331 331 331 332 334 335 336 335 336 336 338 339 340 340 338 339 340 341 341 343

ECMWFFLT2_sfc_thetae_072.txt.gz
Theta_e
299 300 305 306 306 294 297 301 297 299 301 300 295 296 295 292 287 290 290 291 292 294 299 300 300 303 306 311 316 320 321 322 323 324 325 327 329 331 332 333 333 334 335 335 336 337 338 339 340 341 342 344 345 346 346 346 347 348 349 350 350 350 351
300 303 301 303 308 302 299 296 300 302 306 302 296 289 289 288 284 285 287 293 291 293 294 301 301 301 303 307 312 317 320 321 321 323 325 326 328 330 332 334 334 335 335 336 336 337 338 339 339 340 342 344 345 346 346 346 347 346 348 349 349 350 350
299 301 300 299 304 307 303 300 305 301 291 293 297 293 287 285 285 283 287 290 292 293 295 296 298 299 301 304 309 314 317 319 321 323 324 326 328 329 331 332 333 334 335 335 336 336 338 339 341 341 342 344 345 345 346 346 346 347 348 349 350 350 350
297 298 296 293 297 303 307 304 303 302 298 297 292 294 288 290 284 285 286 288 289 294 297 297 300 300 302 303 305 310 315 319 321 322 324 325 326 328 330 331 333 334 335 336 336 336 337 338 339 340 341 343 344 345 346 346 347 348 348 348 350 349 350
296 291 294 295 297 296 298 297 296 299 299 297 300 294 294 290 285 283 283 285 288 293 297 299 301 302 302 304 305 309 313 318 321 322 324 325 327 328 329 331 332 333 335 336 337 337 338 338 340 341 341 342 343 344 345 346 346 346 347 348 349 349 350
287 291 296 296 296 295 294 294 294 297 297 293 292 290 294 292 290 283 284 287 288 294 301 301 302 303 304 304 306 308 312 316 320 322 324 326 326 328 329 331 332 333 335 336 337 337 338 338 338 339 340 342 342 343 344 345 346 346 346 347 348 349 350
288 292 295 298 297 297 297 298 295 296 296 292 292 287 289 292 294 293 289 286 292 298 300 302 302 303 303 304 306 307 310 314 318 322 324 326 327 328 329 331 332 333 335 336 336 337 337 337 338 339 340 341 342 343 344 345 345 346 347 347 348 349 349
291 294 296 297 300 298 296 298 296 295 292 294 292 294 290 292 289 292 292 290 295 300 303 302 302 304 302 306 305 308 310 313 316 319 322 325 326 328 330 331 332 334 335 336 336 336 336 337 337 338 339 341 342 342 343 344 344 346 347 347 348 349 349
287 291 293 296 296 295 291 290 293 294 296 295 294 295 293 292 291 294 290 288 294 299 309 306 305 305 305 304 302 306 309 312 315 318 321 324 326 327 328 330 332 333 334 335 335 336 336 337 337 339 339 340 341 342 343 344 344 346 347 348 347 348 348
278 282 283 281 282 287 290 292 292 293 292 292 293 291 291 288 292 293 291 292 298 301 303 303 304 304 305 304 303 303 307 311 315 317 319 323 325 326 328 330 331 332 334 335 336 336 337 337 337 338 339 340 341 342 343 344 345 345 346 347 347 347 347
281 283 284 289 291 289 286 289 290 290 293 294 294 293 289 288 289 291 294 296 298 299 302 301 303 301 301 302 303 304 304 306 310 318 320 322 324 326 327 329 331 333 334 335 336 336 337 337 337 339 339 340 341 342 343 344 345 346 346 347 347 347 347
287 288 288 290 292 288 289 288 288 291 291 292 292 291 290 293 289 290 295 296 295 299 301 300 301 303 302 301 303 304 304 305 307 310 319 329 323 326 327 329 330 332 334 335 336 336 337 337 338 339 340 341 341 342 342 344 345 346 346 347 347 347 347
288 289 289 290 289 289 289 289 289 289 291 292 291 292 295 295 293 292 296 295 296 300 301 301 302 304 304 302 303 305 306 307 307 309 313 321 323 325 326 328 330 332 333 335 336 336 337 338 338 338 340 341 342 343 344 345 345 346 347 346 346 346 347
287 288 288 290 289 289 289 290 291 292 292 293 295 296 297 297 295 296 296 297 298 301 303 302 303 305 303 302 306 307 306 305 307 307 311 318 323 324 326 328 330 332 334 335 336 337 337 337 338 338 340 341 342 342 343 344 345 347 347 347 346 346 346
285 288 290 290 290 289 287 290 291 294 297 300 303 302 301 301 297 297 297 296 297 302 303 305 305 306 310 313 313 312 309 308 311 311 313 318 323 325 327 329 330 332 334 335 336 337 337 338 338 339 340 341 342 343 344 345 346 347 348 347 346 346 346
283 288 289 288 289 289 288 289 293 296 297 299 305 299 304 298 295 295 295 294 296 300 309 309 307 322 323 322 324 325 321 312 316 317 318 320 323 325 327 329 331 332 333 334 336 337 337 338 339 340 341 342 342 343 344 345 346 348 348 347 347 347 347
281 287 288 287 287 291 291 292 295 296 299 300 303 308 308 306 305 300 296 296 305 310 314 308 313 324 325 327 327 328 329 324 314 317 320 322 324 326 328 330 331 332 333 335 336 337 338 339 339 340 342 342 342 344 345 346 348 348 348 348 348 348 349
280 284 286 288 288 283 286 299 300 300 297 299 298 303 307 307 307 305 307 308 311 313 319 320 321 325 325 326 328 330 329 329 322 315 318 321 324 327 329 330 331 332 334 336 337 338 339 340 341 341 343 343 344 346 347 348 348 349 349 349 349 349 349
279 283 286 287 280 285 299 305 302 302 302 303 301 302 310 308 308 308 307 309 312 317 320 326 325 326 328 331 331 333 334 333 331 318 318 320 324 325 328 329 331 333 334 336 337 338 339 340 341 342 342 344 345 347 348 348 349 349 349 349 349 350 349
285 281 281 276 283 294 298 306 302 304 304 302 302 302 309 309 308 308 306 308 313 320 320 324 328 328 329 331 333 334 337 337 335 335 327 321 324 325 327 329 331 332 334 335 336 337 341 342 341 341 341 343 344 346 348 348 349 349 350 349 349 350 350
277 280 280 282 288 291 297 296 298 299 296 298 298 294 302 310 307 308 307 308 311 317 324 325 323 324 327 328 330 337 337 338 339 339 339 338 324 326 328 330 330 333 335 336 337 341 340 340 341 341 342 343 344 345 346 347 348 349 350 349 350 350 351
285 275 278 278 279 282 291 297 300 303 304 304 304 301 300 309 307 309 309 308 310 314 324 326 326 324 325 322 327 334 338 339 340 341 342 343 341 332 331 332 332 333 335 338 342 339 339 340 341 342 343 344 344 344 345 346 347 348 349 349 350 351 351
283 279 276 276 275 282 294 296 300 303 304 304 307 300 300 307 306 309 310 309 309 312 321 326 325 323 319 322 327 334 337 339 341 340 342 343 344 343 337 335 335 336 338 340 341 341 340 339 342 344 345 345 345 344 345 346 347 347 348 349 351 351 352
283 281 278 276 282 281 294 298 300 302 305 306 303 294 297 303 307 309 310 310 310 311 321 326 326 324 320 322 328 336 338 339 341 341 342 342 343 344 346 345 342 343 346 345 341 340 340 341 345 347 346 346 346 345 345 346 346 346 348 350 352 353 354
284 284 280 283 285 298 298 299 301 305 308 306 297 290 298 306 308 310 310 311 312 312 318 322 320 323 327 329 331 334 336 337 338 341 343 344 345 345 346 348 352 347 347 345 344 343 344 346 347 348 348 346 347 348 347 346 346 347 349 351 353 354 355
282 282 280 281 287 299 300 300 305 308 306 294 293 304 310 308 308 309 310 311 313 314 317 319 320 323 325 327 329 330 331 333 336 339 340 342 343 345 348 351 350 348 348 348 349 350 350 350 349 349 349 348 349 349 348 347 348 350 352 352 353 354 355
286 285 281 282 280 295 301 302 304 304 296 295 305 307 308 309 308 307 307 310 312 313 314 318 318 319 321 323 325 327 328 330 333 336 338 339 339 340 341 342 346 347 346 346 347 348 350 352 352 352 352 351 350 350 348 350 352 352 354 354 354 354 355
283 283 282 284 295 296 302 304 296 301 303 306 308 308 305 308 309 307 306 308 311 312 311 315 317 318 318 321 323 325 326 327 329 332 335 337 339 340 342 342 343 344 343 344 344 346 348 350 352 353 353 352 353 352 352 354 353 353 353 353 355 355 354
288 287 291 298 301 303 307 306 303 304 305 306 306 305 305 303 305 311 305 306 310 311 312 313 315 316 318 318 319 321 323 326 327 329 331 334 336 338 339 340 343 342 341 341 342 342 344 346 348 351 353 353 353 352 351 355 356 355 353 351 351 353 354
294 295 296 302 302 304 304 304 305 303 303 304 305 303 302 303 304 309 307 308 309 309 313 312 313 315 317 318 318 318 320 323 326 328 330 331 334 336 339 340 341 340 340 341 340 340 341 343 344 348 348 351 350 349 351 356 355 355 354 351 350 350 351
288 286 297 295 295 298 305 302 304 305 304 304 304 303 303 304 304 305 307 308 310 309 313 311 310 310 314 317 318 318 317 319 323 326 327 328 330 332 334 338 340 338 338 338 339 340 339 339 341 343 344 345 347 349 350 350 353 353 352 351 352 350 350
288 290 294 295 298 298 303 302 301 301 302 303 304 304 305 305 306 306 306 308 310 311 311 311 309 306 308 311 314 317 315 316 320 324 326 326 328 331 333 336 339 337 336 336 337 337 337 337 339 340 341 342 344 345 348 350 351 354 355 352 351 350 349
291 294 295 295 296 299 300 301 302 304 304 303 302 304 304 305 304 305 305 309 309 309 308 313 310 306 306 307 310 313 318 315 317 321 325 325 327 330 331 333 337 336 336 336 336 336 336 336 338 338 338 340 342 344 346 348 349 353 355 356 352 349 348
286 288 291 294 288 289 294 297 299 300 303 303 302 303 303 303 303 304 304 307 310 308 309 311 311 306 306 307 309 311 315 318 317 319 325 325 325 328 331 333 333 335 337 337 336 336 335 335 337 338 338 338 340 343 345 347 348 351 352 351 349 347 347
286 292 294 296 295 294 295 297 299 301 305 304 301 301 302 303 304 305 305 306 308 307 309 310 313 309 306 306 309 311 314 317 319 320 324 324 325 327 330 331 332 333 335 337 336 337 336 336 337 337 338 338 339 341 342 344 346 347 348 349 349 347 348
294 296 296 297 296 294 297 299 300 301 302 302 301 302 303 303 304 305 306 308 307 308 309 309 313 311 309 308 309 310 314 317 319 322 325 324 325 328 330 330 331 332 333 334 334 334 334 336 336 336 337 338 338 340 341 342 343 344 346 349 348 346 347
293 298 299 299 298 299 300 301 301 302 303 303 301 301 302 303 304 306 306 308 310 310 308 309 312 312 311 310 310 311 313 317 321 326 326 325 326 327 328 330 330 331 331 332 332 333 334 335 337 336 336 337 337 338 340 341 342 342 342 343 344 345 347

ECMWFFLT2_sfc_thetae_075.txt.gz
Theta_e
303 304 305 306 309 296 303 305 300 303 309 305 299 300 302 299 297 294 302 301 303 308 310 312 312 312 314 316 317 319 321 326 331 330 332 335 337 338 338 339 340 342 342 344 344 345 346 347 348 348 351 354 354 355 355 356 357 358 358 359 359 359 359
304 306 304 304 306 308 306 299 303 310 311 308 302 293 298 295 291 296 298 296 299 300 298 312 312 310 311 314 315 316 320 326 327 328 332 334 336 338 339 340 342 342 343 343 343 344 345 346 348 349 353 354 355 355 355 355 356 357 357 358 358 359 360
303 304 305 305 307 309 306 304 312 302 297 297 302 299 291 291 290 293 296 298 298 301 302 307 309 310 311 314 316 316 318 323 325 328 331 335 337 337 338 339 341 341 342 342 343 343 345 347 349 350 352 352 354 355 355 355 355 356 357 357 358 359 360
300 301 303 297 302 308 309 311 307 309 306 301 298 299 300 299 293 293 293 297 295 303 304 307 308 312 313 314 315 315 317 322 325 327 329 333 335 336 338 339 340 340 342 342 342 343 343 345 347 349 349 350 351 352 354 354 356 357 358 357 358 358 359
299 297 301 299 301 302 303 303 303 305 304 308 306 305 300 297 295 294 294 292 297 304 309 308 309 313 316 316 317 320 319 322 325 328 330 332 335 336 338 338 340 340 341 342 343 344 344 345 347 348 348 349 350 351 352 353 354 355 355 356 357 359 359
296 298 300 300 299 298 298 299 302 304 302 298 296 295 304 301 297 293 294 292 301 306 312 311 310 314 316 317 319 320 321 320 325 328 331 334 335 337 338 338 339 340 342 342 343 343 344 344 345 345 347 348 349 350 351 352 353 353 354 355 357 358 359
295 298 300 302 301 299 299 300 299 300 301 301 300 293 297 301 301 302 300 296 299 311 315 314 313 314 315 317 318 318 320 322 323 328 330 334 337 337 336 338 339 340 342 343 342 343 344 344 345 345 346 347 348 350 351 352 352 353 353 354 356 359 358
297 300 301 302 302 301 300 299 299 299 297 296 296 297 300 299 301 298 298 295 300 310 317 317 315 316 313 314 312 314 318 321 323 326 329 333 336 339 338 339 338 340 342 344 345 344 344 345 346 345 346 347 348 349 350 351 351 352 353 354 356 358 358
294 296 299 299 300 300 296 296 297 297 297 297 298 299 301 296 299 301 298 293 300 309 319 317 315 316 312 312 313 313 313 317 319 323 328 332 338 340 337 338 339 341 341 343 345 345 345 346 345 346 346 347 348 349 350 350 351 352 353 355 355 356 356
285 285 286 290 293 294 295 296 295 296 295 295 298 297 300 293 300 302 299 299 306 311 317 317 315 314 318 316 315 313 314 318 318 320 323 331 336 340 339 339 340 339 342 344 345 347 346 345 344 347 348 347 347 349 350 351 351 352 353 354 355 355 355
289 290 288 290 293 294 292 294 295 295 296 296 296 297 296 295 300 298 302 304 304 307 308 311 313 315 315 315 319 316 316 317 320 328 329 328 333 338 337 340 340 344 346 346 347 348 345 344 344 346 346 346 347 350 350 350 351 352 354 354 355 355 354
291 292 291 292 293 291 293 292 293 295 295 295 294 294 296 301 297 294 303 308 303 305 309 312 315 316 320 318 318 319 322 324 322 324 333 334 329 333 338 340 341 342 345 346 347 347 345 344 345 345 346 346 347 350 349 350 351 352 353 354 356 356 355
292 293 293 294 293 293 293 293 294 293 295 295 293 295 298 299 297 296 304 309 305 305 307 309 313 317 315 314 316 317 317 317 320 323 321 322 327 331 333 339 343 343 342 345 347 346 346 345 345 345 346 347 349 350 350 351 351 352 355 356 356 355 355
291 292 292 293 292 293 293 293 294 295 295 295 296 298 300 300 299 302 304 306 306 308 309 311 319 324 321 321 321 323 322 317 320 319 319 316 318 323 330 336 338 343 343 345 348 348 348 345 346 345 346 348 348 348 349 350 351 353 355 356 355 354 354
290 292 293 293 293 293 292 294 295 296 296 297 300 305 308 308 305 303 303 304 304 310 320 322 325 326 328 330 328 333 338 338 336 332 326 320 317 318 325 332 338 341 343 345 347 348 348 347 347 345 348 347 347 347 349 350 353 354 355 355 354 354 354
288 291 292 292 293 293 292 293 295 296 298 300 304 305 308 306 305 306 306 303 304 317 319 323 328 328 333 332 334 334 335 336 337 338 337 332 326 321 320 324 333 340 341 344 346 346 345 345 346 347 349 347 348 346 348 349 350 352 352 353 353 354 355
286 291 291 291 292 293 291 293 296 299 302 305 307 309 310 308 308 307 306 305 312 314 319 320 326 330 332 332 333 333 334 337 337 337 339 340 337 331 326 324 330 334 338 342 346 344 345 345 345 346 348 347 348 348 351 352 352 351 351 351 354 355 355
287 290 291 293 291 285 288 302 304 303 303 304 305 305 306 307 308 307 309 310 314 315 315 316 321 329 330 333 335 337 337 337 337 338 340 341 342 335 330 327 326 333 340 342 345 346 347 347 346 347 349 348 350 352 352 354 352 354 353 352 354 355 356
285 289 291 288 283 287 302 304 305 306 306 305 305 307 306 305 307 308 308 310 311 313 314 316 320 329 335 336 336 338 339 340 339 339 339 342 344 339 332 332 331 337 343 345 348 348 347 346 348 348 348 349 353 354 353 352 353 355 354 353 355 356 356
289 287 287 280 285 296 299 304 303 306 306 306 308 307 306 305 306 306 306 308 310 312 314 316 320 329 334 335 337 339 341 342 341 340 340 342 344 344 338 335 338 343 340 343 343 347 348 347 347 348 348 349 350 351 352 352 351 353 354 356 356 356 355
282 286 287 288 295 294 302 302 300 301 301 301 304 303 303 305 305 305 305 307 309 310 313 316 323 333 335 332 335 340 339 340 342 343 343 344 345 347 345 339 341 348 347 348 346 351 349 348 347 347 348 350 351 351 351 350 352 353 354 355 354 355 355
289 284 284 286 286 285 295 300 302 304 305 306 305 305 303 306 306 306 305 304 307 309 311 316 324 333 330 327 330 334 336 340 342 344 345 346 348 348 342 341 346 349 348 348 352 347 349 348 348 349 351 352 353 353 351 352 353 353 353 353 355 356 355
287 285 282 284 283 288 298 299 302 305 306 306 307 305 301 305 306 306 305 304 306 308 309 313 325 329 323 324 328 332 333 337 341 342 345 346 348 349 344 341 342 344 349 349 349 351 349 347 349 352 352 353 355 353 352 351 351 351 352 353 355 356 357
285 285 284 283 290 286 298 302 303 306 308 308 306 296 297 303 308 307 306 304 305 307 309 314 319 317 316 318 325 331 333 336 338 340 343 345 347 350 349 343 346 351 354 353 348 348 347 349 350 352 352 353 353 351 350 350 350 351 353 355 357 359 360
285 285 285 289 291 299 303 302 306 307 308 306 297 293 299 305 307 308 306 305 306 308 307 311 311 316 319 322 325 331 332 333 335 338 343 345 347 349 350 351 350 349 350 349 346 346 350 354 350 351 351 352 354 355 354 353 352 353 357 360 361 361 362
283 285 284 286 292 300 303 306 308 309 304 296 296 302 308 307 307 308 307 305 306 308 308 310 311 317 320 322 325 324 327 330 332 335 338 342 345 349 351 353 355 352 347 350 349 348 354 352 350 352 354 355 356 356 354 354 356 357 361 362 363 363 362
287 286 284 284 282 298 304 306 306 306 298 296 302 306 307 306 306 306 305 306 306 307 308 311 310 312 315 317 319 321 322 325 328 331 333 336 340 343 346 349 352 353 353 351 349 349 349 350 352 354 354 355 355 355 355 357 359 361 362 361 363 363 362
283 283 283 284 295 298 303 303 296 300 301 303 304 304 303 306 306 305 305 305 305 305 307 310 311 311 310 310 313 319 320 321 324 328 330 333 337 341 344 346 349 351 352 355 355 356 353 356 356 356 355 355 356 355 356 360 362 362 363 363 364 363 363
288 288 293 297 300 302 303 303 302 303 303 304 305 304 304 303 305 306 306 305 305 305 307 306 308 310 307 308 311 314 319 320 322 326 328 329 333 337 341 343 347 350 350 351 354 356 359 360 361 359 358 357 357 355 362 365 363 361 362 362 362 361 361
295 296 296 299 299 300 302 303 303 302 303 304 304 303 302 305 306 306 305 306 306 306 308 304 305 307 308 306 308 310 317 321 322 325 327 328 330 334 338 342 345 348 350 352 353 353 355 360 364 364 363 362 359 363 365 365 365 365 363 362 361 361 361
289 286 296 296 296 298 303 302 303 304 304 305 305 304 303 304 305 305 307 306 306 306 307 305 305 306 308 306 307 309 314 319 321 322 325 326 328 331 335 339 344 346 348 348 349 350 351 355 358 361 365 366 366 366 366 367 368 368 365 363 361 362 361
287 290 294 296 298 300 303 303 302 301 303 304 304 306 306 305 306 307 307 307 306 307 306 306 306 307 309 308 307 308 310 316 320 322 324 325 326 331 334 338 342 344 345 346 347 347 347 351 354 356 358 359 362 364 364 366 366 367 365 365 362 363 363
292 295 296 297 297 301 301 302 303 303 303 302 303 305 305 305 305 305 307 307 308 307 306 307 307 307 309 309 309 310 311 314 318 322 323 324 325 329 331 334 339 340 343 345 347 347 347 350 353 354 355 356 360 363 365 367 368 366 364 362 364 363 363
288 290 293 295 290 292 297 299 301 302 302 302 303 304 305 305 304 305 305 306 307 307 309 307 307 307 309 310 310 311 312 314 319 322 323 323 325 327 330 333 335 338 342 344 346 347 348 350 352 353 354 355 357 358 362 367 369 367 365 363 363 363 363
288 294 297 297 297 296 297 299 301 302 303 302 302 303 304 305 306 306 305 305 306 307 309 310 308 309 309 308 310 310 311 313 320 323 323 323 324 325 328 329 331 334 338 341 345 347 348 350 351 352 352 353 355 357 359 362 368 371 369 366 365 364 363
296 298 298 299 297 295 298 301 302 302 304 303 302 304 306 306 305 306 305 306 306 306 308 310 310 311 309 308 310 309 311 313 320 323 324 324 325 326 327 328 329 331 334 337 339 343 348 349 350 351 351 351 352 353 357 359 362 368 371 369 367 366 366
295 299 300 300 300 301 301 302 302 303 304 305 303 304 305 305 306 307 306 306 307 308 307 310 310 311 311 310 311 310 310 313 318 323 325 324 324 324 326 327 327 329 330 334 338 343 347 348 348 349 349 349 350 351 354 356 359 364 367 368 367 366 366

ECMWFFLT2_sfc_thetae_078.txt.gz
Theta_e
310 310 311 310 311 300 306 306 300 303 310 307 303 304 305 305 302 299 306 304 306 312 313 316 317 318 319 321 321 322 323 325 328 328 332 336 339 342 344 345 347 350 351 353 353 354 354 355 355 356 358 359 360 360 361 363 364 364 364 365 362 363 363
309 312 312 312 312 311 308 302 305 310 312 309 304 296 301 299 296 299 303 301 304 303 300 313 314 315 316 318 319 321 323 324 324 325 328 334 337 341 344 347 349 350 350 351 352 353 354 355 356 357 359 360 361 361 362 362 363 363 364 364 364 363 364
309 310 311 308 311 313 308 307 314 304 299 298 304 301 294 294 293 296 300 302 303 305 305 310 309 311 313 316 319 319 320 322 323 325 328 332 337 339 342 344 347 348 349 350 352 352 354 355 357 358 358 359 360 361 362 362 362 363 363 363 364 365 365
308 308 308 300 304 310 312 312 309 312 308 303 300 302 303 302 296 296 297 300 299 306 307 310 311 313 313 314 316 317 319 320 322 325 328 331 334 337 340 343 345 347 349 350 351 352 352 353 355 357 358 358 358 359 361 361 363 364 365 364 365 364 364
305 300 305 302 305 303 304 305 304 307 306 310 308 307 302 300 298 298 298 296 301 308 312 311 312 315 317 316 316 318 320 321 322 326 328 331 335 337 340 343 345 347 348 349 350 352 352 354 356 356 356 356 357 358 360 360 361 361 362 362 363 365 364
299 301 308 307 307 307 307 304 303 306 304 302 299 297 307 304 300 296 298 297 307 311 314 313 313 316 316 318 319 319 321 321 323 326 329 331 334 339 342 343 345 346 349 349 350 352 352 352 353 354 354 355 356 357 358 360 360 360 361 361 363 365 365
300 304 305 307 306 306 306 307 305 308 308 307 302 294 300 304 304 305 304 300 304 315 315 315 315 315 315 317 317 317 319 322 323 324 326 330 337 341 341 343 342 345 348 349 349 351 351 351 352 353 354 354 355 357 357 358 357 359 360 361 363 366 365
303 305 306 307 307 306 305 307 307 306 304 306 305 304 306 304 304 301 301 298 303 313 318 317 315 318 316 319 318 320 320 321 323 324 327 331 337 343 342 343 343 346 348 351 351 351 350 351 353 353 353 354 356 356 356 357 357 358 359 361 362 364 365
296 300 303 303 306 306 304 304 307 305 305 305 306 306 307 302 304 304 300 295 302 312 318 318 316 315 315 316 318 319 319 321 321 324 330 333 340 345 344 343 345 346 347 349 350 351 352 351 350 353 353 354 355 355 355 355 356 358 359 361 361 364 364
287 287 289 293 297 300 304 306 303 304 303 304 303 301 304 297 305 307 303 303 309 315 318 317 317 316 316 317 317 319 320 322 320 321 323 335 340 345 347 346 346 345 348 351 352 353 353 351 350 353 354 353 353 354 355 356 356 358 359 360 361 363 363
292 295 294 296 298 300 300 300 302 301 303 303 305 306 303 299 304 303 306 308 309 311 313 315 315 316 314 314 317 319 319 321 323 327 328 329 334 339 341 344 345 349 351 351 352 354 352 350 351 352 352 353 353 355 356 356 357 358 359 360 362 362 363
296 297 295 296 296 294 297 299 299 301 301 303 303 302 301 310 305 299 307 310 307 309 312 314 316 321 323 322 324 324 323 324 324 324 332 339 328 335 339 343 345 347 349 352 353 353 352 350 351 352 352 352 353 355 355 356 357 357 358 360 362 363 362
296 297 296 297 296 297 297 298 299 299 301 302 301 303 306 306 303 301 308 312 310 310 312 315 318 324 323 321 325 329 329 330 332 332 328 324 323 331 337 343 346 347 347 353 354 353 352 351 351 351 352 353 354 356 356 357 356 357 360 361 361 361 362
295 296 296 297 296 296 296 297 299 300 300 301 302 303 304 305 306 308 308 310 309 312 314 320 322 325 326 326 328 333 334 334 339 338 335 329 327 324 328 341 344 349 349 353 355 355 355 352 351 350 351 353 353 353 355 355 357 358 360 360 361 362 362
292 295 297 297 296 295 294 297 299 300 300 301 302 302 304 305 305 307 308 308 309 314 325 323 325 325 326 327 327 332 337 337 337 338 337 337 340 341 342 334 341 347 350 351 355 356 356 353 351 350 352 353 353 353 355 355 357 359 360 361 361 362 362
290 294 295 296 297 296 294 295 297 299 299 298 301 301 304 305 307 309 309 307 307 314 323 324 324 325 326 326 331 334 336 338 339 339 340 341 345 346 348 350 347 339 345 349 353 354 354 352 352 352 354 354 354 352 355 355 355 357 359 360 361 362 362
288 294 296 295 295 294 291 292 296 299 301 302 304 306 314 311 311 308 305 307 317 319 321 320 322 324 326 328 333 336 337 341 340 340 341 343 345 347 350 351 353 351 341 340 350 352 353 352 351 352 353 353 354 355 356 357 357 357 357 359 362 363 363
288 293 294 296 293 287 289 303 304 303 301 302 302 307 311 313 312 310 314 315 318 319 318 319 320 322 325 328 332 337 340 340 341 342 343 344 346 348 350 351 352 355 352 344 341 350 354 354 351 353 356 353 355 357 358 359 358 359 360 361 362 362 364
287 292 293 289 284 288 305 307 308 308 306 306 307 311 311 312 313 313 313 314 316 317 319 319 321 324 327 330 332 335 339 342 341 341 342 344 346 348 349 351 352 356 356 349 342 343 350 351 353 353 354 355 357 358 358 357 358 359 360 361 362 363 363
291 289 289 280 286 299 305 307 308 312 313 312 311 308 310 312 312 313 312 314 315 317 317 320 323 325 327 330 334 337 339 341 339 338 340 343 345 346 349 351 353 356 356 351 342 339 349 352 350 352 353 355 356 356 358 357 357 358 360 361 361 363 363
285 287 288 289 297 296 299 303 305 307 306 309 306 300 304 311 313 312 312 312 314 315 316 319 322 326 328 329 333 340 332 332 333 335 338 343 346 348 350 352 354 358 359 355 347 346 347 351 350 351 353 354 355 355 355 356 357 358 360 359 361 363 362
292 285 286 287 287 286 294 303 306 309 309 310 310 309 303 311 311 312 311 310 309 310 313 317 321 328 329 325 330 328 327 328 328 330 335 344 348 349 351 354 356 357 354 350 349 346 349 352 351 351 353 354 356 357 357 357 356 357 357 358 361 363 362
289 287 284 285 283 288 300 303 306 309 311 310 313 308 302 307 310 310 310 307 308 308 310 315 320 325 321 321 323 321 319 322 325 327 333 343 348 351 352 353 354 351 349 350 349 348 352 351 351 353 354 355 356 357 356 354 355 356 356 358 360 362 363
289 288 286 284 290 288 299 305 305 310 312 310 310 296 296 304 308 309 309 307 306 307 311 313 313 311 312 310 311 313 314 316 322 327 332 341 346 350 352 355 357 356 353 353 349 349 351 352 352 354 354 356 358 356 353 354 354 355 357 359 362 364 365
288 287 287 290 292 299 305 305 308 310 312 309 297 292 299 307 308 308 309 306 305 306 308 309 308 311 311 311 311 312 312 314 320 326 332 340 346 348 350 353 357 354 354 352 350 350 352 354 352 355 354 355 356 357 356 354 354 355 359 362 364 365 366
286 288 285 286 291 300 304 308 309 312 305 294 295 303 309 309 308 308 308 305 305 306 308 308 307 308 310 313 312 311 311 313 319 326 330 336 342 348 351 353 355 356 350 352 351 349 355 354 354 353 356 359 359 358 355 354 357 358 361 364 365 365 366
290 289 286 285 281 297 304 305 306 308 299 299 303 306 308 309 309 309 309 307 306 307 306 308 308 308 308 309 309 310 311 312 317 325 327 331 335 341 347 351 353 354 353 350 349 351 353 354 354 357 360 360 360 358 355 358 360 362 362 364 365 366 366
285 285 284 285 293 301 304 303 297 302 304 306 308 307 306 308 309 308 308 308 307 308 307 308 307 307 307 309 309 309 310 312 317 324 327 329 333 337 343 350 353 352 356 359 352 353 356 357 358 359 360 361 361 359 359 364 363 362 365 365 367 366 366
292 289 292 302 301 304 304 304 303 305 306 307 307 307 307 307 307 309 308 307 308 311 310 309 308 307 309 310 309 309 310 312 317 322 326 328 330 333 337 344 349 354 352 356 358 356 356 357 359 362 363 362 362 360 362 364 363 363 366 367 367 366 365
298 300 300 303 303 303 302 303 305 304 305 307 307 307 306 307 308 308 308 308 309 310 310 309 308 308 309 310 310 310 310 312 315 322 325 326 328 332 335 339 345 351 355 354 357 359 362 362 362 363 365 365 364 363 367 367 366 367 368 368 367 366 366
292 289 303 301 301 302 301 301 304 306 306 306 306 306 307 308 309 310 310 310 310 310 310 309 309 310 309 310 310 310 311 311 313 321 323 324 326 328 331 335 340 344 352 354 354 355 358 361 363 362 364 364 366 367 369 369 369 371 370 368 366 366 366
293 293 298 299 301 302 303 303 303 303 305 306 307 308 308 309 310 309 310 311 310 310 310 310 311 311 311 312 311 311 312 311 313 321 323 324 325 328 332 334 336 339 342 349 353 355 355 357 361 363 365 365 367 369 369 367 366 368 367 367 366 366 366
295 297 298 300 302 301 302 305 306 307 306 306 306 307 307 308 308 309 311 312 311 310 309 311 310 311 312 312 313 312 313 314 314 320 322 324 325 327 330 332 334 336 340 344 349 352 355 358 360 361 363 366 368 369 368 367 367 367 365 364 366 367 366
290 292 297 300 293 294 300 303 305 306 306 305 305 306 307 307 307 309 309 311 313 312 311 310 311 310 312 314 313 312 312 313 313 317 322 324 325 325 328 332 333 335 338 341 345 348 352 357 358 359 361 362 364 367 370 371 371 369 367 366 365 366 366
290 297 300 301 300 298 300 302 304 305 306 305 304 304 305 307 308 309 309 309 310 311 313 312 311 311 311 313 313 313 314 315 317 317 323 322 322 324 325 327 330 333 335 339 341 345 348 352 355 357 359 362 365 367 369 371 370 368 369 364 362 362 364
297 300 300 301 299 297 301 304 305 306 308 307 306 306 306 307 308 310 311 310 309 310 312 312 313 313 312 313 313 314 314 315 316 317 321 322 323 325 324 325 328 331 333 335 339 341 347 350 352 354 355 358 361 364 367 371 373 372 371 366 364 364 366
295 302 303 303 302 303 306 306 306 308 309 309 307 307 307 308 309 310 310 310 311 310 309 310 312 314 314 313 313 312 313 315 317 317 321 322 322 322 323 324 326 330 332 335 338 339 343 347 349 350 351 353 357 359 364 367 370 372 371 369 368 369 370

ECMWFFLT2_sfc_thetae_081.txt.gz
Theta_e
310 311 313 311 311 300 307 308 302 305 311 308 304 305 307 306 302 299 307 306 307 314 316 318 320 321 321 323 325 325 326 331 334 334 336 337 336 339 344 344 343 351 355 356 355 356 357 357 357 356 359 360 361 362 363 365 366 367 367 367 366 367 367
310 314 314 313 312 312 309 303 307 312 313 311 305 298 303 301 298 300 304 302 305 304 301 315 316 317 320 321 322 324 327 329 331 333 334 336 338 339 340 344 345 352 355 356 356 356 357 358 358 358 361 361 362 363 365 365 366 366 367 367 367 367 366
309 313 312 309 313 314 308 307 315 305 300 299 304 302 296 297 297 300 303 305 305 306 306 311 313 315 318 321 323 323 324 326 328 329 336 338 335 337 339 342 348 350 353 355 356 356 357 359 361 360 360 361 362 363 365 366 366 366 366 366 367 367 366
308 309 308 301 305 311 312 313 308 312 308 304 301 302 304 304 298 298 300 304 302 309 310 311 312 316 318 319 321 322 323 324 325 328 329 333 337 336 339 342 341 345 352 354 355 355 355 357 359 360 360 360 360 362 364 365 367 368 368 367 367 366 365
306 300 305 302 305 304 305 305 304 307 308 311 308 307 303 301 300 300 300 298 304 311 315 315 315 315 317 318 318 321 322 324 324 325 327 331 336 339 339 341 343 346 350 353 355 356 356 358 360 360 359 359 361 362 363 364 365 365 366 365 366 366 363
300 301 308 308 308 308 307 304 304 307 305 303 300 299 307 304 301 297 300 299 308 311 315 316 316 319 318 319 319 319 321 321 325 326 328 330 331 337 340 339 337 340 349 353 354 355 356 356 357 358 359 359 360 361 362 363 364 364 364 364 366 365 366
301 304 308 310 310 310 309 308 306 309 309 308 303 296 301 305 304 306 306 302 307 317 318 317 316 317 318 321 320 319 320 322 323 325 326 329 333 334 337 340 340 339 346 352 353 355 355 355 357 358 359 359 359 360 361 362 362 363 363 363 365 367 366
304 306 307 308 310 309 306 307 309 307 305 307 306 305 307 304 305 302 302 300 306 314 321 318 318 320 319 322 320 321 320 321 322 323 326 329 332 335 337 338 338 341 343 351 354 354 355 355 357 358 359 359 359 359 360 361 361 362 363 363 364 366 366
296 299 303 303 307 308 305 305 306 308 308 308 308 309 311 304 305 305 301 296 304 313 319 319 318 317 316 317 318 320 320 323 323 324 325 327 335 337 336 338 338 341 341 347 355 355 358 356 355 358 358 358 359 359 360 361 360 362 362 363 363 366 365
287 287 289 293 298 301 304 306 307 308 307 306 304 301 305 298 306 307 303 302 309 315 317 316 316 316 318 318 319 320 322 324 322 324 326 335 335 338 338 339 337 337 346 355 359 359 358 355 354 358 359 359 359 360 360 361 360 362 360 362 363 365 364
292 296 299 300 303 301 299 303 305 305 308 309 308 305 302 299 306 304 308 308 309 310 313 316 316 317 315 315 320 322 320 321 324 328 329 330 339 343 338 343 341 347 357 355 355 359 356 355 355 357 357 358 358 361 361 361 362 361 362 362 364 365 365
298 299 299 303 301 297 299 300 300 302 304 307 306 302 300 309 304 298 309 313 309 311 313 315 319 324 324 325 326 326 326 324 325 327 330 334 331 335 340 343 346 349 353 357 357 357 356 354 355 356 358 357 358 360 360 361 361 361 361 362 365 366 365
298 299 299 301 301 300 299 299 300 299 302 304 303 305 308 308 303 301 309 312 311 312 313 318 322 325 325 324 324 328 329 330 333 335 330 325 326 330 331 339 344 347 348 357 357 355 356 355 354 354 355 357 359 360 361 362 361 361 363 364 364 364 365
296 298 299 300 299 299 300 300 302 302 301 303 305 305 306 306 308 309 309 312 312 315 319 320 321 325 324 325 328 329 331 331 332 333 334 329 329 328 330 336 340 345 349 354 358 358 360 356 355 353 355 358 357 357 359 360 362 362 363 363 365 365 365
294 296 298 299 298 298 297 299 301 301 302 303 305 306 307 308 307 308 309 310 310 316 325 324 324 326 325 326 325 327 330 330 330 331 331 333 333 332 334 337 340 343 348 350 357 360 360 358 356 354 355 357 357 357 359 359 362 362 362 364 364 365 365
291 295 295 297 298 297 296 297 299 300 300 299 302 303 306 305 304 306 307 306 308 315 320 323 324 325 325 323 325 327 329 329 331 331 331 332 333 334 333 341 345 348 348 349 352 356 356 357 356 355 358 356 356 356 358 358 358 360 361 363 363 366 366
289 294 296 296 297 296 292 293 297 300 302 303 304 306 308 308 309 306 303 305 312 316 323 320 322 323 325 326 326 327 328 331 327 329 334 332 333 336 337 337 341 346 346 347 350 354 356 356 354 354 355 355 358 358 360 360 361 359 360 361 364 366 367
290 294 294 296 293 287 288 300 303 302 301 302 301 302 306 308 309 308 311 311 315 318 321 321 321 322 324 327 329 330 329 330 337 339 340 339 337 339 338 340 343 350 354 357 359 356 356 359 356 354 356 355 358 359 359 361 360 363 364 362 364 365 368
289 293 294 289 283 287 300 305 306 306 305 304 304 306 307 309 311 311 312 313 314 319 320 321 322 324 326 327 328 329 330 336 336 336 336 338 340 343 345 346 348 352 356 358 359 359 356 354 358 357 354 354 359 361 360 360 361 364 361 363 365 367 367
292 290 289 281 284 297 302 304 306 308 308 307 306 303 306 311 313 314 311 313 316 319 320 320 323 324 325 327 329 331 330 329 330 329 331 335 338 340 344 347 350 354 355 357 358 361 364 360 350 356 356 354 355 359 360 359 359 360 362 365 364 366 367
285 288 288 288 296 295 298 300 302 305 304 306 304 300 310 315 316 316 315 317 318 317 318 321 322 326 325 324 325 326 325 324 326 326 329 332 337 340 344 346 349 354 356 357 360 363 362 361 355 350 356 355 355 358 358 358 360 359 361 363 364 366 366
291 285 287 288 287 285 293 307 308 310 312 312 313 308 304 314 316 317 316 315 315 315 317 320 322 323 323 318 321 322 322 322 324 326 328 332 336 338 341 347 351 354 356 358 361 360 359 357 356 351 355 357 359 361 360 359 359 358 359 360 364 367 367
289 287 285 286 283 289 303 306 307 311 311 312 310 306 300 312 314 315 315 313 314 313 315 317 321 321 315 315 322 318 318 319 322 324 327 330 334 337 340 344 348 352 355 356 357 358 359 354 353 352 353 357 357 358 358 357 358 357 358 361 364 366 367
290 289 286 285 291 288 303 308 308 310 311 311 306 293 295 311 313 314 314 312 312 313 316 316 319 315 313 313 313 316 317 319 322 324 325 327 332 336 340 345 350 353 356 357 358 358 354 355 354 351 351 356 358 356 355 357 357 357 359 362 366 369 370
290 289 288 290 292 301 306 307 308 308 310 307 298 290 299 310 312 312 313 312 313 315 314 314 313 313 313 314 316 317 318 318 319 322 325 327 331 334 338 342 344 350 354 355 355 357 357 358 352 351 352 355 358 361 361 359 358 358 362 365 369 371 370
290 290 287 288 292 301 306 310 309 310 304 295 294 302 309 311 311 311 312 311 312 313 312 313 313 313 315 317 317 316 316 316 317 319 322 326 331 333 336 339 343 349 353 357 357 355 357 355 353 352 357 361 363 364 360 358 360 361 364 367 369 370 370
293 293 289 286 283 300 307 308 304 309 300 301 304 306 309 311 311 310 309 310 310 313 315 317 314 313 314 315 314 314 313 314 314 316 320 324 326 328 332 336 341 344 349 354 358 355 353 353 356 357 358 363 365 363 360 363 363 365 366 367 369 370 370
288 289 286 286 295 303 307 306 301 305 306 308 309 307 307 310 309 307 309 309 310 312 313 313 313 314 313 313 315 314 313 314 315 315 318 325 326 328 331 333 339 343 349 355 357 359 354 357 358 358 360 364 363 362 362 366 366 367 368 368 370 370 369
292 291 295 302 304 306 307 308 308 309 310 310 309 309 308 307 308 309 308 308 310 312 312 313 313 312 312 313 314 314 314 314 314 314 315 322 325 327 328 331 338 343 350 355 357 360 358 360 360 362 360 362 363 363 365 368 368 366 367 368 368 369 368
300 302 302 305 304 305 306 307 309 309 309 310 310 308 306 308 310 310 308 309 310 311 313 312 312 312 313 313 313 314 315 314 314 315 316 320 326 326 328 331 335 340 349 357 358 360 362 360 362 361 364 364 364 364 366 367 368 368 367 368 368 369 368
293 289 304 302 303 304 305 306 308 309 309 310 310 309 308 308 309 310 311 310 310 310 313 313 312 312 313 313 314 315 315 314 314 315 316 319 325 325 326 329 334 338 345 350 355 357 359 362 361 359 362 364 367 368 368 366 366 369 369 369 367 368 367
293 294 298 303 305 307 308 307 306 306 308 309 309 309 310 310 311 311 311 311 311 312 311 312 313 312 313 314 314 314 314 314 315 316 317 319 325 326 327 329 333 335 340 346 352 356 357 360 363 362 362 363 365 366 364 366 364 369 369 369 367 369 368
295 299 300 301 303 305 306 307 309 309 308 308 308 309 309 309 310 311 312 314 313 312 312 314 314 313 314 315 316 314 314 315 315 316 318 321 325 325 325 328 333 335 339 344 348 350 355 360 364 365 365 365 366 366 367 368 370 369 369 371 369 370 368
291 293 297 299 294 296 301 306 308 309 309 308 308 308 308 309 309 310 311 312 314 313 314 314 313 313 314 315 316 315 314 315 316 318 318 320 324 325 326 328 332 335 337 340 343 345 349 358 362 362 364 367 369 365 367 367 369 369 370 367 368 368 368
288 295 297 299 300 301 303 305 307 307 308 307 307 307 308 309 310 311 311 311 312 312 314 315 314 314 314 315 316 316 315 315 317 318 319 319 322 325 325 326 328 332 333 336 338 340 344 352 358 361 363 363 365 366 368 369 369 368 368 366 363 365 364
294 297 298 301 301 300 304 308 308 308 309 308 307 309 309 309 310 310 312 313 311 311 313 314 315 314 314 316 315 316 315 316 317 318 320 322 324 327 326 326 327 329 331 331 334 337 341 348 350 353 358 360 362 365 369 372 369 368 368 366 363 363 364
294 301 302 303 305 305 307 308 309 309 309 309 308 309 310 311 311 312 312 313 314 313 311 312 315 316 316 317 317 316 315 316 319 320 321 323 323 325 325 325 326 328 329 331 331 334 338 344 344 344 346 351 357 361 365 367 371 369 368 367 365 365 367

ECMWFFLT2_sfc_thetae_084.txt.gz
Theta_e
308 308 312 310 310 298 305 305 300 302 309 306 301 302 304 304 301 297 304 302 304 309 310 315 316 317 319 321 322 322 328 335 337 335 335 336 337 339 341 343 345 348 348 354 356 352 349 348 352 353 355 356 356 359 361 363 363 362 362 363 362 361 361
309 312 312 312 311 310 306 302 305 310 311 309 303 296 300 298 295 299 302 300 302 301 298 312 315 315 317 319 320 327 332 335 331 335 336 334 335 338 340 343 346 350 353 354 353 352 352 351 352 354 357 357 358 359 361 362 363 362 362 362 361 362 361
307 311 311 309 312 313 306 304 313 304 298 297 303 301 293 294 294 297 302 303 302 304 304 308 310 313 315 319 320 321 329 332 332 333 336 338 338 337 341 342 346 349 351 351 350 351 351 353 356 355 358 357 357 359 360 363 362 362 362 360 363 364 362
307 309 307 299 304 310 311 311 307 311 307 303 299 301 302 301 296 297 298 303 300 306 308 310 310 314 317 318 319 319 322 333 331 335 335 335 339 339 340 342 344 346 347 349 351 351 350 349 351 352 355 356 355 356 359 362 363 364 363 362 364 362 361
304 299 304 301 304 303 304 304 303 305 305 309 307 306 302 299 297 297 298 297 303 310 313 312 313 314 316 317 320 323 328 331 332 333 334 337 338 339 339 340 343 344 344 346 349 352 353 354 356 356 353 355 355 357 359 361 362 362 361 361 361 362 364
298 301 307 307 306 307 306 304 302 304 302 300 298 297 306 303 299 296 298 297 306 312 316 315 315 316 316 318 322 322 323 330 330 332 334 337 336 337 338 341 343 344 345 347 349 350 349 350 354 351 352 352 356 357 359 361 362 362 361 360 362 363 363
298 302 306 309 310 309 307 307 304 306 306 305 301 294 299 303 303 304 303 300 304 316 317 317 317 317 317 319 321 322 323 327 334 333 334 337 340 341 339 340 340 340 344 347 347 350 349 349 350 351 352 352 354 357 360 361 361 362 362 362 362 365 363
301 303 305 306 306 306 304 306 307 306 303 305 304 303 305 302 303 300 300 299 304 313 319 320 318 321 318 321 320 321 321 323 325 326 334 335 338 341 341 342 340 342 344 348 348 347 348 348 347 350 351 353 355 358 360 361 362 363 363 363 363 364 363
294 296 300 301 305 305 302 301 304 306 306 306 306 306 308 301 302 303 299 295 301 312 319 320 319 317 317 318 319 321 320 322 323 324 327 338 338 338 337 339 341 344 345 346 349 349 350 351 349 351 355 356 357 358 359 361 362 364 364 364 364 364 362
285 285 287 292 296 299 302 304 304 305 305 304 302 298 302 297 306 309 304 300 307 315 322 316 318 316 321 318 319 319 321 323 321 322 323 335 338 338 338 342 343 342 345 350 350 349 349 352 352 355 358 357 358 359 360 362 363 364 364 364 363 365 364
291 294 297 299 302 301 298 301 302 302 303 304 302 301 300 297 304 304 307 309 309 312 312 314 315 315 315 315 318 321 319 322 328 333 336 338 340 340 340 341 342 344 345 349 351 352 350 350 351 354 356 358 358 360 361 361 363 364 365 364 365 364 362
296 297 298 299 299 297 299 299 300 302 302 302 300 297 296 305 301 298 309 316 307 311 315 314 315 315 318 318 322 321 324 323 324 327 343 343 336 339 340 341 343 347 347 349 351 352 351 349 353 355 357 358 360 362 360 361 362 362 363 364 365 365 363
296 297 297 298 298 298 299 300 300 300 302 301 300 300 302 303 300 300 310 315 310 313 316 317 320 322 322 323 325 325 328 328 329 334 329 328 330 334 335 350 357 353 347 346 350 353 354 353 354 355 356 358 360 363 362 362 361 362 365 365 366 365 364
294 295 296 297 296 298 298 298 299 302 301 299 300 301 303 303 306 309 308 312 310 319 320 318 320 322 323 324 326 328 330 329 332 331 330 328 328 334 338 341 341 349 346 348 359 358 358 355 356 353 356 360 360 360 360 360 362 363 365 365 365 365 364
292 295 296 296 296 295 294 297 300 301 300 300 301 302 303 304 305 307 307 309 310 317 323 323 323 323 326 325 326 326 327 327 325 326 331 331 332 334 335 339 342 346 349 347 346 359 364 359 358 356 358 359 359 358 360 360 364 365 366 364 364 365 364
290 294 294 295 296 296 295 296 297 298 299 298 301 300 304 303 302 306 306 306 306 322 321 321 324 323 324 324 324 325 325 326 329 332 333 332 333 336 338 340 342 342 343 347 348 346 352 359 362 359 362 360 358 357 360 361 361 362 363 364 363 365 366
288 293 294 294 294 294 291 292 295 298 300 301 303 304 305 305 304 302 302 304 312 321 322 319 320 321 323 324 323 323 326 332 332 332 334 335 336 337 341 342 343 343 346 352 356 349 347 346 350 352 357 356 360 360 361 363 363 361 361 361 365 366 366
288 292 294 295 291 284 286 298 301 300 299 301 300 301 303 305 306 304 307 309 314 319 318 320 319 320 322 323 324 329 329 330 330 331 333 333 335 337 339 342 345 348 350 352 354 355 357 360 350 350 354 351 361 362 363 366 364 362 364 363 364 366 367
288 291 292 288 283 285 297 301 303 303 302 302 302 303 304 305 307 307 306 308 310 317 317 320 320 322 323 326 326 325 326 326 326 327 328 330 332 335 338 340 343 346 349 352 354 355 355 357 359 357 350 355 362 363 363 364 363 364 364 364 365 366 367
291 289 288 279 284 295 299 300 302 304 304 303 303 301 304 306 307 307 309 308 311 316 318 319 321 321 323 323 323 322 322 323 324 325 327 328 331 332 336 338 341 344 346 348 350 353 358 358 358 359 360 348 351 362 362 363 362 363 365 366 366 367 368
285 288 287 287 294 293 295 296 299 303 303 306 305 300 304 307 312 312 312 315 315 316 317 319 320 322 321 320 319 320 320 321 323 325 327 328 329 332 336 338 340 344 347 349 352 357 357 358 358 360 360 357 353 356 358 356 360 361 363 365 366 366 367
291 285 285 286 286 283 290 303 305 310 311 311 311 307 304 312 315 315 313 315 314 315 316 318 318 319 316 313 314 317 318 321 322 325 326 328 330 332 335 338 340 343 345 347 349 351 354 355 356 357 360 362 362 359 359 359 360 359 359 363 367 367 366
289 287 284 284 282 287 301 302 307 309 311 311 311 304 298 309 313 312 312 312 313 314 315 315 319 318 311 310 314 316 317 319 322 322 324 326 329 332 334 335 336 338 341 344 348 351 354 356 359 361 358 358 360 362 359 355 355 356 357 360 365 367 367
290 288 285 284 289 287 298 306 306 308 308 309 306 292 293 306 312 312 312 310 310 312 314 316 315 311 308 308 312 317 317 319 322 322 322 323 326 330 332 334 336 338 341 344 346 348 350 355 361 362 360 358 359 360 357 355 354 356 358 360 364 368 369
290 289 287 289 291 298 305 305 307 307 309 303 294 289 301 308 311 311 311 310 311 312 313 315 312 313 313 314 317 318 318 318 319 321 323 323 324 327 330 331 334 336 339 341 343 346 350 357 359 362 360 356 355 359 360 356 356 357 361 363 366 370 370
288 289 287 287 292 298 302 308 307 309 301 291 290 304 309 310 310 311 312 310 310 311 311 311 312 316 318 318 317 317 318 318 318 319 321 322 323 325 329 330 332 334 336 339 343 347 352 356 359 362 360 359 357 362 361 357 358 360 364 366 368 371 371
291 290 286 285 281 297 305 305 304 310 298 300 305 309 309 311 311 310 310 310 309 310 309 311 313 314 315 316 316 315 318 318 316 317 319 319 320 322 325 326 329 331 333 336 341 344 350 356 361 364 361 360 358 363 362 361 362 365 367 367 369 371 371
286 287 286 286 294 300 305 303 298 304 307 309 310 309 308 310 310 310 309 311 310 311 310 310 311 313 314 314 316 316 317 317 317 318 318 320 322 323 325 326 327 329 331 335 338 343 349 356 363 367 367 361 360 366 365 366 366 367 370 369 371 372 370
291 289 293 298 301 302 305 305 305 310 311 312 312 311 310 311 310 312 310 310 310 312 310 310 310 311 313 313 315 315 315 316 317 317 317 319 320 321 323 324 327 328 329 332 338 344 352 359 364 368 368 365 366 369 370 369 367 368 370 369 370 370 371
300 300 300 302 301 303 304 306 308 307 309 311 312 310 309 310 311 312 309 310 310 311 311 310 310 311 312 313 314 315 316 316 317 318 318 319 320 320 323 325 326 328 330 333 337 342 348 356 363 366 369 367 370 375 374 369 369 369 371 370 368 369 370
292 288 302 300 300 302 304 304 306 308 309 309 310 310 310 310 311 312 313 312 312 310 311 311 311 311 312 312 314 315 316 316 316 317 318 319 320 320 321 325 327 327 329 331 333 337 342 353 359 362 365 368 377 379 375 373 370 371 372 371 367 368 369
292 292 297 299 302 302 303 303 303 306 309 309 309 311 311 311 312 312 312 313 312 313 310 311 311 311 313 313 314 315 316 316 316 317 318 319 320 321 324 327 328 327 328 329 330 332 338 349 358 358 362 368 376 372 369 368 365 371 372 369 368 368 369
294 297 299 300 299 301 303 305 307 307 308 309 309 310 310 311 311 311 313 314 313 313 312 312 312 311 312 314 315 315 315 315 316 317 318 320 321 323 324 326 327 326 327 327 329 331 336 347 353 357 358 360 365 371 375 372 370 367 369 366 368 369 369
290 291 294 297 291 291 297 300 303 305 308 309 309 309 309 309 309 310 310 311 312 312 313 313 313 313 313 314 315 314 315 316 316 317 318 319 322 323 323 325 326 327 328 328 329 331 338 345 346 349 355 357 360 364 369 371 372 369 369 369 368 368 368
287 294 296 298 297 297 299 301 304 306 307 308 307 308 308 309 310 311 310 310 311 312 313 314 312 312 313 314 315 315 316 316 318 319 319 320 320 322 323 322 323 324 326 328 328 330 334 340 342 346 350 356 356 357 364 370 371 370 370 368 367 367 365
295 298 298 298 297 296 299 303 305 306 307 307 308 309 309 310 310 311 311 311 310 311 312 313 314 313 314 315 315 315 316 316 317 318 319 320 320 323 323 321 322 324 326 326 326 328 332 337 339 342 344 348 354 358 365 367 365 368 368 367 366 365 365
294 300 300 301 301 302 305 306 307 309 310 310 308 309 309 310 311 312 311 311 312 312 312 312 313 314 314 315 316 315 316 316 317 318 320 320 320 322 321 321 322 323 326 326 327 328 331 333 334 336 339 341 343 352 358 356 355 358 359 356 354 363 365

ECMWFFLT2_sfc_thetae_087.txt.gz
Theta_e
303 303 305 307 307 293 300 301 295 298 303 299 297 299 299 298 294 290 301 298 299 303 303 305 307 308 308 325 328 329 329 331 332 332 333 333 334 335 337 339 340 341 342 343 342 343 345 345 346 346 346 348 350 351 352 351 352 352 351 354 351 349 349
302 305 305 305 308 306 301 295 298 305 306 303 300 290 294 292 288 292 298 295 293 295 291 304 304 305 307 324 328 329 330 331 331 331 332 333 334 335 338 340 341 341 343 343 343 344 345 346 346 347 347 349 351 353 353 352 353 352 351 353 352 350 348
301 303 303 303 306 309 302 301 308 298 292 291 297 297 288 287 288 290 294 297 297 295 297 301 301 303 306 314 327 328 329 330 330 331 332 334 335 337 339 340 340 341 342 344 344 344 346 347 347 347 349 349 352 354 355 354 353 354 353 354 354 352 350
299 299 299 293 299 305 308 307 303 307 301 297 293 295 296 296 289 293 291 296 292 303 300 302 302 304 307 310 325 326 329 329 331 332 333 333 334 335 338 339 340 341 342 343 344 344 346 347 348 348 349 350 351 354 356 355 356 355 354 353 355 352 351
299 291 298 295 296 294 297 299 298 300 301 304 300 302 296 292 292 290 290 290 297 302 307 304 304 306 309 310 323 326 329 331 332 332 333 334 334 334 337 339 340 342 342 343 345 346 346 349 350 349 349 350 350 353 356 357 356 355 354 354 354 354 352
291 294 299 300 299 299 298 297 296 298 296 294 291 290 301 298 292 288 291 290 299 306 312 312 307 310 311 312 323 325 327 331 331 332 334 334 333 334 337 338 340 343 344 345 345 346 347 347 349 349 350 350 350 351 355 357 358 357 356 355 354 355 354
292 296 299 302 302 302 301 300 298 302 300 299 294 286 292 298 297 300 297 293 296 307 311 311 312 311 312 313 315 326 327 330 331 333 334 334 334 335 337 339 341 344 346 346 345 345 345 349 349 349 350 350 350 351 354 357 357 357 357 357 356 356 355
297 299 300 301 301 300 298 301 303 302 299 299 296 296 298 296 298 294 294 293 295 306 310 312 314 312 314 315 316 329 329 331 332 333 334 334 334 334 337 339 342 344 346 347 346 345 346 347 348 349 350 351 352 352 353 356 356 358 358 358 357 356 355
289 291 294 294 300 301 297 297 301 302 302 302 301 301 300 296 298 295 294 289 294 307 317 318 313 316 313 313 326 331 329 330 332 333 333 335 335 335 336 337 339 342 343 344 344 345 345 346 347 348 349 350 351 351 353 354 357 359 359 360 358 357 356
280 281 280 285 289 293 296 298 299 300 301 300 297 293 295 288 298 298 294 296 300 308 316 316 318 320 320 322 320 323 324 327 332 333 334 334 336 335 336 337 338 340 341 342 343 345 346 346 346 346 348 349 349 350 351 353 355 358 360 361 359 357 356
283 286 289 294 297 294 291 294 296 297 300 301 299 299 294 290 295 294 297 300 302 308 313 314 318 320 320 321 322 322 325 325 330 331 333 334 335 335 336 336 337 339 340 341 342 343 345 346 346 346 347 348 348 349 350 352 354 357 360 360 359 358 357
289 290 290 293 295 292 293 292 293 296 297 298 296 294 292 297 293 288 301 302 299 305 312 314 317 320 321 321 321 324 326 328 330 330 332 341 334 335 335 336 336 336 339 340 341 342 343 345 346 346 347 348 348 348 348 351 353 356 360 360 359 358 357
291 292 292 294 293 293 293 293 293 293 296 297 294 295 299 300 293 290 297 300 301 305 313 316 317 320 320 320 322 325 327 331 332 332 332 333 334 335 336 337 339 341 343 342 341 342 343 344 345 345 346 347 348 349 349 350 352 354 359 360 359 359 358
291 291 292 293 291 292 292 293 293 294 295 295 296 296 298 298 297 299 299 302 303 312 316 317 318 321 321 322 326 327 328 329 331 331 332 334 336 336 337 337 340 344 342 343 349 347 346 345 345 345 346 347 348 349 350 351 352 355 359 361 360 359 358
288 291 293 293 292 292 291 293 293 294 295 296 296 297 299 301 299 300 302 300 303 316 320 321 321 321 322 325 324 325 325 326 327 328 330 331 333 336 338 341 341 341 346 345 346 345 343 343 345 346 345 346 349 351 352 352 354 356 360 360 360 359 359
286 291 291 292 293 292 291 291 292 293 294 293 296 296 298 298 297 299 299 299 305 312 318 319 321 320 320 319 319 320 322 323 325 325 326 328 331 333 334 337 339 340 341 345 346 346 349 349 348 347 346 347 346 345 349 355 356 358 360 360 360 360 360
285 290 291 291 291 290 287 288 291 294 295 296 297 299 300 300 300 297 297 300 310 317 315 316 318 319 317 316 316 317 319 321 323 323 324 326 329 330 333 334 337 339 340 341 344 349 346 348 348 347 347 348 346 348 345 344 354 358 359 360 360 360 361
285 289 290 291 286 280 282 294 297 296 294 295 295 297 299 300 302 302 307 311 313 315 316 313 316 315 315 314 316 319 318 318 319 322 323 324 326 329 331 336 336 338 340 341 343 347 353 354 347 347 350 347 347 349 349 350 349 355 358 359 359 360 360
284 288 289 284 278 281 293 297 298 298 300 301 301 298 300 308 310 311 310 311 313 316 318 318 318 317 317 320 315 316 319 320 319 319 321 322 325 327 329 331 332 335 338 340 341 342 344 348 353 353 346 347 348 349 351 350 352 355 357 358 359 360 360
289 285 284 274 279 292 295 296 297 303 307 306 306 304 306 310 309 309 309 311 312 314 316 318 317 318 317 317 316 315 317 319 319 319 319 321 323 325 328 328 330 332 335 336 337 339 344 346 348 352 355 359 352 349 352 353 355 357 357 357 358 359 359
282 284 283 283 291 290 292 293 300 302 300 302 302 296 302 309 309 310 308 309 310 311 313 315 318 319 318 314 313 315 316 317 320 320 320 321 321 323 327 329 329 331 333 334 337 340 342 345 347 350 353 355 355 355 353 354 356 357 356 356 357 359 359
289 282 281 283 280 279 286 299 304 308 306 306 306 303 299 308 310 310 310 308 308 309 311 313 313 317 313 307 308 313 315 317 317 319 320 321 321 322 324 327 328 329 331 335 337 339 340 343 346 349 351 353 355 355 355 355 355 356 356 355 358 359 359
287 285 281 280 277 283 295 298 302 303 305 306 304 299 294 306 308 309 310 308 308 308 308 310 313 309 304 304 307 312 315 316 316 317 319 320 320 322 323 325 325 327 330 333 336 337 338 339 342 346 348 350 352 354 356 355 355 354 355 355 357 359 360
287 284 282 280 286 283 295 300 301 302 304 306 299 287 288 302 308 309 309 307 306 308 309 310 309 306 302 303 307 313 315 317 316 316 317 319 319 321 323 325 327 327 330 329 331 332 334 336 340 343 346 350 353 355 357 357 355 353 355 356 357 360 361
287 287 284 286 288 298 300 301 302 305 308 302 287 283 296 305 308 309 309 307 307 308 308 308 304 307 312 311 313 315 316 315 315 317 318 319 320 320 321 323 328 325 326 328 329 331 333 337 339 342 345 347 351 355 357 357 355 354 355 357 357 360 362
284 285 283 284 288 299 302 301 303 306 301 288 285 299 305 306 308 308 309 308 307 308 308 307 307 309 312 315 313 314 314 314 314 316 316 317 320 321 323 324 325 325 326 327 328 330 333 336 339 342 345 348 351 354 357 357 357 357 355 355 357 359 362
288 287 284 282 279 294 300 300 300 303 293 295 302 305 307 309 308 308 308 309 308 309 307 310 309 309 311 312 312 314 314 314 314 314 315 316 317 318 319 321 324 326 325 325 327 329 332 334 337 339 342 344 349 354 357 359 360 357 355 355 356 359 362
283 283 282 282 293 294 301 299 293 299 303 306 306 305 303 308 309 309 308 309 310 310 309 308 309 309 310 310 311 314 315 315 315 315 315 316 317 319 320 322 324 325 324 326 327 328 330 332 334 336 338 342 348 353 357 362 361 358 356 357 357 358 361
288 286 289 295 297 299 301 302 301 304 306 309 310 308 306 305 306 309 308 308 310 310 309 308 309 309 310 310 311 311 314 315 315 314 314 315 316 318 319 320 322 324 324 324 326 327 328 330 332 335 339 343 348 351 357 361 361 359 357 357 356 357 360
298 297 297 299 298 299 298 301 303 302 303 305 310 309 306 306 307 308 307 308 309 310 311 308 308 309 310 310 310 312 313 314 316 316 315 315 317 318 320 319 321 322 323 324 325 326 327 329 331 334 338 343 346 351 357 358 362 362 358 357 356 356 359
289 285 299 296 296 296 298 299 301 303 303 304 306 307 307 307 307 308 309 309 309 310 310 309 308 308 310 309 310 313 312 315 315 315 314 315 316 318 318 319 322 320 321 322 324 326 326 328 331 333 336 339 343 348 354 357 362 363 358 358 356 357 359
289 289 294 296 296 297 299 300 298 298 300 302 303 304 305 307 309 309 309 309 309 309 308 309 308 308 309 309 310 311 311 314 315 315 315 315 316 316 318 320 321 321 321 322 323 325 326 327 329 332 334 335 338 345 351 356 358 362 359 358 357 358 359
292 295 296 295 296 296 298 298 299 299 300 301 301 303 304 305 306 307 309 310 309 309 308 309 309 309 309 311 310 311 311 312 314 315 316 316 315 315 317 318 321 320 322 322 324 325 325 326 328 330 331 333 336 339 342 348 356 361 360 357 358 359 360
287 288 291 294 288 288 293 296 298 299 301 302 302 303 303 304 304 306 307 308 308 308 308 308 309 308 309 311 311 310 311 312 314 315 316 316 314 315 318 317 318 320 322 323 324 325 324 325 327 329 330 331 334 336 339 343 355 362 363 362 359 359 361
287 293 295 297 295 294 295 297 299 301 302 302 303 304 304 305 306 306 307 306 307 307 309 310 310 309 309 310 311 311 312 313 314 316 314 315 313 316 318 316 317 317 320 324 325 324 324 324 326 328 328 330 332 334 337 340 348 353 357 361 361 360 360
296 298 298 299 297 294 297 300 300 300 302 303 303 304 305 306 306 307 307 307 307 307 308 309 311 310 310 311 311 310 312 313 314 314 315 316 316 318 317 317 319 317 320 322 324 324 322 323 324 326 327 329 330 333 336 337 345 352 355 354 354 358 360
295 300 301 301 300 300 302 301 301 301 303 303 303 304 306 306 308 309 308 308 308 308 307 308 309 311 311 311 312 311 311 313 315 316 319 320 319 319 317 319 319 318 320 323 324 322 322 323 324 324 325 327 329 332 334 336 347 350 348 352 351 349 345

ECMWFFLT2_sfc_thetae_090.txt.gz
Theta_e
298 298 300 299 300 290 295 297 294 294 298 298 294 297 297 296 292 287 293 295 296 298 300 303 303 315 320 323 323 325 328 332 332 331 332 333 334 334 335 336 336 337 338 338 338 338 338 339 338 338 339 341 340 342 343 343 345 347 347 348 346 345 345
299 301 300 299 302 300 297 292 294 300 302 300 293 286 288 288 284 286 294 291 290 291 290 300 301 307 317 320 321 324 327 330 330 331 332 332 333 334 336 336 337 338 339 339 339 339 339 339 340 339 341 342 342 343 344 343 344 346 347 348 347 345 344
298 300 299 299 301 302 297 294 302 296 289 291 291 291 285 284 285 285 290 293 293 293 293 298 299 300 304 316 320 322 325 328 329 330 331 332 333 334 334 335 336 338 338 339 339 339 340 340 342 341 342 343 344 344 345 345 344 346 348 350 349 348 345
296 297 295 287 293 299 301 301 298 300 296 295 292 292 290 289 284 288 285 291 289 296 294 298 301 302 302 314 318 320 325 328 329 330 331 331 332 332 333 335 336 338 339 339 339 340 340 340 341 342 343 344 345 346 346 345 346 346 347 349 350 348 347
295 288 292 290 292 291 293 293 292 297 297 299 296 296 293 289 285 284 285 285 290 299 308 311 313 314 309 311 318 321 325 328 330 331 331 331 332 332 333 335 336 338 339 339 340 341 342 342 343 343 343 344 345 347 347 347 346 346 346 348 350 349 348
288 289 296 296 296 295 293 292 291 295 294 292 288 287 296 295 291 284 288 285 292 304 318 315 317 318 319 311 319 322 325 328 329 331 331 332 332 332 333 335 337 338 340 340 340 341 342 342 343 343 343 345 346 347 348 348 347 347 347 347 349 350 349
289 292 296 299 299 297 296 296 294 297 295 295 290 283 288 292 293 297 292 288 293 307 312 318 319 320 322 318 318 322 325 327 329 331 332 332 333 333 333 335 338 339 340 341 341 341 341 342 343 343 344 344 346 347 349 349 348 348 349 348 349 350 349
292 294 297 299 300 299 295 295 297 295 291 293 293 292 294 291 293 289 288 290 292 305 307 317 320 322 324 325 317 323 326 328 329 330 331 332 332 333 334 336 338 339 340 341 341 340 341 342 342 343 344 345 346 348 349 350 349 349 350 350 350 350 350
283 286 290 293 296 295 292 291 294 295 295 295 295 297 296 292 295 293 289 285 292 301 307 317 320 322 323 325 327 326 325 328 329 330 331 332 332 332 333 335 337 339 339 340 340 341 341 342 343 344 344 345 346 347 350 350 351 351 351 352 350 350 350
275 275 277 280 284 287 290 293 293 294 293 292 291 288 290 284 292 293 290 289 296 302 305 313 318 320 322 324 327 329 325 325 328 329 331 331 332 332 333 335 337 338 339 340 341 341 342 343 344 344 344 345 346 347 350 352 352 352 352 353 352 351 351
280 282 285 290 293 289 286 289 291 291 293 293 293 293 290 287 290 290 292 295 295 298 302 312 315 318 319 320 323 327 329 331 334 335 335 335 335 335 334 337 339 339 339 339 340 341 342 343 344 345 345 345 346 347 349 352 353 353 353 353 352 351 351
287 288 288 290 292 288 289 289 289 291 291 292 291 288 287 294 290 285 294 297 295 297 309 314 315 317 318 319 320 323 328 332 334 335 338 341 337 337 338 339 340 339 339 341 340 341 342 343 345 346 346 346 347 347 348 351 354 355 355 354 353 352 352
290 290 290 291 291 290 290 290 290 290 291 291 289 290 292 294 290 288 294 297 297 303 311 314 316 318 317 317 320 321 324 327 330 331 331 331 332 334 335 335 337 340 341 340 341 341 342 343 343 345 346 347 348 348 349 350 353 354 356 355 354 354 353
289 289 290 291 290 290 290 290 290 291 291 291 292 292 293 293 292 295 297 298 303 309 312 315 317 318 320 321 321 319 319 321 324 326 327 328 330 331 332 333 335 336 339 342 344 341 342 342 343 343 344 346 346 347 348 350 352 355 356 355 355 354 353
286 289 292 291 290 290 288 290 291 291 291 292 293 293 293 295 295 298 298 300 302 311 314 315 318 319 319 318 317 317 318 318 321 322 323 325 326 328 330 331 333 335 336 336 339 341 344 342 343 343 344 345 347 348 348 349 350 353 356 356 356 355 354
283 288 289 290 291 290 288 288 289 290 290 289 292 291 294 293 294 296 299 302 302 310 314 316 314 315 314 314 315 316 316 317 318 318 320 323 324 325 326 329 330 331 334 333 334 336 338 338 343 343 344 345 346 346 347 348 350 352 353 356 356 356 356
282 287 290 289 289 287 284 285 288 291 292 296 299 299 300 303 303 300 299 303 309 311 316 312 311 312 313 313 316 316 317 316 317 316 317 319 321 324 325 326 327 328 331 333 334 336 336 337 338 342 347 346 346 347 348 349 350 350 350 352 355 357 357
281 287 288 289 283 277 279 289 294 293 291 294 299 302 306 308 308 306 310 310 311 312 312 312 310 310 312 315 317 320 318 317 316 316 317 317 319 321 323 324 324 325 329 331 334 335 337 339 340 340 345 347 348 349 350 350 350 350 349 350 352 355 357
280 285 286 282 275 279 291 294 296 300 301 301 300 303 305 306 307 307 307 308 307 308 311 315 313 312 313 317 318 318 320 318 317 317 317 317 318 320 321 322 324 324 327 330 332 335 337 339 340 342 342 343 345 348 349 349 349 350 350 350 351 354 356
284 281 281 271 276 288 293 293 298 303 302 299 300 300 304 305 306 306 305 306 307 308 308 309 315 315 312 314 317 319 319 319 316 317 317 317 318 319 321 323 324 324 325 328 331 333 338 338 339 341 341 343 343 344 347 348 348 349 350 350 351 354 356
279 280 279 281 287 287 289 292 297 298 294 295 294 291 299 305 307 307 305 305 306 307 307 308 310 313 314 309 311 317 317 317 319 318 318 319 318 319 320 322 324 326 327 327 330 333 334 336 337 337 340 342 342 342 344 348 348 348 349 349 350 353 356
285 279 278 279 275 276 283 295 299 300 301 302 301 297 297 305 306 310 308 304 305 305 306 307 308 311 308 303 305 314 318 319 318 319 317 319 319 320 320 322 323 324 327 328 330 331 332 335 336 338 339 341 341 341 343 349 351 349 349 350 351 353 355
283 282 278 277 272 278 292 294 297 298 302 303 302 295 293 304 304 308 309 306 304 306 305 305 307 306 302 301 304 310 316 315 317 317 318 318 319 320 320 321 322 324 325 328 329 330 330 332 333 336 339 341 342 342 343 347 353 355 354 352 352 352 355
285 282 279 277 283 279 292 296 297 299 301 302 296 283 287 302 304 307 309 308 306 305 306 306 305 302 300 302 305 311 313 319 318 317 317 318 319 318 320 321 323 324 327 326 325 328 328 329 332 334 336 336 337 340 345 346 350 354 356 357 357 356 355
287 287 281 282 285 296 297 296 298 300 302 299 287 281 293 301 304 308 309 310 310 307 306 306 302 305 306 308 310 313 313 316 316 318 319 318 319 318 319 321 323 322 324 324 325 326 328 329 331 332 333 333 335 337 340 343 347 353 358 361 360 359 357
281 282 280 281 285 294 296 298 299 302 296 283 281 296 302 303 304 307 308 307 311 310 307 307 306 307 309 311 311 311 313 313 314 315 315 317 318 320 321 322 321 321 322 322 324 325 327 328 329 331 332 332 334 337 340 343 347 352 357 359 360 360 357
285 283 280 279 277 290 298 298 297 300 288 289 297 299 301 305 306 306 307 308 309 312 308 309 308 308 308 308 309 310 313 313 313 313 314 314 314 315 318 318 320 321 320 321 322 324 326 328 329 330 331 332 334 336 337 340 344 347 351 355 357 358 358
280 279 278 279 287 292 298 296 289 294 297 300 301 302 300 303 304 304 304 306 308 309 308 309 308 308 307 308 309 309 311 315 314 313 314 315 315 315 317 319 319 321 320 321 322 324 326 327 328 329 330 330 331 332 332 335 337 342 347 352 355 356 357
285 282 284 291 294 295 296 297 296 297 299 300 300 299 299 299 301 304 303 303 306 307 308 308 309 308 308 308 308 308 309 313 314 313 313 314 315 314 315 317 319 319 319 320 321 323 325 325 325 327 329 329 329 329 331 334 336 338 341 344 348 352 356
294 295 296 297 295 294 295 297 298 298 298 299 299 298 297 299 300 301 300 302 304 305 307 307 307 308 309 308 308 308 309 312 314 316 315 315 315 314 315 315 317 318 318 320 321 323 323 323 323 325 327 328 327 328 331 333 334 336 337 340 344 351 356
286 282 293 293 293 294 295 296 298 298 299 298 299 298 298 299 300 301 302 302 303 304 306 307 307 307 309 309 309 308 308 310 313 315 315 314 314 313 314 315 318 316 316 318 321 322 322 321 321 323 325 326 327 328 330 331 333 334 336 339 344 352 356
285 286 291 293 296 296 296 296 295 295 297 298 299 300 300 301 302 303 303 304 303 305 304 306 306 307 308 308 308 308 308 308 309 313 314 315 315 315 315 316 318 316 315 317 320 321 319 319 320 322 324 324 326 327 328 330 332 334 335 338 341 347 352
288 292 293 294 295 295 296 298 297 297 297 298 299 299 300 300 301 303 304 305 304 304 304 306 306 307 308 309 309 308 308 308 308 310 314 316 315 314 315 315 318 315 316 317 320 322 319 318 320 321 322 324 325 325 326 328 331 332 334 336 340 346 352
284 285 288 292 287 288 293 295 296 297 299 299 298 299 299 301 301 302 302 304 306 306 306 306 306 305 306 308 309 309 309 309 308 310 312 314 314 314 315 316 316 316 317 318 321 320 318 318 320 321 321 323 324 325 325 327 330 331 333 335 340 348 353
284 289 292 294 295 294 295 296 297 299 299 299 298 299 300 301 302 303 303 303 304 305 306 307 306 306 307 307 309 309 310 310 310 310 311 313 314 314 315 314 316 315 315 319 321 318 317 319 319 320 320 322 323 324 325 327 329 330 331 335 342 347 350
292 294 295 295 294 293 295 298 298 299 300 300 300 301 302 302 303 304 304 304 304 304 306 306 307 307 308 308 309 309 310 311 311 311 310 312 314 316 316 314 316 315 316 318 319 316 317 319 319 318 319 321 322 323 325 327 329 330 331 336 341 343 346
291 295 296 297 297 298 299 299 299 300 302 302 301 301 302 304 305 306 305 305 306 306 306 306 307 308 307 308 308 308 309 311 313 312 316 319 320 318 316 317 316 316 316 319 319 316 318 319 319 319 319 320 322 323 324 327 328 330 334 339 340 341 343

ECMWFFLT2_sfc_thetae_093.txt.gz
Theta_e
296 296 297 298 298 288 292 293 288 292 296 293 290 296 295 293 287 286 290 292 293 295 299 308 315 315 311 316 322 325 326 329 331 331 332 333 334 335 335 335 336 335 334 334 334 334 334 334 333 334 335 337 340 341 342 342 343 345 345 347 346 346 346
296 298 298 298 299 297 292 287 292 298 298 296 291 286 284 283 283 284 289 288 288 289 292 308 313 315 316 317 316 321 324 327 329 331 332 333 334 335 336 336 337 337 336 335 335 335 335 334 334 334 335 337 340 341 342 342 343 343 345 346 346 346 345
294 298 297 295 297 299 294 291 298 293 286 288 289 289 284 283 283 282 287 290 293 297 300 307 310 312 315 317 319 317 318 324 329 330 332 333 334 335 335 336 336 336 336 336 336 335 336 335 336 335 336 337 339 341 342 343 343 344 345 346 346 346 346
293 294 293 285 290 296 299 298 295 298 292 292 287 290 288 285 282 284 283 287 292 301 302 305 308 314 315 318 319 320 320 321 327 330 332 332 333 334 335 335 336 337 337 337 336 336 336 335 335 335 335 336 338 340 342 342 343 344 345 345 346 345 345
291 286 290 287 289 288 291 292 290 291 292 296 295 292 290 288 283 281 281 284 292 300 305 302 309 316 317 318 318 321 323 321 324 330 332 332 333 334 334 335 336 337 337 338 338 337 337 337 337 337 336 336 337 339 340 342 342 342 343 345 345 345 344
286 287 293 293 293 293 291 289 288 289 288 287 285 284 292 291 287 283 283 283 290 300 306 304 316 317 317 318 318 320 324 326 322 328 331 332 333 334 335 336 336 337 337 338 338 338 338 337 337 336 336 337 337 338 340 341 342 342 343 344 345 345 344
286 289 292 294 295 295 294 292 289 292 290 289 285 279 283 289 290 294 290 285 292 303 305 309 317 318 317 317 318 318 323 327 322 326 331 332 333 334 335 335 336 337 337 338 338 338 337 337 337 337 337 337 337 337 339 341 341 341 343 344 345 346 344
288 291 293 295 295 293 290 290 292 291 288 289 287 286 288 287 290 286 285 286 290 300 306 314 318 319 318 318 317 317 320 325 327 324 329 331 332 333 334 335 336 337 337 338 338 337 337 337 337 337 337 338 338 338 339 340 341 341 343 344 345 346 345
280 284 286 288 291 291 288 287 289 290 291 290 290 292 293 288 291 289 287 282 287 299 307 317 318 317 317 316 317 317 317 321 326 330 328 329 331 333 333 333 334 335 336 336 337 337 337 337 338 338 338 338 339 339 340 340 341 342 343 344 345 346 346
274 275 275 278 282 285 288 290 289 290 290 289 288 283 286 281 290 288 286 285 292 299 309 315 317 316 315 316 316 317 317 317 320 327 330 332 330 330 330 332 332 333 335 336 337 337 338 338 338 338 339 339 340 340 341 342 342 342 343 344 345 345 346
276 278 282 286 292 287 284 287 288 289 290 290 290 289 285 283 287 286 287 291 293 294 308 311 314 316 315 314 314 314 315 316 319 321 325 327 329 332 335 336 335 334 334 335 336 337 338 339 339 339 339 340 340 341 342 344 344 344 344 344 345 345 346
284 285 286 288 291 286 287 287 287 289 289 289 288 285 283 290 286 280 289 294 290 292 307 310 312 314 315 315 314 314 315 316 317 318 320 326 324 326 328 331 332 335 335 336 336 337 338 339 340 340 341 341 341 342 342 344 346 346 346 346 345 345 345
288 288 288 289 289 289 288 288 288 288 289 288 287 288 289 291 286 283 289 292 290 296 308 311 312 314 315 314 315 315 316 317 317 317 317 318 319 322 323 324 328 331 332 335 336 338 339 339 339 340 341 341 342 343 344 345 347 347 348 347 346 346 345
287 287 288 289 288 288 288 288 289 289 288 288 288 288 289 289 288 291 292 292 292 307 309 312 312 315 316 317 318 317 316 315 316 316 316 317 318 319 321 322 323 327 330 333 334 336 337 339 340 341 341 341 342 343 343 345 347 348 349 348 347 347 346
285 287 290 289 288 288 286 287 288 288 289 290 291 292 292 296 291 293 294 295 298 306 312 313 312 314 315 316 315 314 315 316 316 315 316 316 317 318 320 321 322 323 326 330 332 333 335 336 337 340 343 342 343 344 344 346 347 349 350 349 348 348 347
281 286 287 288 289 288 286 286 287 290 291 290 291 293 299 298 296 296 295 297 299 306 310 314 312 313 311 312 313 313 314 315 316 315 316 316 317 318 319 320 322 322 323 326 330 333 333 335 337 338 341 344 345 344 345 346 348 350 350 350 349 349 349
279 284 287 287 286 283 282 283 286 290 295 296 300 303 304 303 303 298 298 299 304 305 308 309 308 311 312 311 312 313 314 314 315 315 316 317 319 318 319 320 321 321 322 324 327 330 331 334 336 338 340 340 341 344 346 348 348 350 351 351 350 350 350
278 284 286 287 280 275 278 288 291 297 294 294 295 299 301 302 304 301 304 304 305 305 305 306 307 309 310 313 314 317 314 313 313 315 316 317 319 320 320 321 320 322 323 325 326 329 330 333 337 339 340 341 342 344 346 348 347 349 350 351 352 351 352
279 281 284 280 273 276 287 292 299 299 298 297 296 297 303 303 304 304 303 304 304 304 305 306 309 311 314 315 314 315 316 316 314 314 314 316 317 318 319 320 322 322 324 325 326 327 329 332 335 336 337 340 342 343 344 344 346 347 347 347 351 353 353
280 278 277 269 273 284 291 294 298 300 298 297 296 294 302 302 303 303 302 304 305 304 305 306 307 311 313 314 315 316 317 317 315 314 314 316 316 318 319 320 321 322 324 325 326 327 332 332 332 334 335 339 341 342 346 347 346 346 347 347 347 348 352
278 278 277 279 284 285 287 291 294 294 291 293 292 287 293 301 301 302 302 303 305 305 305 306 306 308 311 307 309 315 317 317 317 316 316 317 316 317 320 321 322 323 325 326 328 330 330 331 330 331 334 337 339 341 343 346 346 347 346 345 347 348 349
282 277 277 277 273 276 280 292 298 299 298 298 299 294 292 302 300 302 302 302 305 305 305 306 306 307 305 301 303 311 316 318 317 318 317 317 317 317 320 320 321 322 323 325 327 329 329 330 330 331 332 334 336 338 342 345 347 348 347 345 346 348 349
282 280 277 275 270 277 285 290 295 298 298 298 300 294 289 301 299 301 302 303 305 306 305 305 305 302 297 298 303 308 315 317 318 318 318 317 316 317 318 321 319 320 322 324 325 326 326 327 328 331 333 333 334 336 339 341 344 347 348 348 349 346 346
283 280 277 276 281 277 290 294 295 297 298 299 295 281 283 296 298 300 302 303 304 306 306 307 304 300 296 298 302 309 311 318 318 317 318 317 318 317 317 320 322 322 323 322 322 322 324 325 328 330 333 333 335 335 338 340 343 346 347 350 348 348 348
285 286 279 279 283 292 294 294 296 297 300 296 282 278 289 297 298 301 303 303 305 307 307 306 302 305 306 306 308 311 312 313 317 318 320 319 320 318 317 318 321 320 321 321 321 321 323 325 327 327 330 331 332 333 335 336 335 336 337 341 346 353 352
279 280 281 281 283 291 293 295 297 299 294 282 279 292 296 298 299 301 302 302 303 304 305 306 306 306 309 311 310 309 310 310 313 315 316 319 319 320 319 319 319 318 319 319 321 323 324 325 325 324 326 328 330 331 331 330 331 333 336 338 342 345 349
282 281 279 277 275 286 296 295 293 297 286 286 293 295 297 299 297 298 299 299 300 301 301 303 303 304 306 308 307 307 307 309 311 313 314 315 317 316 317 316 317 319 316 317 319 321 323 324 322 323 324 325 327 329 327 328 330 333 335 337 338 340 342
279 278 278 277 284 289 297 294 287 291 294 296 296 295 293 296 297 297 297 298 299 300 300 300 301 302 303 306 307 307 307 307 310 312 314 315 317 318 318 317 317 319 316 317 319 321 323 323 321 321 323 323 325 325 325 327 329 332 333 334 336 338 340
283 281 283 287 292 293 295 295 294 295 296 298 297 296 295 295 296 298 297 297 299 300 300 301 301 301 303 304 307 306 307 307 308 310 312 314 315 316 315 317 319 318 316 316 318 320 322 321 320 320 322 322 323 323 324 327 328 328 330 333 335 337 340
290 292 294 295 294 293 294 296 297 296 297 297 298 296 295 296 297 298 297 298 299 300 301 300 301 302 302 303 305 306 307 307 308 312 313 314 315 315 315 317 319 319 317 317 318 320 321 321 319 321 322 323 322 323 325 327 327 328 329 331 333 336 339
285 281 290 292 291 293 294 294 296 297 298 297 297 296 296 297 298 298 299 299 299 300 301 301 301 302 303 303 304 305 306 307 308 308 310 313 314 315 314 316 319 317 317 317 318 320 320 319 318 319 320 322 323 324 325 325 328 328 329 331 334 335 338
283 285 288 291 293 294 295 294 293 293 295 296 297 297 298 298 299 299 299 300 300 301 301 302 301 302 304 303 303 304 305 307 307 308 309 312 314 315 315 315 318 317 316 317 318 320 318 317 318 319 319 320 322 323 324 325 326 327 329 331 332 334 336
288 290 291 292 292 292 293 295 295 295 295 296 296 297 298 298 298 299 300 301 301 301 301 302 302 302 304 305 305 304 305 306 307 308 310 312 314 314 314 315 319 316 316 317 318 320 318 316 317 318 319 320 322 322 323 324 326 327 329 331 333 333 336
283 285 288 289 285 286 289 293 295 295 296 296 296 297 297 298 298 299 299 300 302 303 303 303 303 302 303 305 305 304 305 306 307 308 309 311 312 313 315 317 316 315 317 317 319 320 318 316 317 319 319 319 321 321 322 324 325 326 329 331 333 335 339
284 289 290 291 291 290 292 294 296 297 297 296 296 296 297 298 299 300 300 300 302 303 304 305 304 303 304 304 306 305 305 306 308 310 309 309 310 312 315 315 315 314 314 319 321 320 318 318 318 319 319 319 319 320 321 323 325 325 328 330 333 332 334
291 291 291 292 292 291 293 295 296 297 298 297 297 298 299 299 300 301 302 303 303 303 304 305 306 305 305 305 306 305 306 306 307 309 310 310 310 313 315 316 315 315 315 317 318 319 317 318 318 318 318 318 318 319 320 322 324 325 327 327 328 329 330
291 292 293 294 294 295 296 297 298 299 300 301 299 299 300 301 302 303 304 304 305 304 303 304 305 306 305 305 306 306 306 306 309 309 314 317 315 315 315 316 315 314 314 315 315 314 315 317 318 318 317 317 318 318 319 321 323 324 326 326 325 326 330

ECMWFFLT2_sfc_thetae_096.txt.gz
Theta_e
294 293 295 295 296 287 291 291 289 291 293 292 290 296 294 289 285 287 288 291 294 299 298 308 316 318 317 318 319 320 321 323 326 329 330 331 333 334 334 334 334 334 333 334 334 334 334 335 335 336 337 338 339 341 342 343 344 344 345 347 346 347 346
293 296 295 296 295 296 290 287 290 295 296 293 290 286 283 282 282 284 287 290 292 294 288 304 314 314 315 315 316 318 319 322 323 326 330 332 332 334 335 336 336 335 334 334 334 334 334 335 335 336 337 338 340 341 342 342 343 343 344 346 346 346 346
292 295 293 291 294 297 292 292 297 292 288 289 287 287 283 282 283 284 286 290 293 294 295 305 311 312 313 314 315 316 317 319 322 325 327 331 333 334 334 335 335 336 335 334 334 334 335 335 336 336 337 338 339 340 342 343 343 344 344 346 347 347 347
291 291 290 283 288 295 296 295 291 293 292 289 285 290 286 284 281 282 284 289 290 297 299 309 312 312 313 313 314 316 317 318 319 323 327 328 331 333 334 335 336 336 336 335 334 334 334 334 335 336 336 337 338 340 342 343 344 345 345 345 347 346 347
288 284 288 285 287 286 288 289 287 288 288 292 292 291 288 286 281 280 281 285 291 298 303 310 313 314 313 313 314 317 318 318 319 322 325 328 329 333 334 335 336 336 337 336 335 335 335 335 336 336 336 336 337 339 340 342 342 343 344 345 346 346 347
283 286 290 290 290 290 288 286 285 286 285 285 284 286 289 289 284 281 281 286 292 300 310 313 315 316 314 314 314 316 318 320 319 320 323 325 328 333 335 336 337 337 337 338 337 336 336 335 335 335 335 336 337 338 339 341 342 343 343 344 345 346 347
286 288 290 292 293 292 290 290 287 289 288 287 281 279 284 286 288 292 288 285 290 304 314 316 317 317 316 315 315 314 316 318 320 321 321 324 325 330 335 335 337 338 338 338 337 336 335 335 335 335 335 335 336 337 339 340 341 342 343 344 345 346 346
286 289 290 292 292 290 287 288 290 289 286 287 286 283 286 286 287 283 283 286 290 300 314 315 316 318 317 316 315 315 316 317 318 319 321 321 323 324 327 334 338 338 340 339 338 336 336 335 335 335 335 335 336 337 338 339 340 341 343 344 345 346 345
279 281 285 286 289 290 287 286 288 289 289 288 289 289 290 287 287 287 282 282 288 298 312 314 315 316 316 315 316 316 315 316 317 319 320 321 322 322 324 325 330 335 340 338 338 337 336 336 335 335 335 335 335 336 338 339 340 342 343 344 344 345 345
275 277 276 277 281 284 287 289 288 289 288 287 286 283 285 279 289 287 284 283 289 296 307 311 311 313 314 315 316 317 317 316 317 318 319 320 321 322 322 323 325 328 331 335 337 340 338 336 336 336 336 335 335 336 337 339 340 341 342 343 344 344 345
275 278 280 285 291 284 283 286 287 288 289 288 288 285 282 281 284 285 285 288 290 292 307 308 308 311 312 313 314 314 315 316 317 318 319 320 320 321 321 323 323 325 327 331 334 336 337 337 337 337 336 336 336 336 337 338 340 341 342 343 343 343 344
284 283 286 287 290 285 285 285 286 287 287 287 287 284 284 287 284 279 288 292 288 291 306 307 307 309 311 312 313 313 314 316 316 318 319 322 319 320 321 321 322 322 325 328 331 333 335 337 338 337 338 337 337 337 337 338 339 340 342 342 343 343 343
287 286 286 288 287 287 287 286 286 286 287 288 286 287 288 289 284 282 287 290 289 298 305 309 308 310 310 310 312 313 315 317 317 317 316 317 317 318 319 320 321 322 323 325 327 329 331 335 337 338 339 338 338 338 339 339 339 340 342 342 342 343 343
286 286 287 288 287 287 286 286 287 287 288 289 288 288 290 289 287 289 289 290 295 302 303 309 309 311 311 312 313 313 313 314 316 316 316 316 317 317 318 319 320 322 323 324 325 328 329 331 334 337 339 340 339 338 339 339 340 341 342 342 342 342 342
284 285 289 287 287 287 285 285 286 288 291 292 292 295 301 300 294 298 298 297 298 304 306 309 312 313 311 311 310 311 312 313 314 314 315 316 316 317 318 319 320 321 322 324 325 326 327 329 332 334 336 338 341 340 340 340 341 342 342 342 342 342 342
280 284 285 286 287 286 285 284 285 288 291 292 293 298 301 299 297 299 300 296 297 302 306 308 311 311 309 308 309 310 311 312 312 312 313 314 316 317 317 319 321 320 321 322 323 325 326 329 330 331 333 336 339 341 342 342 342 344 343 343 342 342 343
277 281 285 285 284 280 280 282 285 288 291 294 297 301 302 302 302 299 297 297 302 303 306 304 306 309 309 309 309 310 310 311 312 311 312 314 316 316 318 319 320 320 321 322 323 324 326 328 329 330 331 333 335 339 341 346 345 344 344 343 344 344 344
277 281 284 285 277 274 276 286 291 294 293 293 293 295 299 301 303 301 303 303 305 305 304 303 303 305 309 311 313 315 312 310 310 311 313 313 314 315 317 318 320 320 321 322 324 325 326 328 330 330 331 332 334 338 342 345 347 346 345 345 345 345 346
279 280 282 278 273 274 285 291 293 296 296 296 294 296 300 301 302 303 303 304 304 305 305 305 305 306 311 314 313 314 315 313 311 311 312 312 312 314 316 317 319 319 320 322 323 325 326 327 329 329 329 331 333 336 339 344 347 347 346 346 346 347 347
279 278 276 267 273 282 288 291 296 299 296 295 295 295 299 299 299 300 300 302 304 306 306 307 307 306 309 313 313 313 315 316 314 312 312 312 312 312 314 317 318 319 320 321 323 324 328 327 328 328 328 331 333 335 340 344 348 348 348 348 347 348 348
278 278 275 277 281 283 286 291 293 293 289 291 290 286 290 298 298 299 299 300 302 304 305 306 307 307 310 308 307 309 310 314 317 316 316 316 315 314 315 317 319 321 321 322 324 325 325 327 328 328 329 330 332 335 338 341 345 349 348 349 349 349 350
280 276 277 275 271 275 279 289 296 298 298 297 296 293 289 298 297 299 299 299 301 302 304 305 306 306 305 301 302 307 309 311 314 317 318 319 319 318 316 317 319 320 321 323 325 325 324 325 327 328 328 329 330 334 336 339 343 348 349 348 349 351 352
280 280 276 275 270 277 283 290 294 296 298 297 297 290 285 297 296 299 299 299 301 301 302 303 306 302 297 298 302 306 309 310 312 314 316 318 319 320 318 318 318 319 320 322 323 324 324 323 325 326 326 327 329 333 335 335 335 335 337 340 345 349 349
282 279 277 276 280 277 286 291 294 296 297 298 292 280 282 293 295 298 299 298 300 300 300 302 302 301 296 298 302 306 308 310 311 313 315 316 318 319 320 319 319 320 322 321 320 321 321 323 325 323 325 325 328 330 332 332 331 330 331 334 338 343 349
286 285 278 279 282 290 293 292 295 295 298 293 282 278 288 295 296 298 297 297 299 299 298 299 296 301 303 303 304 306 307 308 309 311 314 316 318 319 320 319 322 319 319 319 319 320 322 324 324 322 323 324 325 328 330 329 327 328 331 333 336 338 343
280 281 280 280 281 288 293 294 295 297 292 281 279 289 294 294 295 296 297 296 297 298 298 298 298 299 302 303 304 305 305 306 308 309 310 313 316 319 322 323 321 319 319 319 319 321 323 325 325 322 322 322 324 326 326 326 326 328 331 332 334 335 337
281 279 280 277 275 285 294 294 293 296 286 284 290 293 294 298 296 295 296 297 297 298 296 298 298 299 300 301 302 304 305 306 306 307 308 309 312 314 317 319 321 320 319 317 317 320 323 324 324 322 321 321 322 325 324 325 327 328 329 331 333 334 335
277 278 278 277 284 289 295 292 286 290 295 294 295 294 292 295 295 295 295 296 297 297 297 297 298 299 299 301 302 303 304 305 306 307 308 309 311 313 317 320 320 320 320 319 319 320 322 324 323 322 322 320 322 323 323 325 326 329 329 329 331 333 336
283 281 282 286 290 293 294 293 292 293 295 297 296 295 294 294 294 296 295 295 297 298 298 298 298 298 300 300 302 302 303 304 304 305 306 307 309 311 313 316 319 320 320 319 318 320 321 323 322 320 321 320 320 321 323 325 326 326 328 329 329 331 334
289 291 292 292 292 292 294 296 296 295 295 297 297 296 294 295 296 296 296 297 297 298 298 297 298 298 300 300 301 302 303 304 304 307 306 307 309 310 313 315 317 320 321 320 319 320 321 322 320 322 320 321 320 322 324 325 325 326 326 328 329 331 334
285 281 288 291 292 292 294 294 295 297 297 296 297 295 295 296 297 297 298 297 298 298 299 298 298 299 300 300 301 302 303 303 304 305 305 306 307 308 310 313 318 318 319 318 318 320 320 321 319 319 320 321 322 322 322 322 324 325 326 328 330 332 333
284 285 287 289 292 292 293 294 293 293 295 296 297 297 297 297 298 298 298 299 298 299 298 299 299 299 301 301 301 301 302 303 304 305 305 306 307 308 310 313 317 317 317 316 317 318 320 321 319 318 320 320 321 322 321 321 322 324 326 328 329 331 333
288 289 291 292 292 292 292 293 294 294 295 295 295 296 296 297 297 298 299 300 299 299 299 300 300 300 301 302 302 302 303 303 304 305 305 306 307 308 309 311 317 316 316 318 317 318 320 321 319 318 319 320 321 320 321 321 321 322 324 327 328 330 333
283 285 288 289 286 285 288 292 294 295 296 296 296 296 296 297 297 297 297 299 300 301 301 301 301 301 302 303 303 303 303 303 304 305 305 306 307 307 309 312 314 315 318 319 317 318 320 321 319 319 320 320 320 320 320 321 321 321 323 324 326 327 329
284 289 291 291 291 289 291 292 294 295 296 296 295 296 296 297 298 298 298 298 299 300 302 304 303 303 302 303 304 303 304 304 305 306 306 306 306 307 309 310 312 314 315 318 318 318 320 321 319 319 319 319 319 318 319 320 320 320 320 323 324 323 325
292 292 291 292 292 291 291 294 295 296 296 296 296 297 298 298 299 299 299 300 300 301 302 303 304 303 303 304 304 303 304 305 305 306 306 307 307 309 310 310 311 313 315 317 317 318 319 318 318 318 318 318 318 317 318 318 319 320 320 321 322 322 322
293 294 293 293 293 293 293 294 295 296 298 300 298 298 298 298 299 301 301 302 303 302 302 302 303 304 303 304 305 304 305 306 307 307 309 310 311 310 310 310 312 314 315 317 317 317 317 316 317 317 316 317 316 316 317 318 318 318 319 320 321 321 321

ECMWFFLT2_sfc_thetae_099.txt.gz
Theta_e
298 298 299 300 300 295 299 300 298 298 300 300 299 298 297 298 298 296 303 300 305 308 309 319 320 319 319 322 323 325 325 327 328 327 328 330 333 338 341 341 341 342 343 344 344 344 343 344 345 346 348 350 350 351 351 353 355 355 355 356 355 356 356
299 300 299 300 300 300 299 298 298 301 302 301 300 294 296 296 292 294 301 299 303 301 296 316 316 315 316 318 320 323 325 326 326 327 328 328 330 333 337 342 343 343 343 343 343 344 344 344 344 346 350 350 351 351 351 352 353 354 354 355 354 355 356
297 300 299 299 302 302 299 298 300 297 295 295 298 298 290 290 291 293 298 301 303 305 304 312 312 313 313 315 318 320 321 323 324 327 328 329 330 330 333 337 342 342 342 343 344 343 343 344 346 347 348 348 349 350 350 351 352 353 353 353 354 355 356
295 298 299 293 294 301 300 301 299 298 300 300 298 298 298 299 292 293 294 299 297 306 308 312 312 314 315 315 316 317 319 321 323 325 326 328 329 330 331 335 339 342 343 342 342 343 342 343 344 345 346 346 346 347 349 350 351 353 354 353 355 354 355
296 293 294 292 293 293 296 298 295 297 297 298 300 299 298 296 295 295 295 293 297 305 313 314 314 315 316 315 315 318 319 321 322 323 325 328 330 330 331 334 338 341 343 343 342 343 342 343 344 345 344 345 345 346 347 349 350 351 351 352 353 355 355
292 292 295 294 295 295 294 294 292 293 294 296 294 293 297 296 296 292 296 293 299 307 317 315 316 317 316 317 317 318 319 321 321 323 325 327 329 330 332 333 338 341 343 344 343 342 342 342 343 344 343 344 345 345 346 347 349 349 350 351 353 354 355
292 293 295 297 297 297 296 296 293 295 294 294 296 292 293 297 296 298 300 296 298 310 317 316 317 318 317 318 318 318 319 320 321 322 324 327 329 330 331 332 335 337 343 345 343 342 342 341 342 342 343 343 343 345 346 347 347 348 349 350 352 355 355
294 296 297 297 297 296 295 296 296 295 292 292 292 294 297 297 295 297 297 296 299 309 317 316 317 318 318 319 318 318 318 320 321 321 321 324 326 329 330 332 333 335 338 339 345 344 342 342 343 342 342 343 343 344 345 346 346 348 349 350 351 354 354
291 293 295 294 296 297 293 293 295 295 296 295 294 297 298 295 292 292 296 292 296 305 316 316 316 316 315 315 317 318 317 319 320 321 321 322 325 326 328 329 330 333 333 335 338 340 346 345 342 343 343 343 343 343 344 345 346 348 349 351 351 352 352
282 283 285 288 291 292 293 294 294 295 295 293 295 293 296 292 295 295 295 292 296 306 314 313 314 314 314 315 315 317 318 319 319 319 319 320 322 324 326 327 328 328 330 333 335 337 340 343 343 344 344 343 342 343 344 345 345 347 348 350 351 351 351
288 290 290 291 294 293 290 291 292 293 296 296 295 296 295 292 294 294 294 295 298 305 308 309 311 312 311 312 313 313 315 316 318 320 319 319 320 322 323 325 327 328 328 329 332 336 336 339 341 346 342 342 342 344 344 344 346 347 349 350 351 351 351
291 292 291 292 293 291 291 290 291 293 295 296 295 293 291 296 294 290 296 298 300 302 306 308 308 310 312 312 313 313 314 315 316 317 319 320 319 321 322 323 324 325 327 328 330 332 335 336 338 341 344 344 343 344 344 344 345 346 347 349 351 352 351
291 292 292 293 292 292 291 291 291 292 295 297 296 296 296 294 293 291 295 300 301 303 306 309 309 310 311 311 312 314 315 315 316 317 316 316 317 318 320 321 322 323 324 326 328 330 332 334 336 337 340 343 346 348 345 345 344 345 349 349 351 350 351
291 292 292 293 291 291 291 291 292 294 295 297 299 301 302 298 296 301 300 302 301 304 306 310 310 312 312 313 315 315 314 313 315 315 315 314 315 316 317 319 321 322 323 324 326 328 330 332 334 335 337 339 342 344 348 344 345 346 348 350 349 348 349
289 291 292 293 292 291 289 291 293 296 297 299 302 302 302 303 302 302 301 302 301 306 308 311 313 313 314 314 313 312 313 314 314 313 314 314 314 315 316 319 320 321 322 323 325 326 328 329 331 333 334 337 340 342 345 347 349 347 348 350 348 349 349
287 290 290 290 292 291 290 291 293 294 294 294 300 299 303 301 300 302 301 300 300 305 309 310 311 313 312 312 312 312 313 314 314 313 313 314 314 315 315 317 319 320 321 322 323 324 326 328 330 331 333 335 338 340 343 347 348 352 345 346 347 349 349
286 289 291 290 290 289 287 289 292 295 298 300 303 304 305 304 304 300 298 300 304 306 309 308 308 310 312 311 312 312 313 314 315 314 314 315 315 315 316 316 317 318 320 321 323 324 325 326 328 329 332 332 334 338 343 346 352 352 351 344 347 349 349
287 288 290 292 286 281 283 294 296 297 297 297 297 299 302 304 306 304 306 305 307 307 307 306 307 308 311 311 314 315 314 313 314 315 316 316 317 317 317 317 316 318 320 321 322 324 326 326 327 329 330 330 331 336 342 348 351 354 355 354 347 348 351
286 289 289 285 279 282 292 295 299 300 300 299 299 302 303 303 305 306 305 305 305 306 307 307 308 310 311 313 312 313 314 315 314 314 315 315 316 317 317 318 318 319 319 321 322 323 325 326 327 327 327 328 331 335 341 345 347 350 354 355 354 350 352
290 286 285 277 280 291 293 296 299 302 302 300 302 299 301 302 302 304 303 304 305 306 306 307 309 310 311 314 313 313 313 313 313 312 313 315 317 317 319 319 319 320 320 321 322 323 327 326 326 326 326 328 330 333 340 340 339 341 342 348 354 354 352
284 287 286 285 292 290 293 295 296 300 297 298 298 293 298 301 302 303 303 304 304 305 305 306 307 310 311 311 312 312 312 311 312 312 313 315 316 318 319 320 321 322 322 321 323 324 324 326 326 326 326 327 329 333 335 336 336 335 335 336 337 342 353
290 286 285 286 284 282 289 297 301 301 301 302 301 297 295 301 302 303 303 302 302 302 303 304 305 309 309 306 308 312 310 310 310 312 314 315 315 317 318 320 322 323 322 323 324 324 323 324 326 327 326 327 330 331 332 332 333 332 331 330 333 336 341
288 287 283 284 280 285 295 297 299 301 302 302 303 295 290 300 301 301 302 300 301 301 301 302 304 303 301 302 308 310 308 308 309 310 312 314 314 316 317 318 320 321 323 324 325 324 323 321 324 327 326 327 329 329 330 330 331 330 331 330 332 332 336
289 287 285 283 288 286 294 299 300 301 302 301 298 285 286 298 301 301 301 299 300 301 302 302 302 300 297 300 304 307 307 308 309 310 311 313 314 315 316 317 319 322 325 325 324 322 322 323 325 325 326 326 329 328 329 329 329 328 328 329 331 333 335
289 287 287 289 290 296 299 300 301 302 302 299 288 283 295 300 301 302 301 300 301 302 301 302 299 302 304 304 306 307 307 307 308 310 312 312 313 314 314 315 320 321 323 323 323 323 324 326 325 324 324 326 328 329 328 327 327 327 329 332 331 332 333
288 289 286 287 291 298 302 302 302 303 297 287 287 298 299 301 301 302 301 300 302 302 301 302 302 303 305 305 306 306 306 306 308 309 310 311 312 314 315 317 318 319 320 322 323 324 325 325 326 324 323 324 327 329 329 327 327 328 330 331 331 331 331
290 289 287 285 281 296 301 301 299 302 292 294 299 300 302 302 302 301 301 301 302 302 301 303 303 303 303 304 305 305 306 307 307 308 309 310 311 311 313 314 316 317 318 320 320 323 324 325 327 325 324 324 325 327 328 328 329 329 329 330 330 331 333
287 287 284 285 293 300 303 300 295 299 301 302 303 302 300 303 301 301 301 302 302 302 302 301 302 303 303 304 305 306 306 307 308 309 310 310 311 311 312 313 315 316 318 320 322 323 324 327 328 326 324 323 324 325 326 328 329 329 329 329 330 331 333
291 290 293 298 299 302 302 303 301 303 304 304 303 302 302 301 301 302 301 301 302 303 302 302 302 302 303 304 304 304 305 306 307 308 309 310 310 311 311 312 315 316 316 319 321 323 325 326 327 327 324 323 324 324 326 327 327 327 328 328 329 330 332
299 299 300 301 301 301 301 302 304 302 302 304 304 303 301 302 302 302 301 302 302 302 303 302 302 303 303 303 304 305 306 306 307 309 309 310 311 312 312 313 314 316 317 318 320 322 324 326 326 327 325 325 324 324 325 326 326 326 327 328 328 330 331
292 289 301 298 300 302 302 302 303 303 303 303 304 303 302 302 302 302 303 303 303 303 303 302 302 302 303 303 304 305 306 306 307 307 308 309 310 311 311 313 315 314 316 316 318 320 321 325 325 325 325 325 327 327 326 324 324 324 326 327 328 328 329
293 293 298 299 300 302 303 303 302 301 302 303 304 304 304 304 304 304 304 304 303 304 303 304 303 303 304 304 304 305 306 306 306 307 308 309 310 311 312 314 315 315 315 315 317 320 321 323 325 326 325 325 326 327 325 323 323 323 325 325 326 327 328
297 300 300 300 300 300 300 301 303 303 303 303 304 304 304 303 303 304 304 305 304 304 304 305 304 303 304 305 305 305 305 306 306 307 308 309 309 310 311 312 314 313 314 315 316 318 320 323 325 325 325 325 326 327 325 324 322 322 323 325 325 326 328
293 293 297 301 294 294 299 302 303 304 304 304 303 303 302 303 303 304 303 304 305 305 305 305 305 303 304 305 306 305 305 306 307 308 308 308 309 310 311 312 313 313 315 315 316 318 320 324 324 325 325 325 325 324 324 323 322 321 322 323 324 325 327
292 299 302 303 301 301 301 302 305 305 305 304 303 303 303 304 304 305 304 303 304 305 306 307 306 305 304 304 305 305 305 306 308 308 308 308 308 309 311 311 312 313 314 316 317 317 320 323 325 324 323 324 323 323 322 322 322 321 320 321 323 323 324
301 304 304 304 302 299 302 304 304 305 306 304 303 304 304 304 305 305 305 305 304 304 305 306 307 306 305 306 305 305 305 306 307 308 309 309 310 310 311 311 312 312 313 315 316 317 319 322 324 323 322 322 322 321 320 320 322 321 320 320 320 321 322
300 305 305 305 304 305 304 306 305 305 306 305 303 304 305 305 306 306 305 305 306 305 305 305 306 307 306 305 306 305 305 306 308 308 310 311 310 310 310 311 311 313 313 315 317 318 319 322 324 323 322 321 321 319 319 319 320 319 319 320 319 320 321

ECMWFFLT2_sfc_thetae_102.txt.gz
Theta_e
304 304 306 306 306 298 305 306 302 305 309 307 304 304 306 306 304 302 308 309 314 318 320 320 322 322 323 325 326 328 329 331 333 333 334 336 338 340 341 343 346 349 349 349 349 350 349 350 352 352 355 356 358 359 360 363 364 365 365 366 366 366 366
304 306 306 306 307 306 306 301 306 309 310 308 306 298 301 301 298 301 306 304 308 307 306 320 319 319 321 322 323 325 327 329 329 330 333 336 336 339 341 343 345 348 349 348 349 349 350 350 352 353 355 356 358 359 360 362 363 364 364 365 364 365 365
303 306 305 304 307 308 305 304 308 304 299 299 304 303 295 295 295 299 303 306 307 308 309 315 315 316 318 320 323 324 324 325 328 330 332 335 337 337 339 341 343 345 348 347 349 350 350 351 353 354 354 355 357 358 359 359 361 362 362 362 363 364 365
303 305 304 299 302 307 307 308 306 309 306 304 301 302 305 302 296 298 301 304 303 311 311 313 315 317 318 319 320 321 323 325 326 329 330 332 334 336 337 340 342 344 346 349 350 351 350 350 351 351 353 354 354 356 358 358 359 362 363 362 363 363 364
301 299 301 299 300 301 303 303 303 304 306 308 306 307 304 301 298 299 300 298 303 309 315 315 316 317 318 320 320 322 322 324 326 328 330 332 334 336 338 339 341 344 346 347 349 351 351 352 352 351 351 352 353 354 355 356 357 358 359 360 361 363 363
298 297 300 299 300 301 301 302 302 302 302 301 298 298 306 303 301 297 299 298 306 311 317 317 318 319 320 321 321 321 323 323 324 326 329 331 332 336 338 337 337 340 346 350 349 351 351 349 351 350 350 351 351 352 353 354 355 356 357 358 361 363 364
297 299 300 303 302 302 302 303 301 303 303 304 301 294 300 303 303 305 305 302 303 313 317 318 318 318 320 321 322 321 322 323 322 323 327 330 332 333 335 336 336 338 343 348 348 351 349 350 350 350 351 350 350 351 351 352 353 355 355 358 359 363 362
300 301 302 302 302 302 301 302 303 303 301 301 301 301 305 302 302 300 301 300 302 312 319 319 319 319 320 322 322 322 322 322 322 323 325 328 331 331 332 333 334 336 340 344 346 348 348 350 351 351 350 351 350 350 350 351 351 353 355 356 358 361 362
295 297 300 300 302 302 300 300 301 302 303 302 303 304 308 302 302 302 300 296 301 311 318 318 318 318 318 319 321 321 320 321 321 323 324 326 328 329 328 329 330 333 336 338 342 345 346 348 347 349 350 350 350 350 350 350 350 352 353 357 357 359 361
288 288 290 292 295 298 300 300 300 301 301 301 302 299 303 297 304 306 302 302 307 311 316 315 316 317 317 319 320 321 322 321 320 321 322 324 325 326 326 326 327 328 331 335 340 343 345 345 345 348 349 350 350 351 352 351 350 352 352 354 356 357 359
294 295 297 298 301 299 297 296 298 299 301 302 303 303 302 298 303 303 304 306 306 308 310 313 313 315 315 316 318 318 319 321 322 322 321 322 323 324 325 326 326 327 327 329 333 339 342 343 344 345 347 348 352 350 351 352 352 351 352 354 356 355 357
298 298 296 298 299 297 296 296 296 298 300 301 302 301 299 304 302 297 304 309 306 307 309 310 312 313 315 316 318 318 319 319 320 321 322 322 321 323 324 325 325 324 325 328 329 333 336 340 343 343 344 347 350 352 353 352 352 351 350 352 355 356 356
296 297 297 298 297 297 296 296 296 297 299 302 301 301 301 304 302 299 302 309 307 307 309 311 312 314 314 315 316 318 319 320 321 321 320 320 320 321 321 322 322 323 323 325 328 330 332 335 338 341 341 343 345 350 353 356 350 352 353 353 354 354 355
295 296 296 297 296 295 296 296 296 297 299 301 303 302 304 304 304 305 307 309 306 309 310 312 313 314 316 317 318 319 319 318 320 320 320 319 319 320 320 320 320 321 322 324 326 328 329 331 334 337 339 340 342 345 348 351 356 358 353 353 355 355 355
293 295 295 297 295 295 295 295 296 298 299 301 303 302 302 305 305 306 305 306 304 310 313 314 316 317 318 317 317 317 319 319 318 318 318 320 320 320 321 321 321 322 322 323 325 326 328 329 331 333 336 338 341 343 346 349 353 356 355 352 353 354 355
292 293 294 294 295 294 294 294 296 296 297 298 300 301 304 304 304 305 306 304 304 309 313 314 314 316 315 314 316 316 317 318 319 318 318 318 320 321 320 321 322 323 323 323 324 326 328 329 331 332 332 335 338 340 345 348 350 352 352 353 351 353 355
293 294 293 293 292 293 291 293 296 298 300 305 305 306 306 307 307 304 302 304 310 311 312 311 311 312 314 314 315 316 317 319 319 318 318 319 320 320 321 322 322 323 324 324 325 325 328 329 330 332 333 332 334 339 345 348 351 353 352 352 353 352 352
293 292 293 293 292 286 288 300 303 303 300 301 301 301 304 306 306 306 309 310 311 311 310 310 310 310 313 313 316 318 318 318 318 318 319 320 321 321 321 322 322 324 325 326 326 327 328 330 331 331 334 332 335 339 345 347 348 351 353 354 354 355 355
292 293 292 290 284 287 297 302 303 303 303 302 303 304 304 305 308 309 308 309 309 311 312 312 313 314 314 316 315 318 318 318 317 316 317 318 319 321 322 321 322 324 326 327 327 328 328 328 330 331 332 333 335 339 341 341 343 347 349 352 354 355 357
296 291 290 281 285 295 299 301 303 306 304 303 303 301 304 306 306 307 306 307 309 310 310 311 313 314 315 316 317 317 318 317 316 315 315 316 317 319 320 322 323 325 326 327 327 329 331 330 328 330 332 333 334 337 340 340 339 341 342 345 349 352 353
289 291 290 289 296 294 296 296 299 300 300 300 300 296 302 306 307 307 305 307 308 308 309 310 312 313 314 314 315 316 315 315 316 315 315 316 317 318 320 320 323 325 326 327 329 330 330 330 329 330 331 331 333 336 337 338 339 339 338 339 341 344 348
295 292 289 290 288 286 294 300 304 307 307 308 306 299 299 307 308 309 308 306 306 306 307 309 310 310 309 307 311 315 314 313 314 315 315 316 317 317 318 320 321 323 324 326 329 329 329 329 329 332 332 331 332 334 336 336 337 337 336 335 337 341 343
293 291 288 288 284 289 301 302 303 305 307 305 306 297 293 306 308 308 308 307 307 307 307 307 308 306 303 305 311 311 311 312 312 312 314 315 316 316 317 318 318 320 322 325 327 328 328 327 330 332 331 330 331 332 334 334 335 335 336 335 336 338 340
294 292 289 287 293 291 300 304 303 304 307 303 302 291 291 306 308 307 307 306 306 306 307 307 306 304 301 304 307 309 310 311 312 313 313 314 315 316 317 317 319 320 323 324 324 325 325 328 329 330 331 329 330 331 332 334 334 334 334 335 337 339 339
293 290 291 293 295 302 304 304 306 305 305 303 294 287 299 307 307 308 307 307 306 307 306 307 303 307 308 309 310 310 310 310 311 313 314 315 315 315 316 317 319 318 320 321 321 322 325 327 328 329 330 328 327 330 331 333 333 332 334 335 335 337 338
292 294 290 291 295 302 305 307 307 306 301 290 291 303 309 309 308 308 307 305 307 307 307 307 307 308 309 310 309 309 310 310 312 312 313 314 315 316 317 319 318 317 317 319 321 321 324 325 326 328 329 328 328 328 328 330 332 332 333 334 335 336 337
295 295 292 289 285 301 306 306 304 305 296 298 304 306 308 307 308 306 307 306 306 307 306 307 307 307 307 308 308 310 311 311 311 312 313 314 314 315 316 317 318 317 317 317 318 321 322 324 326 328 328 328 328 328 327 330 331 333 332 332 333 336 337
292 291 288 289 297 304 307 305 299 304 303 308 309 307 306 308 307 307 307 308 307 307 306 305 306 307 307 307 309 310 311 312 312 313 314 315 315 316 316 316 317 318 318 318 318 321 321 324 327 327 328 328 328 328 328 331 331 332 332 332 332 334 337
295 294 298 304 305 306 307 307 308 310 311 311 310 308 307 307 308 308 306 307 308 308 307 307 307 306 307 308 309 309 310 311 311 312 313 313 314 315 315 316 318 318 318 319 319 320 321 323 326 328 328 327 328 328 330 332 332 331 331 331 330 330 333
304 305 305 308 306 306 306 308 310 309 309 310 308 308 306 308 308 309 307 307 306 307 308 307 306 307 308 308 308 309 309 310 311 313 312 313 314 314 315 316 317 318 319 320 320 319 321 323 324 327 327 328 327 329 331 332 333 331 331 331 330 329 331
297 292 304 302 304 306 306 306 309 309 309 310 310 309 308 308 309 308 309 308 308 307 308 307 307 307 308 308 308 309 309 308 310 311 311 312 313 313 314 316 317 316 318 318 318 320 320 322 323 324 327 327 328 330 331 331 331 331 331 331 331 330 329
298 297 303 304 307 308 309 307 307 307 308 309 310 310 310 310 310 309 309 309 307 308 307 308 308 308 308 308 308 308 309 309 309 310 311 311 312 313 314 315 316 316 316 317 317 319 320 322 323 323 325 327 328 329 329 331 331 331 330 331 330 330 329
301 304 305 306 306 305 306 307 308 309 309 310 310 309 309 309 309 309 309 309 309 308 307 309 309 308 308 308 308 307 308 308 309 310 310 311 311 312 313 314 315 314 316 316 317 318 319 322 322 323 324 326 328 330 330 331 331 329 329 329 330 330 330
296 297 302 306 299 299 303 306 308 309 310 310 309 309 308 308 308 309 308 308 309 308 308 309 308 307 307 308 308 307 307 307 309 310 310 311 311 312 313 313 314 315 316 317 317 318 319 321 323 323 324 325 329 329 329 329 329 327 328 328 328 329 329
296 304 308 308 306 305 306 307 309 309 310 310 308 308 308 308 309 309 308 308 308 309 310 310 308 307 307 307 308 308 307 308 310 310 310 310 310 311 312 312 313 314 315 317 317 318 319 321 322 323 323 324 327 328 328 328 327 327 328 325 324 326 327
305 307 307 309 306 303 306 308 308 308 310 309 308 308 309 309 309 309 309 309 308 308 308 308 309 308 308 308 307 307 308 308 310 310 310 311 312 312 312 312 312 313 314 315 316 317 318 318 320 322 323 323 325 325 327 328 328 327 326 324 323 324 326
303 309 309 310 309 308 309 309 309 310 310 309 307 308 309 309 309 310 309 309 309 308 307 307 309 310 308 308 308 308 307 308 310 310 312 313 312 312 311 311 312 313 313 314 316 318 318 320 321 322 323 324 325 325 326 327 326 325 325 324 325 324 324

ECMWFFLT2_sfc_thetae_105.txt.gz
Theta_e
308 308 309 310 310 300 307 308 304 307 313 310 305 306 308 308 305 303 310 311 315 319 322 323 324 324 323 326 327 328 329 330 333 333 335 339 342 342 343 344 345 348 348 349 350 349 351 352 352 352 354 353 355 357 360 364 365 365 365 368 365 366 364
308 310 310 310 312 310 308 303 308 313 314 312 307 300 304 301 298 302 309 307 309 311 308 322 322 321 322 323 324 326 328 330 330 332 334 336 338 340 343 345 348 346 348 349 349 350 350 350 352 353 355 355 356 358 361 364 364 363 365 367 365 366 366
307 310 310 308 311 312 308 307 312 306 301 301 306 304 298 297 297 300 307 309 309 312 311 317 317 317 319 321 323 325 325 327 328 331 333 336 338 339 341 345 347 347 347 349 351 353 350 351 352 353 354 355 356 359 361 362 359 363 364 362 363 364 366
307 308 307 300 304 311 312 312 309 312 309 305 303 305 306 305 298 300 301 307 304 314 315 318 317 319 320 321 320 322 324 326 327 330 332 333 335 337 338 342 344 346 349 352 351 351 350 350 352 352 353 353 355 357 358 356 357 361 363 361 362 363 364
306 301 304 303 305 303 304 305 305 308 307 311 309 308 305 303 301 300 300 300 306 313 318 317 317 319 320 321 320 322 324 326 328 330 331 332 334 336 338 340 343 346 349 349 352 353 353 353 354 353 352 353 354 355 354 357 358 360 359 358 360 365 364
300 302 307 305 305 306 305 305 304 306 304 303 300 300 307 305 302 298 300 297 308 314 321 320 319 321 321 322 323 322 324 325 327 329 331 332 333 336 338 339 342 345 349 349 350 353 355 354 355 352 354 350 354 355 354 356 357 355 356 355 359 364 365
301 303 306 308 308 308 307 307 305 308 308 307 303 296 301 304 305 307 307 303 304 316 320 320 320 321 321 323 323 322 323 325 326 328 330 331 332 334 335 338 340 343 346 349 350 353 353 353 354 353 352 348 351 353 355 357 355 355 356 357 358 364 364
304 306 307 307 307 307 306 307 308 306 305 306 305 305 306 304 305 303 305 302 304 315 320 321 321 322 322 323 323 323 323 325 325 326 327 329 330 332 333 335 337 339 340 342 346 350 349 349 350 351 350 352 350 352 352 353 358 356 356 358 359 363 364
299 300 303 303 306 305 304 304 306 307 307 307 307 307 308 303 305 304 301 299 304 313 320 320 320 320 320 320 322 323 322 324 324 325 325 326 328 329 329 332 334 335 337 338 340 344 349 348 352 353 354 354 353 354 353 354 355 355 357 357 358 362 364
290 290 291 294 297 300 304 305 303 305 305 306 305 301 305 297 305 307 302 303 309 314 318 318 318 318 319 320 321 322 324 324 323 323 323 325 325 325 326 328 330 331 334 336 338 340 345 347 351 353 353 354 354 354 355 356 355 353 356 358 359 357 362
297 299 302 304 306 303 300 301 302 303 305 306 306 306 303 300 304 304 309 308 307 309 313 315 315 317 316 317 319 320 321 323 325 325 324 324 324 323 323 324 327 330 332 334 336 338 339 342 346 347 350 350 349 353 355 357 354 352 354 354 359 356 358
301 300 300 302 303 301 302 300 300 302 303 305 305 302 301 310 302 298 310 313 308 309 312 313 315 316 317 317 319 320 321 321 323 324 324 325 323 322 322 324 325 326 330 332 334 335 335 336 339 342 348 348 348 351 353 354 353 353 353 355 354 356 358
300 301 301 301 301 301 301 301 300 301 302 304 303 305 306 309 304 303 310 313 309 310 312 315 315 317 316 317 318 320 321 321 323 325 323 323 322 321 320 322 324 325 326 329 332 333 334 335 336 338 341 345 349 350 354 356 355 356 358 356 354 354 357
298 299 300 300 299 299 299 300 300 301 302 303 305 305 307 307 310 312 310 312 311 311 313 315 315 318 318 319 320 320 320 319 322 323 323 322 322 322 321 322 323 325 325 327 329 331 333 335 336 337 339 343 346 347 350 352 354 355 357 358 355 356 355
297 298 298 299 299 299 298 299 300 300 301 303 304 306 308 309 307 310 311 310 309 313 316 315 317 319 319 320 318 318 319 319 320 320 321 322 322 323 324 325 324 325 326 326 328 329 331 336 337 337 338 340 343 345 349 351 353 356 354 354 351 350 355
297 297 297 297 298 298 298 298 299 299 300 300 303 303 307 305 305 308 309 308 308 312 316 316 317 317 317 317 318 318 318 319 320 319 320 321 322 323 324 324 325 325 325 326 327 328 330 332 335 336 337 338 340 342 346 349 352 354 354 355 352 354 354
296 297 297 297 297 296 294 295 298 300 301 303 305 308 308 310 309 307 305 309 313 313 316 314 314 316 316 317 317 318 319 319 319 319 320 321 321 323 324 324 324 325 326 327 328 328 329 330 331 334 337 337 339 342 343 347 350 350 352 353 351 351 355
296 297 296 297 294 288 291 302 303 303 301 305 304 305 306 310 310 308 312 312 314 314 314 313 313 315 315 316 318 320 319 318 319 319 320 321 322 323 323 324 324 325 327 328 328 329 331 331 329 332 334 334 338 341 343 345 345 348 348 349 352 352 353
296 297 296 291 287 290 303 306 307 307 307 306 305 307 309 309 312 312 311 312 312 313 314 315 315 315 316 317 319 319 317 320 319 319 319 320 322 322 323 324 323 325 326 328 330 329 330 330 330 330 331 331 335 339 341 341 342 343 345 346 349 351 353
300 295 293 284 288 300 304 303 304 306 304 303 305 305 308 309 309 312 310 311 312 313 313 314 314 315 315 318 318 318 320 320 320 318 318 318 318 320 322 323 324 325 325 327 329 329 333 331 329 331 331 331 333 337 340 339 339 340 341 341 342 345 348
293 294 293 292 301 299 300 299 302 301 300 301 301 298 303 308 309 309 310 310 311 311 312 313 314 314 314 314 316 319 320 319 318 317 318 318 318 319 320 320 323 326 327 326 329 331 331 332 331 331 333 331 332 335 335 337 338 339 339 339 339 340 343
298 294 292 293 291 289 296 302 306 306 308 308 307 304 302 309 310 310 310 310 310 310 311 311 312 312 311 309 311 317 316 316 316 317 318 318 319 319 319 321 321 324 324 324 327 329 330 331 331 332 334 332 332 333 335 334 336 336 337 336 337 339 339
296 293 291 291 287 292 303 303 305 307 309 308 306 300 296 308 310 309 310 309 309 310 310 311 311 307 304 306 311 314 314 314 315 315 316 316 317 318 319 319 320 321 322 323 325 327 327 327 329 331 333 333 332 330 332 333 336 336 336 336 336 336 338
297 295 291 290 296 296 304 305 305 305 308 305 302 290 291 308 310 309 309 309 309 310 311 310 308 307 304 307 311 312 313 313 314 315 315 316 316 316 317 318 321 322 323 323 322 323 323 327 327 329 331 332 332 332 332 332 334 335 336 337 338 338 338
295 295 294 296 298 305 307 306 307 306 306 302 294 288 300 311 310 311 312 311 311 312 309 309 305 310 311 311 313 312 313 312 313 315 316 316 317 317 317 318 321 320 321 322 320 320 323 325 325 326 329 328 329 332 333 332 333 333 334 336 339 339 338
294 295 292 293 297 305 308 308 308 307 301 292 292 306 313 312 310 312 311 310 311 311 310 310 310 311 312 312 311 312 312 312 314 315 315 316 317 318 320 320 320 319 319 321 322 321 323 322 324 325 327 327 329 330 331 331 334 335 335 336 337 338 338
297 297 295 292 287 303 310 308 306 306 297 301 310 311 312 313 311 311 309 310 310 310 309 310 310 309 309 310 310 311 313 312 313 314 315 316 316 317 318 318 319 319 319 319 320 323 323 323 324 324 325 326 328 330 329 331 333 335 336 336 336 336 337
294 294 291 291 300 307 310 308 302 305 305 312 313 311 309 311 311 310 310 310 310 310 309 308 308 309 309 309 311 312 312 312 314 314 316 317 317 317 317 317 319 319 319 320 321 322 322 325 325 325 324 325 327 328 329 333 333 334 335 335 335 335 336
299 296 300 305 308 310 311 310 310 312 313 314 314 312 311 310 310 312 310 311 312 311 310 309 309 308 309 309 310 309 310 312 313 313 314 315 315 316 316 316 319 319 319 319 319 321 322 325 326 326 326 324 326 327 330 332 333 332 333 334 334 333 334
307 308 308 312 310 309 309 309 312 312 313 315 312 310 308 310 311 312 310 311 311 311 311 309 309 309 309 310 309 310 311 311 312 314 314 315 316 316 316 317 318 318 318 319 319 320 322 324 325 326 327 326 324 326 330 332 333 332 332 333 333 333 333
299 294 307 306 308 309 309 309 311 311 312 314 312 310 310 312 313 312 312 311 311 310 311 310 310 309 309 309 310 312 312 312 313 313 313 314 314 314 315 316 317 317 318 316 317 318 319 322 323 324 325 326 327 327 328 330 331 332 332 332 331 332 332
299 300 305 307 309 310 311 309 309 309 310 312 312 312 313 313 314 313 313 312 310 310 309 310 310 310 311 310 311 311 311 312 312 312 312 313 313 314 315 316 317 317 316 316 316 317 317 319 321 323 323 325 326 327 326 326 328 331 330 330 330 330 331
303 305 307 308 309 309 310 310 311 311 312 312 313 312 312 311 312 312 312 312 311 310 309 309 310 310 311 311 311 310 310 311 311 311 312 313 313 314 314 315 316 315 316 315 316 317 317 319 321 322 323 324 326 327 327 328 329 330 329 329 330 330 330
299 300 304 308 301 302 307 309 310 311 312 312 311 312 311 311 311 312 311 311 312 310 310 311 310 309 310 311 311 309 309 310 311 311 312 312 312 313 314 314 315 315 316 316 316 316 317 319 321 322 323 323 325 325 327 327 328 329 328 327 328 328 329
300 306 308 310 309 308 309 311 312 313 312 311 310 311 311 311 312 313 312 311 311 311 311 312 311 310 310 310 310 309 309 310 311 311 312 311 312 312 313 313 314 314 315 316 315 316 317 319 319 320 321 323 324 325 326 327 327 328 328 326 325 325 327
307 309 309 310 309 308 311 313 312 312 313 311 311 311 312 312 312 313 312 312 311 311 312 311 311 310 309 310 309 309 310 310 312 311 312 312 313 313 314 313 314 314 314 315 315 316 317 318 318 319 320 321 322 324 326 327 327 328 328 326 324 324 326
307 312 311 311 310 312 314 314 314 313 313 313 310 310 311 312 312 312 312 312 313 311 309 309 310 311 310 310 310 309 309 309 310 311 311 311 311 311 312 313 313 313 314 314 315 316 317 318 319 319 320 320 321 323 326 326 327 326 327 325 325 325 326

ECMWFFLT2_sfc_thetae_108.txt.gz
Theta_e
309 311 314 313 311 299 307 308 304 306 313 309 305 305 306 307 304 302 311 310 314 320 321 323 325 325 325 327 328 329 331 333 338 338 341 342 344 344 343 348 345 345 348 352 348 350 345 345 344 344 350 351 353 358 358 362 363 361 362 365 365 363 365
309 313 314 312 311 311 307 302 305 311 313 311 306 298 303 300 297 303 310 306 308 310 306 322 321 321 321 323 324 328 329 330 331 332 336 340 341 343 346 346 346 348 351 350 349 349 350 351 351 347 354 350 356 358 359 360 362 362 361 362 362 362 363
308 311 309 307 311 313 308 306 311 304 300 299 305 303 295 296 296 301 308 309 308 311 309 317 316 318 318 321 324 325 326 328 329 331 333 336 339 342 342 346 347 349 350 351 355 352 351 352 358 352 355 349 350 353 358 360 361 361 362 361 362 363 362
307 308 306 299 303 309 311 312 308 311 307 304 302 303 304 303 297 299 303 307 304 314 316 316 318 321 319 320 321 323 326 327 328 329 331 333 336 339 341 344 345 346 348 349 349 352 352 352 353 354 355 352 349 351 356 359 361 364 364 362 363 362 360
306 299 303 301 303 302 304 305 304 307 307 310 308 307 304 302 300 300 299 299 305 313 322 319 318 320 321 320 320 321 324 327 328 329 330 332 334 337 339 341 343 346 348 347 352 354 355 352 352 352 354 354 353 353 356 359 360 359 359 361 360 362 362
300 301 306 306 307 307 305 305 304 306 304 302 299 299 307 305 303 299 301 299 307 316 324 320 319 321 321 321 321 322 324 326 327 328 330 330 332 335 338 340 341 344 347 349 351 353 354 355 353 351 355 352 351 355 356 358 358 357 360 358 356 360 362
300 305 307 310 310 309 308 307 306 308 307 306 302 295 301 305 307 310 308 303 304 319 323 321 321 321 321 322 322 321 324 325 326 327 328 329 331 333 335 337 339 340 343 347 350 352 352 356 352 354 355 351 354 355 355 355 358 354 357 357 355 360 361
305 307 308 309 309 308 306 307 308 306 304 305 304 303 303 302 307 305 305 302 305 317 322 322 322 322 322 323 322 322 323 323 325 326 325 326 328 331 334 337 338 339 341 343 346 349 350 352 355 357 355 354 354 354 354 354 355 354 358 363 358 355 354
298 301 303 304 307 307 304 304 307 308 308 307 306 305 308 302 303 306 304 297 304 316 322 321 320 320 320 320 321 322 321 322 324 324 324 324 327 329 331 334 336 337 337 338 339 341 344 347 348 349 349 352 354 356 356 354 358 359 359 359 359 358 358
290 290 291 294 297 301 304 306 306 306 305 304 304 301 305 297 305 308 304 303 310 316 319 318 319 319 319 320 321 322 322 323 322 324 324 323 324 326 328 330 332 333 334 336 337 340 341 343 347 349 351 352 354 356 356 357 354 354 360 360 360 358 357
297 298 301 303 305 303 300 302 304 304 306 306 306 304 302 300 304 305 309 308 308 311 314 314 315 317 316 317 319 319 321 321 322 324 323 323 324 324 324 326 328 332 334 335 336 337 339 340 342 344 347 349 350 352 354 357 358 354 355 358 358 359 357
301 302 302 304 304 302 302 302 302 304 304 305 304 301 301 308 303 302 311 312 308 310 313 314 315 316 317 317 318 319 320 321 322 322 323 326 324 325 325 325 325 327 329 333 336 338 340 343 344 343 345 346 348 350 351 354 355 354 357 357 357 357 358
302 302 302 303 303 302 303 303 302 302 303 303 302 303 304 306 303 302 310 312 309 311 314 315 316 317 317 317 318 319 321 322 323 323 323 323 323 323 323 324 326 326 327 330 331 333 334 337 339 342 342 343 346 348 351 353 353 353 356 356 354 353 357
300 302 302 303 302 302 302 301 301 302 302 302 303 304 306 307 310 312 311 312 310 313 314 315 316 318 318 319 320 320 320 320 322 322 322 322 323 322 322 324 325 326 327 329 330 331 333 334 335 337 341 342 342 344 346 349 352 353 354 355 354 351 350
298 300 301 301 301 300 299 301 301 301 302 303 304 305 307 309 310 312 312 310 310 315 317 317 319 320 320 319 318 318 320 320 320 321 321 322 322 323 324 325 325 326 327 328 330 330 331 332 332 332 337 343 343 344 345 345 348 352 352 355 355 353 352
296 299 299 300 300 299 299 299 300 300 299 299 302 302 307 306 307 309 309 307 307 313 316 317 318 318 318 317 318 318 319 319 320 319 319 321 322 322 323 324 325 326 325 327 328 329 329 331 333 333 336 338 340 342 345 344 350 354 354 352 351 354 353
294 299 300 298 298 297 294 295 298 300 301 302 303 305 309 309 309 308 304 307 312 314 316 315 315 316 317 317 317 317 318 319 319 319 319 320 321 321 322 323 324 324 325 326 328 329 329 328 331 333 334 337 339 340 344 349 349 347 347 348 347 349 352
294 298 298 298 294 288 290 301 303 303 300 301 300 303 307 310 311 309 310 312 315 315 314 313 314 314 315 317 320 321 319 318 319 319 320 320 321 322 322 322 323 324 325 327 327 329 330 331 329 332 332 332 336 338 341 342 344 344 343 343 345 345 347
294 297 297 292 287 289 302 306 307 306 306 304 303 306 309 311 313 313 312 313 314 315 316 316 317 317 318 318 319 320 319 320 318 318 318 318 320 320 321 321 323 324 324 325 327 328 328 330 330 332 332 331 334 336 337 338 339 340 340 340 341 342 344
298 296 294 285 288 301 304 305 305 307 307 307 308 307 309 310 312 313 312 313 314 315 316 317 318 317 317 317 319 319 319 319 319 317 317 317 318 319 320 321 323 323 322 323 325 329 332 329 327 330 332 333 332 333 335 335 337 337 338 338 337 340 340
292 296 294 292 302 300 301 301 302 303 301 301 301 298 305 310 312 312 312 313 313 314 315 316 317 316 316 314 316 319 319 318 319 317 317 317 317 318 319 319 322 323 323 323 327 329 329 330 328 327 331 334 334 333 331 332 336 336 336 336 337 337 337
297 293 293 294 291 289 297 304 306 306 306 307 306 302 301 310 310 312 312 312 312 312 311 313 314 314 311 310 312 316 316 317 318 317 318 317 317 317 317 319 321 322 322 322 325 325 327 328 329 329 332 331 333 334 333 332 334 334 333 333 336 337 337
297 294 291 291 288 293 302 303 305 307 308 308 306 300 296 307 310 310 312 311 311 311 310 311 312 309 304 307 311 316 316 315 315 316 316 316 315 316 316 317 318 317 320 322 323 323 323 322 326 330 332 331 331 330 331 331 334 334 334 334 334 335 337
297 296 292 289 297 296 302 305 306 306 308 305 301 289 291 308 310 310 311 310 310 311 313 312 310 306 303 307 310 314 314 314 315 315 315 316 315 316 316 318 318 319 323 322 321 320 321 323 323 326 330 330 329 329 330 330 332 333 334 335 337 337 338
294 296 294 295 299 305 306 306 306 306 304 301 293 288 300 310 310 310 311 311 311 312 311 309 306 310 313 311 312 314 313 313 314 315 316 317 317 316 317 317 322 319 320 321 319 319 323 325 323 324 324 324 325 328 330 330 331 332 335 337 338 338 338
293 295 292 293 298 306 308 307 307 306 301 291 290 306 314 312 311 312 312 311 312 312 311 307 310 311 312 312 312 312 312 312 314 314 315 316 317 318 318 320 320 319 318 319 320 320 322 322 323 324 324 325 325 326 326 327 330 333 336 336 338 337 336
297 297 293 291 288 303 309 308 305 305 297 304 311 312 312 313 312 312 312 312 311 311 310 311 311 311 310 310 310 311 312 311 312 314 315 316 315 315 316 317 318 318 318 318 319 320 320 321 323 324 324 325 325 325 324 327 330 332 334 335 337 337 337
294 293 291 290 301 307 309 307 301 305 311 313 314 312 309 311 312 311 311 311 311 310 311 309 309 309 309 309 311 311 312 312 313 314 315 315 316 315 316 316 317 318 318 318 318 319 320 322 323 324 324 324 325 325 325 329 329 333 334 333 335 335 335
300 297 300 304 309 310 310 311 310 312 314 316 314 314 312 311 310 313 310 310 311 311 310 310 309 308 309 309 310 309 310 312 312 312 313 314 314 315 314 315 317 317 315 316 317 318 319 321 322 324 323 323 323 324 327 330 330 329 331 332 333 333 332
307 308 309 311 310 311 310 311 314 312 313 315 314 312 312 312 313 312 311 311 311 311 312 309 309 308 309 310 309 310 311 312 312 314 314 314 315 314 315 315 316 315 316 317 317 317 319 320 321 323 323 322 322 323 326 328 328 327 327 329 331 332 330
299 294 308 307 309 310 310 309 312 313 314 314 311 311 310 312 312 313 314 313 313 312 312 310 309 309 310 309 310 312 312 311 312 312 312 313 313 313 314 315 316 316 316 315 315 316 316 318 319 319 321 321 323 325 326 326 327 329 329 329 330 331 331
299 299 305 307 310 311 312 310 310 310 312 313 312 312 311 313 314 314 314 314 312 312 310 310 309 309 309 309 310 310 311 312 312 312 312 312 313 314 315 315 316 315 315 314 315 316 316 317 318 319 319 320 322 323 323 323 325 327 327 327 325 327 327
303 306 306 308 309 309 310 311 312 312 311 312 312 311 312 312 313 313 314 313 311 310 309 311 311 310 310 310 311 310 311 311 312 312 312 313 313 314 314 314 315 314 314 314 315 315 315 317 318 319 319 320 320 322 323 325 327 326 326 327 328 328 328
299 300 305 309 301 300 306 309 311 312 313 312 312 312 311 311 311 313 312 312 311 310 310 311 310 309 310 311 311 309 310 310 311 311 312 312 312 312 313 314 314 314 315 315 315 315 315 317 317 317 318 319 321 320 322 324 325 325 326 326 325 326 327
299 309 308 310 310 308 308 310 312 313 314 312 311 311 311 311 312 313 312 310 311 310 310 312 311 311 311 311 311 311 310 311 312 312 311 311 311 312 312 312 313 313 314 314 314 314 315 316 316 317 317 317 319 320 322 323 324 324 325 325 324 324 325
310 311 311 312 310 308 310 313 313 313 314 313 312 312 313 312 312 312 312 311 311 310 311 311 312 311 311 311 310 310 310 310 311 311 311 311 312 312 312 311 312 312 312 313 312 313 314 315 315 316 315 317 318 318 320 322 324 324 324 324 324 324 324
308 313 313 314 313 313 313 314 314 315 315 314 312 312 313 313 313 313 312 312 312 311 310 310 311 311 310 310 310 310 309 310 310 310 311 312 310 310 311 311 311 312 312 312 313 313 313 314 314 315 315 317 319 319 320 320 322 322 323 324 323 323 324

ECMWFFLT2_sfc_thetae_111.txt.gz
Theta_e
309 308 311 311 310 295 303 305 298 301 308 306 302 306 305 305 305 301 310 307 312 318 317 322 326 327 327 329 330 332 334 337 338 338 338 336 341 341 344 346 344 346 345 346 348 348 343 341 340 339 344 348 351 354 352 354 354 355 357 358 357 357 355
307 310 310 310 311 308 302 299 301 305 308 308 306 297 297 298 297 300 308 304 306 307 302 320 320 321 324 326 327 328 331 333 332 334 338 340 341 342 347 346 349 351 353 349 348 348 348 351 342 340 345 348 352 356 353 354 356 354 357 359 358 358 355
306 310 309 306 310 312 303 301 307 299 295 293 301 300 290 293 296 299 304 307 306 309 306 314 317 319 320 323 325 325 326 329 330 332 338 339 340 340 342 345 347 350 350 346 343 348 352 355 348 348 348 351 352 356 356 356 356 356 357 359 360 359 358
304 306 300 293 298 306 308 307 303 306 301 298 298 297 300 300 297 298 297 303 301 309 313 318 318 320 320 321 322 323 324 326 328 329 332 335 336 339 341 344 345 346 349 349 349 346 350 350 349 352 354 348 348 348 353 357 358 358 357 358 359 358 358
303 295 299 296 299 298 299 299 298 301 302 305 300 301 297 298 298 298 297 295 303 310 318 318 320 320 320 321 321 322 323 324 326 328 330 334 338 340 341 341 344 344 348 351 351 350 348 349 350 351 353 351 349 351 355 359 358 358 359 357 358 359 358
294 297 302 303 303 302 299 298 297 298 297 295 292 292 302 300 302 295 298 296 305 315 324 320 320 319 321 322 322 322 322 323 323 326 329 332 334 339 338 341 343 345 344 348 353 352 351 350 352 352 351 348 350 352 354 354 351 349 351 350 348 351 355
296 301 304 307 308 306 305 306 299 302 300 301 297 287 297 306 308 309 305 300 303 318 321 322 322 320 322 322 322 321 321 321 323 326 328 330 333 335 336 337 340 342 342 346 349 351 350 352 353 352 350 352 352 353 352 354 352 351 352 353 354 352 347
301 304 306 306 307 306 302 303 304 303 299 301 297 297 302 303 306 302 300 298 304 315 323 323 321 320 322 322 322 321 321 321 322 323 325 327 328 331 332 334 336 338 340 342 343 346 344 346 347 349 351 352 352 351 352 352 352 354 357 355 356 353 354
293 295 297 298 303 303 299 298 302 304 303 304 303 304 307 302 306 305 299 294 302 314 322 326 323 321 320 320 321 322 319 320 322 323 323 323 325 327 329 330 333 334 335 337 338 341 344 345 347 348 350 349 348 350 353 351 353 355 354 353 354 353 351
285 285 287 289 292 295 298 302 302 303 303 302 299 295 300 292 302 306 300 300 308 316 322 319 319 320 317 318 319 321 321 320 321 322 322 323 324 324 326 329 330 333 335 336 338 338 339 341 342 344 347 349 350 351 353 355 351 352 355 358 357 353 351
291 294 297 302 305 302 295 299 301 302 303 303 302 301 299 294 301 303 304 306 307 310 313 316 319 316 315 315 317 317 318 320 321 322 322 323 323 324 325 327 328 328 329 333 337 339 339 341 341 342 344 346 349 351 352 353 355 354 356 355 354 355 354
299 299 298 300 302 298 299 299 300 301 301 301 300 297 300 308 303 294 306 309 307 307 311 314 313 314 315 316 316 317 317 319 320 321 322 324 323 324 325 325 326 326 327 328 330 332 335 339 342 342 343 344 345 348 349 352 353 353 352 351 352 354 352
301 300 300 301 300 299 299 300 299 299 300 301 298 300 308 308 301 299 307 309 307 308 311 312 313 314 314 315 317 318 319 320 320 319 319 319 322 323 323 324 325 325 325 326 328 329 330 333 337 340 341 342 344 345 347 349 351 353 356 352 351 351 350
300 300 300 300 299 299 299 299 299 299 299 299 302 305 310 311 307 309 310 309 308 311 311 313 314 315 315 315 317 319 319 319 319 319 318 319 320 321 321 322 323 325 326 326 326 328 328 328 331 336 339 339 341 343 344 347 349 351 353 352 351 350 352
296 298 300 300 299 298 296 298 299 299 298 298 302 310 312 313 310 311 310 308 306 312 314 314 316 316 317 316 315 314 316 318 319 318 318 318 319 320 321 321 322 324 325 326 326 326 328 328 329 333 337 339 341 343 344 345 349 351 350 348 349 352 352
293 297 298 299 299 298 297 295 297 298 297 296 299 300 312 310 307 309 308 304 305 311 315 315 315 315 315 314 314 314 315 316 317 316 317 317 318 319 320 321 321 322 323 324 325 325 326 328 327 328 332 334 338 342 342 343 345 347 346 345 344 345 347
291 296 297 296 297 294 291 294 295 300 299 300 299 310 313 313 312 307 303 303 310 313 315 313 313 314 313 313 313 312 313 315 316 316 316 316 317 318 319 320 321 321 322 323 324 326 326 326 327 327 329 331 331 336 342 341 342 341 341 342 342 343 344
291 295 296 298 290 283 287 299 303 301 298 299 298 304 308 313 313 309 311 311 313 314 313 312 312 313 313 314 316 318 316 315 315 316 317 317 317 318 319 319 319 319 321 323 325 325 324 325 329 330 331 330 331 333 336 340 338 338 338 338 340 340 341
291 294 296 288 282 288 301 302 303 306 303 300 305 308 309 311 313 313 311 312 312 313 314 314 315 315 316 317 316 316 318 318 315 315 316 316 317 318 317 317 318 318 319 321 323 325 324 325 325 329 330 331 331 330 331 333 335 335 336 336 336 337 337
296 292 289 279 284 298 302 301 303 307 308 308 307 306 310 312 312 312 310 311 313 314 314 315 316 316 316 316 317 317 317 315 316 314 314 315 317 317 318 318 318 317 318 321 321 324 328 323 323 326 330 332 331 330 330 332 333 332 333 334 335 335 335
290 293 289 289 299 298 299 300 302 301 298 300 300 297 303 312 313 313 311 311 313 313 315 316 316 317 316 312 313 317 317 317 316 314 313 313 314 317 319 319 318 320 319 320 323 327 323 321 321 323 329 329 329 330 329 330 332 331 331 330 331 334 335
295 291 289 290 287 287 293 304 305 305 305 304 303 302 301 311 312 314 312 310 312 313 315 315 315 315 310 307 308 313 314 314 315 314 314 313 313 314 315 315 316 318 320 320 322 322 319 320 320 326 328 328 327 327 328 328 331 331 331 330 331 332 333
294 291 287 288 284 291 299 301 304 305 305 303 304 296 294 304 310 312 312 310 311 312 313 312 313 310 305 305 308 312 314 313 313 312 312 313 313 314 314 314 314 318 321 322 321 322 320 319 321 323 323 324 324 324 327 326 330 329 330 331 331 331 332
294 293 288 287 296 293 302 303 303 302 303 304 297 285 287 303 308 312 312 310 310 309 311 310 310 307 304 305 309 313 312 312 313 313 312 312 313 313 314 315 317 320 321 318 317 318 318 319 321 322 323 323 326 325 324 326 328 327 329 331 331 332 332
291 295 291 294 295 303 307 304 304 301 304 300 287 282 294 308 306 309 309 309 308 308 308 308 303 305 307 307 309 312 312 311 311 313 314 314 314 313 314 319 323 316 316 318 316 316 317 319 320 322 323 324 323 324 324 322 325 324 329 332 332 333 332
289 290 287 290 296 304 305 304 305 305 302 288 287 300 312 308 307 309 309 308 307 308 308 307 306 307 310 312 310 310 310 310 311 312 313 313 314 314 322 324 320 316 316 316 315 316 316 318 321 321 321 323 323 324 322 322 323 325 329 331 332 331 332
293 293 290 288 283 300 310 305 304 308 297 299 307 309 309 311 309 308 308 308 307 308 306 308 307 307 307 308 308 308 309 311 311 312 312 311 312 313 313 313 317 317 314 314 314 315 317 319 320 320 320 321 322 323 321 323 324 326 326 328 329 329 331
291 290 288 288 297 301 309 307 298 306 307 310 311 307 305 309 309 308 307 307 308 308 307 306 305 305 306 308 308 309 309 311 311 312 312 313 313 312 313 314 314 317 313 315 314 315 317 318 319 320 319 319 320 321 320 322 324 326 325 323 324 325 330
296 294 296 300 306 307 310 310 309 311 313 314 313 310 308 306 306 310 307 306 307 308 308 307 306 304 306 307 308 308 308 309 309 310 311 311 311 312 312 312 316 315 313 313 315 316 316 317 317 318 318 318 319 319 319 322 324 324 324 325 325 325 325
307 307 306 308 307 307 309 311 311 310 310 312 312 310 307 309 308 308 307 307 307 308 308 305 305 305 306 306 306 308 309 309 311 313 311 311 311 311 312 312 314 315 314 315 314 314 315 316 315 318 317 317 316 317 320 322 321 321 324 324 324 324 324
293 291 305 305 307 308 308 309 311 311 312 310 310 310 311 312 310 311 312 309 308 308 308 308 305 306 307 306 308 309 308 309 309 309 310 310 311 311 311 313 315 313 314 312 313 314 314 315 315 316 315 317 317 318 319 319 319 320 321 323 325 324 322
296 298 306 307 310 311 310 308 308 308 308 308 310 311 311 313 312 311 310 311 309 309 308 308 307 307 307 308 307 308 310 309 309 308 309 309 311 312 313 314 314 312 312 311 312 313 314 314 315 316 316 316 317 317 318 319 319 320 322 323 322 321 322
302 305 306 309 307 306 309 310 312 310 309 308 307 308 309 311 311 310 311 312 309 309 308 308 307 307 307 309 308 308 309 309 309 309 309 310 311 311 311 312 314 310 311 312 312 313 313 313 313 314 314 315 316 315 316 317 317 317 319 322 322 320 321
296 298 302 306 299 299 304 309 311 312 312 310 308 308 308 310 310 310 309 309 310 308 309 308 307 307 308 309 308 307 309 309 307 308 309 309 310 310 310 311 311 311 314 312 312 312 311 312 313 313 313 314 315 316 316 316 317 316 318 318 318 319 320
297 304 308 308 308 307 306 309 312 312 313 311 307 307 307 309 311 310 309 307 307 308 310 309 308 308 308 308 308 308 308 309 310 308 307 308 309 308 310 309 310 311 311 313 312 312 311 312 312 312 312 313 314 315 316 317 318 317 316 317 318 318 320
308 310 309 311 308 307 309 311 311 312 313 312 311 313 311 309 310 311 310 308 307 306 308 309 309 309 308 309 309 307 308 309 308 309 309 309 308 310 310 309 310 310 310 310 310 310 310 311 310 311 312 312 312 313 315 317 318 318 318 317 316 317 318
306 312 312 312 312 312 313 311 312 314 315 313 311 312 312 313 311 312 310 309 311 309 307 307 309 309 308 308 308 308 307 309 310 311 313 313 309 309 310 309 309 309 309 309 309 309 309 310 310 312 311 310 311 313 316 316 316 316 317 318 317 317 317

ECMWFFLT2_sfc_thetae_114.txt.gz
Theta_e
306 306 309 309 304 295 297 303 297 298 303 302 300 305 310 309 304 301 310 309 312 318 320 322 325 326 326 329 330 330 332 335 336 335 336 337 338 339 340 341 340 342 348 344 345 339 337 338 339 344 346 347 346 348 349 347 347 352 350 351 353 353 353
305 307 307 307 306 302 297 294 297 302 305 304 298 293 298 298 297 300 308 305 306 308 303 319 321 322 325 325 326 328 330 333 333 334 335 336 337 341 342 342 344 346 348 345 346 346 344 343 338 344 346 348 348 349 350 349 348 351 352 350 353 353 353
304 304 306 305 303 305 299 296 303 298 291 295 295 294 292 295 296 297 303 306 307 309 307 315 315 319 320 321 323 324 327 330 332 333 334 337 339 339 341 343 344 348 347 345 345 346 347 348 349 348 347 349 349 349 351 351 349 352 354 353 353 354 354
301 300 299 295 296 301 305 304 303 302 298 295 293 293 294 302 297 298 298 302 300 311 311 316 316 321 322 322 322 322 324 327 331 333 334 334 335 337 340 343 344 344 347 348 345 343 344 348 349 349 350 349 350 349 351 351 351 352 355 354 354 354 354
300 294 295 293 294 294 295 297 297 298 299 299 297 297 299 299 297 298 296 294 301 309 317 319 319 323 323 324 322 322 325 327 330 333 335 335 336 337 338 340 341 343 346 347 346 348 348 350 352 349 348 348 351 352 352 354 351 350 351 352 355 355 355
291 293 297 298 299 296 294 294 294 296 295 293 291 288 305 305 300 294 296 295 304 314 321 319 319 323 321 322 323 323 325 327 328 330 333 334 334 336 337 339 340 342 346 348 348 349 349 348 347 346 347 350 352 351 350 351 351 351 350 349 351 354 355
292 297 300 303 303 302 300 297 298 298 295 295 291 289 297 305 304 307 303 299 303 318 321 323 323 322 320 321 322 322 325 326 325 327 329 332 334 334 334 336 338 340 343 345 346 347 347 347 347 350 351 349 349 350 351 350 349 348 349 350 353 351 350
297 300 301 302 302 302 299 298 300 298 297 297 296 297 302 301 303 301 299 298 304 317 323 323 323 321 320 320 320 319 320 321 323 326 325 327 329 332 335 335 338 339 341 344 344 345 346 346 347 349 349 350 350 349 349 350 347 347 350 351 354 353 352
288 293 297 295 298 298 295 296 296 300 301 304 304 305 303 299 301 303 298 295 302 313 321 321 323 322 318 318 319 320 318 320 322 324 326 326 327 329 333 335 336 336 337 337 338 341 343 345 347 347 346 346 346 346 348 348 349 351 354 353 351 351 351
281 282 283 286 288 292 295 299 301 300 300 305 304 300 297 291 301 303 301 300 308 315 319 319 321 321 317 318 319 320 320 319 320 322 324 326 325 326 327 329 333 334 335 337 337 338 339 341 343 346 347 348 349 350 351 351 348 350 351 352 351 350 350
287 290 290 295 302 295 292 296 300 299 302 304 303 300 296 294 300 301 303 306 307 310 313 314 317 316 315 315 317 317 318 319 321 322 323 324 324 325 326 327 329 329 331 333 337 339 340 340 341 342 344 348 348 348 349 350 352 351 351 352 351 349 352
293 297 296 298 299 294 295 296 295 297 299 304 303 301 299 304 303 295 304 309 307 308 311 313 314 315 316 315 316 317 318 318 320 321 323 325 323 324 324 325 325 325 327 327 330 334 338 339 341 342 343 345 346 348 348 350 350 350 351 350 350 350 349
298 296 296 297 297 296 295 296 297 299 300 304 303 304 307 305 301 299 305 307 306 309 311 314 314 315 316 318 317 318 318 319 320 320 320 321 321 322 323 323 325 324 325 326 328 330 335 339 340 341 342 343 344 345 346 347 350 350 352 350 350 349 348
295 295 296 297 295 295 295 295 296 301 306 306 308 308 308 306 304 308 308 306 307 310 312 315 315 317 317 317 318 318 316 317 318 318 319 319 320 321 321 322 323 324 324 325 326 326 327 331 336 340 342 342 343 343 345 347 346 348 351 349 348 348 349
294 296 297 296 295 295 294 296 296 299 306 309 310 310 310 310 308 309 308 306 305 310 312 312 313 313 315 316 316 316 316 317 318 317 317 318 319 320 321 322 322 322 323 324 325 325 326 328 329 332 338 342 343 343 344 344 343 345 346 344 344 343 344
290 293 294 294 295 296 295 294 296 295 306 306 308 307 310 308 305 306 305 303 302 308 313 313 313 313 313 312 313 314 315 316 316 316 316 316 317 318 319 319 320 321 322 322 323 325 327 328 328 329 332 337 340 339 340 340 343 344 344 343 342 342 343
288 292 294 294 293 291 289 291 295 296 297 305 310 311 313 311 309 305 302 302 308 310 313 310 310 311 311 311 312 312 313 314 315 315 315 315 315 316 317 318 319 319 320 321 320 322 326 328 329 330 330 330 335 337 337 338 339 339 340 341 340 340 342
288 292 294 295 285 282 285 294 299 300 303 309 308 308 309 311 311 307 309 309 311 311 310 309 308 309 310 311 313 315 313 313 313 315 315 315 314 314 314 315 315 316 318 320 321 320 322 326 330 330 331 330 331 334 335 334 334 335 336 336 337 339 340
287 290 290 286 280 283 294 299 304 303 312 312 310 310 310 310 311 311 310 310 310 311 311 311 311 312 313 314 314 314 315 314 314 314 314 313 313 313 313 313 314 314 317 319 319 319 321 326 328 329 328 329 329 331 332 331 331 331 331 333 334 335 336
288 285 284 278 280 292 300 300 301 308 312 311 310 306 309 311 311 311 310 310 311 312 312 312 313 312 313 313 313 313 315 315 314 315 314 314 313 313 313 313 313 314 317 319 318 319 325 325 326 327 327 328 328 328 331 331 330 330 330 330 330 332 331
284 286 282 286 292 296 294 297 297 298 302 307 307 300 303 310 311 311 310 311 312 312 313 313 313 313 311 308 308 312 314 313 315 316 315 315 314 314 314 314 314 316 318 318 319 320 320 321 322 323 325 326 326 326 327 330 330 330 329 329 330 330 331
288 282 284 283 282 284 289 296 301 301 304 310 311 307 301 310 312 313 312 311 312 312 313 313 313 312 307 302 303 308 310 311 312 314 315 314 313 312 313 315 316 317 317 317 319 318 318 320 320 322 323 323 322 323 325 328 328 329 329 328 330 330 329
289 284 281 283 278 286 292 296 300 302 307 310 309 305 298 304 310 312 312 311 312 312 311 311 312 308 302 301 303 307 309 310 311 310 310 311 313 314 315 315 315 316 317 318 318 318 317 317 319 321 322 323 323 322 323 324 323 322 325 329 329 329 329
291 287 283 285 290 288 297 299 300 299 301 300 301 291 292 300 307 312 312 311 311 312 312 312 309 306 302 303 306 309 309 310 310 310 310 311 313 314 315 315 316 316 317 315 314 315 315 316 318 320 321 322 326 324 322 322 321 321 322 324 327 330 329
289 293 288 289 291 298 302 301 301 300 302 293 286 281 291 300 305 309 312 313 313 313 311 310 306 306 308 309 309 310 311 310 310 311 312 313 314 314 315 317 321 313 313 313 313 314 315 317 318 319 320 321 321 322 321 318 319 321 322 324 324 324 324
286 285 283 286 291 298 300 299 307 306 298 285 281 289 301 304 304 307 310 308 309 311 308 305 305 306 308 310 309 309 309 309 309 310 312 313 313 316 320 321 317 312 313 312 313 314 315 317 319 318 318 319 319 319 316 316 317 321 322 322 322 322 323
287 286 285 285 282 295 306 302 299 304 292 290 294 303 305 306 305 305 306 307 306 307 305 306 306 307 307 308 309 309 309 309 308 309 309 309 309 309 310 312 317 314 311 311 312 312 314 315 316 317 317 318 318 318 314 315 318 321 321 322 322 322 324
285 284 283 283 289 296 306 300 292 300 303 306 307 304 302 305 305 304 304 305 306 307 305 305 305 306 306 307 308 308 308 308 309 309 309 309 309 310 311 313 314 315 311 312 312 313 313 314 313 315 315 315 318 316 313 316 319 320 319 321 321 322 324
291 288 290 295 298 303 307 308 306 308 309 309 307 306 304 304 303 305 304 303 304 305 305 305 305 305 306 307 308 307 307 307 307 307 308 308 308 308 309 311 315 312 311 311 311 311 312 313 313 314 314 314 315 313 314 318 317 316 318 320 321 322 321
299 301 300 304 305 306 306 307 308 307 307 307 307 306 304 304 304 304 304 304 304 304 305 305 304 305 305 306 306 307 307 307 307 309 308 308 308 309 309 310 312 311 310 311 311 311 312 313 313 315 313 313 312 312 314 316 315 315 317 319 321 322 322
290 290 299 301 303 305 305 306 306 306 306 306 306 306 306 305 306 305 306 305 304 303 304 304 304 304 306 306 306 307 306 307 306 306 306 307 307 307 307 311 313 310 310 310 312 313 312 311 312 313 312 312 313 313 314 314 315 315 316 318 319 319 317
289 292 299 302 305 305 306 305 303 302 303 305 306 308 308 307 307 306 306 306 305 304 303 304 304 304 306 306 305 305 305 305 305 305 306 306 307 308 310 311 310 308 307 307 310 311 310 309 311 311 311 311 312 312 313 314 315 315 317 318 317 315 316
297 299 301 302 303 302 303 305 305 304 303 304 306 307 307 307 307 306 306 306 305 305 304 304 304 305 305 306 306 305 304 305 305 305 306 307 308 308 307 308 309 305 309 311 310 310 309 309 309 310 310 311 312 311 312 314 315 315 316 317 317 315 315
291 294 297 301 295 295 300 304 306 307 306 304 306 306 306 306 305 305 305 305 306 305 305 304 306 305 304 306 306 305 305 305 304 305 306 306 306 306 307 310 307 311 312 310 310 310 307 308 309 310 310 310 310 311 312 314 314 313 315 315 315 315 316
290 299 301 302 299 299 303 305 307 307 307 305 304 305 305 306 306 306 305 304 303 304 305 305 306 305 305 305 306 306 305 305 305 306 306 305 305 305 307 306 307 308 309 311 310 309 307 310 309 310 310 308 308 310 312 313 312 311 312 314 315 314 316
301 302 303 305 302 302 305 307 307 308 308 307 307 308 307 306 306 306 305 305 303 303 304 305 308 306 305 305 306 305 305 305 304 304 306 306 305 306 306 307 308 308 308 308 307 307 306 308 307 308 308 308 308 310 311 310 311 310 310 312 312 313 314
300 305 306 306 307 307 309 309 309 310 313 311 308 309 312 311 310 309 305 304 304 305 304 305 306 307 306 305 305 305 305 304 306 306 308 309 307 307 307 308 307 307 307 305 305 305 306 308 307 308 306 307 308 309 309 310 310 309 310 311 311 312 314

ECMWFFLT2_sfc_thetae_117.txt.gz
Theta_e
304 305 306 305 303 295 298 300 297 300 304 302 298 305 309 307 304 300 309 308 312 317 320 322 325 326 327 329 330 332 332 333 334 335 336 337 338 338 338 338 338 342 341 341 336 335 336 338 338 340 342 343 343 344 345 344 345 347 346 349 348 348 348
304 304 305 304 303 302 297 295 297 302 303 301 298 295 296 295 296 300 307 303 305 308 304 320 322 322 323 324 327 330 332 331 329 332 335 337 338 338 340 340 343 343 343 343 343 335 337 337 339 340 342 344 344 345 346 345 346 346 346 348 349 349 348
301 302 304 301 303 302 302 298 300 299 294 295 294 300 291 292 293 297 302 304 305 307 308 316 317 320 320 321 325 328 330 331 331 332 335 338 339 339 340 340 340 342 344 343 341 342 337 337 340 341 343 344 344 345 347 346 346 348 347 348 350 350 350
300 298 299 294 296 301 301 303 300 301 296 292 291 294 297 300 295 297 298 304 300 308 309 316 318 320 320 321 322 323 326 328 330 332 334 336 337 339 341 341 342 343 344 343 343 343 343 340 338 341 343 345 344 345 347 346 347 349 348 347 350 350 351
298 296 293 294 293 294 297 295 294 297 297 298 295 296 301 298 297 297 295 294 299 306 315 320 321 322 321 321 321 323 325 328 330 332 332 334 336 337 340 341 342 345 344 345 346 347 347 346 346 343 344 344 345 345 347 347 345 347 349 348 349 350 351
291 292 295 297 296 296 295 292 294 294 293 293 290 288 300 302 298 292 294 291 302 313 321 320 321 321 320 322 323 323 325 327 329 332 334 335 334 337 339 341 344 344 344 346 347 347 346 344 344 343 344 345 346 345 347 348 347 348 350 350 349 350 351
292 296 299 302 299 297 295 296 295 295 293 293 288 285 295 302 302 304 299 298 302 316 320 323 322 321 322 324 323 322 324 325 326 329 332 333 334 335 338 341 343 344 345 346 348 347 346 346 345 346 347 347 347 347 348 349 348 348 351 351 351 351 352
294 296 297 300 300 298 298 296 296 295 294 293 292 291 301 299 301 297 295 297 304 316 320 321 323 321 321 320 321 322 323 325 326 327 329 331 333 334 335 337 339 342 344 344 344 344 345 346 346 346 346 347 348 348 349 349 349 348 350 351 352 351 351
288 290 291 297 299 295 293 294 296 297 302 304 302 304 301 299 299 299 297 294 303 313 320 319 319 318 318 318 319 321 320 324 326 326 327 328 331 333 333 334 336 338 338 338 339 341 343 344 345 344 344 345 346 347 348 349 348 350 350 351 350 349 351
283 282 283 287 290 290 292 295 297 306 308 307 305 299 296 291 298 300 299 300 308 315 318 318 317 316 315 317 319 320 321 322 324 325 325 326 327 328 331 333 335 335 336 337 338 339 341 343 344 345 346 347 347 346 346 347 348 350 350 351 348 348 348
284 285 286 292 301 293 291 294 297 301 304 304 303 300 296 294 297 299 301 306 307 310 314 315 314 314 314 314 316 318 320 322 323 323 323 325 325 326 327 328 331 333 334 335 337 338 339 341 342 344 346 346 348 347 346 347 349 348 348 349 348 347 348
292 292 293 295 298 292 294 295 296 300 303 304 304 301 297 302 301 290 301 310 307 309 313 314 313 313 314 315 316 318 320 321 321 321 323 325 324 326 327 327 327 328 330 333 336 337 338 339 340 342 344 346 346 345 346 346 347 348 348 348 348 349 348
294 293 292 294 294 293 294 295 297 299 301 304 303 301 305 305 301 298 305 310 308 310 312 313 313 313 314 315 317 319 321 321 321 321 320 320 321 323 324 325 325 325 326 327 329 334 338 339 339 341 342 343 344 345 345 346 347 347 350 348 347 347 347
294 294 293 294 295 296 298 300 305 305 305 305 306 305 306 304 302 307 309 308 308 311 312 313 314 316 316 317 320 320 319 319 320 319 319 319 320 320 323 324 325 325 326 327 328 330 333 337 339 340 340 340 341 341 342 343 343 346 348 346 346 346 346
292 294 295 294 294 296 295 295 300 307 307 308 308 308 308 310 308 309 309 307 306 311 314 314 315 317 317 317 317 318 318 319 319 319 318 318 318 319 320 323 324 324 326 327 328 329 331 334 336 336 337 337 339 340 340 341 341 343 343 342 342 343 343
289 293 293 292 293 294 294 294 294 294 302 304 306 305 308 307 304 306 307 304 304 308 313 314 314 314 314 313 314 315 316 317 317 317 318 317 317 318 319 320 322 323 324 326 326 328 328 331 333 334 334 335 336 336 338 339 341 342 341 340 339 340 342
288 292 294 293 291 289 289 290 293 295 301 306 307 308 311 310 310 305 303 304 310 310 313 311 312 313 312 313 314 314 314 315 315 315 315 316 315 315 317 318 319 318 320 322 325 326 327 329 330 333 334 333 332 334 334 336 338 338 338 338 338 338 339
289 292 293 293 287 283 285 293 298 298 305 307 305 305 308 309 309 307 309 308 309 311 311 311 310 311 311 313 314 316 314 313 313 313 313 313 313 313 314 316 316 317 319 321 324 326 326 327 329 332 332 333 331 331 332 332 332 333 333 334 335 335 337
288 290 291 288 281 284 293 298 300 299 306 309 306 306 307 307 308 309 307 308 309 311 312 312 312 312 313 314 314 314 315 314 313 312 311 311 313 313 314 315 317 318 319 320 321 323 324 326 326 326 326 329 330 330 330 329 330 330 330 331 332 332 333
290 288 285 281 285 294 297 299 311 312 311 310 309 305 307 308 308 309 307 308 309 310 311 312 313 313 313 313 314 314 314 314 312 311 310 311 312 312 313 314 314 315 316 317 318 319 323 321 322 322 323 326 327 328 330 329 329 330 330 330 330 332 331
287 287 286 287 292 294 295 296 301 297 302 307 306 299 300 306 310 309 307 308 309 310 311 312 312 312 312 309 308 313 314 313 313 312 311 311 312 313 314 315 315 316 317 317 318 319 319 320 321 321 322 323 324 324 324 324 324 325 327 328 329 330 330
288 285 285 284 282 283 288 294 298 301 301 309 309 305 299 306 312 311 309 308 309 309 310 310 310 311 307 303 303 308 313 314 312 312 312 313 314 314 314 314 315 315 315 316 318 317 317 318 319 321 323 322 321 321 321 321 321 321 322 322 325 327 326
288 285 283 282 279 283 290 294 298 299 301 311 310 304 296 304 308 311 311 309 309 309 308 308 310 307 302 300 302 306 312 312 311 310 311 313 313 313 314 314 314 315 315 317 317 317 316 316 317 320 321 322 319 318 319 319 319 319 320 322 322 323 323
290 284 283 285 287 288 296 297 299 298 298 305 304 292 293 304 308 311 311 310 310 309 309 310 309 304 300 300 302 309 311 310 310 311 311 311 312 312 313 313 314 315 317 316 314 314 314 315 317 319 319 319 321 318 316 316 317 318 319 320 322 322 323
291 292 286 287 289 295 299 298 298 301 302 296 290 286 297 305 307 311 312 311 312 312 311 310 307 308 308 307 308 309 309 309 309 311 312 312 312 312 313 315 319 312 312 313 313 313 313 315 316 318 318 317 316 317 315 314 315 317 318 320 322 322 323
284 282 281 283 286 292 297 298 301 302 299 286 282 291 297 303 309 310 313 312 312 312 311 309 306 306 308 310 309 308 309 309 310 311 312 312 313 314 318 318 315 311 312 311 312 312 313 315 316 316 317 317 315 313 312 313 314 316 317 318 319 320 322
286 283 282 283 281 293 303 302 296 299 290 287 288 296 302 304 307 310 311 311 312 312 306 306 307 307 308 308 308 308 309 310 310 310 310 310 310 310 310 312 315 313 310 310 310 311 312 313 314 314 316 315 313 312 310 312 314 315 316 316 318 319 322
283 281 282 283 288 292 301 299 291 295 300 299 300 300 299 302 305 309 309 308 310 308 306 306 307 307 307 306 307 308 308 309 308 308 308 308 309 309 311 312 312 315 310 310 310 311 312 312 312 312 313 313 314 312 310 313 314 316 315 316 317 319 321
289 287 287 291 294 298 303 303 301 304 306 305 302 302 301 302 302 304 307 304 306 307 307 307 306 306 306 306 307 306 306 307 307 307 307 308 308 309 310 311 314 311 309 308 309 310 310 311 311 311 311 312 313 310 310 315 314 314 315 317 318 318 316
296 297 297 299 303 303 303 303 304 304 304 304 303 304 302 302 302 304 306 304 306 306 307 306 305 306 306 306 306 306 306 306 306 308 306 307 308 309 310 310 310 309 309 309 309 309 308 309 310 312 310 310 310 309 312 314 314 314 316 317 318 317 316
290 290 294 300 301 301 301 301 302 303 304 304 303 303 302 302 302 303 304 306 307 306 307 307 306 306 307 306 306 306 305 306 306 306 306 306 307 307 307 309 310 308 309 309 309 309 307 307 308 310 308 310 310 310 312 313 313 313 315 316 317 315 314
288 290 295 299 301 301 302 302 300 301 303 305 305 303 303 303 303 303 302 304 304 305 305 306 306 306 306 305 305 305 305 305 305 305 305 305 306 307 308 308 308 307 307 307 308 308 308 305 308 309 308 308 308 309 311 312 311 312 314 315 314 312 313
294 297 298 300 300 300 302 304 304 303 302 304 305 304 304 304 303 303 303 304 303 304 304 305 306 305 304 305 305 305 304 304 304 304 305 306 306 306 306 307 309 307 308 308 308 308 306 306 307 307 307 307 308 308 309 309 308 310 312 313 314 312 313
290 291 296 298 295 295 298 302 303 304 303 303 303 303 303 303 303 302 303 302 303 304 304 305 306 304 304 304 305 304 304 304 303 304 305 305 305 304 305 308 308 309 310 308 307 308 305 306 307 307 306 306 307 309 308 308 308 309 310 311 311 310 312
288 293 296 299 296 298 301 303 305 304 304 304 304 303 303 303 303 303 303 301 301 302 303 306 306 305 305 304 304 304 304 303 304 306 305 304 304 304 305 306 305 307 307 309 309 308 306 308 308 308 306 305 305 307 307 307 307 307 306 309 310 309 313
299 299 299 300 299 300 303 304 305 305 305 306 305 305 305 304 305 305 304 303 303 301 303 304 306 306 305 305 305 304 303 303 304 305 305 305 304 305 306 306 307 307 306 307 306 307 306 307 305 305 306 305 304 306 306 307 307 306 306 307 307 307 309
300 302 301 302 302 303 305 306 306 308 311 307 305 305 307 306 308 308 305 303 302 303 303 304 304 306 306 305 305 304 303 303 306 306 307 308 306 306 306 306 306 306 306 305 304 305 305 305 305 306 304 304 304 305 306 306 306 306 306 307 306 306 310

ECMWFFLT2_sfc_thetae_120.txt.gz
Theta_e
300 301 302 301 312 298 301 306 303 306 309 305 301 305 306 307 303 301 307 306 311 317 319 324 327 327 328 331 330 329 329 333 334 335 337 337 338 338 337 333 329 330 332 333 335 336 336 337 337 340 341 343 344 345 345 344 345 346 345 348 347 347 348
301 300 302 303 306 302 302 300 305 302 305 306 302 297 293 295 296 300 306 302 303 304 302 321 323 322 324 327 330 331 330 331 332 334 335 337 338 339 340 341 341 335 332 333 334 335 337 337 338 339 342 343 344 345 345 344 344 344 345 347 347 347 348
300 301 302 299 301 302 309 307 308 300 294 297 296 300 290 291 292 296 302 304 305 306 306 316 318 319 321 323 327 329 329 330 330 333 335 337 339 339 340 341 341 340 337 334 334 335 336 337 340 339 342 343 344 345 346 345 345 345 346 347 348 349 348
298 298 298 292 294 300 300 303 300 299 296 294 297 299 298 299 295 297 297 302 298 304 307 316 319 320 321 322 324 326 329 330 330 332 335 336 337 337 339 341 342 342 342 340 337 335 336 337 338 339 342 343 343 344 346 346 346 347 347 347 349 348 349
297 294 294 294 294 293 295 297 295 297 295 298 299 296 299 298 296 295 294 293 299 303 314 318 320 320 322 323 323 324 326 329 332 332 334 335 337 337 338 341 342 343 343 344 343 339 337 338 340 340 342 343 343 344 345 347 345 346 347 347 348 349 350
292 290 293 297 297 300 298 295 294 294 294 296 294 290 297 300 297 292 292 291 299 310 320 322 321 321 323 324 324 324 327 330 332 334 335 336 337 339 339 341 344 343 344 345 345 345 343 340 339 339 341 343 344 343 345 346 347 347 348 348 348 349 350
290 294 297 298 297 296 295 298 296 294 293 295 289 288 294 300 300 302 297 292 297 315 321 322 321 322 324 324 324 323 325 327 329 332 335 336 338 339 341 342 341 340 344 346 346 345 343 342 341 340 342 343 343 344 346 347 346 347 350 350 350 351 351
292 294 295 300 297 297 297 295 294 294 294 292 292 294 300 298 299 296 292 292 299 315 322 322 322 322 322 323 324 323 324 325 326 327 330 332 334 337 339 340 342 342 343 344 344 344 345 345 344 343 343 344 344 344 347 348 347 348 350 352 351 351 351
286 288 293 294 296 294 291 292 294 297 300 300 298 303 300 299 299 297 295 290 300 315 320 320 319 319 319 320 322 324 323 325 325 326 327 331 333 334 337 338 339 340 340 340 341 343 343 344 345 345 345 346 347 347 349 350 349 351 352 353 353 352 352
282 282 282 283 290 291 291 293 302 305 305 305 304 300 295 289 297 298 295 296 307 315 318 317 317 317 317 321 322 323 324 324 324 325 327 327 329 332 334 336 337 337 337 339 340 341 343 344 344 344 345 346 347 348 349 350 350 351 351 352 352 352 353
282 283 285 290 300 291 291 295 299 303 303 304 302 299 295 293 296 299 297 303 307 310 313 313 315 316 316 318 321 321 321 322 323 324 324 326 326 327 329 332 335 335 336 337 338 340 342 344 345 346 346 346 345 346 347 349 350 350 350 349 349 349 351
291 290 291 290 299 291 292 296 299 301 302 303 303 299 294 299 300 292 297 308 307 309 312 313 314 315 317 319 320 320 321 322 322 323 324 325 325 325 326 327 330 332 334 336 337 338 340 342 344 345 345 345 344 345 345 347 348 349 349 349 349 349 349
291 291 290 292 294 294 297 300 298 302 301 303 301 300 301 304 298 296 302 308 308 311 313 314 314 315 316 317 319 320 321 321 322 321 321 321 322 324 324 325 328 331 331 333 336 338 339 339 340 340 341 343 344 344 346 346 347 347 348 348 348 347 347
292 292 292 294 299 297 298 300 303 303 303 303 303 304 304 302 300 302 308 309 310 314 313 314 314 316 317 319 321 321 320 320 320 319 319 319 320 322 323 325 327 329 331 333 333 334 334 335 336 337 338 339 340 341 342 345 345 347 348 347 347 346 346
291 292 294 292 294 298 295 294 296 300 305 306 307 307 309 310 308 309 310 310 309 314 315 314 315 317 318 319 319 318 319 319 319 318 318 318 319 322 324 325 327 328 329 330 331 331 332 332 333 334 335 336 338 338 339 340 341 343 344 343 343 343 344
288 291 292 292 292 295 294 293 295 294 297 303 305 304 307 306 306 308 309 307 307 312 314 315 316 316 317 316 317 317 318 318 318 317 317 317 318 319 321 324 325 326 327 328 329 329 330 330 331 331 332 333 333 334 336 337 339 340 340 339 339 340 341
288 292 293 292 290 294 291 290 293 296 301 303 306 307 310 310 311 307 305 306 313 312 315 313 313 315 315 315 316 316 317 317 317 316 316 317 318 319 320 321 322 324 326 326 327 327 327 327 328 330 330 330 330 331 332 334 335 335 336 337 337 337 338
287 291 292 294 286 284 286 294 296 297 303 305 303 303 307 308 307 306 308 310 312 313 313 312 312 313 313 314 315 318 316 315 314 315 315 316 317 318 319 320 322 323 324 325 326 327 327 329 330 332 332 331 331 333 333 333 332 332 332 332 333 334 335
286 288 290 289 281 283 294 301 303 299 305 307 305 304 304 306 308 309 309 311 312 313 314 314 314 313 314 315 315 315 315 315 313 313 313 314 317 318 318 319 319 320 321 322 322 323 324 326 327 327 328 328 327 328 330 330 331 331 331 331 331 331 331
288 284 283 280 284 294 297 303 307 311 310 309 308 305 305 305 307 310 309 310 312 313 313 313 313 313 313 314 314 314 314 314 312 312 313 316 317 318 318 317 318 318 319 319 320 321 324 323 323 323 323 324 323 323 325 324 325 325 327 327 328 330 330
286 286 286 288 291 296 298 294 298 296 300 304 302 298 301 304 308 310 309 310 311 311 312 312 312 313 313 310 309 313 313 312 313 313 314 316 316 316 317 317 317 318 319 319 321 322 322 322 322 321 322 322 321 321 321 322 322 322 322 323 324 325 328
292 286 285 283 281 283 289 296 297 300 299 300 304 300 299 304 310 311 311 310 310 310 311 311 312 313 309 305 306 311 312 312 312 313 314 315 315 316 315 316 316 316 317 318 320 319 319 320 321 321 320 319 319 318 318 319 319 319 321 321 323 325 326
288 288 282 282 279 286 290 294 297 299 299 304 306 299 295 302 308 310 312 310 310 310 310 310 312 309 304 303 306 309 311 311 313 313 313 314 314 314 314 315 315 316 317 318 318 319 318 318 318 320 319 318 317 316 317 316 317 317 318 320 321 322 324
289 287 286 285 286 288 296 296 297 299 300 306 300 290 290 302 308 310 311 310 310 311 311 312 311 308 303 304 308 311 311 311 312 313 312 312 312 313 314 315 316 317 319 316 315 315 316 316 318 317 317 318 318 315 315 315 315 315 316 318 321 323 324
290 290 285 287 291 297 299 299 299 299 301 299 291 285 295 306 308 310 311 311 311 312 311 312 309 309 310 312 312 312 310 311 311 312 313 313 313 313 314 316 318 313 313 314 313 314 315 316 317 317 315 314 314 316 315 314 314 315 316 319 321 323 323
284 281 282 285 288 296 300 300 301 302 302 291 287 295 299 308 309 311 312 311 311 312 312 311 309 308 311 313 311 310 310 311 311 311 311 312 313 315 318 318 314 311 312 312 312 313 314 316 316 315 315 314 314 314 313 313 314 316 317 318 320 321 321
285 281 282 282 282 294 304 303 299 301 294 291 290 296 301 308 311 311 311 311 311 312 308 307 307 309 310 310 309 309 310 310 310 310 311 311 312 312 311 312 315 313 310 310 310 311 312 313 314 315 315 314 313 313 312 313 315 317 318 318 319 320 320
283 281 284 284 289 293 298 301 295 296 300 299 296 299 303 305 310 311 310 310 311 311 308 306 307 309 309 308 309 309 310 310 310 310 311 311 310 311 312 312 312 313 310 310 310 310 311 312 312 313 314 314 314 312 311 314 315 318 318 318 319 318 319
289 288 287 291 294 297 300 301 299 301 304 304 300 301 303 306 308 309 311 309 308 308 308 308 308 308 309 308 309 309 309 309 309 309 309 309 310 310 311 312 313 311 309 309 309 309 310 311 311 311 313 314 314 311 311 315 314 315 317 318 319 316 316
295 296 296 298 300 301 302 302 303 302 303 303 302 304 304 305 306 311 311 309 307 307 308 307 308 308 308 307 308 309 309 308 308 309 308 309 310 310 310 310 311 310 309 309 309 309 309 310 310 312 311 312 311 311 312 313 313 314 316 317 317 315 315
289 289 294 298 299 300 301 301 302 302 303 303 302 302 302 303 305 306 307 308 309 310 311 310 308 307 308 308 308 308 307 307 307 307 308 308 309 309 308 310 311 308 308 308 309 309 308 308 309 310 310 311 312 312 312 311 312 313 316 316 316 314 313
290 292 295 299 300 301 301 301 301 301 301 303 302 303 303 303 304 307 311 312 312 311 308 308 307 307 307 307 307 307 306 306 306 307 307 308 308 308 309 311 310 308 308 308 308 309 308 307 309 309 309 309 309 310 310 310 310 312 314 315 313 311 313
293 296 298 299 300 300 301 303 303 302 301 302 302 302 302 303 303 305 306 311 312 308 307 310 309 308 308 306 308 307 306 305 306 306 307 307 308 307 308 309 310 307 308 309 309 309 308 307 307 308 308 308 309 309 309 310 310 311 312 313 312 311 313
290 292 296 296 295 295 298 302 303 303 302 302 302 302 302 302 302 303 303 303 306 307 308 309 308 308 306 308 308 306 306 306 306 306 307 307 307 306 308 309 308 309 310 309 309 308 306 306 307 307 307 308 308 309 309 309 309 310 311 311 311 310 313
290 292 294 297 297 297 301 301 304 303 304 304 303 302 301 302 302 302 302 302 303 305 306 309 308 307 306 306 307 306 306 306 306 307 307 306 305 306 307 307 307 308 308 310 310 308 307 308 308 308 307 307 307 308 308 309 309 308 309 311 310 309 313
299 299 298 298 298 300 303 304 304 305 305 305 305 305 305 305 304 303 302 303 303 304 305 306 308 307 306 307 307 306 306 306 306 306 307 307 306 307 308 307 307 308 309 309 308 308 307 308 307 307 307 306 307 308 308 308 308 308 308 309 308 309 311
300 302 299 299 301 302 303 304 305 305 309 307 305 308 309 308 308 306 303 302 302 303 304 305 306 308 307 306 307 306 305 305 307 307 309 308 308 308 307 307 307 308 308 308 307 307 307 306 305 307 305 306 307 307 307 307 308 308 308 309 308 310 313

ECMWFFLT2_sfc_thetae_123.txt.gz
Theta_e
306 307 306 308 314 300 311 313 304 306 318 312 310 310 312 310 306 305 313 311 315 321 322 326 329 328 330 332 333 333 333 335 335 337 339 341 343 342 337 334 337 340 341 343 344 346 346 347 348 348 351 353 354 355 355 356 357 357 357 360 359 360 361
306 308 308 311 315 317 311 305 310 312 316 316 310 301 306 305 300 305 309 307 310 310 309 324 325 325 327 329 330 331 333 334 333 335 338 342 343 344 344 338 338 339 340 342 343 344 346 347 347 349 352 353 355 355 355 355 356 356 356 357 357 359 360
304 306 307 307 309 313 312 309 318 306 302 302 311 308 299 299 298 303 306 308 309 311 312 318 320 322 324 327 330 330 330 332 333 335 338 341 343 344 343 341 338 337 339 341 344 344 345 347 349 350 351 351 353 354 354 355 354 355 355 355 357 359 359
303 305 305 299 304 311 310 317 314 307 310 307 306 306 309 306 300 300 303 305 305 315 317 320 321 323 324 326 328 328 330 332 333 334 336 339 340 342 344 344 341 339 339 341 344 345 344 346 347 348 350 350 350 351 353 354 354 356 356 356 357 357 357
303 300 303 301 304 303 305 308 309 305 306 308 312 310 308 305 303 302 302 301 308 315 320 322 324 325 327 327 327 329 331 332 335 338 338 338 339 341 344 345 345 344 343 342 344 345 346 347 348 349 349 350 351 351 352 353 353 353 354 354 356 357 357
300 302 305 305 306 307 306 307 307 307 305 305 302 301 309 309 306 299 301 300 310 315 324 323 325 327 327 329 329 329 331 333 335 337 340 341 340 340 343 346 345 345 347 347 344 344 346 347 348 347 348 349 352 350 352 353 355 355 355 355 356 357 358
300 301 302 304 304 306 308 309 308 309 309 310 305 298 305 309 309 309 308 305 310 320 324 326 327 327 327 328 329 329 330 332 335 337 338 341 343 342 343 344 346 347 349 348 348 346 344 345 346 347 349 348 349 350 353 354 355 355 355 356 357 360 358
301 302 302 303 303 305 305 305 305 307 306 308 308 307 312 308 308 305 305 303 310 319 324 326 327 327 327 328 328 328 328 331 333 335 337 339 340 342 343 344 345 346 350 350 349 347 346 346 347 348 350 350 349 350 352 354 354 356 355 358 359 360 359
298 300 302 302 303 304 304 304 304 307 309 308 311 315 316 309 308 309 304 298 309 317 323 324 325 325 325 326 327 329 328 330 331 332 334 336 340 341 342 343 344 345 345 346 348 349 349 349 349 350 351 352 352 353 355 355 355 357 358 360 359 359 359
290 290 292 294 297 300 301 305 306 310 308 311 310 307 309 301 309 308 306 307 312 318 320 321 322 323 323 325 326 329 331 329 329 330 331 333 333 334 340 340 343 342 343 345 345 346 349 351 351 351 352 353 354 355 355 357 357 357 360 361 360 360 359
297 299 300 297 306 301 300 302 306 306 312 312 315 315 308 302 309 308 311 314 310 312 316 317 319 321 320 321 324 325 326 327 328 329 329 328 328 329 329 338 341 343 342 343 344 346 347 348 350 352 352 353 354 356 357 359 360 359 362 362 362 361 361
297 296 298 298 299 300 302 303 305 309 309 311 311 307 304 316 308 305 312 316 311 312 316 317 318 321 322 323 325 325 326 326 326 327 328 328 330 330 332 335 338 339 340 342 343 344 346 347 348 349 350 351 352 354 354 356 358 358 358 360 361 360 360
298 298 301 303 306 307 307 308 308 308 309 310 308 311 311 313 306 302 313 315 314 315 316 318 320 321 322 323 325 327 327 325 326 327 326 326 327 330 331 331 336 338 338 339 342 342 342 343 344 346 347 349 350 351 353 354 354 355 357 357 357 357 357
299 301 303 306 306 304 306 307 309 310 309 310 312 310 311 312 312 313 315 316 316 317 318 320 322 324 324 324 326 327 326 325 326 325 325 325 326 328 328 329 330 333 333 334 334 336 336 337 339 341 341 343 345 346 347 349 351 354 355 355 356 356 356
298 300 303 303 304 305 303 304 306 310 312 313 313 313 314 315 315 315 316 315 314 319 322 323 325 325 324 324 324 324 325 325 324 325 324 325 325 326 327 327 328 329 330 330 330 330 332 333 336 336 337 338 340 342 344 346 347 351 352 350 348 348 351
297 298 299 300 301 303 305 303 304 304 307 310 312 313 314 315 313 315 315 313 312 317 323 323 323 322 322 322 322 323 324 324 325 324 323 324 324 324 324 326 327 326 327 327 327 328 328 329 330 331 332 334 335 335 338 340 342 345 344 344 345 347 348
295 298 299 299 299 302 301 301 304 304 306 311 312 314 315 317 318 313 312 314 318 319 321 319 319 320 321 321 322 323 324 325 325 324 323 324 324 324 324 325 324 325 325 326 327 328 329 329 330 331 332 331 332 333 334 336 337 337 337 338 340 340 342
297 298 300 303 299 294 295 308 309 306 304 312 311 311 313 314 316 315 318 318 319 319 319 318 317 319 320 322 323 325 324 323 323 324 324 324 324 325 324 323 322 325 327 327 329 329 328 328 328 329 330 328 328 331 333 333 332 333 333 333 333 334 336
296 300 302 297 291 293 308 312 311 307 307 314 312 312 313 313 316 317 317 317 318 319 320 320 320 321 322 323 322 324 325 324 324 323 323 323 324 324 323 322 322 324 326 327 329 328 328 327 326 326 325 326 327 327 328 328 329 330 331 331 331 332 334
299 297 296 288 291 305 308 308 305 312 316 316 314 311 312 314 317 319 317 317 319 320 320 321 321 321 320 321 322 322 322 324 323 323 323 324 323 322 323 324 324 324 325 326 326 326 326 325 324 327 326 326 325 324 326 326 327 328 328 328 330 330 332
294 296 297 294 301 301 303 301 300 302 304 307 308 307 310 313 317 320 317 318 319 320 319 320 320 320 320 318 317 319 321 322 325 326 325 325 323 322 323 324 323 325 326 327 326 326 325 323 322 322 324 325 325 325 324 325 325 326 327 327 327 328 329
300 297 294 294 294 293 298 300 303 305 304 305 306 312 310 314 317 321 319 318 319 317 318 319 320 320 317 313 314 317 319 321 323 325 324 323 323 323 323 324 324 325 325 326 326 324 323 323 322 322 323 322 322 322 322 323 323 324 325 325 326 327 327
296 298 294 293 290 295 300 301 302 304 305 304 308 309 307 314 318 320 321 319 318 318 318 319 320 317 311 311 316 317 318 321 323 322 322 322 322 323 323 323 323 323 323 323 323 323 322 321 323 325 324 323 322 321 321 321 323 322 322 324 324 324 326
300 297 294 292 298 296 300 304 305 306 307 309 310 296 298 314 317 321 321 318 318 319 320 321 319 316 311 314 317 319 319 322 323 322 320 320 321 322 323 324 325 326 326 325 322 321 320 320 322 324 324 323 322 321 321 321 320 321 323 324 326 326 327
297 298 296 297 298 303 305 304 306 309 307 308 301 292 301 316 318 320 321 319 320 320 319 321 316 319 321 321 323 318 319 321 321 322 322 322 321 320 321 321 324 323 323 322 320 320 322 323 322 322 322 321 321 321 321 321 321 322 325 326 327 327 327
295 296 295 295 298 302 305 308 308 308 307 302 298 306 310 318 318 320 321 320 321 321 320 320 321 321 320 323 318 317 319 320 320 320 320 320 321 321 322 323 322 320 320 320 320 319 321 320 321 322 322 321 320 320 319 318 321 325 327 328 328 328 327
296 297 294 292 289 301 306 307 306 307 302 306 307 309 313 318 319 320 320 321 321 322 320 320 319 319 319 318 317 317 319 319 319 319 319 319 319 319 319 320 320 319 318 317 317 319 319 320 321 322 321 320 319 319 317 318 322 325 326 327 328 328 328
294 294 292 291 301 305 307 307 301 304 307 309 310 312 314 317 320 320 320 321 322 322 321 318 318 318 318 317 318 318 319 319 319 319 320 320 319 319 318 319 319 319 317 317 316 318 319 320 321 322 321 319 318 317 317 320 322 324 325 326 327 326 327
300 297 300 305 308 308 308 309 309 309 311 311 311 311 316 317 318 322 320 320 321 321 320 319 318 317 318 317 318 318 318 318 318 318 318 318 318 318 318 317 319 318 317 316 316 316 318 319 320 321 320 318 317 315 317 319 320 322 324 324 324 324 325
305 305 306 308 309 308 309 309 308 308 309 311 310 310 314 318 320 321 320 319 319 318 319 317 317 318 318 316 317 318 318 317 318 319 318 318 319 319 319 318 319 318 317 317 317 316 317 319 319 319 318 318 315 315 316 318 319 322 322 323 323 323 324
300 296 307 307 307 308 309 310 311 310 310 309 310 311 313 317 319 319 319 318 318 317 319 319 318 316 315 316 317 317 317 317 317 317 317 318 318 318 318 318 318 317 317 315 315 315 315 316 316 316 316 315 316 316 316 316 318 322 322 322 322 322 322
301 302 306 307 308 309 311 311 310 309 310 310 310 310 311 315 319 319 318 319 317 318 319 319 318 315 315 316 316 316 316 316 317 317 318 318 319 320 320 319 319 318 317 316 316 315 315 316 316 315 314 314 315 316 315 315 318 320 320 321 320 320 320
303 306 308 309 309 310 311 312 312 311 310 311 310 312 314 317 318 319 321 322 319 319 318 319 316 315 315 316 316 315 315 315 316 317 318 318 319 319 318 318 319 318 318 317 317 316 315 315 315 314 314 314 315 315 316 318 320 319 317 318 319 319 319
300 302 306 308 304 304 307 310 311 312 313 314 311 311 311 313 315 316 316 316 318 318 318 318 317 316 316 316 316 315 315 315 316 316 317 318 318 318 319 319 319 319 319 318 317 315 315 315 315 314 314 314 314 314 316 317 319 318 318 317 318 317 319
300 305 308 310 311 309 309 310 313 314 315 315 313 312 311 310 311 314 315 315 315 315 316 318 317 317 316 316 317 316 315 315 317 317 317 317 317 318 318 317 317 318 318 318 317 315 315 315 314 314 313 312 313 314 316 317 318 318 319 317 316 316 317
308 310 310 310 312 308 309 312 314 315 317 317 315 316 315 313 313 313 313 313 315 315 316 317 318 318 317 317 317 315 315 315 316 317 318 318 319 318 318 317 317 318 317 317 316 315 315 315 314 313 312 312 313 313 315 316 317 318 318 317 316 316 316
309 313 312 312 314 312 313 314 314 315 318 318 316 315 315 315 315 314 314 315 315 315 314 314 315 317 318 318 317 316 314 314 316 316 317 317 317 317 316 316 317 317 317 317 317 316 315 315 314 312 311 311 313 312 314 315 315 316 316 316 316 315 316